<?xml version="1.0"?>
<gpx xmlns="http://www.topografix.com/GPX/1/1" xmlns:xsi="http://www.w3.org/2001/XMLSchema-instance" xmlns:wptx1="http://www.garmin.com/xmlschemas/WaypointExtension/v1" xmlns:gpxtrx="http://www.garmin.com/xmlschemas/GpxExtensions/v3" xmlns:gpxtpx="http://www.garmin.com/xmlschemas/TrackPointExtension/v1" xmlns:gpxx="http://www.garmin.com/xmlschemas/GpxExtensions/v3" xmlns:trp="http://www.garmin.com/xmlschemas/TripExtensions/v1" xmlns:adv="http://www.garmin.com/xmlschemas/AdventuresExtensions/v1" xmlns:prs="http://www.garmin.com/xmlschemas/PressureExtension/v1" xmlns:tmd="http://www.garmin.com/xmlschemas/TripMetaDataExtensions/v1" xmlns:vptm="http://www.garmin.com/xmlschemas/ViaPointTransportationModeExtensions/v1" xmlns:ctx="http://www.garmin.com/xmlschemas/CreationTimeExtension/v1" xmlns:gpxacc="http://www.garmin.com/xmlschemas/AccelerationExtension/v1" xmlns:gpxpx="http://www.garmin.com/xmlschemas/PowerExtension/v1" xmlns:vidx1="http://www.garmin.com/xmlschemas/VideoExtension/v1" creator="Garmin Desktop App" version="1.1" xsi:schemaLocation="http://www.topografix.com/GPX/1/1 http://www.topografix.com/GPX/1/1/gpx.xsd http://www.garmin.com/xmlschemas/WaypointExtension/v1 http://www8.garmin.com/xmlschemas/WaypointExtensionv1.xsd http://www.garmin.com/xmlschemas/TrackPointExtension/v1 http://www.garmin.com/xmlschemas/TrackPointExtensionv1.xsd http://www.garmin.com/xmlschemas/GpxExtensions/v3 http://www8.garmin.com/xmlschemas/GpxExtensionsv3.xsd http://www.garmin.com/xmlschemas/ActivityExtension/v1 http://www8.garmin.com/xmlschemas/ActivityExtensionv1.xsd http://www.garmin.com/xmlschemas/AdventuresExtensions/v1 http://www8.garmin.com/xmlschemas/AdventuresExtensionv1.xsd http://www.garmin.com/xmlschemas/PressureExtension/v1 http://www.garmin.com/xmlschemas/PressureExtensionv1.xsd http://www.garmin.com/xmlschemas/TripExtensions/v1 http://www.garmin.com/xmlschemas/TripExtensionsv1.xsd http://www.garmin.com/xmlschemas/TripMetaDataExtensions/v1 http://www.garmin.com/xmlschemas/TripMetaDataExtensionsv1.xsd http://www.garmin.com/xmlschemas/ViaPointTransportationModeExtensions/v1 http://www.garmin.com/xmlschemas/ViaPointTransportationModeExtensionsv1.xsd http://www.garmin.com/xmlschemas/CreationTimeExtension/v1 http://www.garmin.com/xmlschemas/CreationTimeExtensionsv1.xsd http://www.garmin.com/xmlschemas/AccelerationExtension/v1 http://www.garmin.com/xmlschemas/AccelerationExtensionv1.xsd http://www.garmin.com/xmlschemas/PowerExtension/v1 http://www.garmin.com/xmlschemas/PowerExtensionv1.xsd http://www.garmin.com/xmlschemas/VideoExtension/v1 http://www.garmin.com/xmlschemas/VideoExtensionv1.xsd">

  <metadata>
    <link href="http://www.garmin.com">
      <text>Garmin International</text>
    </link>
    <time>2015-06-27T16:22:01Z</time>
    <bounds maxlat="47.741685071960092" maxlon="11.490452997386456" minlat="47.672663452103734" minlon="11.36473442427814"/>
  </metadata>

  <trk>
    <name>Benediktbeuerntrails 2015.06.26</name>
    <extensions>
      <gpxx:TrackExtension>
        <gpxx:DisplayColor>Cyan</gpxx:DisplayColor>
      </gpxx:TrackExtension>
    </extensions>
    <trkseg>
      <trkpt lat="47.707719085738063" lon="11.412604311481118">
        <ele>633.200000000000045</ele>
        <time>2015-06-26T10:56:24Z</time>
      </trkpt>
      <trkpt lat="47.707724701613188" lon="11.412604143843055">
        <ele>633.200000000000045</ele>
        <time>2015-06-26T10:56:25Z</time>
      </trkpt>
      <trkpt lat="47.707773232832551" lon="11.412565587088466">
        <ele>632.769999999999982</ele>
        <time>2015-06-26T10:57:07Z</time>
      </trkpt>
      <trkpt lat="47.707776920869946" lon="11.412573214620352">
        <ele>632.980000000000018</ele>
        <time>2015-06-26T10:57:58Z</time>
      </trkpt>
      <trkpt lat="47.707782033830881" lon="11.412560557946563">
        <ele>632.190000000000055</ele>
        <time>2015-06-26T10:58:43Z</time>
      </trkpt>
      <trkpt lat="47.707788404077291" lon="11.41256139613688">
        <ele>632.580000000000041</ele>
        <time>2015-06-26T10:59:07Z</time>
      </trkpt>
      <trkpt lat="47.707796031609178" lon="11.412560390308499">
        <ele>633.07000000000005</ele>
        <time>2015-06-26T10:59:10Z</time>
      </trkpt>
      <trkpt lat="47.707840288057923" lon="11.412485623732209">
        <ele>632.389999999999986</ele>
        <time>2015-06-26T10:59:14Z</time>
      </trkpt>
      <trkpt lat="47.707978002727032" lon="11.412065606564283">
        <ele>632.17999999999995</ele>
        <time>2015-06-26T10:59:27Z</time>
      </trkpt>
      <trkpt lat="47.707969788461924" lon="11.412039287388325">
        <ele>632.039999999999964</ele>
        <time>2015-06-26T10:59:31Z</time>
      </trkpt>
      <trkpt lat="47.707969369366765" lon="11.411975668743253">
        <ele>631.57000000000005</ele>
        <time>2015-06-26T10:59:33Z</time>
      </trkpt>
      <trkpt lat="47.707970878109336" lon="11.411939794197679">
        <ele>631.82000000000005</ele>
        <time>2015-06-26T10:59:34Z</time>
      </trkpt>
      <trkpt lat="47.707995688542724" lon="11.41141508705914">
        <ele>631.669999999999959</ele>
        <time>2015-06-26T10:59:43Z</time>
      </trkpt>
      <trkpt lat="47.708032820373774" lon="11.410973276942968">
        <ele>631.309999999999945</ele>
        <time>2015-06-26T10:59:49Z</time>
      </trkpt>
      <trkpt lat="47.708052601665258" lon="11.409921180456877">
        <ele>630.480000000000018</ele>
        <time>2015-06-26T11:00:02Z</time>
      </trkpt>
      <trkpt lat="47.708048745989799" lon="11.409838618710637">
        <ele>630.210000000000036</ele>
        <time>2015-06-26T11:00:03Z</time>
      </trkpt>
      <trkpt lat="47.708036340773106" lon="11.409420864656568">
        <ele>630.019999999999982</ele>
        <time>2015-06-26T11:00:08Z</time>
      </trkpt>
      <trkpt lat="47.708031479269266" lon="11.409337213262916">
        <ele>630.090000000000032</ele>
        <time>2015-06-26T11:00:09Z</time>
      </trkpt>
      <trkpt lat="47.708061737939715" lon="11.408385196700692">
        <ele>628.210000000000036</ele>
        <time>2015-06-26T11:00:20Z</time>
      </trkpt>
      <trkpt lat="47.708070790395141" lon="11.408108510077">
        <ele>628.07000000000005</ele>
        <time>2015-06-26T11:00:23Z</time>
      </trkpt>
      <trkpt lat="47.708073053508997" lon="11.40802008099854">
        <ele>627.529999999999973</ele>
        <time>2015-06-26T11:00:24Z</time>
      </trkpt>
      <trkpt lat="47.708078250288963" lon="11.407836684957147">
        <ele>628.440000000000055</ele>
        <time>2015-06-26T11:00:26Z</time>
      </trkpt>
      <trkpt lat="47.708152513951063" lon="11.406514775007963">
        <ele>626.149999999999977</ele>
        <time>2015-06-26T11:00:41Z</time>
      </trkpt>
      <trkpt lat="47.708139270544052" lon="11.404891619458795">
        <ele>623.860000000000014</ele>
        <time>2015-06-26T11:01:00Z</time>
      </trkpt>
      <trkpt lat="47.708243206143379" lon="11.403639363124967">
        <ele>623.059999999999945</ele>
        <time>2015-06-26T11:01:15Z</time>
      </trkpt>
      <trkpt lat="47.708299867808819" lon="11.403236864134669">
        <ele>621.419999999999959</ele>
        <time>2015-06-26T11:01:24Z</time>
      </trkpt>
      <trkpt lat="47.708327863365412" lon="11.403175760060549">
        <ele>621.330000000000041</ele>
        <time>2015-06-26T11:01:47Z</time>
      </trkpt>
      <trkpt lat="47.708309171721339" lon="11.403100658208132">
        <ele>621.389999999999986</ele>
        <time>2015-06-26T11:01:49Z</time>
      </trkpt>
      <trkpt lat="47.70829844288528" lon="11.403054222464561">
        <ele>621.25</ele>
        <time>2015-06-26T11:01:50Z</time>
      </trkpt>
      <trkpt lat="47.708299532532692" lon="11.403005858883262">
        <ele>621.539999999999964</ele>
        <time>2015-06-26T11:01:51Z</time>
      </trkpt>
      <trkpt lat="47.708289977163076" lon="11.402949951589108">
        <ele>621.379999999999995</ele>
        <time>2015-06-26T11:01:52Z</time>
      </trkpt>
      <trkpt lat="47.708297772333026" lon="11.402898235246539">
        <ele>621.42999999999995</ele>
        <time>2015-06-26T11:01:53Z</time>
      </trkpt>
      <trkpt lat="47.708315458148718" lon="11.402846518903971">
        <ele>621.580000000000041</ele>
        <time>2015-06-26T11:01:54Z</time>
      </trkpt>
      <trkpt lat="47.708343369886279" lon="11.40280201099813">
        <ele>621.730000000000018</ele>
        <time>2015-06-26T11:01:55Z</time>
      </trkpt>
      <trkpt lat="47.708376813679934" lon="11.402766723185778">
        <ele>621.860000000000014</ele>
        <time>2015-06-26T11:01:56Z</time>
      </trkpt>
      <trkpt lat="47.708414364606142" lon="11.402730597183108">
        <ele>621.490000000000009</ele>
        <time>2015-06-26T11:01:57Z</time>
      </trkpt>
      <trkpt lat="47.708864808082581" lon="11.40215509571135">
        <ele>619.080000000000041</ele>
        <time>2015-06-26T11:02:09Z</time>
      </trkpt>
      <trkpt lat="47.708942340686917" lon="11.402076808735728">
        <ele>619.240000000000009</ele>
        <time>2015-06-26T11:02:12Z</time>
      </trkpt>
      <trkpt lat="47.708957176655531" lon="11.402034647762775">
        <ele>618.970000000000027</ele>
        <time>2015-06-26T11:02:13Z</time>
      </trkpt>
      <trkpt lat="47.708954326808453" lon="11.401991061866283">
        <ele>619.220000000000027</ele>
        <time>2015-06-26T11:02:14Z</time>
      </trkpt>
      <trkpt lat="47.708918871358037" lon="11.40180422924459">
        <ele>618.870000000000005</ele>
        <time>2015-06-26T11:02:24Z</time>
      </trkpt>
      <trkpt lat="47.708914512768388" lon="11.401767935603857">
        <ele>618.629999999999995</ele>
        <time>2015-06-26T11:02:43Z</time>
      </trkpt>
      <trkpt lat="47.708912836387753" lon="11.401667855679989">
        <ele>618.629999999999995</ele>
        <time>2015-06-26T11:02:46Z</time>
      </trkpt>
      <trkpt lat="47.708910321816802" lon="11.401621419936419">
        <ele>618.32000000000005</ele>
        <time>2015-06-26T11:02:47Z</time>
      </trkpt>
      <trkpt lat="47.708803787827492" lon="11.400833604857326">
        <ele>619.139999999999986</ele>
        <time>2015-06-26T11:03:00Z</time>
      </trkpt>
      <trkpt lat="47.708817785605788" lon="11.400721035897732">
        <ele>619.289999999999964</ele>
        <time>2015-06-26T11:03:02Z</time>
      </trkpt>
      <trkpt lat="47.708838824182749" lon="11.400661692023277">
        <ele>618.720000000000027</ele>
        <time>2015-06-26T11:03:03Z</time>
      </trkpt>
      <trkpt lat="47.709263367578387" lon="11.399853760376573">
        <ele>618.629999999999995</ele>
        <time>2015-06-26T11:03:17Z</time>
      </trkpt>
      <trkpt lat="47.709292117506266" lon="11.399785783141851">
        <ele>618.17999999999995</ele>
        <time>2015-06-26T11:03:18Z</time>
      </trkpt>
      <trkpt lat="47.709395801648498" lon="11.399515131488442">
        <ele>617.450000000000045</ele>
        <time>2015-06-26T11:03:22Z</time>
      </trkpt>
      <trkpt lat="47.709456151351333" lon="11.399400131776929">
        <ele>615.950000000000045</ele>
        <time>2015-06-26T11:03:25Z</time>
      </trkpt>
      <trkpt lat="47.709479033946991" lon="11.399395521730185">
        <ele>615.799999999999955</ele>
        <time>2015-06-26T11:03:40Z</time>
      </trkpt>
      <trkpt lat="47.709487164393067" lon="11.399386301636696">
        <ele>612.840000000000032</ele>
        <time>2015-06-26T11:03:51Z</time>
      </trkpt>
      <trkpt lat="47.709488337859511" lon="11.399383787065744">
        <ele>615.870000000000005</ele>
        <time>2015-06-26T11:03:57Z</time>
      </trkpt>
      <trkpt lat="47.709435950964689" lon="11.399372303858399">
        <ele>616.519999999999982</ele>
        <time>2015-06-26T11:04:16Z</time>
      </trkpt>
      <trkpt lat="47.709429915994406" lon="11.399355959147215">
        <ele>616.57000000000005</ele>
        <time>2015-06-26T11:04:17Z</time>
      </trkpt>
      <trkpt lat="47.709427652880549" lon="11.399324610829353">
        <ele>616.259999999999991</ele>
        <time>2015-06-26T11:04:18Z</time>
      </trkpt>
      <trkpt lat="47.709424551576376" lon="11.399284964427352">
        <ele>616.220000000000027</ele>
        <time>2015-06-26T11:04:19Z</time>
      </trkpt>
      <trkpt lat="47.709419019520283" lon="11.399238193407655">
        <ele>615.720000000000027</ele>
        <time>2015-06-26T11:04:20Z</time>
      </trkpt>
      <trkpt lat="47.709393538534641" lon="11.399129228666425">
        <ele>616.129999999999995</ele>
        <time>2015-06-26T11:04:22Z</time>
      </trkpt>
      <trkpt lat="47.70937048830092" lon="11.39906887896359">
        <ele>615.970000000000027</ele>
        <time>2015-06-26T11:04:23Z</time>
      </trkpt>
      <trkpt lat="47.709342995658517" lon="11.399010792374611">
        <ele>616.129999999999995</ele>
        <time>2015-06-26T11:04:24Z</time>
      </trkpt>
      <trkpt lat="47.709312401711941" lon="11.398958908393979">
        <ele>615.690000000000055</ele>
        <time>2015-06-26T11:04:25Z</time>
      </trkpt>
      <trkpt lat="47.709277952089906" lon="11.398906605318189">
        <ele>616.409999999999968</ele>
        <time>2015-06-26T11:04:26Z</time>
      </trkpt>
      <trkpt lat="47.708927588537335" lon="11.398457335308194">
        <ele>616.450000000000045</ele>
        <time>2015-06-26T11:04:35Z</time>
      </trkpt>
      <trkpt lat="47.708896575495601" lon="11.398401595652103">
        <ele>616.330000000000041</ele>
        <time>2015-06-26T11:04:36Z</time>
      </trkpt>
      <trkpt lat="47.708868579939008" lon="11.398340994492173">
        <ele>616.279999999999973</ele>
        <time>2015-06-26T11:04:37Z</time>
      </trkpt>
      <trkpt lat="47.708845864981413" lon="11.398277459666133">
        <ele>617.220000000000027</ele>
        <time>2015-06-26T11:04:38Z</time>
      </trkpt>
      <trkpt lat="47.70882859826088" lon="11.398209230974317">
        <ele>616.92999999999995</ele>
        <time>2015-06-26T11:04:39Z</time>
      </trkpt>
      <trkpt lat="47.708819210529327" lon="11.398138487711549">
        <ele>616.879999999999995</ele>
        <time>2015-06-26T11:04:40Z</time>
      </trkpt>
      <trkpt lat="47.708815606310964" lon="11.398065146058798">
        <ele>617.100000000000023</ele>
        <time>2015-06-26T11:04:41Z</time>
      </trkpt>
      <trkpt lat="47.708814600482583" lon="11.397992642596364">
        <ele>616.899999999999977</ele>
        <time>2015-06-26T11:04:42Z</time>
      </trkpt>
      <trkpt lat="47.708819126710296" lon="11.397704724222422">
        <ele>616.590000000000032</ele>
        <time>2015-06-26T11:04:46Z</time>
      </trkpt>
      <trkpt lat="47.708831783384085" lon="11.397571703419089">
        <ele>615.370000000000005</ele>
        <time>2015-06-26T11:04:48Z</time>
      </trkpt>
      <trkpt lat="47.708836477249861" lon="11.397440610453486">
        <ele>616.080000000000041</ele>
        <time>2015-06-26T11:04:50Z</time>
      </trkpt>
      <trkpt lat="47.708826083689928" lon="11.396691100671887">
        <ele>614.5</ele>
        <time>2015-06-26T11:05:00Z</time>
      </trkpt>
      <trkpt lat="47.708806302398443" lon="11.396614154800773">
        <ele>615.159999999999968</ele>
        <time>2015-06-26T11:05:01Z</time>
      </trkpt>
      <trkpt lat="47.70878367125988" lon="11.396539974957705">
        <ele>614.82000000000005</ele>
        <time>2015-06-26T11:05:02Z</time>
      </trkpt>
      <trkpt lat="47.708756262436509" lon="11.396467890590429">
        <ele>614.350000000000023</ele>
        <time>2015-06-26T11:05:03Z</time>
      </trkpt>
      <trkpt lat="47.708725249394774" lon="11.396398907527328">
        <ele>614</ele>
        <time>2015-06-26T11:05:04Z</time>
      </trkpt>
      <trkpt lat="47.708690967410803" lon="11.396334785968065">
        <ele>613.82000000000005</ele>
        <time>2015-06-26T11:05:05Z</time>
      </trkpt>
      <trkpt lat="47.708655931055546" lon="11.396273681893945">
        <ele>614.710000000000036</ele>
        <time>2015-06-26T11:05:06Z</time>
      </trkpt>
      <trkpt lat="47.708387207239866" lon="11.395769761875272">
        <ele>613.850000000000023</ele>
        <time>2015-06-26T11:05:14Z</time>
      </trkpt>
      <trkpt lat="47.708376226946712" lon="11.395700192078948">
        <ele>614.159999999999968</ele>
        <time>2015-06-26T11:05:15Z</time>
      </trkpt>
      <trkpt lat="47.708380250260234" lon="11.395631711930037">
        <ele>614.580000000000041</ele>
        <time>2015-06-26T11:05:16Z</time>
      </trkpt>
      <trkpt lat="47.708400031551719" lon="11.395571026951075">
        <ele>614.149999999999977</ele>
        <time>2015-06-26T11:05:17Z</time>
      </trkpt>
      <trkpt lat="47.708428949117661" lon="11.395520819351077">
        <ele>613.730000000000018</ele>
        <time>2015-06-26T11:05:18Z</time>
      </trkpt>
      <trkpt lat="47.7084597107023" lon="11.395471198484302">
        <ele>613.529999999999973</ele>
        <time>2015-06-26T11:05:19Z</time>
      </trkpt>
      <trkpt lat="47.708570351824164" lon="11.395312277600169">
        <ele>613.309999999999945</ele>
        <time>2015-06-26T11:05:22Z</time>
      </trkpt>
      <trkpt lat="47.708609327673912" lon="11.395258046686649">
        <ele>614.149999999999977</ele>
        <time>2015-06-26T11:05:23Z</time>
      </trkpt>
      <trkpt lat="47.70899623632431" lon="11.394739877432585">
        <ele>613.200000000000045</ele>
        <time>2015-06-26T11:05:34Z</time>
      </trkpt>
      <trkpt lat="47.709032697603106" lon="11.394694028422236">
        <ele>613.07000000000005</ele>
        <time>2015-06-26T11:05:35Z</time>
      </trkpt>
      <trkpt lat="47.709314832463861" lon="11.394356153905392">
        <ele>612.090000000000032</ele>
        <time>2015-06-26T11:05:42Z</time>
      </trkpt>
      <trkpt lat="47.709359591826797" lon="11.394297480583191">
        <ele>612.159999999999968</ele>
        <time>2015-06-26T11:05:43Z</time>
      </trkpt>
      <trkpt lat="47.709449362009764" lon="11.394185749813914">
        <ele>612</ele>
        <time>2015-06-26T11:05:45Z</time>
      </trkpt>
      <trkpt lat="47.709487918764353" lon="11.394132189452648">
        <ele>612.100000000000023</ele>
        <time>2015-06-26T11:05:46Z</time>
      </trkpt>
      <trkpt lat="47.709526475518942" lon="11.394086424261332">
        <ele>611.779999999999973</ele>
        <time>2015-06-26T11:05:47Z</time>
      </trkpt>
      <trkpt lat="47.709562350064516" lon="11.394039820879698">
        <ele>612.049999999999955</ele>
        <time>2015-06-26T11:05:48Z</time>
      </trkpt>
      <trkpt lat="47.709604343399405" lon="11.393984332680702">
        <ele>612.110000000000014</ele>
        <time>2015-06-26T11:05:49Z</time>
      </trkpt>
      <trkpt lat="47.709647677838802" lon="11.393929766491055">
        <ele>612.110000000000014</ele>
        <time>2015-06-26T11:05:50Z</time>
      </trkpt>
      <trkpt lat="47.709826044738293" lon="11.39371938072145">
        <ele>611.509999999999991</ele>
        <time>2015-06-26T11:05:54Z</time>
      </trkpt>
      <trkpt lat="47.70986451767385" lon="11.393674537539482">
        <ele>611.419999999999959</ele>
        <time>2015-06-26T11:05:55Z</time>
      </trkpt>
      <trkpt lat="47.709902906790376" lon="11.393629694357514">
        <ele>611.269999999999982</ele>
        <time>2015-06-26T11:05:56Z</time>
      </trkpt>
      <trkpt lat="47.709948588162661" lon="11.393583845347166">
        <ele>611.480000000000018</ele>
        <time>2015-06-26T11:05:57Z</time>
      </trkpt>
      <trkpt lat="47.709990749135613" lon="11.393529362976551">
        <ele>611.350000000000023</ele>
        <time>2015-06-26T11:05:58Z</time>
      </trkpt>
      <trkpt lat="47.710036598145962" lon="11.393474210053682">
        <ele>611.240000000000009</ele>
        <time>2015-06-26T11:05:59Z</time>
      </trkpt>
      <trkpt lat="47.710075490176678" lon="11.393427774310112">
        <ele>611.159999999999968</ele>
        <time>2015-06-26T11:06:00Z</time>
      </trkpt>
      <trkpt lat="47.710116561502218" lon="11.393390642479062">
        <ele>612.009999999999991</ele>
        <time>2015-06-26T11:06:01Z</time>
      </trkpt>
      <trkpt lat="47.710157716646791" lon="11.393340183421969">
        <ele>611.490000000000009</ele>
        <time>2015-06-26T11:06:02Z</time>
      </trkpt>
      <trkpt lat="47.710195938125253" lon="11.393292071297765">
        <ele>611.210000000000036</ele>
        <time>2015-06-26T11:06:03Z</time>
      </trkpt>
      <trkpt lat="47.710293671116233" lon="11.393130216747522">
        <ele>610.690000000000055</ele>
        <time>2015-06-26T11:06:06Z</time>
      </trkpt>
      <trkpt lat="47.71032334305346" lon="11.393062239512801">
        <ele>610.120000000000005</ele>
        <time>2015-06-26T11:06:13Z</time>
      </trkpt>
      <trkpt lat="47.710392074659467" lon="11.392957298085093">
        <ele>610.25</ele>
        <time>2015-06-26T11:06:23Z</time>
      </trkpt>
      <trkpt lat="47.710418645292521" lon="11.392930308356881">
        <ele>609.82000000000005</ele>
        <time>2015-06-26T11:06:24Z</time>
      </trkpt>
      <trkpt lat="47.710448736324906" lon="11.392895272001624">
        <ele>609.899999999999977</ele>
        <time>2015-06-26T11:06:25Z</time>
      </trkpt>
      <trkpt lat="47.710523921996355" lon="11.392798880115151">
        <ele>610.379999999999995</ele>
        <time>2015-06-26T11:06:34Z</time>
      </trkpt>
      <trkpt lat="47.710545379668474" lon="11.392767783254385">
        <ele>609.870000000000005</ele>
        <time>2015-06-26T11:06:37Z</time>
      </trkpt>
      <trkpt lat="47.71057303994894" lon="11.392713719978929">
        <ele>609.720000000000027</ele>
        <time>2015-06-26T11:06:41Z</time>
      </trkpt>
      <trkpt lat="47.710579074919224" lon="11.392697542905807">
        <ele>609.860000000000014</ele>
        <time>2015-06-26T11:06:42Z</time>
      </trkpt>
      <trkpt lat="47.710588714107871" lon="11.392679773271084">
        <ele>609.600000000000023</ele>
        <time>2015-06-26T11:06:43Z</time>
      </trkpt>
      <trkpt lat="47.710599526762962" lon="11.392662422731519">
        <ele>609.690000000000055</ele>
        <time>2015-06-26T11:06:44Z</time>
      </trkpt>
      <trkpt lat="47.710611596703529" lon="11.392645994201303">
        <ele>610.039999999999964</ele>
        <time>2015-06-26T11:06:45Z</time>
      </trkpt>
      <trkpt lat="47.710624672472477" lon="11.392628978937864">
        <ele>609.610000000000014</ele>
        <time>2015-06-26T11:06:46Z</time>
      </trkpt>
      <trkpt lat="47.710638754069805" lon="11.392610119655728">
        <ele>609.759999999999991</ele>
        <time>2015-06-26T11:06:47Z</time>
      </trkpt>
      <trkpt lat="47.710674880072474" lon="11.392492773011327">
        <ele>609.379999999999995</ele>
        <time>2015-06-26T11:06:58Z</time>
      </trkpt>
      <trkpt lat="47.710654176771641" lon="11.392442230135202">
        <ele>608.799999999999955</ele>
        <time>2015-06-26T11:07:40Z</time>
      </trkpt>
      <trkpt lat="47.710664067417383" lon="11.39242940582335">
        <ele>609.029999999999973</ele>
        <time>2015-06-26T11:07:41Z</time>
      </trkpt>
      <trkpt lat="47.710694996640086" lon="11.392395375296474">
        <ele>608.779999999999973</ele>
        <time>2015-06-26T11:07:43Z</time>
      </trkpt>
      <trkpt lat="47.711081402376294" lon="11.391894556581974">
        <ele>608.460000000000036</ele>
        <time>2015-06-26T11:07:56Z</time>
      </trkpt>
      <trkpt lat="47.711151642724872" lon="11.391782239079475">
        <ele>608.659999999999968</ele>
        <time>2015-06-26T11:07:58Z</time>
      </trkpt>
      <trkpt lat="47.711247531697154" lon="11.391586186364293">
        <ele>608.539999999999964</ele>
        <time>2015-06-26T11:08:01Z</time>
      </trkpt>
      <trkpt lat="47.711708787828684" lon="11.390440044924617">
        <ele>607.110000000000014</ele>
        <time>2015-06-26T11:08:17Z</time>
      </trkpt>
      <trkpt lat="47.711972063407302" lon="11.389283761382103">
        <ele>606.25</ele>
        <time>2015-06-26T11:08:32Z</time>
      </trkpt>
      <trkpt lat="47.712022103369236" lon="11.389065328985453">
        <ele>606.970000000000027</ele>
        <time>2015-06-26T11:08:35Z</time>
      </trkpt>
      <trkpt lat="47.712045991793275" lon="11.388998692855239">
        <ele>606.730000000000018</ele>
        <time>2015-06-26T11:08:36Z</time>
      </trkpt>
      <trkpt lat="47.712073232978582" lon="11.38893716968596">
        <ele>606.450000000000045</ele>
        <time>2015-06-26T11:08:37Z</time>
      </trkpt>
      <trkpt lat="47.71210391074419" lon="11.388880172744393">
        <ele>606.649999999999977</ele>
        <time>2015-06-26T11:08:38Z</time>
      </trkpt>
      <trkpt lat="47.712138528004289" lon="11.38882820494473">
        <ele>606.57000000000005</ele>
        <time>2015-06-26T11:08:39Z</time>
      </trkpt>
      <trkpt lat="47.712175156921148" lon="11.38877984136343">
        <ele>606.769999999999982</ele>
        <time>2015-06-26T11:08:40Z</time>
      </trkpt>
      <trkpt lat="47.712214132770896" lon="11.388733657076955">
        <ele>606.389999999999986</ele>
        <time>2015-06-26T11:08:41Z</time>
      </trkpt>
      <trkpt lat="47.7122553717345" lon="11.388690741732717">
        <ele>606.519999999999982</ele>
        <time>2015-06-26T11:08:42Z</time>
      </trkpt>
      <trkpt lat="47.712433570995927" lon="11.388550344854593">
        <ele>606.830000000000041</ele>
        <time>2015-06-26T11:08:46Z</time>
      </trkpt>
      <trkpt lat="47.712611518800259" lon="11.38842998072505">
        <ele>606.529999999999973</ele>
        <time>2015-06-26T11:08:50Z</time>
      </trkpt>
      <trkpt lat="47.712650494650006" lon="11.388388825580478">
        <ele>606.299999999999955</ele>
        <time>2015-06-26T11:08:51Z</time>
      </trkpt>
      <trkpt lat="47.712686788290739" lon="11.388343228027225">
        <ele>606.139999999999986</ele>
        <time>2015-06-26T11:08:52Z</time>
      </trkpt>
      <trkpt lat="47.712720315903425" lon="11.388296289369464">
        <ele>605.720000000000027</ele>
        <time>2015-06-26T11:08:53Z</time>
      </trkpt>
      <trkpt lat="47.712747473269701" lon="11.388249518349767">
        <ele>605.549999999999955</ele>
        <time>2015-06-26T11:08:54Z</time>
      </trkpt>
      <trkpt lat="47.712768679484725" lon="11.388203334063292">
        <ele>605.57000000000005</ele>
        <time>2015-06-26T11:08:55Z</time>
      </trkpt>
      <trkpt lat="47.712786197662354" lon="11.38815438374877">
        <ele>605.690000000000055</ele>
        <time>2015-06-26T11:08:56Z</time>
      </trkpt>
      <trkpt lat="47.712804889306426" lon="11.388101493939757">
        <ele>606.029999999999973</ele>
        <time>2015-06-26T11:08:57Z</time>
      </trkpt>
      <trkpt lat="47.712825424969196" lon="11.388047849759459">
        <ele>605.549999999999955</ele>
        <time>2015-06-26T11:08:58Z</time>
      </trkpt>
      <trkpt lat="47.713001361116767" lon="11.387644847854972">
        <ele>605.789999999999964</ele>
        <time>2015-06-26T11:09:05Z</time>
      </trkpt>
      <trkpt lat="47.713034553453326" lon="11.387593215331435">
        <ele>606.259999999999991</ele>
        <time>2015-06-26T11:09:06Z</time>
      </trkpt>
      <trkpt lat="47.713268576189876" lon="11.387251233682036">
        <ele>605.879999999999995</ele>
        <time>2015-06-26T11:09:13Z</time>
      </trkpt>
      <trkpt lat="47.713296320289373" lon="11.387194823473692">
        <ele>605.970000000000027</ele>
        <time>2015-06-26T11:09:14Z</time>
      </trkpt>
      <trkpt lat="47.71340562030673" lon="11.386957531794906">
        <ele>605.710000000000036</ele>
        <time>2015-06-26T11:09:18Z</time>
      </trkpt>
      <trkpt lat="47.71343688480556" lon="11.38689961284399">
        <ele>605.860000000000014</ele>
        <time>2015-06-26T11:09:19Z</time>
      </trkpt>
      <trkpt lat="47.713496061041951" lon="11.386790061369538">
        <ele>605.600000000000023</ele>
        <time>2015-06-26T11:09:21Z</time>
      </trkpt>
      <trkpt lat="47.713530845940113" lon="11.386742955073714">
        <ele>605.980000000000018</ele>
        <time>2015-06-26T11:09:22Z</time>
      </trkpt>
      <trkpt lat="47.713838461786509" lon="11.386406840756536">
        <ele>605.580000000000041</ele>
        <time>2015-06-26T11:09:30Z</time>
      </trkpt>
      <trkpt lat="47.71417960524559" lon="11.386077599599957">
        <ele>604.590000000000032</ele>
        <time>2015-06-26T11:09:38Z</time>
      </trkpt>
      <trkpt lat="47.714216401800513" lon="11.386022195219994">
        <ele>604.909999999999968</ele>
        <time>2015-06-26T11:09:39Z</time>
      </trkpt>
      <trkpt lat="47.714250599965453" lon="11.385959833860397">
        <ele>604.809999999999945</ele>
        <time>2015-06-26T11:09:40Z</time>
      </trkpt>
      <trkpt lat="47.71428027190268" lon="11.38589353300631">
        <ele>604.509999999999991</ele>
        <time>2015-06-26T11:09:41Z</time>
      </trkpt>
      <trkpt lat="47.714303573593497" lon="11.385824885219336">
        <ele>604.440000000000055</ele>
        <time>2015-06-26T11:09:42Z</time>
      </trkpt>
      <trkpt lat="47.714318912476301" lon="11.385751711204648">
        <ele>604.269999999999982</ele>
        <time>2015-06-26T11:09:43Z</time>
      </trkpt>
      <trkpt lat="47.714326456189156" lon="11.385671831667423">
        <ele>604.139999999999986</ele>
        <time>2015-06-26T11:09:44Z</time>
      </trkpt>
      <trkpt lat="47.714331150054932" lon="11.385593293234706">
        <ele>604.149999999999977</ele>
        <time>2015-06-26T11:09:45Z</time>
      </trkpt>
      <trkpt lat="47.71433743648231" lon="11.385214850306511">
        <ele>603.590000000000032</ele>
        <time>2015-06-26T11:09:50Z</time>
      </trkpt>
      <trkpt lat="47.714337687939405" lon="11.385137820616364">
        <ele>603.590000000000032</ele>
        <time>2015-06-26T11:09:51Z</time>
      </trkpt>
      <trkpt lat="47.7143310662359" lon="11.384118916466832">
        <ele>602.799999999999955</ele>
        <time>2015-06-26T11:10:05Z</time>
      </trkpt>
      <trkpt lat="47.714309021830559" lon="11.38343034312129">
        <ele>602.559999999999945</ele>
        <time>2015-06-26T11:10:14Z</time>
      </trkpt>
      <trkpt lat="47.714318828657269" lon="11.383279133588076">
        <ele>601.639999999999986</ele>
        <time>2015-06-26T11:10:21Z</time>
      </trkpt>
      <trkpt lat="47.714331820607185" lon="11.383213587105274">
        <ele>601.789999999999964</ele>
        <time>2015-06-26T11:10:34Z</time>
      </trkpt>
      <trkpt lat="47.714344142004848" lon="11.383170001208782">
        <ele>601.759999999999991</ele>
        <time>2015-06-26T11:10:36Z</time>
      </trkpt>
      <trkpt lat="47.714357636868954" lon="11.383125577121973">
        <ele>601.889999999999986</ele>
        <time>2015-06-26T11:10:51Z</time>
      </trkpt>
      <trkpt lat="47.714371383190155" lon="11.383118871599436">
        <ele>601.740000000000009</ele>
        <time>2015-06-26T11:11:36Z</time>
      </trkpt>
      <trkpt lat="47.714383201673627" lon="11.383116189390421">
        <ele>601.549999999999955</ele>
        <time>2015-06-26T11:11:37Z</time>
      </trkpt>
      <trkpt lat="47.714395523071289" lon="11.383108226582408">
        <ele>601.809999999999945</ele>
        <time>2015-06-26T11:11:38Z</time>
      </trkpt>
      <trkpt lat="47.714416394010186" lon="11.383103616535664">
        <ele>602.25</ele>
        <time>2015-06-26T11:11:39Z</time>
      </trkpt>
      <trkpt lat="47.71444296464324" lon="11.383096659556031">
        <ele>601.850000000000023</ele>
        <time>2015-06-26T11:11:40Z</time>
      </trkpt>
      <trkpt lat="47.71501025184989" lon="11.383107388392091">
        <ele>602.309999999999945</ele>
        <time>2015-06-26T11:11:54Z</time>
      </trkpt>
      <trkpt lat="47.715101530775428" lon="11.383124571293592">
        <ele>602.669999999999959</ele>
        <time>2015-06-26T11:11:56Z</time>
      </trkpt>
      <trkpt lat="47.715576114133" lon="11.383202522993088">
        <ele>601.809999999999945</ele>
        <time>2015-06-26T11:12:06Z</time>
      </trkpt>
      <trkpt lat="47.7156244777143" lon="11.383198332041502">
        <ele>601.779999999999973</ele>
        <time>2015-06-26T11:12:07Z</time>
      </trkpt>
      <trkpt lat="47.71566353738308" lon="11.383184585720301">
        <ele>601.340000000000032</ele>
        <time>2015-06-26T11:12:08Z</time>
      </trkpt>
      <trkpt lat="47.715691532939672" lon="11.383160781115294">
        <ele>601.460000000000036</ele>
        <time>2015-06-26T11:12:09Z</time>
      </trkpt>
      <trkpt lat="47.715709889307618" lon="11.383131109178066">
        <ele>601.409999999999968</ele>
        <time>2015-06-26T11:12:10Z</time>
      </trkpt>
      <trkpt lat="47.715725563466549" lon="11.383095318451524">
        <ele>601.450000000000045</ele>
        <time>2015-06-26T11:12:11Z</time>
      </trkpt>
      <trkpt lat="47.715738220140338" lon="11.383052067831159">
        <ele>601.169999999999959</ele>
        <time>2015-06-26T11:12:12Z</time>
      </trkpt>
      <trkpt lat="47.715747775509953" lon="11.383003452792764">
        <ele>601.360000000000014</ele>
        <time>2015-06-26T11:12:13Z</time>
      </trkpt>
      <trkpt lat="47.715753726661205" lon="11.38292315416038">
        <ele>600.950000000000045</ele>
        <time>2015-06-26T11:12:15Z</time>
      </trkpt>
      <trkpt lat="47.715771580114961" lon="11.382943270727992">
        <ele>601.059999999999945</ele>
        <time>2015-06-26T11:12:22Z</time>
      </trkpt>
      <trkpt lat="47.715776776894927" lon="11.382998926565051">
        <ele>601.139999999999986</ele>
        <time>2015-06-26T11:12:25Z</time>
      </trkpt>
      <trkpt lat="47.715776190161705" lon="11.383019965142012">
        <ele>601.370000000000005</ele>
        <time>2015-06-26T11:12:26Z</time>
      </trkpt>
      <trkpt lat="47.715775854885578" lon="11.383125996217132">
        <ele>601.289999999999964</ele>
        <time>2015-06-26T11:12:39Z</time>
      </trkpt>
      <trkpt lat="47.715788679197431" lon="11.383019797503948">
        <ele>601.059999999999945</ele>
        <time>2015-06-26T11:13:13Z</time>
      </trkpt>
      <trkpt lat="47.715796893462539" lon="11.382983671501279">
        <ele>601.049999999999955</ele>
        <time>2015-06-26T11:13:14Z</time>
      </trkpt>
      <trkpt lat="47.715805359184742" lon="11.382941175252199">
        <ele>601.169999999999959</ele>
        <time>2015-06-26T11:13:15Z</time>
      </trkpt>
      <trkpt lat="47.715913066640496" lon="11.382135758176446">
        <ele>600.850000000000023</ele>
        <time>2015-06-26T11:13:28Z</time>
      </trkpt>
      <trkpt lat="47.715920610353351" lon="11.382091585546732">
        <ele>600.75</ele>
        <time>2015-06-26T11:13:29Z</time>
      </trkpt>
      <trkpt lat="47.715929411351681" lon="11.382041545584798">
        <ele>600.539999999999964</ele>
        <time>2015-06-26T11:13:39Z</time>
      </trkpt>
      <trkpt lat="47.715937625616789" lon="11.38198547065258">
        <ele>600.830000000000041</ele>
        <time>2015-06-26T11:14:03Z</time>
      </trkpt>
      <trkpt lat="47.715942319482565" lon="11.381936185061932">
        <ele>600.289999999999964</ele>
        <time>2015-06-26T11:14:05Z</time>
      </trkpt>
      <trkpt lat="47.716024210676551" lon="11.381496135145426">
        <ele>600.460000000000036</ele>
        <time>2015-06-26T11:14:13Z</time>
      </trkpt>
      <trkpt lat="47.716036112979054" lon="11.38143084011972">
        <ele>600.600000000000023</ele>
        <time>2015-06-26T11:14:14Z</time>
      </trkpt>
      <trkpt lat="47.716047763824463" lon="11.381363784894347">
        <ele>600.450000000000045</ele>
        <time>2015-06-26T11:14:15Z</time>
      </trkpt>
      <trkpt lat="47.71605983376503" lon="11.381298573687673">
        <ele>600.529999999999973</ele>
        <time>2015-06-26T11:14:16Z</time>
      </trkpt>
      <trkpt lat="47.716072741895914" lon="11.381230428814888">
        <ele>600.57000000000005</ele>
        <time>2015-06-26T11:14:17Z</time>
      </trkpt>
      <trkpt lat="47.716114902868867" lon="11.381028005853295">
        <ele>600.25</ele>
        <time>2015-06-26T11:14:20Z</time>
      </trkpt>
      <trkpt lat="47.716151867061853" lon="11.38076045550406">
        <ele>600.919999999999959</ele>
        <time>2015-06-26T11:14:24Z</time>
      </trkpt>
      <trkpt lat="47.716158404946327" lon="11.380688454955816">
        <ele>600.57000000000005</ele>
        <time>2015-06-26T11:14:25Z</time>
      </trkpt>
      <trkpt lat="47.716212132945657" lon="11.380314119160175">
        <ele>600.139999999999986</ele>
        <time>2015-06-26T11:14:30Z</time>
      </trkpt>
      <trkpt lat="47.716219006106257" lon="11.380229713395238">
        <ele>600.289999999999964</ele>
        <time>2015-06-26T11:14:31Z</time>
      </trkpt>
      <trkpt lat="47.716295616701245" lon="11.379685392603278">
        <ele>600.210000000000036</ele>
        <time>2015-06-26T11:14:38Z</time>
      </trkpt>
      <trkpt lat="47.716329814866185" lon="11.379391355440021">
        <ele>600.350000000000023</ele>
        <time>2015-06-26T11:14:42Z</time>
      </trkpt>
      <trkpt lat="47.716337945312262" lon="11.37931608594954">
        <ele>600.389999999999986</ele>
        <time>2015-06-26T11:14:43Z</time>
      </trkpt>
      <trkpt lat="47.7163808606565" lon="11.379024395719171">
        <ele>600.610000000000014</ele>
        <time>2015-06-26T11:14:47Z</time>
      </trkpt>
      <trkpt lat="47.716390835121274" lon="11.37894962914288">
        <ele>600.529999999999973</ele>
        <time>2015-06-26T11:14:48Z</time>
      </trkpt>
      <trkpt lat="47.716401563957334" lon="11.378873772919178">
        <ele>599.879999999999995</ele>
        <time>2015-06-26T11:14:49Z</time>
      </trkpt>
      <trkpt lat="47.716442635282874" lon="11.378567079082131">
        <ele>600.299999999999955</ele>
        <time>2015-06-26T11:14:53Z</time>
      </trkpt>
      <trkpt lat="47.716453280299902" lon="11.378490049391985">
        <ele>600.42999999999995</ele>
        <time>2015-06-26T11:14:54Z</time>
      </trkpt>
      <trkpt lat="47.716508433222771" lon="11.378114121034741">
        <ele>599.860000000000014</ele>
        <time>2015-06-26T11:14:59Z</time>
      </trkpt>
      <trkpt lat="47.716522011905909" lon="11.378038516268134">
        <ele>599.75</ele>
        <time>2015-06-26T11:15:00Z</time>
      </trkpt>
      <trkpt lat="47.716532070189714" lon="11.377967773005366">
        <ele>599.620000000000005</ele>
        <time>2015-06-26T11:15:01Z</time>
      </trkpt>
      <trkpt lat="47.716541877016425" lon="11.37789317406714">
        <ele>599.960000000000036</ele>
        <time>2015-06-26T11:15:02Z</time>
      </trkpt>
      <trkpt lat="47.716552773490548" lon="11.377821676433086">
        <ele>599.190000000000055</ele>
        <time>2015-06-26T11:15:03Z</time>
      </trkpt>
      <trkpt lat="47.716697948053479" lon="11.376970494166017">
        <ele>599.409999999999968</ele>
        <time>2015-06-26T11:15:15Z</time>
      </trkpt>
      <trkpt lat="47.716801548376679" lon="11.376132052391768">
        <ele>598.110000000000014</ele>
        <time>2015-06-26T11:15:26Z</time>
      </trkpt>
      <trkpt lat="47.716802889481187" lon="11.376070277765393">
        <ele>598.100000000000023</ele>
        <time>2015-06-26T11:15:27Z</time>
      </trkpt>
      <trkpt lat="47.716808505356312" lon="11.376026021316648">
        <ele>598.259999999999991</ele>
        <time>2015-06-26T11:15:35Z</time>
      </trkpt>
      <trkpt lat="47.716803224757314" lon="11.376037085428834">
        <ele>598.470000000000027</ele>
        <time>2015-06-26T11:15:36Z</time>
      </trkpt>
      <trkpt lat="47.716796435415745" lon="11.376046724617481">
        <ele>598.129999999999995</ele>
        <time>2015-06-26T11:15:37Z</time>
      </trkpt>
      <trkpt lat="47.716774055734277" lon="11.376003390178084">
        <ele>598.110000000000014</ele>
        <time>2015-06-26T11:15:49Z</time>
      </trkpt>
      <trkpt lat="47.716758633032441" lon="11.375971287488937">
        <ele>598.440000000000055</ele>
        <time>2015-06-26T11:16:16Z</time>
      </trkpt>
      <trkpt lat="47.716781012713909" lon="11.375877074897289">
        <ele>597.980000000000018</ele>
        <time>2015-06-26T11:16:19Z</time>
      </trkpt>
      <trkpt lat="47.716879332438111" lon="11.375347673892975">
        <ele>598.799999999999955</ele>
        <time>2015-06-26T11:16:28Z</time>
      </trkpt>
      <trkpt lat="47.716899113729596" lon="11.375203169882298">
        <ele>598.379999999999995</ele>
        <time>2015-06-26T11:16:30Z</time>
      </trkpt>
      <trkpt lat="47.716909507289529" lon="11.375127984210849">
        <ele>599.009999999999991</ele>
        <time>2015-06-26T11:16:31Z</time>
      </trkpt>
      <trkpt lat="47.716955188661814" lon="11.374743422493339">
        <ele>598.149999999999977</ele>
        <time>2015-06-26T11:16:36Z</time>
      </trkpt>
      <trkpt lat="47.717021321877837" lon="11.37436481192708">
        <ele>597.549999999999955</ele>
        <time>2015-06-26T11:16:41Z</time>
      </trkpt>
      <trkpt lat="47.717031296342611" lon="11.374287698417902">
        <ele>598.450000000000045</ele>
        <time>2015-06-26T11:16:42Z</time>
      </trkpt>
      <trkpt lat="47.717170855030417" lon="11.373275835067034">
        <ele>597.129999999999995</ele>
        <time>2015-06-26T11:16:55Z</time>
      </trkpt>
      <trkpt lat="47.71719734184444" lon="11.373050948604941">
        <ele>597.909999999999968</ele>
        <time>2015-06-26T11:16:58Z</time>
      </trkpt>
      <trkpt lat="47.717265905812383" lon="11.372588351368904">
        <ele>597.07000000000005</ele>
        <time>2015-06-26T11:17:05Z</time>
      </trkpt>
      <trkpt lat="47.717274120077491" lon="11.372528756037354">
        <ele>596.759999999999991</ele>
        <time>2015-06-26T11:17:06Z</time>
      </trkpt>
      <trkpt lat="47.717397082597017" lon="11.371799530461431">
        <ele>596.759999999999991</ele>
        <time>2015-06-26T11:17:18Z</time>
      </trkpt>
      <trkpt lat="47.717416109517217" lon="11.371689811348915">
        <ele>597.919999999999959</ele>
        <time>2015-06-26T11:17:20Z</time>
      </trkpt>
      <trkpt lat="47.717424323782325" lon="11.37162946164608">
        <ele>598.210000000000036</ele>
        <time>2015-06-26T11:17:21Z</time>
      </trkpt>
      <trkpt lat="47.717437399551272" lon="11.371562825515866">
        <ele>598.350000000000023</ele>
        <time>2015-06-26T11:17:22Z</time>
      </trkpt>
      <trkpt lat="47.717448296025395" lon="11.371490070596337">
        <ele>598.019999999999982</ele>
        <time>2015-06-26T11:17:23Z</time>
      </trkpt>
      <trkpt lat="47.717459695413709" lon="11.371412621811032">
        <ele>597.980000000000018</ele>
        <time>2015-06-26T11:17:24Z</time>
      </trkpt>
      <trkpt lat="47.717472855001688" lon="11.371333580464125">
        <ele>598.120000000000005</ele>
        <time>2015-06-26T11:17:25Z</time>
      </trkpt>
      <trkpt lat="47.71748274564743" lon="11.371257305145264">
        <ele>598.549999999999955</ele>
        <time>2015-06-26T11:17:26Z</time>
      </trkpt>
      <trkpt lat="47.717522643506527" lon="11.37094097211957">
        <ele>597.259999999999991</ele>
        <time>2015-06-26T11:17:30Z</time>
      </trkpt>
      <trkpt lat="47.717649880796671" lon="11.369967078790069">
        <ele>596.360000000000014</ele>
        <time>2015-06-26T11:17:42Z</time>
      </trkpt>
      <trkpt lat="47.717660861089826" lon="11.369888624176383">
        <ele>596.419999999999959</ele>
        <time>2015-06-26T11:17:43Z</time>
      </trkpt>
      <trkpt lat="47.717671757563949" lon="11.369811343029141">
        <ele>596.580000000000041</ele>
        <time>2015-06-26T11:17:44Z</time>
      </trkpt>
      <trkpt lat="47.717747613787651" lon="11.369250593706965">
        <ele>596.409999999999968</ele>
        <time>2015-06-26T11:17:51Z</time>
      </trkpt>
      <trkpt lat="47.71786873228848" lon="11.368436878547072">
        <ele>595.879999999999995</ele>
        <time>2015-06-26T11:18:04Z</time>
      </trkpt>
      <trkpt lat="47.717862194404006" lon="11.368426820263267">
        <ele>596.090000000000032</ele>
        <time>2015-06-26T11:18:20Z</time>
      </trkpt>
      <trkpt lat="47.717861020937562" lon="11.368427155539393">
        <ele>595.789999999999964</ele>
        <time>2015-06-26T11:19:01Z</time>
      </trkpt>
      <trkpt lat="47.717861942946911" lon="11.368362195789814">
        <ele>596.240000000000009</ele>
        <time>2015-06-26T11:19:27Z</time>
      </trkpt>
      <trkpt lat="47.717867977917194" lon="11.368316346779466">
        <ele>596.720000000000027</ele>
        <time>2015-06-26T11:19:29Z</time>
      </trkpt>
      <trkpt lat="47.717775693163276" lon="11.367844194173813">
        <ele>596.649999999999977</ele>
        <time>2015-06-26T11:19:39Z</time>
      </trkpt>
      <trkpt lat="47.717332961037755" lon="11.36678178794682">
        <ele>597.309999999999945</ele>
        <time>2015-06-26T11:19:56Z</time>
      </trkpt>
      <trkpt lat="47.71714705042541" lon="11.366316759958863">
        <ele>597.129999999999995</ele>
        <time>2015-06-26T11:20:03Z</time>
      </trkpt>
      <trkpt lat="47.717125089839101" lon="11.366249034181237">
        <ele>597.629999999999995</ele>
        <time>2015-06-26T11:20:04Z</time>
      </trkpt>
      <trkpt lat="47.717016711831093" lon="11.36578693985939">
        <ele>596.82000000000005</ele>
        <time>2015-06-26T11:20:12Z</time>
      </trkpt>
      <trkpt lat="47.717030709609389" lon="11.365758273750544">
        <ele>596.67999999999995</ele>
        <time>2015-06-26T11:20:23Z</time>
      </trkpt>
      <trkpt lat="47.717043198645115" lon="11.365727093070745">
        <ele>596.240000000000009</ele>
        <time>2015-06-26T11:20:26Z</time>
      </trkpt>
      <trkpt lat="47.717057028785348" lon="11.365713765844703">
        <ele>596.409999999999968</ele>
        <time>2015-06-26T11:20:27Z</time>
      </trkpt>
      <trkpt lat="47.71707572042942" lon="11.365692894905806">
        <ele>596.419999999999959</ele>
        <time>2015-06-26T11:20:28Z</time>
      </trkpt>
      <trkpt lat="47.7170923165977" lon="11.365666575729847">
        <ele>596.769999999999982</ele>
        <time>2015-06-26T11:20:29Z</time>
      </trkpt>
      <trkpt lat="47.717110421508551" lon="11.365638244897127">
        <ele>596.240000000000009</ele>
        <time>2015-06-26T11:20:30Z</time>
      </trkpt>
      <trkpt lat="47.717132968828082" lon="11.365603292360902">
        <ele>596.210000000000036</ele>
        <time>2015-06-26T11:20:31Z</time>
      </trkpt>
      <trkpt lat="47.717156270518899" lon="11.365564987063408">
        <ele>596.440000000000055</ele>
        <time>2015-06-26T11:20:32Z</time>
      </trkpt>
      <trkpt lat="47.717499677091837" lon="11.365298861637712">
        <ele>596.649999999999977</ele>
        <time>2015-06-26T11:20:42Z</time>
      </trkpt>
      <trkpt lat="47.717748368158937" lon="11.365120243281126">
        <ele>596.850000000000023</ele>
        <time>2015-06-26T11:20:48Z</time>
      </trkpt>
      <trkpt lat="47.718325210735202" lon="11.36474029161036">
        <ele>596.799999999999955</ele>
        <time>2015-06-26T11:21:01Z</time>
      </trkpt>
      <trkpt lat="47.718367036432028" lon="11.36473442427814">
        <ele>596.620000000000005</ele>
        <time>2015-06-26T11:21:02Z</time>
      </trkpt>
      <trkpt lat="47.718410789966583" lon="11.364734843373299">
        <ele>597.039999999999964</ele>
        <time>2015-06-26T11:21:03Z</time>
      </trkpt>
      <trkpt lat="47.718740198761225" lon="11.364789074286819">
        <ele>596.379999999999995</ele>
        <time>2015-06-26T11:21:10Z</time>
      </trkpt>
      <trkpt lat="47.7187863830477" lon="11.364810867235065">
        <ele>596.450000000000045</ele>
        <time>2015-06-26T11:21:11Z</time>
      </trkpt>
      <trkpt lat="47.718829298391938" lon="11.364833666011691">
        <ele>596.649999999999977</ele>
        <time>2015-06-26T11:21:12Z</time>
      </trkpt>
      <trkpt lat="47.718866849318147" lon="11.364864762872458">
        <ele>596.299999999999955</ele>
        <time>2015-06-26T11:21:13Z</time>
      </trkpt>
      <trkpt lat="47.718904316425323" lon="11.364898961037397">
        <ele>596.259999999999991</ele>
        <time>2015-06-26T11:21:14Z</time>
      </trkpt>
      <trkpt lat="47.718939520418644" lon="11.364927962422371">
        <ele>596.759999999999991</ele>
        <time>2015-06-26T11:21:15Z</time>
      </trkpt>
      <trkpt lat="47.718964079394937" lon="11.364969620481133">
        <ele>596.389999999999986</ele>
        <time>2015-06-26T11:21:16Z</time>
      </trkpt>
      <trkpt lat="47.71899308077991" lon="11.365018235519528">
        <ele>596.129999999999995</ele>
        <time>2015-06-26T11:21:17Z</time>
      </trkpt>
      <trkpt lat="47.719018645584583" lon="11.365060983225703">
        <ele>596.460000000000036</ele>
        <time>2015-06-26T11:21:18Z</time>
      </trkpt>
      <trkpt lat="47.719043036922812" lon="11.365105323493481">
        <ele>596.559999999999945</ele>
        <time>2015-06-26T11:21:19Z</time>
      </trkpt>
      <trkpt lat="47.719071032479405" lon="11.365151172503829">
        <ele>597.080000000000041</ele>
        <time>2015-06-26T11:21:20Z</time>
      </trkpt>
      <trkpt lat="47.719320980831981" lon="11.365466499701142">
        <ele>596.399999999999977</ele>
        <time>2015-06-26T11:21:30Z</time>
      </trkpt>
      <trkpt lat="47.719356017187238" lon="11.365471528843045">
        <ele>595.889999999999986</ele>
        <time>2015-06-26T11:21:35Z</time>
      </trkpt>
      <trkpt lat="47.719455007463694" lon="11.365578314289451">
        <ele>596.32000000000005</ele>
        <time>2015-06-26T11:22:07Z</time>
      </trkpt>
      <trkpt lat="47.719466239213943" lon="11.365598766133189">
        <ele>596.649999999999977</ele>
        <time>2015-06-26T11:22:08Z</time>
      </trkpt>
      <trkpt lat="47.719482583925128" lon="11.365618966519833">
        <ele>596.600000000000023</ele>
        <time>2015-06-26T11:22:09Z</time>
      </trkpt>
      <trkpt lat="47.719501778483391" lon="11.36564327403903">
        <ele>596.269999999999982</ele>
        <time>2015-06-26T11:22:10Z</time>
      </trkpt>
      <trkpt lat="47.719524996355176" lon="11.365672694519162">
        <ele>596.440000000000055</ele>
        <time>2015-06-26T11:22:11Z</time>
      </trkpt>
      <trkpt lat="47.719550142064691" lon="11.365714184939861">
        <ele>596</ele>
        <time>2015-06-26T11:22:12Z</time>
      </trkpt>
      <trkpt lat="47.719577718526125" lon="11.365761961787939">
        <ele>596.480000000000018</ele>
        <time>2015-06-26T11:22:13Z</time>
      </trkpt>
      <trkpt lat="47.719755414873362" lon="11.366040324792266">
        <ele>596.080000000000041</ele>
        <time>2015-06-26T11:22:19Z</time>
      </trkpt>
      <trkpt lat="47.719800006598234" lon="11.366073014214635">
        <ele>595.639999999999986</ele>
        <time>2015-06-26T11:22:20Z</time>
      </trkpt>
      <trkpt lat="47.719838730990887" lon="11.366109140217304">
        <ele>596.159999999999968</ele>
        <time>2015-06-26T11:22:21Z</time>
      </trkpt>
      <trkpt lat="47.719879047945142" lon="11.366159515455365">
        <ele>595.610000000000014</ele>
        <time>2015-06-26T11:22:22Z</time>
      </trkpt>
      <trkpt lat="47.719911318272352" lon="11.366201927885413">
        <ele>595.220000000000027</ele>
        <time>2015-06-26T11:22:23Z</time>
      </trkpt>
      <trkpt lat="47.719964208081365" lon="11.36625892482698">
        <ele>595.419999999999959</ele>
        <time>2015-06-26T11:22:30Z</time>
      </trkpt>
      <trkpt lat="47.719989018514752" lon="11.366238640621305">
        <ele>594.899999999999977</ele>
        <time>2015-06-26T11:22:49Z</time>
      </trkpt>
      <trkpt lat="47.720000250265002" lon="11.366241155192256">
        <ele>595.57000000000005</ele>
        <time>2015-06-26T11:23:16Z</time>
      </trkpt>
      <trkpt lat="47.720008967444301" lon="11.366262277588248">
        <ele>595.669999999999959</ele>
        <time>2015-06-26T11:23:17Z</time>
      </trkpt>
      <trkpt lat="47.720022462308407" lon="11.366288345307112">
        <ele>595.230000000000018</ele>
        <time>2015-06-26T11:23:18Z</time>
      </trkpt>
      <trkpt lat="47.720042997971177" lon="11.366319106891751">
        <ele>595.509999999999991</ele>
        <time>2015-06-26T11:23:19Z</time>
      </trkpt>
      <trkpt lat="47.720065545290709" lon="11.366350287571549">
        <ele>595.57000000000005</ele>
        <time>2015-06-26T11:23:20Z</time>
      </trkpt>
      <trkpt lat="47.720183059573174" lon="11.366559332236648">
        <ele>595.470000000000027</ele>
        <time>2015-06-26T11:23:25Z</time>
      </trkpt>
      <trkpt lat="47.720251707360148" lon="11.366654634475708">
        <ele>595.259999999999991</ele>
        <time>2015-06-26T11:23:27Z</time>
      </trkpt>
      <trkpt lat="47.720314571633935" lon="11.366755133494735">
        <ele>595.220000000000027</ele>
        <time>2015-06-26T11:23:29Z</time>
      </trkpt>
      <trkpt lat="47.720378106459975" lon="11.366867953911424">
        <ele>595.769999999999982</ele>
        <time>2015-06-26T11:23:31Z</time>
      </trkpt>
      <trkpt lat="47.720416914671659" lon="11.366923274472356">
        <ele>596.450000000000045</ele>
        <time>2015-06-26T11:23:32Z</time>
      </trkpt>
      <trkpt lat="47.72049511782825" lon="11.367024024948478">
        <ele>595.950000000000045</ele>
        <time>2015-06-26T11:23:34Z</time>
      </trkpt>
      <trkpt lat="47.720527974888682" lon="11.367080854251981">
        <ele>595.779999999999973</ele>
        <time>2015-06-26T11:23:35Z</time>
      </trkpt>
      <trkpt lat="47.720556640997529" lon="11.367142293602228">
        <ele>595.960000000000036</ele>
        <time>2015-06-26T11:23:36Z</time>
      </trkpt>
      <trkpt lat="47.720591258257627" lon="11.367202727124095">
        <ele>595.850000000000023</ele>
        <time>2015-06-26T11:23:37Z</time>
      </trkpt>
      <trkpt lat="47.720624282956123" lon="11.36726500466466">
        <ele>595.889999999999986</ele>
        <time>2015-06-26T11:23:38Z</time>
      </trkpt>
      <trkpt lat="47.720659738406539" lon="11.367324264720082">
        <ele>596.009999999999991</ele>
        <time>2015-06-26T11:23:39Z</time>
      </trkpt>
      <trkpt lat="47.720696283504367" lon="11.367378076538444">
        <ele>595.649999999999977</ele>
        <time>2015-06-26T11:23:40Z</time>
      </trkpt>
      <trkpt lat="47.720731403678656" lon="11.36742970906198">
        <ele>595.220000000000027</ele>
        <time>2015-06-26T11:23:41Z</time>
      </trkpt>
      <trkpt lat="47.720768786966801" lon="11.367483520880342">
        <ele>595.399999999999977</ele>
        <time>2015-06-26T11:23:42Z</time>
      </trkpt>
      <trkpt lat="47.720843469724059" lon="11.367590641602874">
        <ele>595.889999999999986</ele>
        <time>2015-06-26T11:23:44Z</time>
      </trkpt>
      <trkpt lat="47.720882361754775" lon="11.367645543068647">
        <ele>596.269999999999982</ele>
        <time>2015-06-26T11:23:45Z</time>
      </trkpt>
      <trkpt lat="47.720917062833905" lon="11.367702791467309">
        <ele>595.690000000000055</ele>
        <time>2015-06-26T11:23:46Z</time>
      </trkpt>
      <trkpt lat="47.721158126369119" lon="11.368083581328392">
        <ele>595.279999999999973</ele>
        <time>2015-06-26T11:23:53Z</time>
      </trkpt>
      <trkpt lat="47.721190815791488" lon="11.368132699280977">
        <ele>595.629999999999995</ele>
        <time>2015-06-26T11:23:54Z</time>
      </trkpt>
      <trkpt lat="47.721225433051586" lon="11.36818952858448">
        <ele>595.360000000000014</ele>
        <time>2015-06-26T11:23:55Z</time>
      </trkpt>
      <trkpt lat="47.721262564882636" lon="11.368245771154761">
        <ele>595.879999999999995</ele>
        <time>2015-06-26T11:23:56Z</time>
      </trkpt>
      <trkpt lat="47.72130036726594" lon="11.368300756439567">
        <ele>595.620000000000005</ele>
        <time>2015-06-26T11:23:57Z</time>
      </trkpt>
      <trkpt lat="47.721409918740392" lon="11.36847048997879">
        <ele>595.309999999999945</ele>
        <time>2015-06-26T11:24:00Z</time>
      </trkpt>
      <trkpt lat="47.72165609523654" lon="11.368785733357072">
        <ele>595.389999999999986</ele>
        <time>2015-06-26T11:24:06Z</time>
      </trkpt>
      <trkpt lat="47.721690041944385" lon="11.36884281411767">
        <ele>594.639999999999986</ele>
        <time>2015-06-26T11:24:07Z</time>
      </trkpt>
      <trkpt lat="47.721721054986119" lon="11.368904840201139">
        <ele>595.269999999999982</ele>
        <time>2015-06-26T11:24:08Z</time>
      </trkpt>
      <trkpt lat="47.721744105219841" lon="11.368974829092622">
        <ele>595.409999999999968</ele>
        <time>2015-06-26T11:24:09Z</time>
      </trkpt>
      <trkpt lat="47.721765395253897" lon="11.369039956480265">
        <ele>594.92999999999995</ele>
        <time>2015-06-26T11:24:10Z</time>
      </trkpt>
      <trkpt lat="47.721787774935365" lon="11.369101563468575">
        <ele>595.350000000000023</ele>
        <time>2015-06-26T11:24:11Z</time>
      </trkpt>
      <trkpt lat="47.721818452700973" lon="11.369160739704967">
        <ele>595.450000000000045</ele>
        <time>2015-06-26T11:24:12Z</time>
      </trkpt>
      <trkpt lat="47.721848711371422" lon="11.36921564117074">
        <ele>595.289999999999964</ele>
        <time>2015-06-26T11:24:13Z</time>
      </trkpt>
      <trkpt lat="47.721971087157726" lon="11.369383530691266">
        <ele>595.740000000000009</ele>
        <time>2015-06-26T11:24:17Z</time>
      </trkpt>
      <trkpt lat="47.722200248390436" lon="11.369663067162037">
        <ele>595.559999999999945</ele>
        <time>2015-06-26T11:24:23Z</time>
      </trkpt>
      <trkpt lat="47.72224492393434" lon="11.369712939485908">
        <ele>595.789999999999964</ele>
        <time>2015-06-26T11:24:24Z</time>
      </trkpt>
      <trkpt lat="47.722406359389424" lon="11.369908237829804">
        <ele>595.899999999999977</ele>
        <time>2015-06-26T11:24:28Z</time>
      </trkpt>
      <trkpt lat="47.722429912537336" lon="11.369961043819785">
        <ele>595.730000000000018</ele>
        <time>2015-06-26T11:24:29Z</time>
      </trkpt>
      <trkpt lat="47.722454136237502" lon="11.37001309543848">
        <ele>595.490000000000009</ele>
        <time>2015-06-26T11:24:30Z</time>
      </trkpt>
      <trkpt lat="47.722511887550354" lon="11.370119210332632">
        <ele>595.789999999999964</ele>
        <time>2015-06-26T11:24:32Z</time>
      </trkpt>
      <trkpt lat="47.72255027666688" lon="11.370161455124617">
        <ele>595.639999999999986</ele>
        <time>2015-06-26T11:24:33Z</time>
      </trkpt>
      <trkpt lat="47.722587240859866" lon="11.370192049071193">
        <ele>595.659999999999968</ele>
        <time>2015-06-26T11:24:34Z</time>
      </trkpt>
      <trkpt lat="47.722630072385073" lon="11.370230605825782">
        <ele>595.580000000000041</ele>
        <time>2015-06-26T11:24:35Z</time>
      </trkpt>
      <trkpt lat="47.722678855061531" lon="11.370272096246481">
        <ele>595.919999999999959</ele>
        <time>2015-06-26T11:24:36Z</time>
      </trkpt>
      <trkpt lat="47.722759991884232" lon="11.370352143421769">
        <ele>595.639999999999986</ele>
        <time>2015-06-26T11:24:38Z</time>
      </trkpt>
      <trkpt lat="47.722829645499587" lon="11.370446858927608">
        <ele>595.299999999999955</ele>
        <time>2015-06-26T11:24:40Z</time>
      </trkpt>
      <trkpt lat="47.722939951345325" lon="11.370650958269835">
        <ele>596.009999999999991</ele>
        <time>2015-06-26T11:24:44Z</time>
      </trkpt>
      <trkpt lat="47.722976831719279" lon="11.37068985030055">
        <ele>596.169999999999959</ele>
        <time>2015-06-26T11:24:45Z</time>
      </trkpt>
      <trkpt lat="47.723088143393397" lon="11.370796300470829">
        <ele>596</ele>
        <time>2015-06-26T11:24:48Z</time>
      </trkpt>
      <trkpt lat="47.723215632140636" lon="11.370929488912225">
        <ele>595.889999999999986</ele>
        <time>2015-06-26T11:24:51Z</time>
      </trkpt>
      <trkpt lat="47.723347982391715" lon="11.371090924367309">
        <ele>596.470000000000027</ele>
        <time>2015-06-26T11:24:55Z</time>
      </trkpt>
      <trkpt lat="47.723428783938289" lon="11.371167954057455">
        <ele>596.340000000000032</ele>
        <time>2015-06-26T11:24:57Z</time>
      </trkpt>
      <trkpt lat="47.72347329184413" lon="11.371200140565634">
        <ele>595.899999999999977</ele>
        <time>2015-06-26T11:24:58Z</time>
      </trkpt>
      <trkpt lat="47.723516626283526" lon="11.371244983747602">
        <ele>595.639999999999986</ele>
        <time>2015-06-26T11:24:59Z</time>
      </trkpt>
      <trkpt lat="47.723552668467164" lon="11.371292425319552">
        <ele>595.980000000000018</ele>
        <time>2015-06-26T11:25:00Z</time>
      </trkpt>
      <trkpt lat="47.723598936572671" lon="11.371337184682488">
        <ele>596.129999999999995</ele>
        <time>2015-06-26T11:25:01Z</time>
      </trkpt>
      <trkpt lat="47.723981318995357" lon="11.371730212122202">
        <ele>596.620000000000005</ele>
        <time>2015-06-26T11:25:12Z</time>
      </trkpt>
      <trkpt lat="47.724019959568977" lon="11.371766338124871">
        <ele>596.960000000000036</ele>
        <time>2015-06-26T11:25:13Z</time>
      </trkpt>
      <trkpt lat="47.724121548235416" lon="11.371897263452411">
        <ele>596.330000000000041</ele>
        <time>2015-06-26T11:25:16Z</time>
      </trkpt>
      <trkpt lat="47.724161697551608" lon="11.371931377798319">
        <ele>595.720000000000027</ele>
        <time>2015-06-26T11:25:17Z</time>
      </trkpt>
      <trkpt lat="47.724349284544587" lon="11.37207068502903">
        <ele>595.240000000000009</ele>
        <time>2015-06-26T11:25:21Z</time>
      </trkpt>
      <trkpt lat="47.724433187395334" lon="11.37214059010148">
        <ele>595.700000000000045</ele>
        <time>2015-06-26T11:25:23Z</time>
      </trkpt>
      <trkpt lat="47.724482724443078" lon="11.372180320322514">
        <ele>595.220000000000027</ele>
        <time>2015-06-26T11:25:24Z</time>
      </trkpt>
      <trkpt lat="47.724540391936898" lon="11.372224492952228">
        <ele>595.100000000000023</ele>
        <time>2015-06-26T11:25:25Z</time>
      </trkpt>
      <trkpt lat="47.724593449383974" lon="11.372287021949887">
        <ele>594.899999999999977</ele>
        <time>2015-06-26T11:25:26Z</time>
      </trkpt>
      <trkpt lat="47.72463770583272" lon="11.372325159609318">
        <ele>595.279999999999973</ele>
        <time>2015-06-26T11:25:27Z</time>
      </trkpt>
      <trkpt lat="47.724690428003669" lon="11.372370002791286">
        <ele>595.029999999999973</ele>
        <time>2015-06-26T11:25:28Z</time>
      </trkpt>
      <trkpt lat="47.724735019728541" lon="11.372407637536526">
        <ele>594.82000000000005</ele>
        <time>2015-06-26T11:25:29Z</time>
      </trkpt>
      <trkpt lat="47.725158389657736" lon="11.372712990269065">
        <ele>594.289999999999964</ele>
        <time>2015-06-26T11:25:37Z</time>
      </trkpt>
      <trkpt lat="47.72525779902935" lon="11.372771495953202">
        <ele>594.200000000000045</ele>
        <time>2015-06-26T11:25:39Z</time>
      </trkpt>
      <trkpt lat="47.725299373269081" lon="11.372797563672066">
        <ele>594.519999999999982</ele>
        <time>2015-06-26T11:25:40Z</time>
      </trkpt>
      <trkpt lat="47.72534036077559" lon="11.372820613905787">
        <ele>594.230000000000018</ele>
        <time>2015-06-26T11:25:41Z</time>
      </trkpt>
      <trkpt lat="47.725446810945868" lon="11.372837964445353">
        <ele>593.82000000000005</ele>
        <time>2015-06-26T11:25:50Z</time>
      </trkpt>
      <trkpt lat="47.725525936111808" lon="11.372868055477738">
        <ele>594.379999999999995</ele>
        <time>2015-06-26T11:26:07Z</time>
      </trkpt>
      <trkpt lat="47.725530294701457" lon="11.372886411845684">
        <ele>593.769999999999982</ele>
        <time>2015-06-26T11:26:08Z</time>
      </trkpt>
      <trkpt lat="47.72553339600563" lon="11.372909462079406">
        <ele>593.779999999999973</ele>
        <time>2015-06-26T11:26:09Z</time>
      </trkpt>
      <trkpt lat="47.725537335500121" lon="11.372935529798269">
        <ele>594.220000000000027</ele>
        <time>2015-06-26T11:26:10Z</time>
      </trkpt>
      <trkpt lat="47.725535994395614" lon="11.372970147058368">
        <ele>593.92999999999995</ele>
        <time>2015-06-26T11:26:11Z</time>
      </trkpt>
      <trkpt lat="47.725528534501791" lon="11.373006189242005">
        <ele>594.240000000000009</ele>
        <time>2015-06-26T11:26:12Z</time>
      </trkpt>
      <trkpt lat="47.725495677441359" lon="11.37329570017755">
        <ele>595.690000000000055</ele>
        <time>2015-06-26T11:26:18Z</time>
      </trkpt>
      <trkpt lat="47.725516380742192" lon="11.373322689905763">
        <ele>596.090000000000032</ele>
        <time>2015-06-26T11:26:19Z</time>
      </trkpt>
      <trkpt lat="47.725536329671741" lon="11.373317157849669">
        <ele>596.309999999999945</ele>
        <time>2015-06-26T11:26:20Z</time>
      </trkpt>
      <trkpt lat="47.725546136498451" lon="11.373293269425631">
        <ele>597.139999999999986</ele>
        <time>2015-06-26T11:26:21Z</time>
      </trkpt>
      <trkpt lat="47.725550830364227" lon="11.373259574174881">
        <ele>597.470000000000027</ele>
        <time>2015-06-26T11:26:22Z</time>
      </trkpt>
      <trkpt lat="47.725554015487432" lon="11.373218167573214">
        <ele>597.470000000000027</ele>
        <time>2015-06-26T11:26:23Z</time>
      </trkpt>
      <trkpt lat="47.72567069157958" lon="11.372324153780937">
        <ele>597.990000000000009</ele>
        <time>2015-06-26T11:26:37Z</time>
      </trkpt>
      <trkpt lat="47.725729951635003" lon="11.371872201561928">
        <ele>597.740000000000009</ele>
        <time>2015-06-26T11:26:44Z</time>
      </trkpt>
      <trkpt lat="47.72571955807507" lon="11.371840685606003">
        <ele>597.509999999999991</ele>
        <time>2015-06-26T11:26:45Z</time>
      </trkpt>
      <trkpt lat="47.725698603317142" lon="11.371822999790311">
        <ele>597.350000000000023</ele>
        <time>2015-06-26T11:26:46Z</time>
      </trkpt>
      <trkpt lat="47.725669853389263" lon="11.371812606230378">
        <ele>597.259999999999991</ele>
        <time>2015-06-26T11:26:47Z</time>
      </trkpt>
      <trkpt lat="47.725638169795275" lon="11.371805900707841">
        <ele>597.07000000000005</ele>
        <time>2015-06-26T11:26:48Z</time>
      </trkpt>
      <trkpt lat="47.72561352699995" lon="11.371805900707841">
        <ele>595.970000000000027</ele>
        <time>2015-06-26T11:26:49Z</time>
      </trkpt>
      <trkpt lat="47.725596930831671" lon="11.371819982305169">
        <ele>596.019999999999982</ele>
        <time>2015-06-26T11:26:50Z</time>
      </trkpt>
      <trkpt lat="47.72558955475688" lon="11.371845798566937">
        <ele>596.32000000000005</ele>
        <time>2015-06-26T11:26:51Z</time>
      </trkpt>
      <trkpt lat="47.725593075156212" lon="11.371882846578956">
        <ele>595.899999999999977</ele>
        <time>2015-06-26T11:26:52Z</time>
      </trkpt>
      <trkpt lat="47.725607072934508" lon="11.371926432475448">
        <ele>595.659999999999968</ele>
        <time>2015-06-26T11:26:53Z</time>
      </trkpt>
      <trkpt lat="47.725626351311803" lon="11.371963983401656">
        <ele>595.059999999999945</ele>
        <time>2015-06-26T11:26:54Z</time>
      </trkpt>
      <trkpt lat="47.725653173401952" lon="11.372011424973607">
        <ele>594.990000000000009</ele>
        <time>2015-06-26T11:26:55Z</time>
      </trkpt>
      <trkpt lat="47.725723581388593" lon="11.372110582888126">
        <ele>593.799999999999955</ele>
        <time>2015-06-26T11:26:58Z</time>
      </trkpt>
      <trkpt lat="47.72574688307941" lon="11.372118294239044">
        <ele>594.370000000000005</ele>
        <time>2015-06-26T11:26:59Z</time>
      </trkpt>
      <trkpt lat="47.725778734311461" lon="11.372116701677442">
        <ele>594.299999999999955</ele>
        <time>2015-06-26T11:27:00Z</time>
      </trkpt>
      <trkpt lat="47.725803544744849" lon="11.372084515169263">
        <ele>594.039999999999964</ele>
        <time>2015-06-26T11:27:01Z</time>
      </trkpt>
      <trkpt lat="47.725826846435666" lon="11.372040845453739">
        <ele>594.67999999999995</ele>
        <time>2015-06-26T11:27:02Z</time>
      </trkpt>
      <trkpt lat="47.725851405411959" lon="11.372014442458749">
        <ele>595.360000000000014</ele>
        <time>2015-06-26T11:27:03Z</time>
      </trkpt>
      <trkpt lat="47.725884346291423" lon="11.372003713622689">
        <ele>595.340000000000032</ele>
        <time>2015-06-26T11:27:04Z</time>
      </trkpt>
      <trkpt lat="47.725923908874393" lon="11.372013101354241">
        <ele>595.159999999999968</ele>
        <time>2015-06-26T11:27:05Z</time>
      </trkpt>
      <trkpt lat="47.725962800905108" lon="11.37203305028379">
        <ele>594.720000000000027</ele>
        <time>2015-06-26T11:27:06Z</time>
      </trkpt>
      <trkpt lat="47.725996244698763" lon="11.372059034183621">
        <ele>594.32000000000005</ele>
        <time>2015-06-26T11:27:07Z</time>
      </trkpt>
      <trkpt lat="47.726025497540832" lon="11.372100608423352">
        <ele>594.860000000000014</ele>
        <time>2015-06-26T11:27:08Z</time>
      </trkpt>
      <trkpt lat="47.72605181671679" lon="11.372130447998643">
        <ele>594.399999999999977</ele>
        <time>2015-06-26T11:27:09Z</time>
      </trkpt>
      <trkpt lat="47.726070005446672" lon="11.372150313109159">
        <ele>593.980000000000018</ele>
        <time>2015-06-26T11:27:18Z</time>
      </trkpt>
      <trkpt lat="47.72609087638557" lon="11.372154923155904">
        <ele>594.330000000000041</ele>
        <time>2015-06-26T11:27:23Z</time>
      </trkpt>
      <trkpt lat="47.7261031139642" lon="11.372169172391295">
        <ele>594.389999999999986</ele>
        <time>2015-06-26T11:27:24Z</time>
      </trkpt>
      <trkpt lat="47.726118452847004" lon="11.372183505445719">
        <ele>594.080000000000041</ele>
        <time>2015-06-26T11:27:25Z</time>
      </trkpt>
      <trkpt lat="47.726142508909106" lon="11.372207729145885">
        <ele>594.409999999999968</ele>
        <time>2015-06-26T11:27:26Z</time>
      </trkpt>
      <trkpt lat="47.726168408989906" lon="11.372237149626017">
        <ele>594.409999999999968</ele>
        <time>2015-06-26T11:27:27Z</time>
      </trkpt>
      <trkpt lat="47.726196069270372" lon="11.372268414124846">
        <ele>594.07000000000005</ele>
        <time>2015-06-26T11:27:28Z</time>
      </trkpt>
      <trkpt lat="47.726230602711439" lon="11.372304623946548">
        <ele>594.409999999999968</ele>
        <time>2015-06-26T11:27:29Z</time>
      </trkpt>
      <trkpt lat="47.726275194436312" lon="11.372338403016329">
        <ele>593.490000000000009</ele>
        <time>2015-06-26T11:27:30Z</time>
      </trkpt>
      <trkpt lat="47.726325066760182" lon="11.372366901487112">
        <ele>593.669999999999959</ele>
        <time>2015-06-26T11:27:31Z</time>
      </trkpt>
      <trkpt lat="47.726379213854671" lon="11.372390454635024">
        <ele>594.370000000000005</ele>
        <time>2015-06-26T11:27:32Z</time>
      </trkpt>
      <trkpt lat="47.726431852206588" lon="11.372405374422669">
        <ele>594.580000000000041</ele>
        <time>2015-06-26T11:27:33Z</time>
      </trkpt>
      <trkpt lat="47.726484490558505" lon="11.372422892600298">
        <ele>594.159999999999968</ele>
        <time>2015-06-26T11:27:34Z</time>
      </trkpt>
      <trkpt lat="47.726534111425281" lon="11.372447116300464">
        <ele>593.940000000000055</ele>
        <time>2015-06-26T11:27:35Z</time>
      </trkpt>
      <trkpt lat="47.726582307368517" lon="11.372479302808642">
        <ele>593.5</ele>
        <time>2015-06-26T11:27:36Z</time>
      </trkpt>
      <trkpt lat="47.726629078388214" lon="11.37251584790647">
        <ele>593.629999999999995</ele>
        <time>2015-06-26T11:27:37Z</time>
      </trkpt>
      <trkpt lat="47.727140290662646" lon="11.372861433774233">
        <ele>593.17999999999995</ele>
        <time>2015-06-26T11:27:50Z</time>
      </trkpt>
      <trkpt lat="47.727213967591524" lon="11.372896805405617">
        <ele>593.779999999999973</ele>
        <time>2015-06-26T11:28:01Z</time>
      </trkpt>
      <trkpt lat="47.727246070280671" lon="11.372896637767553">
        <ele>594.059999999999945</ele>
        <time>2015-06-26T11:28:23Z</time>
      </trkpt>
      <trkpt lat="47.727265683934093" lon="11.372896218672395">
        <ele>593.919999999999959</ele>
        <time>2015-06-26T11:28:41Z</time>
      </trkpt>
      <trkpt lat="47.727280016988516" lon="11.372902002185583">
        <ele>593.879999999999995</ele>
        <time>2015-06-26T11:28:42Z</time>
      </trkpt>
      <trkpt lat="47.72729879245162" lon="11.372910216450691">
        <ele>593.899999999999977</ele>
        <time>2015-06-26T11:28:43Z</time>
      </trkpt>
      <trkpt lat="47.727321088314056" lon="11.372916251420975">
        <ele>594.090000000000032</ele>
        <time>2015-06-26T11:28:44Z</time>
      </trkpt>
      <trkpt lat="47.727345982566476" lon="11.372926142066717">
        <ele>594.220000000000027</ele>
        <time>2015-06-26T11:28:45Z</time>
      </trkpt>
      <trkpt lat="47.727375235408545" lon="11.37294240295887">
        <ele>593.990000000000009</ele>
        <time>2015-06-26T11:28:46Z</time>
      </trkpt>
      <trkpt lat="47.727599451318383" lon="11.373086404055357">
        <ele>593.799999999999955</ele>
        <time>2015-06-26T11:28:52Z</time>
      </trkpt>
      <trkpt lat="47.727764574810863" lon="11.373165780678391">
        <ele>593.529999999999973</ele>
        <time>2015-06-26T11:28:56Z</time>
      </trkpt>
      <trkpt lat="47.727973619475961" lon="11.373295532539487">
        <ele>593.480000000000018</ele>
        <time>2015-06-26T11:29:01Z</time>
      </trkpt>
      <trkpt lat="47.728312416002154" lon="11.373622175306082">
        <ele>593.67999999999995</ele>
        <time>2015-06-26T11:29:10Z</time>
      </trkpt>
      <trkpt lat="47.728391541168094" lon="11.373682357370853">
        <ele>594.970000000000027</ele>
        <time>2015-06-26T11:29:12Z</time>
      </trkpt>
      <trkpt lat="47.728499248623848" lon="11.373800793662667">
        <ele>594.639999999999986</ele>
        <time>2015-06-26T11:29:15Z</time>
      </trkpt>
      <trkpt lat="47.728543588891625" lon="11.373837925493717">
        <ele>594.5</ele>
        <time>2015-06-26T11:29:16Z</time>
      </trkpt>
      <trkpt lat="47.728591784834862" lon="11.373867178335786">
        <ele>594.019999999999982</ele>
        <time>2015-06-26T11:29:17Z</time>
      </trkpt>
      <trkpt lat="47.728639477863908" lon="11.373891485854983">
        <ele>594.259999999999991</ele>
        <time>2015-06-26T11:29:18Z</time>
      </trkpt>
      <trkpt lat="47.728684656322002" lon="11.373924259096384">
        <ele>593.669999999999959</ele>
        <time>2015-06-26T11:29:19Z</time>
      </trkpt>
      <trkpt lat="47.728727990761399" lon="11.373961977660656">
        <ele>593.980000000000018</ele>
        <time>2015-06-26T11:29:20Z</time>
      </trkpt>
      <trkpt lat="47.729206681251526" lon="11.374331368133426">
        <ele>594.17999999999995</ele>
        <time>2015-06-26T11:29:33Z</time>
      </trkpt>
      <trkpt lat="47.729373313486576" lon="11.374484086409211">
        <ele>593.919999999999959</ele>
        <time>2015-06-26T11:29:37Z</time>
      </trkpt>
      <trkpt lat="47.729403991252184" lon="11.374534713104367">
        <ele>593.110000000000014</ele>
        <time>2015-06-26T11:29:38Z</time>
      </trkpt>
      <trkpt lat="47.729432489722967" lon="11.374585591256618">
        <ele>593.559999999999945</ele>
        <time>2015-06-26T11:29:39Z</time>
      </trkpt>
      <trkpt lat="47.729462077841163" lon="11.374629177153111">
        <ele>593.5</ele>
        <time>2015-06-26T11:29:40Z</time>
      </trkpt>
      <trkpt lat="47.729493007063866" lon="11.374670583754778">
        <ele>593.759999999999991</ele>
        <time>2015-06-26T11:29:41Z</time>
      </trkpt>
      <trkpt lat="47.729516141116619" lon="11.374716432765126">
        <ele>593.669999999999959</ele>
        <time>2015-06-26T11:29:42Z</time>
      </trkpt>
      <trkpt lat="47.729537012055516" lon="11.374767981469631">
        <ele>593.659999999999968</ele>
        <time>2015-06-26T11:29:43Z</time>
      </trkpt>
      <trkpt lat="47.729554362595081" lon="11.374823385849595">
        <ele>593.75</ele>
        <time>2015-06-26T11:29:44Z</time>
      </trkpt>
      <trkpt lat="47.729567857459188" lon="11.374875605106354">
        <ele>593.460000000000036</ele>
        <time>2015-06-26T11:29:45Z</time>
      </trkpt>
      <trkpt lat="47.729573976248503" lon="11.374915586784482">
        <ele>593.220000000000027</ele>
        <time>2015-06-26T11:29:46Z</time>
      </trkpt>
      <trkpt lat="47.729694591835141" lon="11.375389751046896">
        <ele>593.340000000000032</ele>
        <time>2015-06-26T11:30:00Z</time>
      </trkpt>
      <trkpt lat="47.729810681194067" lon="11.375817898660898">
        <ele>593.75</ele>
        <time>2015-06-26T11:30:13Z</time>
      </trkpt>
      <trkpt lat="47.729877317324281" lon="11.376074636355042">
        <ele>593.899999999999977</ele>
        <time>2015-06-26T11:30:20Z</time>
      </trkpt>
      <trkpt lat="47.73000187240541" lon="11.376494737342">
        <ele>593.850000000000023</ele>
        <time>2015-06-26T11:30:31Z</time>
      </trkpt>
      <trkpt lat="47.730113854631782" lon="11.376889273524284">
        <ele>593.990000000000009</ele>
        <time>2015-06-26T11:30:41Z</time>
      </trkpt>
      <trkpt lat="47.730228519067168" lon="11.377309542149305">
        <ele>593.789999999999964</ele>
        <time>2015-06-26T11:30:50Z</time>
      </trkpt>
      <trkpt lat="47.730359947308898" lon="11.377644399181008">
        <ele>593.309999999999945</ele>
        <time>2015-06-26T11:31:00Z</time>
      </trkpt>
      <trkpt lat="47.730641746893525" lon="11.378091238439083">
        <ele>593.139999999999986</ele>
        <time>2015-06-26T11:31:12Z</time>
      </trkpt>
      <trkpt lat="47.730806199833751" lon="11.378328446298838">
        <ele>592.759999999999991</ele>
        <time>2015-06-26T11:31:19Z</time>
      </trkpt>
      <trkpt lat="47.730876440182328" lon="11.378335151821375">
        <ele>592.470000000000027</ele>
        <time>2015-06-26T11:31:22Z</time>
      </trkpt>
      <trkpt lat="47.730895299464464" lon="11.378328613936901">
        <ele>593.029999999999973</ele>
        <time>2015-06-26T11:31:23Z</time>
      </trkpt>
      <trkpt lat="47.730919858440757" lon="11.378339342772961">
        <ele>592.370000000000005</ele>
        <time>2015-06-26T11:31:24Z</time>
      </trkpt>
      <trkpt lat="47.730946848168969" lon="11.378362476825714">
        <ele>592.490000000000009</ele>
        <time>2015-06-26T11:31:25Z</time>
      </trkpt>
      <trkpt lat="47.7309659589082" lon="11.378391897305846">
        <ele>593.039999999999964</ele>
        <time>2015-06-26T11:31:26Z</time>
      </trkpt>
      <trkpt lat="47.730986159294844" lon="11.378418551757932">
        <ele>593.019999999999982</ele>
        <time>2015-06-26T11:31:27Z</time>
      </trkpt>
      <trkpt lat="47.731005353853106" lon="11.378444032743573">
        <ele>593.149999999999977</ele>
        <time>2015-06-26T11:31:28Z</time>
      </trkpt>
      <trkpt lat="47.731037037447095" lon="11.378469178453088">
        <ele>593.370000000000005</ele>
        <time>2015-06-26T11:31:31Z</time>
      </trkpt>
      <trkpt lat="47.73111498914659" lon="11.378500694409013">
        <ele>592.759999999999991</ele>
        <time>2015-06-26T11:31:53Z</time>
      </trkpt>
      <trkpt lat="47.731127813458443" lon="11.378516452386975">
        <ele>592.700000000000045</ele>
        <time>2015-06-26T11:31:54Z</time>
      </trkpt>
      <trkpt lat="47.731155306100845" lon="11.378551991656423">
        <ele>592.909999999999968</ele>
        <time>2015-06-26T11:31:56Z</time>
      </trkpt>
      <trkpt lat="47.731171399354935" lon="11.378574203699827">
        <ele>593.129999999999995</ele>
        <time>2015-06-26T11:31:57Z</time>
      </trkpt>
      <trkpt lat="47.731189001351595" lon="11.378600941970944">
        <ele>592.830000000000041</ele>
        <time>2015-06-26T11:31:58Z</time>
      </trkpt>
      <trkpt lat="47.731208615005016" lon="11.378636481240392">
        <ele>592.669999999999959</ele>
        <time>2015-06-26T11:31:59Z</time>
      </trkpt>
      <trkpt lat="47.73122881539166" lon="11.378676127642393">
        <ele>593.019999999999982</ele>
        <time>2015-06-26T11:32:00Z</time>
      </trkpt>
      <trkpt lat="47.731249602511525" lon="11.378719378262758">
        <ele>592.509999999999991</ele>
        <time>2015-06-26T11:32:01Z</time>
      </trkpt>
      <trkpt lat="47.731274832040071" lon="11.378757013007998">
        <ele>592.850000000000023</ele>
        <time>2015-06-26T11:32:02Z</time>
      </trkpt>
      <trkpt lat="47.731307940557599" lon="11.378785679116845">
        <ele>592.759999999999991</ele>
        <time>2015-06-26T11:32:03Z</time>
      </trkpt>
      <trkpt lat="47.73134465329349" lon="11.378808142617345">
        <ele>592.610000000000014</ele>
        <time>2015-06-26T11:32:04Z</time>
      </trkpt>
      <trkpt lat="47.731493767350912" lon="11.378923812881112">
        <ele>592.169999999999959</ele>
        <time>2015-06-26T11:32:10Z</time>
      </trkpt>
      <trkpt lat="47.731569204479456" lon="11.379122631624341">
        <ele>592.200000000000045</ele>
        <time>2015-06-26T11:32:18Z</time>
      </trkpt>
      <trkpt lat="47.731627626344562" lon="11.379124391824007">
        <ele>593.019999999999982</ele>
        <time>2015-06-26T11:32:29Z</time>
      </trkpt>
      <trkpt lat="47.731645815074444" lon="11.379124140366912">
        <ele>592.759999999999991</ele>
        <time>2015-06-26T11:32:32Z</time>
      </trkpt>
      <trkpt lat="47.73169057443738" lon="11.3791748508811">
        <ele>592.360000000000014</ele>
        <time>2015-06-26T11:32:36Z</time>
      </trkpt>
      <trkpt lat="47.731708511710167" lon="11.37920125387609">
        <ele>592.590000000000032</ele>
        <time>2015-06-26T11:32:37Z</time>
      </trkpt>
      <trkpt lat="47.731725610792637" lon="11.379225729033351">
        <ele>592.809999999999945</ele>
        <time>2015-06-26T11:32:38Z</time>
      </trkpt>
      <trkpt lat="47.731743212789297" lon="11.379244672134519">
        <ele>592.529999999999973</ele>
        <time>2015-06-26T11:32:39Z</time>
      </trkpt>
      <trkpt lat="47.731753773987293" lon="11.379264201968908">
        <ele>592.309999999999945</ele>
        <time>2015-06-26T11:32:40Z</time>
      </trkpt>
      <trkpt lat="47.731764083728194" lon="11.37929068878293">
        <ele>592.159999999999968</ele>
        <time>2015-06-26T11:32:41Z</time>
      </trkpt>
      <trkpt lat="47.731812363490462" lon="11.379394792020321">
        <ele>592.460000000000036</ele>
        <time>2015-06-26T11:32:46Z</time>
      </trkpt>
      <trkpt lat="47.73182200267911" lon="11.379408957436681">
        <ele>592.850000000000023</ele>
        <time>2015-06-26T11:32:47Z</time>
      </trkpt>
      <trkpt lat="47.731831558048725" lon="11.379428319633007">
        <ele>591.980000000000018</ele>
        <time>2015-06-26T11:32:48Z</time>
      </trkpt>
      <trkpt lat="47.731841616332531" lon="11.379455057904124">
        <ele>591.710000000000036</ele>
        <time>2015-06-26T11:32:49Z</time>
      </trkpt>
      <trkpt lat="47.731851255521178" lon="11.379482131451368">
        <ele>592.029999999999973</ele>
        <time>2015-06-26T11:32:50Z</time>
      </trkpt>
      <trkpt lat="47.731854021549225" lon="11.379505936056376">
        <ele>592.620000000000005</ele>
        <time>2015-06-26T11:32:51Z</time>
      </trkpt>
      <trkpt lat="47.731858212500811" lon="11.379523705691099">
        <ele>592.730000000000018</ele>
        <time>2015-06-26T11:32:52Z</time>
      </trkpt>
      <trkpt lat="47.731866175308824" lon="11.379540720954537">
        <ele>592.07000000000005</ele>
        <time>2015-06-26T11:32:53Z</time>
      </trkpt>
      <trkpt lat="47.731914119794965" lon="11.379648763686419">
        <ele>592.480000000000018</ele>
        <time>2015-06-26T11:33:09Z</time>
      </trkpt>
      <trkpt lat="47.731976732611656" lon="11.379843726754189">
        <ele>592.350000000000023</ele>
        <time>2015-06-26T11:33:35Z</time>
      </trkpt>
      <trkpt lat="47.732070358470082" lon="11.380422580987215">
        <ele>592.289999999999964</ele>
        <time>2015-06-26T11:33:46Z</time>
      </trkpt>
      <trkpt lat="47.732102712616324" lon="11.380665320903063">
        <ele>592.879999999999995</ele>
        <time>2015-06-26T11:33:50Z</time>
      </trkpt>
      <trkpt lat="47.73212936706841" lon="11.381221208721399">
        <ele>592.67999999999995</ele>
        <time>2015-06-26T11:33:58Z</time>
      </trkpt>
      <trkpt lat="47.732141772285104" lon="11.381285917013884">
        <ele>592.830000000000041</ele>
        <time>2015-06-26T11:33:59Z</time>
      </trkpt>
      <trkpt lat="47.732159709557891" lon="11.381351547315717">
        <ele>592.870000000000005</ele>
        <time>2015-06-26T11:34:00Z</time>
      </trkpt>
      <trkpt lat="47.732175216078758" lon="11.381415920332074">
        <ele>593.169999999999959</ele>
        <time>2015-06-26T11:34:01Z</time>
      </trkpt>
      <trkpt lat="47.73218896239996" lon="11.3814802095294">
        <ele>593.389999999999986</ele>
        <time>2015-06-26T11:34:02Z</time>
      </trkpt>
      <trkpt lat="47.732256269082427" lon="11.38248972594738">
        <ele>593.559999999999945</ele>
        <time>2015-06-26T11:34:16Z</time>
      </trkpt>
      <trkpt lat="47.732263896614313" lon="11.382562313228846">
        <ele>593.490000000000009</ele>
        <time>2015-06-26T11:34:17Z</time>
      </trkpt>
      <trkpt lat="47.732270518317819" lon="11.382633475586772">
        <ele>593.879999999999995</ele>
        <time>2015-06-26T11:34:18Z</time>
      </trkpt>
      <trkpt lat="47.732274038717151" lon="11.382704051211476">
        <ele>593.730000000000018</ele>
        <time>2015-06-26T11:34:19Z</time>
      </trkpt>
      <trkpt lat="47.732275631278753" lon="11.382773537188768">
        <ele>593.809999999999945</ele>
        <time>2015-06-26T11:34:20Z</time>
      </trkpt>
      <trkpt lat="47.73241083137691" lon="11.383880535140634">
        <ele>593.090000000000032</ele>
        <time>2015-06-26T11:34:35Z</time>
      </trkpt>
      <trkpt lat="47.732448885217309" lon="11.384104583412409">
        <ele>592.330000000000041</ele>
        <time>2015-06-26T11:34:38Z</time>
      </trkpt>
      <trkpt lat="47.732463469728827" lon="11.384257636964321">
        <ele>591.92999999999995</ele>
        <time>2015-06-26T11:34:40Z</time>
      </trkpt>
      <trkpt lat="47.732464810833335" lon="11.384336007758975">
        <ele>592.009999999999991</ele>
        <time>2015-06-26T11:34:41Z</time>
      </trkpt>
      <trkpt lat="47.732461541891098" lon="11.38441052287817">
        <ele>591.519999999999982</ele>
        <time>2015-06-26T11:34:42Z</time>
      </trkpt>
      <trkpt lat="47.732459530234337" lon="11.384555026888847">
        <ele>592.080000000000041</ele>
        <time>2015-06-26T11:34:44Z</time>
      </trkpt>
      <trkpt lat="47.732468247413635" lon="11.384627362713218">
        <ele>592.32000000000005</ele>
        <time>2015-06-26T11:34:45Z</time>
      </trkpt>
      <trkpt lat="47.732478389516473" lon="11.384703805670142">
        <ele>591.960000000000036</ele>
        <time>2015-06-26T11:34:46Z</time>
      </trkpt>
      <trkpt lat="47.732535051181912" lon="11.385310906916857">
        <ele>592.220000000000027</ele>
        <time>2015-06-26T11:34:54Z</time>
      </trkpt>
      <trkpt lat="47.732535721734166" lon="11.385385505855083">
        <ele>592.220000000000027</ele>
        <time>2015-06-26T11:34:55Z</time>
      </trkpt>
      <trkpt lat="47.732530105859041" lon="11.385453902184963">
        <ele>591.919999999999959</ele>
        <time>2015-06-26T11:34:56Z</time>
      </trkpt>
      <trkpt lat="47.732524322345853" lon="11.385520622134209">
        <ele>591.940000000000055</ele>
        <time>2015-06-26T11:34:57Z</time>
      </trkpt>
      <trkpt lat="47.732518287375569" lon="11.385590611025691">
        <ele>592.409999999999968</ele>
        <time>2015-06-26T11:34:58Z</time>
      </trkpt>
      <trkpt lat="47.732506385073066" lon="11.385869812220335">
        <ele>591.990000000000009</ele>
        <time>2015-06-26T11:35:02Z</time>
      </trkpt>
      <trkpt lat="47.732512000948191" lon="11.385937202721834">
        <ele>592.620000000000005</ele>
        <time>2015-06-26T11:35:03Z</time>
      </trkpt>
      <trkpt lat="47.732524154707789" lon="11.386005515232682">
        <ele>591.950000000000045</ele>
        <time>2015-06-26T11:35:04Z</time>
      </trkpt>
      <trkpt lat="47.732543768361211" lon="11.386075587943196">
        <ele>592.17999999999995</ele>
        <time>2015-06-26T11:35:05Z</time>
      </trkpt>
      <trkpt lat="47.732567908242345" lon="11.386137027293444">
        <ele>591.860000000000014</ele>
        <time>2015-06-26T11:35:06Z</time>
      </trkpt>
      <trkpt lat="47.732595652341843" lon="11.386187318712473">
        <ele>591.840000000000032</ele>
        <time>2015-06-26T11:35:07Z</time>
      </trkpt>
      <trkpt lat="47.732619624584913" lon="11.386233754456043">
        <ele>592.120000000000005</ele>
        <time>2015-06-26T11:35:08Z</time>
      </trkpt>
      <trkpt lat="47.7326341252774" lon="11.386286979541183">
        <ele>592.490000000000009</ele>
        <time>2015-06-26T11:35:09Z</time>
      </trkpt>
      <trkpt lat="47.732636975124478" lon="11.386342132464051">
        <ele>592.200000000000045</ele>
        <time>2015-06-26T11:35:10Z</time>
      </trkpt>
      <trkpt lat="47.732635047286749" lon="11.386396950110793">
        <ele>591.830000000000041</ele>
        <time>2015-06-26T11:35:11Z</time>
      </trkpt>
      <trkpt lat="47.732508312910795" lon="11.386806489899755">
        <ele>593.029999999999973</ele>
        <time>2015-06-26T11:35:21Z</time>
      </trkpt>
      <trkpt lat="47.732519377022982" lon="11.386791318655014">
        <ele>593.039999999999964</ele>
        <time>2015-06-26T11:35:52Z</time>
      </trkpt>
      <trkpt lat="47.732500601559877" lon="11.386834485456347">
        <ele>593.110000000000014</ele>
        <time>2015-06-26T11:36:06Z</time>
      </trkpt>
      <trkpt lat="47.732479562982917" lon="11.386898187920451">
        <ele>592.860000000000014</ele>
        <time>2015-06-26T11:36:08Z</time>
      </trkpt>
      <trkpt lat="47.732467912137508" lon="11.386940097436309">
        <ele>593.110000000000014</ele>
        <time>2015-06-26T11:36:09Z</time>
      </trkpt>
      <trkpt lat="47.732390714809299" lon="11.38734569773078">
        <ele>593.100000000000023</ele>
        <time>2015-06-26T11:36:17Z</time>
      </trkpt>
      <trkpt lat="47.732393061742187" lon="11.387410238385201">
        <ele>592.879999999999995</ele>
        <time>2015-06-26T11:36:18Z</time>
      </trkpt>
      <trkpt lat="47.732393899932504" lon="11.387479724362493">
        <ele>592.799999999999955</ele>
        <time>2015-06-26T11:36:19Z</time>
      </trkpt>
      <trkpt lat="47.732384596019983" lon="11.387715172022581">
        <ele>593.5</ele>
        <time>2015-06-26T11:36:28Z</time>
      </trkpt>
      <trkpt lat="47.73237663321197" lon="11.387949446216226">
        <ele>592.960000000000036</ele>
        <time>2015-06-26T11:36:59Z</time>
      </trkpt>
      <trkpt lat="47.732351906597614" lon="11.388271143659949">
        <ele>593.17999999999995</ele>
        <time>2015-06-26T11:37:05Z</time>
      </trkpt>
      <trkpt lat="47.732347715646029" lon="11.388333421200514">
        <ele>593.269999999999982</ele>
        <time>2015-06-26T11:37:06Z</time>
      </trkpt>
      <trkpt lat="47.732337741181254" lon="11.388397961854935">
        <ele>593.519999999999982</ele>
        <time>2015-06-26T11:37:07Z</time>
      </trkpt>
      <trkpt lat="47.73200917057693" lon="11.389514766633511">
        <ele>592.919999999999959</ele>
        <time>2015-06-26T11:37:24Z</time>
      </trkpt>
      <trkpt lat="47.731831390410662" lon="11.389999827370048">
        <ele>593.269999999999982</ele>
        <time>2015-06-26T11:37:32Z</time>
      </trkpt>
      <trkpt lat="47.731622010469437" lon="11.390469381585717">
        <ele>593.100000000000023</ele>
        <time>2015-06-26T11:37:40Z</time>
      </trkpt>
      <trkpt lat="47.731606168672442" lon="11.390537023544312">
        <ele>593.590000000000032</ele>
        <time>2015-06-26T11:37:41Z</time>
      </trkpt>
      <trkpt lat="47.73150248453021" lon="11.391247306019068">
        <ele>593.269999999999982</ele>
        <time>2015-06-26T11:37:51Z</time>
      </trkpt>
      <trkpt lat="47.731540789827704" lon="11.391989439725876">
        <ele>592.919999999999959</ele>
        <time>2015-06-26T11:38:01Z</time>
      </trkpt>
      <trkpt lat="47.731604157015681" lon="11.39308369718492">
        <ele>594.340000000000032</ele>
        <time>2015-06-26T11:38:17Z</time>
      </trkpt>
      <trkpt lat="47.731613796204329" lon="11.393151339143515">
        <ele>594.049999999999955</ele>
        <time>2015-06-26T11:38:18Z</time>
      </trkpt>
      <trkpt lat="47.731766430661082" lon="11.394134201109409">
        <ele>593.92999999999995</ele>
        <time>2015-06-26T11:38:33Z</time>
      </trkpt>
      <trkpt lat="47.731799120083451" lon="11.394600486382842">
        <ele>593.730000000000018</ele>
        <time>2015-06-26T11:38:42Z</time>
      </trkpt>
      <trkpt lat="47.732189716771245" lon="11.395251424983144">
        <ele>593.850000000000023</ele>
        <time>2015-06-26T11:38:55Z</time>
      </trkpt>
      <trkpt lat="47.732610153034329" lon="11.395539175719023">
        <ele>592.980000000000018</ele>
        <time>2015-06-26T11:39:05Z</time>
      </trkpt>
      <trkpt lat="47.733345916494727" lon="11.395600698888302">
        <ele>593.169999999999959</ele>
        <time>2015-06-26T11:39:21Z</time>
      </trkpt>
      <trkpt lat="47.733743470162153" lon="11.395563147962093">
        <ele>593.389999999999986</ele>
        <time>2015-06-26T11:39:30Z</time>
      </trkpt>
      <trkpt lat="47.733784541487694" lon="11.395558202639222">
        <ele>593.379999999999995</ele>
        <time>2015-06-26T11:39:31Z</time>
      </trkpt>
      <trkpt lat="47.733826786279678" lon="11.395545043051243">
        <ele>593.360000000000014</ele>
        <time>2015-06-26T11:39:32Z</time>
      </trkpt>
      <trkpt lat="47.734149154275656" lon="11.395498607307673">
        <ele>592.659999999999968</ele>
        <time>2015-06-26T11:39:39Z</time>
      </trkpt>
      <trkpt lat="47.734334645792842" lon="11.395392073318362">
        <ele>593.019999999999982</ele>
        <time>2015-06-26T11:39:44Z</time>
      </trkpt>
      <trkpt lat="47.734371609985828" lon="11.395400119945407">
        <ele>592.740000000000009</ele>
        <time>2015-06-26T11:39:45Z</time>
      </trkpt>
      <trkpt lat="47.734404467046261" lon="11.395412692800164">
        <ele>592.610000000000014</ele>
        <time>2015-06-26T11:39:46Z</time>
      </trkpt>
      <trkpt lat="47.734836218878627" lon="11.395874284207821">
        <ele>593.149999999999977</ele>
        <time>2015-06-26T11:40:01Z</time>
      </trkpt>
      <trkpt lat="47.735057165846229" lon="11.396347945556045">
        <ele>593.309999999999945</ele>
        <time>2015-06-26T11:40:10Z</time>
      </trkpt>
      <trkpt lat="47.735079964622855" lon="11.396406199783087">
        <ele>593.529999999999973</ele>
        <time>2015-06-26T11:40:11Z</time>
      </trkpt>
      <trkpt lat="47.735185576602817" lon="11.396700907498598">
        <ele>592.299999999999955</ele>
        <time>2015-06-26T11:40:16Z</time>
      </trkpt>
      <trkpt lat="47.735266881063581" lon="11.396951526403427">
        <ele>592.529999999999973</ele>
        <time>2015-06-26T11:40:20Z</time>
      </trkpt>
      <trkpt lat="47.735290601849556" lon="11.397009696811438">
        <ele>593.009999999999991</ele>
        <time>2015-06-26T11:40:21Z</time>
      </trkpt>
      <trkpt lat="47.735312059521675" lon="11.397069459781051">
        <ele>593.07000000000005</ele>
        <time>2015-06-26T11:40:22Z</time>
      </trkpt>
      <trkpt lat="47.735410211607814" lon="11.397375566884875">
        <ele>593.169999999999959</ele>
        <time>2015-06-26T11:40:27Z</time>
      </trkpt>
      <trkpt lat="47.735479278489947" lon="11.39762744307518">
        <ele>593.259999999999991</ele>
        <time>2015-06-26T11:40:31Z</time>
      </trkpt>
      <trkpt lat="47.73549797013402" lon="11.39769047498703">
        <ele>593.509999999999991</ele>
        <time>2015-06-26T11:40:32Z</time>
      </trkpt>
      <trkpt lat="47.735512387007475" lon="11.397752836346626">
        <ele>593.470000000000027</ele>
        <time>2015-06-26T11:40:33Z</time>
      </trkpt>
      <trkpt lat="47.735523702576756" lon="11.397819053381681">
        <ele>593.909999999999968</ele>
        <time>2015-06-26T11:40:34Z</time>
      </trkpt>
      <trkpt lat="47.735533677041531" lon="11.397883342579007">
        <ele>593.809999999999945</ele>
        <time>2015-06-26T11:40:35Z</time>
      </trkpt>
      <trkpt lat="47.735592098906636" lon="11.398207554593682">
        <ele>593.409999999999968</ele>
        <time>2015-06-26T11:40:40Z</time>
      </trkpt>
      <trkpt lat="47.735610622912645" lon="11.398337054997683">
        <ele>592.889999999999986</ele>
        <time>2015-06-26T11:40:42Z</time>
      </trkpt>
      <trkpt lat="47.735765939578414" lon="11.399152865633368">
        <ele>592.990000000000009</ele>
        <time>2015-06-26T11:40:55Z</time>
      </trkpt>
      <trkpt lat="47.735798880457878" lon="11.399338860064745">
        <ele>592.440000000000055</ele>
        <time>2015-06-26T11:40:58Z</time>
      </trkpt>
      <trkpt lat="47.735821846872568" lon="11.399470455944538">
        <ele>592.659999999999968</ele>
        <time>2015-06-26T11:41:00Z</time>
      </trkpt>
      <trkpt lat="47.735833497717977" lon="11.399531392380595">
        <ele>593.039999999999964</ele>
        <time>2015-06-26T11:41:01Z</time>
      </trkpt>
      <trkpt lat="47.736018737778068" lon="11.400512242689729">
        <ele>593.120000000000005</ele>
        <time>2015-06-26T11:41:16Z</time>
      </trkpt>
      <trkpt lat="47.736207330599427" lon="11.401438945904374">
        <ele>593.299999999999955</ele>
        <time>2015-06-26T11:41:30Z</time>
      </trkpt>
      <trkpt lat="47.736389636993408" lon="11.402157442644238">
        <ele>593.5</ele>
        <time>2015-06-26T11:41:41Z</time>
      </trkpt>
      <trkpt lat="47.736496925354004" lon="11.402419209480286">
        <ele>593.240000000000009</ele>
        <time>2015-06-26T11:41:46Z</time>
      </trkpt>
      <trkpt lat="47.736854832619429" lon="11.403325460851192">
        <ele>593.440000000000055</ele>
        <time>2015-06-26T11:42:02Z</time>
      </trkpt>
      <trkpt lat="47.736900262534618" lon="11.403432078659534">
        <ele>593.840000000000032</ele>
        <time>2015-06-26T11:42:04Z</time>
      </trkpt>
      <trkpt lat="47.737170495092869" lon="11.404233640059829">
        <ele>593.009999999999991</ele>
        <time>2015-06-26T11:42:19Z</time>
      </trkpt>
      <trkpt lat="47.7373156696558" lon="11.404935792088509">
        <ele>593.649999999999977</ele>
        <time>2015-06-26T11:42:32Z</time>
      </trkpt>
      <trkpt lat="47.737331511452794" lon="11.404981892555952">
        <ele>594.029999999999973</ele>
        <time>2015-06-26T11:42:45Z</time>
      </trkpt>
      <trkpt lat="47.737349113449454" lon="11.405211221426725">
        <ele>593.870000000000005</ele>
        <time>2015-06-26T11:42:58Z</time>
      </trkpt>
      <trkpt lat="47.737376354634762" lon="11.40612761490047">
        <ele>593.67999999999995</ele>
        <time>2015-06-26T11:43:13Z</time>
      </trkpt>
      <trkpt lat="47.737418180331588" lon="11.406458951532841">
        <ele>594.259999999999991</ele>
        <time>2015-06-26T11:43:25Z</time>
      </trkpt>
      <trkpt lat="47.737415581941605" lon="11.406489545479417">
        <ele>593.629999999999995</ele>
        <time>2015-06-26T11:43:54Z</time>
      </trkpt>
      <trkpt lat="47.737423712387681" lon="11.406504465267062">
        <ele>594.120000000000005</ele>
        <time>2015-06-26T11:44:22Z</time>
      </trkpt>
      <trkpt lat="47.737434273585677" lon="11.406644191592932">
        <ele>594.139999999999986</ele>
        <time>2015-06-26T11:44:27Z</time>
      </trkpt>
      <trkpt lat="47.737567378208041" lon="11.407320108264685">
        <ele>594.200000000000045</ele>
        <time>2015-06-26T11:44:39Z</time>
      </trkpt>
      <trkpt lat="47.737607611343265" lon="11.407443154603243">
        <ele>594.289999999999964</ele>
        <time>2015-06-26T11:44:41Z</time>
      </trkpt>
      <trkpt lat="47.737661004066467" lon="11.40753828920424">
        <ele>594.169999999999959</ele>
        <time>2015-06-26T11:44:43Z</time>
      </trkpt>
      <trkpt lat="47.737819338217378" lon="11.407662257552147">
        <ele>593.940000000000055</ele>
        <time>2015-06-26T11:44:47Z</time>
      </trkpt>
      <trkpt lat="47.737865773960948" lon="11.40767022036016">
        <ele>594.120000000000005</ele>
        <time>2015-06-26T11:44:48Z</time>
      </trkpt>
      <trkpt lat="47.737910030409694" lon="11.40767265111208">
        <ele>594.120000000000005</ele>
        <time>2015-06-26T11:44:49Z</time>
      </trkpt>
      <trkpt lat="47.738375058397651" lon="11.407647840678692">
        <ele>593.970000000000027</ele>
        <time>2015-06-26T11:45:03Z</time>
      </trkpt>
      <trkpt lat="47.738384194672108" lon="11.407665945589542">
        <ele>594.059999999999945</ele>
        <time>2015-06-26T11:45:05Z</time>
      </trkpt>
      <trkpt lat="47.738391989842057" lon="11.407678350806236">
        <ele>593.590000000000032</ele>
        <time>2015-06-26T11:45:06Z</time>
      </trkpt>
      <trkpt lat="47.738416297361255" lon="11.407703161239624">
        <ele>593.090000000000032</ele>
        <time>2015-06-26T11:45:20Z</time>
      </trkpt>
      <trkpt lat="47.738417973741889" lon="11.407714476808906">
        <ele>592.759999999999991</ele>
        <time>2015-06-26T11:45:45Z</time>
      </trkpt>
      <trkpt lat="47.738437755033374" lon="11.40769025310874">
        <ele>593.769999999999982</ele>
        <time>2015-06-26T11:46:11Z</time>
      </trkpt>
      <trkpt lat="47.738431552425027" lon="11.407721098512411">
        <ele>592.360000000000014</ele>
        <time>2015-06-26T11:46:27Z</time>
      </trkpt>
      <trkpt lat="47.738410178571939" lon="11.407689498737454">
        <ele>593.460000000000036</ele>
        <time>2015-06-26T11:46:55Z</time>
      </trkpt>
      <trkpt lat="47.73843071423471" lon="11.407631579786539">
        <ele>593.909999999999968</ele>
        <time>2015-06-26T11:47:09Z</time>
      </trkpt>
      <trkpt lat="47.738460218533874" lon="11.407627053558826">
        <ele>593.75</ele>
        <time>2015-06-26T11:47:16Z</time>
      </trkpt>
      <trkpt lat="47.738479413092136" lon="11.407619928941131">
        <ele>593.840000000000032</ele>
        <time>2015-06-26T11:47:17Z</time>
      </trkpt>
      <trkpt lat="47.738501206040382" lon="11.407611882314086">
        <ele>593.299999999999955</ele>
        <time>2015-06-26T11:47:18Z</time>
      </trkpt>
      <trkpt lat="47.738528279587626" lon="11.407602494582534">
        <ele>593.340000000000032</ele>
        <time>2015-06-26T11:47:19Z</time>
      </trkpt>
      <trkpt lat="47.738558035343885" lon="11.40759352594614">
        <ele>593.519999999999982</ele>
        <time>2015-06-26T11:47:20Z</time>
      </trkpt>
      <trkpt lat="47.73858955129981" lon="11.407587574794888">
        <ele>594.019999999999982</ele>
        <time>2015-06-26T11:47:21Z</time>
      </trkpt>
      <trkpt lat="47.738624503836036" lon="11.407582210376859">
        <ele>593.309999999999945</ele>
        <time>2015-06-26T11:47:22Z</time>
      </trkpt>
      <trkpt lat="47.739322297275066" lon="11.40748942270875">
        <ele>593.259999999999991</ele>
        <time>2015-06-26T11:47:40Z</time>
      </trkpt>
      <trkpt lat="47.739362362772226" lon="11.407470228150487">
        <ele>593.370000000000005</ele>
        <time>2015-06-26T11:47:41Z</time>
      </trkpt>
      <trkpt lat="47.739399075508118" lon="11.407443573698401">
        <ele>592.710000000000036</ele>
        <time>2015-06-26T11:47:42Z</time>
      </trkpt>
      <trkpt lat="47.739430423825979" lon="11.40741172246635">
        <ele>592.909999999999968</ele>
        <time>2015-06-26T11:47:43Z</time>
      </trkpt>
      <trkpt lat="47.739453138783574" lon="11.407393030822277">
        <ele>593.309999999999945</ele>
        <time>2015-06-26T11:47:44Z</time>
      </trkpt>
      <trkpt lat="47.739472249522805" lon="11.407398311421275">
        <ele>593.340000000000032</ele>
        <time>2015-06-26T11:47:45Z</time>
      </trkpt>
      <trkpt lat="47.739478200674057" lon="11.407423205673695">
        <ele>593.399999999999977</ele>
        <time>2015-06-26T11:47:46Z</time>
      </trkpt>
      <trkpt lat="47.739475267007947" lon="11.407450530678034">
        <ele>592.879999999999995</ele>
        <time>2015-06-26T11:47:47Z</time>
      </trkpt>
      <trkpt lat="47.739471076056361" lon="11.407533511519432">
        <ele>592.529999999999973</ele>
        <time>2015-06-26T11:47:59Z</time>
      </trkpt>
      <trkpt lat="47.7394915279001" lon="11.40751632861793">
        <ele>593.299999999999955</ele>
        <time>2015-06-26T11:48:16Z</time>
      </trkpt>
      <trkpt lat="47.739500999450684" lon="11.407492691650987">
        <ele>593.259999999999991</ele>
        <time>2015-06-26T11:48:22Z</time>
      </trkpt>
      <trkpt lat="47.739529749378562" lon="11.407468970865011">
        <ele>593.190000000000055</ele>
        <time>2015-06-26T11:48:24Z</time>
      </trkpt>
      <trkpt lat="47.739550201222301" lon="11.407447177916765">
        <ele>593.279999999999973</ele>
        <time>2015-06-26T11:48:25Z</time>
      </trkpt>
      <trkpt lat="47.739567970857024" lon="11.407416248694062">
        <ele>593.17999999999995</ele>
        <time>2015-06-26T11:48:26Z</time>
      </trkpt>
      <trkpt lat="47.739581298083067" lon="11.407377608120441">
        <ele>593.049999999999955</ele>
        <time>2015-06-26T11:48:27Z</time>
      </trkpt>
      <trkpt lat="47.73959269747138" lon="11.407336285337806">
        <ele>593.210000000000036</ele>
        <time>2015-06-26T11:48:28Z</time>
      </trkpt>
      <trkpt lat="47.7396952919662" lon="11.40719530172646">
        <ele>592.710000000000036</ele>
        <time>2015-06-26T11:48:32Z</time>
      </trkpt>
      <trkpt lat="47.739733932539821" lon="11.407174095511436">
        <ele>593.110000000000014</ele>
        <time>2015-06-26T11:48:33Z</time>
      </trkpt>
      <trkpt lat="47.740381686016917" lon="11.406860444694757">
        <ele>593.57000000000005</ele>
        <time>2015-06-26T11:48:49Z</time>
      </trkpt>
      <trkpt lat="47.740860879421234" lon="11.406781990081072">
        <ele>595.279999999999973</ele>
        <time>2015-06-26T11:49:02Z</time>
      </trkpt>
      <trkpt lat="47.74096523411572" lon="11.406860025599599">
        <ele>596.350000000000023</ele>
        <time>2015-06-26T11:49:06Z</time>
      </trkpt>
      <trkpt lat="47.740974286571145" lon="11.40690696425736">
        <ele>596.169999999999959</ele>
        <time>2015-06-26T11:49:07Z</time>
      </trkpt>
      <trkpt lat="47.740975124761462" lon="11.406956082209945">
        <ele>595.889999999999986</ele>
        <time>2015-06-26T11:49:08Z</time>
      </trkpt>
      <trkpt lat="47.741014435887337" lon="11.407375931739807">
        <ele>595.57000000000005</ele>
        <time>2015-06-26T11:49:16Z</time>
      </trkpt>
      <trkpt lat="47.741133794188499" lon="11.407722774893045">
        <ele>595.440000000000055</ele>
        <time>2015-06-26T11:49:22Z</time>
      </trkpt>
      <trkpt lat="47.741150977090001" lon="11.407778849825263">
        <ele>595.5</ele>
        <time>2015-06-26T11:49:23Z</time>
      </trkpt>
      <trkpt lat="47.741360105574131" lon="11.408478235825896">
        <ele>596.340000000000032</ele>
        <time>2015-06-26T11:49:36Z</time>
      </trkpt>
      <trkpt lat="47.741400171071291" lon="11.408642856404185">
        <ele>596.149999999999977</ele>
        <time>2015-06-26T11:49:39Z</time>
      </trkpt>
      <trkpt lat="47.741419114172459" lon="11.408695327118039">
        <ele>596.350000000000023</ele>
        <time>2015-06-26T11:49:40Z</time>
      </trkpt>
      <trkpt lat="47.741431603208184" lon="11.408745618537068">
        <ele>596.370000000000005</ele>
        <time>2015-06-26T11:49:41Z</time>
      </trkpt>
      <trkpt lat="47.741444176062942" lon="11.40879699960351">
        <ele>595.840000000000032</ele>
        <time>2015-06-26T11:49:42Z</time>
      </trkpt>
      <trkpt lat="47.741462113335729" lon="11.408856427296996">
        <ele>596.139999999999986</ele>
        <time>2015-06-26T11:49:43Z</time>
      </trkpt>
      <trkpt lat="47.741479128599167" lon="11.408911580219865">
        <ele>595.940000000000055</ele>
        <time>2015-06-26T11:49:44Z</time>
      </trkpt>
      <trkpt lat="47.74149589240551" lon="11.408976959064603">
        <ele>596.159999999999968</ele>
        <time>2015-06-26T11:49:45Z</time>
      </trkpt>
      <trkpt lat="47.741684569045901" lon="11.409744573757052">
        <ele>595.419999999999959</ele>
        <time>2015-06-26T11:49:58Z</time>
      </trkpt>
      <trkpt lat="47.741685071960092" lon="11.409807102754712">
        <ele>595.860000000000014</ele>
        <time>2015-06-26T11:49:59Z</time>
      </trkpt>
      <trkpt lat="47.741682892665267" lon="11.409868709743023">
        <ele>595.460000000000036</ele>
        <time>2015-06-26T11:50:00Z</time>
      </trkpt>
      <trkpt lat="47.741585075855255" lon="11.410506824031472">
        <ele>594.559999999999945</ele>
        <time>2015-06-26T11:50:11Z</time>
      </trkpt>
      <trkpt lat="47.741307383403182" lon="11.411725888028741">
        <ele>596.100000000000023</ele>
        <time>2015-06-26T11:50:30Z</time>
      </trkpt>
      <trkpt lat="47.741268994286656" lon="11.412528036162257">
        <ele>599.129999999999995</ele>
        <time>2015-06-26T11:50:45Z</time>
      </trkpt>
      <trkpt lat="47.741321716457605" lon="11.412762813270092">
        <ele>599.710000000000036</ele>
        <time>2015-06-26T11:50:51Z</time>
      </trkpt>
      <trkpt lat="47.741317441686988" lon="11.412794832140207">
        <ele>600</ele>
        <time>2015-06-26T11:50:52Z</time>
      </trkpt>
      <trkpt lat="47.741311490535736" lon="11.412817630916834">
        <ele>599.539999999999964</ele>
        <time>2015-06-26T11:50:53Z</time>
      </trkpt>
      <trkpt lat="47.741305036470294" lon="11.412813607603312">
        <ele>599.360000000000014</ele>
        <time>2015-06-26T11:51:07Z</time>
      </trkpt>
      <trkpt lat="47.741297911852598" lon="11.412834478542209">
        <ele>599.519999999999982</ele>
        <time>2015-06-26T11:51:11Z</time>
      </trkpt>
      <trkpt lat="47.741288691759109" lon="11.412854762747884">
        <ele>599.409999999999968</ele>
        <time>2015-06-26T11:51:12Z</time>
      </trkpt>
      <trkpt lat="47.741274945437908" lon="11.412880914285779">
        <ele>599.419999999999959</ele>
        <time>2015-06-26T11:51:13Z</time>
      </trkpt>
      <trkpt lat="47.740964982658625" lon="11.413473598659039">
        <ele>598.610000000000014</ele>
        <time>2015-06-26T11:51:25Z</time>
      </trkpt>
      <trkpt lat="47.740767672657967" lon="11.413739137351513">
        <ele>598.269999999999982</ele>
        <time>2015-06-26T11:51:30Z</time>
      </trkpt>
      <trkpt lat="47.740721236914396" lon="11.413784148171544">
        <ele>598.379999999999995</ele>
        <time>2015-06-26T11:51:31Z</time>
      </trkpt>
      <trkpt lat="47.740410771220922" lon="11.414012806490064">
        <ele>597.759999999999991</ele>
        <time>2015-06-26T11:51:37Z</time>
      </trkpt>
      <trkpt lat="47.740353355184197" lon="11.414037197828293">
        <ele>597.440000000000055</ele>
        <time>2015-06-26T11:51:38Z</time>
      </trkpt>
      <trkpt lat="47.740293592214584" lon="11.414056057110429">
        <ele>597.690000000000055</ele>
        <time>2015-06-26T11:51:39Z</time>
      </trkpt>
      <trkpt lat="47.739426903426647" lon="11.414270382374525">
        <ele>595.92999999999995</ele>
        <time>2015-06-26T11:51:55Z</time>
      </trkpt>
      <trkpt lat="47.739251218736172" lon="11.414315812289715">
        <ele>595.950000000000045</ele>
        <time>2015-06-26T11:51:59Z</time>
      </trkpt>
      <trkpt lat="47.738872356712818" lon="11.414358476176858">
        <ele>596.200000000000045</ele>
        <time>2015-06-26T11:52:07Z</time>
      </trkpt>
      <trkpt lat="47.738044559955597" lon="11.414484120905399">
        <ele>597.360000000000014</ele>
        <time>2015-06-26T11:52:26Z</time>
      </trkpt>
      <trkpt lat="47.737757647410035" lon="11.414548996835947">
        <ele>597.470000000000027</ele>
        <time>2015-06-26T11:52:36Z</time>
      </trkpt>
      <trkpt lat="47.737705511972308" lon="11.414555786177516">
        <ele>597.710000000000036</ele>
        <time>2015-06-26T11:52:39Z</time>
      </trkpt>
      <trkpt lat="47.737693358212709" lon="11.414568275213242">
        <ele>597.490000000000009</ele>
        <time>2015-06-26T11:52:40Z</time>
      </trkpt>
      <trkpt lat="47.737690508365631" lon="11.414588978514075">
        <ele>597.580000000000041</ele>
        <time>2015-06-26T11:52:41Z</time>
      </trkpt>
      <trkpt lat="47.737899133935571" lon="11.414707247167826">
        <ele>597.120000000000005</ele>
        <time>2015-06-26T12:12:07Z</time>
      </trkpt>
      <trkpt lat="47.737918496131897" lon="11.414684448391199">
        <ele>597.389999999999986</ele>
        <time>2015-06-26T12:12:08Z</time>
      </trkpt>
      <trkpt lat="47.73794163018465" lon="11.414669444784522">
        <ele>596.850000000000023</ele>
        <time>2015-06-26T12:12:09Z</time>
      </trkpt>
      <trkpt lat="47.737966356799006" lon="11.414657877758145">
        <ele>597.470000000000027</ele>
        <time>2015-06-26T12:12:10Z</time>
      </trkpt>
      <trkpt lat="47.737987730652094" lon="11.414639269933105">
        <ele>597.659999999999968</ele>
        <time>2015-06-26T12:12:11Z</time>
      </trkpt>
      <trkpt lat="47.737996699288487" lon="11.414604904130101">
        <ele>597.75</ele>
        <time>2015-06-26T12:12:12Z</time>
      </trkpt>
      <trkpt lat="47.737985970452428" lon="11.414563832804561">
        <ele>597.940000000000055</ele>
        <time>2015-06-26T12:12:13Z</time>
      </trkpt>
      <trkpt lat="47.737961830571294" lon="11.414531730115414">
        <ele>598.17999999999995</ele>
        <time>2015-06-26T12:12:14Z</time>
      </trkpt>
      <trkpt lat="47.737929644063115" lon="11.414512284100056">
        <ele>598.299999999999955</ele>
        <time>2015-06-26T12:12:15Z</time>
      </trkpt>
      <trkpt lat="47.737891841679811" lon="11.414503399282694">
        <ele>597.970000000000027</ele>
        <time>2015-06-26T12:12:16Z</time>
      </trkpt>
      <trkpt lat="47.737851943820715" lon="11.414500549435616">
        <ele>597.980000000000018</ele>
        <time>2015-06-26T12:12:17Z</time>
      </trkpt>
      <trkpt lat="47.737812967970967" lon="11.414503566920757">
        <ele>597.730000000000018</ele>
        <time>2015-06-26T12:12:18Z</time>
      </trkpt>
      <trkpt lat="47.737409798428416" lon="11.414600880816579">
        <ele>598.990000000000009</ele>
        <time>2015-06-26T12:12:31Z</time>
      </trkpt>
      <trkpt lat="47.737389681860805" lon="11.414613034576178">
        <ele>598.830000000000041</ele>
        <time>2015-06-26T12:12:36Z</time>
      </trkpt>
      <trkpt lat="47.7373415697366" lon="11.414622338488698">
        <ele>598.759999999999991</ele>
        <time>2015-06-26T12:12:39Z</time>
      </trkpt>
      <trkpt lat="47.737318854779005" lon="11.414631390944123">
        <ele>598.990000000000009</ele>
        <time>2015-06-26T12:12:40Z</time>
      </trkpt>
      <trkpt lat="47.736827842891216" lon="11.414746977388859">
        <ele>600.120000000000005</ele>
        <time>2015-06-26T12:12:54Z</time>
      </trkpt>
      <trkpt lat="47.73623138666153" lon="11.414952417835593">
        <ele>601.799999999999955</ele>
        <time>2015-06-26T12:13:10Z</time>
      </trkpt>
      <trkpt lat="47.735400488600135" lon="11.415238156914711">
        <ele>604</ele>
        <time>2015-06-26T12:13:32Z</time>
      </trkpt>
      <trkpt lat="47.734495913609862" lon="11.415589861571789">
        <ele>605.559999999999945</ele>
        <time>2015-06-26T12:13:56Z</time>
      </trkpt>
      <trkpt lat="47.733792755752802" lon="11.415868224576116">
        <ele>606.960000000000036</ele>
        <time>2015-06-26T12:14:15Z</time>
      </trkpt>
      <trkpt lat="47.733150534331799" lon="11.416115909814835">
        <ele>608.789999999999964</ele>
        <time>2015-06-26T12:14:35Z</time>
      </trkpt>
      <trkpt lat="47.733154390007257" lon="11.41612496227026">
        <ele>608.779999999999973</ele>
        <time>2015-06-26T12:14:57Z</time>
      </trkpt>
      <trkpt lat="47.733130669221282" lon="11.416144240647554">
        <ele>608.490000000000009</ele>
        <time>2015-06-26T12:15:12Z</time>
      </trkpt>
      <trkpt lat="47.733088759705424" lon="11.416155220940709">
        <ele>608.779999999999973</ele>
        <time>2015-06-26T12:15:15Z</time>
      </trkpt>
      <trkpt lat="47.733066799119115" lon="11.416163183748722">
        <ele>608.990000000000009</ele>
        <time>2015-06-26T12:15:16Z</time>
      </trkpt>
      <trkpt lat="47.732564555481076" lon="11.416362086310983">
        <ele>610.470000000000027</ele>
        <time>2015-06-26T12:15:32Z</time>
      </trkpt>
      <trkpt lat="47.732516024261713" lon="11.416382621973753">
        <ele>610.169999999999959</ele>
        <time>2015-06-26T12:15:42Z</time>
      </trkpt>
      <trkpt lat="47.732494482770562" lon="11.41644012182951">
        <ele>610.379999999999995</ele>
        <time>2015-06-26T12:16:04Z</time>
      </trkpt>
      <trkpt lat="47.732512420043349" lon="11.416464596986771">
        <ele>610</ele>
        <time>2015-06-26T12:16:17Z</time>
      </trkpt>
      <trkpt lat="47.732513593509793" lon="11.41648119315505">
        <ele>610.389999999999986</ele>
        <time>2015-06-26T12:16:18Z</time>
      </trkpt>
      <trkpt lat="47.732522981241345" lon="11.416524276137352">
        <ele>610.029999999999973</ele>
        <time>2015-06-26T12:16:20Z</time>
      </trkpt>
      <trkpt lat="47.732603782787919" lon="11.416970863938332">
        <ele>611.080000000000041</ele>
        <time>2015-06-26T12:16:31Z</time>
      </trkpt>
      <trkpt lat="47.732598586007953" lon="11.417364729568362">
        <ele>613.039999999999964</ele>
        <time>2015-06-26T12:16:44Z</time>
      </trkpt>
      <trkpt lat="47.732581067830324" lon="11.41738610342145">
        <ele>612.009999999999991</ele>
        <time>2015-06-26T12:16:59Z</time>
      </trkpt>
      <trkpt lat="47.732530692592263" lon="11.417362550273538">
        <ele>612.019999999999982</ele>
        <time>2015-06-26T12:17:02Z</time>
      </trkpt>
      <trkpt lat="47.732510911300778" lon="11.417348803952336">
        <ele>611.889999999999986</ele>
        <time>2015-06-26T12:17:03Z</time>
      </trkpt>
      <trkpt lat="47.732335897162557" lon="11.417272444814444">
        <ele>613.129999999999995</ele>
        <time>2015-06-26T12:17:10Z</time>
      </trkpt>
      <trkpt lat="47.732283007353544" lon="11.417286861687899">
        <ele>613.17999999999995</ele>
        <time>2015-06-26T12:17:15Z</time>
      </trkpt>
      <trkpt lat="47.73218896239996" lon="11.417307900264859">
        <ele>613.379999999999995</ele>
        <time>2015-06-26T12:17:34Z</time>
      </trkpt>
      <trkpt lat="47.732097012922168" lon="11.417328771203756">
        <ele>613.389999999999986</ele>
        <time>2015-06-26T12:17:43Z</time>
      </trkpt>
      <trkpt lat="47.732077483087778" lon="11.417326340451837">
        <ele>613.830000000000041</ele>
        <time>2015-06-26T12:17:44Z</time>
      </trkpt>
      <trkpt lat="47.731778165325522" lon="11.417257441207767">
        <ele>613.100000000000023</ele>
        <time>2015-06-26T12:17:55Z</time>
      </trkpt>
      <trkpt lat="47.731497036293149" lon="11.417265487834811">
        <ele>613.580000000000041</ele>
        <time>2015-06-26T12:18:06Z</time>
      </trkpt>
      <trkpt lat="47.731095040217042" lon="11.417468581348658">
        <ele>614.5</ele>
        <time>2015-06-26T12:18:21Z</time>
      </trkpt>
      <trkpt lat="47.730817012488842" lon="11.417671088129282">
        <ele>615.460000000000036</ele>
        <time>2015-06-26T12:18:35Z</time>
      </trkpt>
      <trkpt lat="47.730625988915563" lon="11.417858926579356">
        <ele>616.620000000000005</ele>
        <time>2015-06-26T12:18:45Z</time>
      </trkpt>
      <trkpt lat="47.730389200150967" lon="11.418074425309896">
        <ele>616.110000000000014</ele>
        <time>2015-06-26T12:18:56Z</time>
      </trkpt>
      <trkpt lat="47.730015870183706" lon="11.418280871585011">
        <ele>616.590000000000032</ele>
        <time>2015-06-26T12:19:11Z</time>
      </trkpt>
      <trkpt lat="47.729843119159341" lon="11.418318673968315">
        <ele>617.129999999999995</ele>
        <time>2015-06-26T12:19:21Z</time>
      </trkpt>
      <trkpt lat="47.729797856882215" lon="11.418344657868147">
        <ele>616.67999999999995</ele>
        <time>2015-06-26T12:19:24Z</time>
      </trkpt>
      <trkpt lat="47.729711355641484" lon="11.418427303433418">
        <ele>616.620000000000005</ele>
        <time>2015-06-26T12:19:32Z</time>
      </trkpt>
      <trkpt lat="47.729628710076213" lon="11.418568957597017">
        <ele>617.950000000000045</ele>
        <time>2015-06-26T12:19:54Z</time>
      </trkpt>
      <trkpt lat="47.729603312909603" lon="11.418616147711873">
        <ele>618.159999999999968</ele>
        <time>2015-06-26T12:19:57Z</time>
      </trkpt>
      <trkpt lat="47.729584788903594" lon="11.418628301471472">
        <ele>617.639999999999986</ele>
        <time>2015-06-26T12:19:58Z</time>
      </trkpt>
      <trkpt lat="47.729564420878887" lon="11.418638192117214">
        <ele>617.919999999999959</ele>
        <time>2015-06-26T12:19:59Z</time>
      </trkpt>
      <trkpt lat="47.72954405285418" lon="11.418640036135912">
        <ele>618.220000000000027</ele>
        <time>2015-06-26T12:20:00Z</time>
      </trkpt>
      <trkpt lat="47.729523684829473" lon="11.418638611212373">
        <ele>618.049999999999955</ele>
        <time>2015-06-26T12:20:01Z</time>
      </trkpt>
      <trkpt lat="47.729171728715301" lon="11.418667864054441">
        <ele>619.169999999999959</ele>
        <time>2015-06-26T12:20:17Z</time>
      </trkpt>
      <trkpt lat="47.728891437873244" lon="11.418750677257776">
        <ele>618.960000000000036</ele>
        <time>2015-06-26T12:20:30Z</time>
      </trkpt>
      <trkpt lat="47.72864249534905" lon="11.418829131871462">
        <ele>620.309999999999945</ele>
        <time>2015-06-26T12:20:41Z</time>
      </trkpt>
      <trkpt lat="47.728607039898634" lon="11.418853858485818">
        <ele>620.200000000000045</ele>
        <time>2015-06-26T12:20:44Z</time>
      </trkpt>
      <trkpt lat="47.728592790663242" lon="11.418889397755265">
        <ele>620.440000000000055</ele>
        <time>2015-06-26T12:20:46Z</time>
      </trkpt>
      <trkpt lat="47.728417944163084" lon="11.419004984200001">
        <ele>620.289999999999964</ele>
        <time>2015-06-26T12:21:03Z</time>
      </trkpt>
      <trkpt lat="47.72830436937511" lon="11.419099448248744">
        <ele>621.029999999999973</ele>
        <time>2015-06-26T12:21:15Z</time>
      </trkpt>
      <trkpt lat="47.728165229782462" lon="11.419254848733544">
        <ele>619.580000000000041</ele>
        <time>2015-06-26T12:21:26Z</time>
      </trkpt>
      <trkpt lat="47.728146705776453" lon="11.419265577569604">
        <ele>619.600000000000023</ele>
        <time>2015-06-26T12:21:27Z</time>
      </trkpt>
      <trkpt lat="47.728034807369113" lon="11.41939390450716">
        <ele>619.840000000000032</ele>
        <time>2015-06-26T12:21:36Z</time>
      </trkpt>
      <trkpt lat="47.72797018289566" lon="11.419464647769928">
        <ele>619.5</ele>
        <time>2015-06-26T12:21:41Z</time>
      </trkpt>
      <trkpt lat="47.727954424917698" lon="11.419489290565252">
        <ele>619.600000000000023</ele>
        <time>2015-06-26T12:21:42Z</time>
      </trkpt>
      <trkpt lat="47.727728113532066" lon="11.419824901968241">
        <ele>620.669999999999959</ele>
        <time>2015-06-26T12:21:56Z</time>
      </trkpt>
      <trkpt lat="47.727523511275649" lon="11.420129835605621">
        <ele>621.299999999999955</ele>
        <time>2015-06-26T12:22:07Z</time>
      </trkpt>
      <trkpt lat="47.727479925379157" lon="11.420180546119809">
        <ele>620.809999999999945</ele>
        <time>2015-06-26T12:22:10Z</time>
      </trkpt>
      <trkpt lat="47.72726752795279" lon="11.42023678869009">
        <ele>622.309999999999945</ele>
        <time>2015-06-26T12:22:22Z</time>
      </trkpt>
      <trkpt lat="47.727142553776503" lon="11.420481791719794">
        <ele>622.360000000000014</ele>
        <time>2015-06-26T12:22:31Z</time>
      </trkpt>
      <trkpt lat="47.726985979825258" lon="11.420637778937817">
        <ele>622.82000000000005</ele>
        <time>2015-06-26T12:22:41Z</time>
      </trkpt>
      <trkpt lat="47.726758159697056" lon="11.42095897346735">
        <ele>622.980000000000018</ele>
        <time>2015-06-26T12:22:52Z</time>
      </trkpt>
      <trkpt lat="47.726668557152152" lon="11.421073973178864">
        <ele>623</ele>
        <time>2015-06-26T12:22:56Z</time>
      </trkpt>
      <trkpt lat="47.726487088948488" lon="11.421455349773169">
        <ele>624.480000000000018</ele>
        <time>2015-06-26T12:23:08Z</time>
      </trkpt>
      <trkpt lat="47.726296149194241" lon="11.421896573156118">
        <ele>624.870000000000005</ele>
        <time>2015-06-26T12:23:18Z</time>
      </trkpt>
      <trkpt lat="47.726159524172544" lon="11.422091452404857">
        <ele>624.899999999999977</ele>
        <time>2015-06-26T12:23:28Z</time>
      </trkpt>
      <trkpt lat="47.726082829758525" lon="11.422172086313367">
        <ele>624.649999999999977</ele>
        <time>2015-06-26T12:23:32Z</time>
      </trkpt>
      <trkpt lat="47.725980738177896" lon="11.422253977507353">
        <ele>625.450000000000045</ele>
        <time>2015-06-26T12:24:01Z</time>
      </trkpt>
      <trkpt lat="47.725956263020635" lon="11.422239309176803">
        <ele>625.340000000000032</ele>
        <time>2015-06-26T12:24:03Z</time>
      </trkpt>
      <trkpt lat="47.725720815360546" lon="11.422210391610861">
        <ele>625.610000000000014</ele>
        <time>2015-06-26T12:24:14Z</time>
      </trkpt>
      <trkpt lat="47.725643618032336" lon="11.422259006649256">
        <ele>626.649999999999977</ele>
        <time>2015-06-26T12:24:23Z</time>
      </trkpt>
      <trkpt lat="47.725622244179249" lon="11.422283817082644">
        <ele>626.440000000000055</ele>
        <time>2015-06-26T12:24:25Z</time>
      </trkpt>
      <trkpt lat="47.725596092641354" lon="11.42231441102922">
        <ele>626.779999999999973</ele>
        <time>2015-06-26T12:24:27Z</time>
      </trkpt>
      <trkpt lat="47.725579831749201" lon="11.422339472919703">
        <ele>626.809999999999945</ele>
        <time>2015-06-26T12:24:28Z</time>
      </trkpt>
      <trkpt lat="47.725516883656383" lon="11.422454137355089">
        <ele>627.309999999999945</ele>
        <time>2015-06-26T12:24:38Z</time>
      </trkpt>
      <trkpt lat="47.725472627207637" lon="11.422522449865937">
        <ele>627.090000000000032</ele>
        <time>2015-06-26T12:24:48Z</time>
      </trkpt>
      <trkpt lat="47.725474219769239" lon="11.422540973871946">
        <ele>627.289999999999964</ele>
        <time>2015-06-26T12:24:49Z</time>
      </trkpt>
      <trkpt lat="47.725474806502461" lon="11.422561928629875">
        <ele>627.210000000000036</ele>
        <time>2015-06-26T12:24:50Z</time>
      </trkpt>
      <trkpt lat="47.725477237254381" lon="11.422584978863597">
        <ele>626.840000000000032</ele>
        <time>2015-06-26T12:24:51Z</time>
      </trkpt>
      <trkpt lat="47.725479248911142" lon="11.422611800953746">
        <ele>626.899999999999977</ele>
        <time>2015-06-26T12:24:52Z</time>
      </trkpt>
      <trkpt lat="47.725480003282428" lon="11.42263887450099">
        <ele>627.190000000000055</ele>
        <time>2015-06-26T12:24:53Z</time>
      </trkpt>
      <trkpt lat="47.725482853129506" lon="11.422666618600488">
        <ele>627.230000000000018</ele>
        <time>2015-06-26T12:24:54Z</time>
      </trkpt>
      <trkpt lat="47.725486708804965" lon="11.422697212547064">
        <ele>627.330000000000041</ele>
        <time>2015-06-26T12:24:55Z</time>
      </trkpt>
      <trkpt lat="47.725517470389605" lon="11.422943053767085">
        <ele>627.600000000000023</ele>
        <time>2015-06-26T12:25:01Z</time>
      </trkpt>
      <trkpt lat="47.725506909191608" lon="11.422989070415497">
        <ele>627.92999999999995</ele>
        <time>2015-06-26T12:25:02Z</time>
      </trkpt>
      <trkpt lat="47.725492157042027" lon="11.423031399026513">
        <ele>627.67999999999995</ele>
        <time>2015-06-26T12:25:03Z</time>
      </trkpt>
      <trkpt lat="47.725422671064734" lon="11.423130221664906">
        <ele>627.899999999999977</ele>
        <time>2015-06-26T12:25:06Z</time>
      </trkpt>
      <trkpt lat="47.725310521200299" lon="11.423272211104631">
        <ele>627.370000000000005</ele>
        <time>2015-06-26T12:25:16Z</time>
      </trkpt>
      <trkpt lat="47.725284202024341" lon="11.423289980739355">
        <ele>626.759999999999991</ele>
        <time>2015-06-26T12:25:19Z</time>
      </trkpt>
      <trkpt lat="47.725253691896796" lon="11.423308253288269">
        <ele>626.909999999999968</ele>
        <time>2015-06-26T12:25:21Z</time>
      </trkpt>
      <trkpt lat="47.725152522325516" lon="11.423373213037848">
        <ele>627.92999999999995</ele>
        <time>2015-06-26T12:25:28Z</time>
      </trkpt>
      <trkpt lat="47.724979436025023" lon="11.42341386526823">
        <ele>628.460000000000036</ele>
        <time>2015-06-26T12:25:36Z</time>
      </trkpt>
      <trkpt lat="47.724805260077119" lon="11.423434736207128">
        <ele>628.419999999999959</ele>
        <time>2015-06-26T12:25:46Z</time>
      </trkpt>
      <trkpt lat="47.724701408296824" lon="11.423414871096611">
        <ele>629.240000000000009</ele>
        <time>2015-06-26T12:25:51Z</time>
      </trkpt>
      <trkpt lat="47.724468894302845" lon="11.423344882205129">
        <ele>629.840000000000032</ele>
        <time>2015-06-26T12:26:03Z</time>
      </trkpt>
      <trkpt lat="47.724263956770301" lon="11.423421073704958">
        <ele>630.17999999999995</ele>
        <time>2015-06-26T12:26:13Z</time>
      </trkpt>
      <trkpt lat="47.723873276263475" lon="11.423712512478232">
        <ele>630.980000000000018</ele>
        <time>2015-06-26T12:26:26Z</time>
      </trkpt>
      <trkpt lat="47.723871180787683" lon="11.42371335066855">
        <ele>631.029999999999973</ele>
        <time>2015-06-26T12:26:27Z</time>
      </trkpt>
      <trkpt lat="47.723796833306551" lon="11.423800606280565">
        <ele>631.519999999999982</ele>
        <time>2015-06-26T12:26:30Z</time>
      </trkpt>
      <trkpt lat="47.723776213824749" lon="11.423840085044503">
        <ele>629.350000000000023</ele>
        <time>2015-06-26T12:26:35Z</time>
      </trkpt>
      <trkpt lat="47.723679738119245" lon="11.423922479152679">
        <ele>630.389999999999986</ele>
        <time>2015-06-26T12:26:49Z</time>
      </trkpt>
      <trkpt lat="47.723610419780016" lon="11.424030102789402">
        <ele>630.549999999999955</ele>
        <time>2015-06-26T12:26:53Z</time>
      </trkpt>
      <trkpt lat="47.72340489551425" lon="11.424483144655824">
        <ele>630.220000000000027</ele>
        <time>2015-06-26T12:27:05Z</time>
      </trkpt>
      <trkpt lat="47.723205909132957" lon="11.424898384138942">
        <ele>631.480000000000018</ele>
        <time>2015-06-26T12:27:15Z</time>
      </trkpt>
      <trkpt lat="47.723020417615771" lon="11.425294680520892">
        <ele>631.919999999999959</ele>
        <time>2015-06-26T12:27:28Z</time>
      </trkpt>
      <trkpt lat="47.722927881404757" lon="11.425386043265462">
        <ele>632.340000000000032</ele>
        <time>2015-06-26T12:27:35Z</time>
      </trkpt>
      <trkpt lat="47.722762506455183" lon="11.425635069608688">
        <ele>632.879999999999995</ele>
        <time>2015-06-26T12:27:46Z</time>
      </trkpt>
      <trkpt lat="47.722638454288244" lon="11.4258071500808">
        <ele>632.590000000000032</ele>
        <time>2015-06-26T12:27:53Z</time>
      </trkpt>
      <trkpt lat="47.722419183701277" lon="11.426104959100485">
        <ele>634.129999999999995</ele>
        <time>2015-06-26T12:28:05Z</time>
      </trkpt>
      <trkpt lat="47.722213407978415" lon="11.426206799224019">
        <ele>634.019999999999982</ele>
        <time>2015-06-26T12:28:16Z</time>
      </trkpt>
      <trkpt lat="47.721832701936364" lon="11.426481558009982">
        <ele>634.529999999999973</ele>
        <time>2015-06-26T12:28:28Z</time>
      </trkpt>
      <trkpt lat="47.721702195703983" lon="11.42657870426774">
        <ele>634.809999999999945</ele>
        <time>2015-06-26T12:28:32Z</time>
      </trkpt>
      <trkpt lat="47.721573114395142" lon="11.426722118631005">
        <ele>634.909999999999968</ele>
        <time>2015-06-26T12:28:48Z</time>
      </trkpt>
      <trkpt lat="47.72158769890666" lon="11.426816415041685">
        <ele>634.080000000000041</ele>
        <time>2015-06-26T12:29:05Z</time>
      </trkpt>
      <trkpt lat="47.721628099679947" lon="11.426917165517807">
        <ele>633.840000000000032</ele>
        <time>2015-06-26T12:29:21Z</time>
      </trkpt>
      <trkpt lat="47.721650898456573" lon="11.42691683024168">
        <ele>634.57000000000005</ele>
        <time>2015-06-26T12:30:09Z</time>
      </trkpt>
      <trkpt lat="47.721652826294303" lon="11.426884057000279">
        <ele>634.269999999999982</ele>
        <time>2015-06-26T12:30:15Z</time>
      </trkpt>
      <trkpt lat="47.721632709726691" lon="11.426835861057043">
        <ele>634.639999999999986</ele>
        <time>2015-06-26T12:30:18Z</time>
      </trkpt>
      <trkpt lat="47.721557104960084" lon="11.426823791116476">
        <ele>634.659999999999968</ele>
        <time>2015-06-26T12:30:33Z</time>
      </trkpt>
      <trkpt lat="47.721528271213174" lon="11.426883134990931">
        <ele>635.029999999999973</ele>
        <time>2015-06-26T12:30:38Z</time>
      </trkpt>
      <trkpt lat="47.721409415826201" lon="11.42711472697556">
        <ele>635.379999999999995</ele>
        <time>2015-06-26T12:30:49Z</time>
      </trkpt>
      <trkpt lat="47.72135510109365" lon="11.427237605676055">
        <ele>635.480000000000018</ele>
        <time>2015-06-26T12:30:54Z</time>
      </trkpt>
      <trkpt lat="47.721296176314354" lon="11.427319832146168">
        <ele>636.009999999999991</ele>
        <time>2015-06-26T12:30:58Z</time>
      </trkpt>
      <trkpt lat="47.721205232664943" lon="11.427449248731136">
        <ele>636.529999999999973</ele>
        <time>2015-06-26T12:31:03Z</time>
      </trkpt>
      <trkpt lat="47.721087466925383" lon="11.427611438557506">
        <ele>637.42999999999995</ele>
        <time>2015-06-26T12:31:12Z</time>
      </trkpt>
      <trkpt lat="47.720949165523052" lon="11.427849568426609">
        <ele>637.389999999999986</ele>
        <time>2015-06-26T12:31:31Z</time>
      </trkpt>
      <trkpt lat="47.72082544863224" lon="11.427930118516088">
        <ele>637.57000000000005</ele>
        <time>2015-06-26T12:31:44Z</time>
      </trkpt>
      <trkpt lat="47.720747161656618" lon="11.427999772131443">
        <ele>638.139999999999986</ele>
        <time>2015-06-26T12:31:54Z</time>
      </trkpt>
      <trkpt lat="47.720587737858295" lon="11.428011171519756">
        <ele>638.230000000000018</ele>
        <time>2015-06-26T12:32:03Z</time>
      </trkpt>
      <trkpt lat="47.720413058996201" lon="11.428103037178516">
        <ele>638.259999999999991</ele>
        <time>2015-06-26T12:32:14Z</time>
      </trkpt>
      <trkpt lat="47.720357067883015" lon="11.428133295848966">
        <ele>638.159999999999968</ele>
        <time>2015-06-26T12:32:20Z</time>
      </trkpt>
      <trkpt lat="47.720286911353469" lon="11.428149724379182">
        <ele>637.870000000000005</ele>
        <time>2015-06-26T12:32:27Z</time>
      </trkpt>
      <trkpt lat="47.720166211947799" lon="11.42814327031374">
        <ele>639.159999999999968</ele>
        <time>2015-06-26T12:32:43Z</time>
      </trkpt>
      <trkpt lat="47.720086667686701" lon="11.428126338869333">
        <ele>639.759999999999991</ele>
        <time>2015-06-26T12:32:56Z</time>
      </trkpt>
      <trkpt lat="47.720013158395886" lon="11.428081160411239">
        <ele>639.799999999999955</ele>
        <time>2015-06-26T12:33:11Z</time>
      </trkpt>
      <trkpt lat="47.719932524487376" lon="11.428012009710073">
        <ele>640.009999999999991</ele>
        <time>2015-06-26T12:33:25Z</time>
      </trkpt>
      <trkpt lat="47.719744015485048" lon="11.427812101319432">
        <ele>640.720000000000027</ele>
        <time>2015-06-26T12:33:37Z</time>
      </trkpt>
      <trkpt lat="47.71968106739223" lon="11.427777986973524">
        <ele>641.279999999999973</ele>
        <time>2015-06-26T12:33:40Z</time>
      </trkpt>
      <trkpt lat="47.719413097947836" lon="11.427674302831292">
        <ele>641.940000000000055</ele>
        <time>2015-06-26T12:33:53Z</time>
      </trkpt>
      <trkpt lat="47.719329949468374" lon="11.427671955898404">
        <ele>641.649999999999977</ele>
        <time>2015-06-26T12:34:04Z</time>
      </trkpt>
      <trkpt lat="47.719289464876056" lon="11.427697855979204">
        <ele>641.669999999999959</ele>
        <time>2015-06-26T12:34:06Z</time>
      </trkpt>
      <trkpt lat="47.71926180459559" lon="11.427720570936799">
        <ele>641.850000000000023</ele>
        <time>2015-06-26T12:34:07Z</time>
      </trkpt>
      <trkpt lat="47.719128364697099" lon="11.427824757993221">
        <ele>642.529999999999973</ele>
        <time>2015-06-26T12:34:12Z</time>
      </trkpt>
      <trkpt lat="47.719106068834662" lon="11.427820147946477">
        <ele>642.919999999999959</ele>
        <time>2015-06-26T12:34:13Z</time>
      </trkpt>
      <trkpt lat="47.719035912305117" lon="11.427799947559834">
        <ele>642.529999999999973</ele>
        <time>2015-06-26T12:34:20Z</time>
      </trkpt>
      <trkpt lat="47.718961145728827" lon="11.427791817113757">
        <ele>642.759999999999991</ele>
        <time>2015-06-26T12:34:44Z</time>
      </trkpt>
      <trkpt lat="47.718921164050698" lon="11.427773796021938">
        <ele>642.759999999999991</ele>
        <time>2015-06-26T12:34:47Z</time>
      </trkpt>
      <trkpt lat="47.71890071220696" lon="11.42775141634047">
        <ele>642.980000000000018</ele>
        <time>2015-06-26T12:34:48Z</time>
      </trkpt>
      <trkpt lat="47.718880511820316" lon="11.427723169326782">
        <ele>643.269999999999982</ele>
        <time>2015-06-26T12:34:49Z</time>
      </trkpt>
      <trkpt lat="47.718654368072748" lon="11.427419912070036">
        <ele>642.879999999999995</ele>
        <time>2015-06-26T12:34:59Z</time>
      </trkpt>
      <trkpt lat="47.718631736934185" lon="11.427430640906096">
        <ele>642.919999999999959</ele>
        <time>2015-06-26T12:35:00Z</time>
      </trkpt>
      <trkpt lat="47.718617236241698" lon="11.427462073042989">
        <ele>642.960000000000036</ele>
        <time>2015-06-26T12:35:01Z</time>
      </trkpt>
      <trkpt lat="47.718495531007648" lon="11.427713949233294">
        <ele>643.82000000000005</ele>
        <time>2015-06-26T12:35:09Z</time>
      </trkpt>
      <trkpt lat="47.718477258458734" lon="11.427904637530446">
        <ele>643.830000000000041</ele>
        <time>2015-06-26T12:35:15Z</time>
      </trkpt>
      <trkpt lat="47.718465942889452" lon="11.427830373868346">
        <ele>644.240000000000009</ele>
        <time>2015-06-26T12:35:22Z</time>
      </trkpt>
      <trkpt lat="47.718484131619334" lon="11.427795840427279">
        <ele>643.769999999999982</ele>
        <time>2015-06-26T12:35:23Z</time>
      </trkpt>
      <trkpt lat="47.718615308403969" lon="11.427469784393907">
        <ele>643.090000000000032</ele>
        <time>2015-06-26T12:35:32Z</time>
      </trkpt>
      <trkpt lat="47.718606507405639" lon="11.427439441904426">
        <ele>642.799999999999955</ele>
        <time>2015-06-26T12:35:33Z</time>
      </trkpt>
      <trkpt lat="47.718378938734531" lon="11.427009617909789">
        <ele>642.159999999999968</ele>
        <time>2015-06-26T12:35:46Z</time>
      </trkpt>
      <trkpt lat="47.718022204935551" lon="11.426610387861729">
        <ele>642.029999999999973</ele>
        <time>2015-06-26T12:35:59Z</time>
      </trkpt>
      <trkpt lat="47.71780083887279" lon="11.42630897462368">
        <ele>642.080000000000041</ele>
        <time>2015-06-26T12:36:11Z</time>
      </trkpt>
      <trkpt lat="47.717770244926214" lon="11.426298497244716">
        <ele>642.009999999999991</ele>
        <time>2015-06-26T12:36:28Z</time>
      </trkpt>
      <trkpt lat="47.71774266846478" lon="11.426273100078106">
        <ele>642.17999999999995</ele>
        <time>2015-06-26T12:36:30Z</time>
      </trkpt>
      <trkpt lat="47.717721462249756" lon="11.426268154755235">
        <ele>642.049999999999955</ele>
        <time>2015-06-26T12:36:31Z</time>
      </trkpt>
      <trkpt lat="47.717696903273463" lon="11.426270669326186">
        <ele>641.789999999999964</ele>
        <time>2015-06-26T12:36:32Z</time>
      </trkpt>
      <trkpt lat="47.717669578269124" lon="11.426273602992296">
        <ele>641.960000000000036</ele>
        <time>2015-06-26T12:36:33Z</time>
      </trkpt>
      <trkpt lat="47.717639487236738" lon="11.426272094249725">
        <ele>642.309999999999945</ele>
        <time>2015-06-26T12:36:34Z</time>
      </trkpt>
      <trkpt lat="47.717608474195004" lon="11.42626840621233">
        <ele>642.200000000000045</ele>
        <time>2015-06-26T12:36:35Z</time>
      </trkpt>
      <trkpt lat="47.717114863917232" lon="11.42628014087677">
        <ele>643.32000000000005</ele>
        <time>2015-06-26T12:36:51Z</time>
      </trkpt>
      <trkpt lat="47.717109080404043" lon="11.426287014037371">
        <ele>642.909999999999968</ele>
        <time>2015-06-26T12:37:09Z</time>
      </trkpt>
      <trkpt lat="47.717079995200038" lon="11.426291456446052">
        <ele>642.700000000000045</ele>
        <time>2015-06-26T12:37:32Z</time>
      </trkpt>
      <trkpt lat="47.717047305777669" lon="11.426297575235367">
        <ele>642.970000000000027</ele>
        <time>2015-06-26T12:37:34Z</time>
      </trkpt>
      <trkpt lat="47.716564340516925" lon="11.426306460052729">
        <ele>641.990000000000009</ele>
        <time>2015-06-26T12:37:46Z</time>
      </trkpt>
      <trkpt lat="47.715832097455859" lon="11.426333701238036">
        <ele>641.610000000000014</ele>
        <time>2015-06-26T12:38:03Z</time>
      </trkpt>
      <trkpt lat="47.714988039806485" lon="11.426368989050388">
        <ele>641.57000000000005</ele>
        <time>2015-06-26T12:38:20Z</time>
      </trkpt>
      <trkpt lat="47.714071646332741" lon="11.426446186378598">
        <ele>638.700000000000045</ele>
        <time>2015-06-26T12:38:36Z</time>
      </trkpt>
      <trkpt lat="47.713294643908739" lon="11.426497986540198">
        <ele>637.830000000000041</ele>
        <time>2015-06-26T12:38:50Z</time>
      </trkpt>
      <trkpt lat="47.712574051693082" lon="11.426319368183613">
        <ele>636.82000000000005</ele>
        <time>2015-06-26T12:39:03Z</time>
      </trkpt>
      <trkpt lat="47.711702417582273" lon="11.426034048199654">
        <ele>634.519999999999982</ele>
        <time>2015-06-26T12:39:18Z</time>
      </trkpt>
      <trkpt lat="47.710824077948928" lon="11.425900021567941">
        <ele>632.649999999999977</ele>
        <time>2015-06-26T12:39:33Z</time>
      </trkpt>
      <trkpt lat="47.709921598434448" lon="11.425614366307855">
        <ele>631.82000000000005</ele>
        <time>2015-06-26T12:39:49Z</time>
      </trkpt>
      <trkpt lat="47.709461180493236" lon="11.425339356064796">
        <ele>632.17999999999995</ele>
        <time>2015-06-26T12:40:00Z</time>
      </trkpt>
      <trkpt lat="47.709361435845494" lon="11.425251429900527">
        <ele>631.710000000000036</ele>
        <time>2015-06-26T12:40:03Z</time>
      </trkpt>
      <trkpt lat="47.708788700401783" lon="11.42482160590589">
        <ele>631.100000000000023</ele>
        <time>2015-06-26T12:40:16Z</time>
      </trkpt>
      <trkpt lat="47.708744024857879" lon="11.42479813657701">
        <ele>631.360000000000014</ele>
        <time>2015-06-26T12:40:17Z</time>
      </trkpt>
      <trkpt lat="47.708175564184785" lon="11.424421956762671">
        <ele>631.419999999999959</ele>
        <time>2015-06-26T12:40:33Z</time>
      </trkpt>
      <trkpt lat="47.708160057663918" lon="11.424405947327614">
        <ele>631.710000000000036</ele>
        <time>2015-06-26T12:40:34Z</time>
      </trkpt>
      <trkpt lat="47.708130804821849" lon="11.424400331452489">
        <ele>631.289999999999964</ele>
        <time>2015-06-26T12:40:47Z</time>
      </trkpt>
      <trkpt lat="47.708070371299982" lon="11.424410557374358">
        <ele>632.100000000000023</ele>
        <time>2015-06-26T12:41:18Z</time>
      </trkpt>
      <trkpt lat="47.708048075437546" lon="11.424393290653825">
        <ele>631.919999999999959</ele>
        <time>2015-06-26T12:41:20Z</time>
      </trkpt>
      <trkpt lat="47.708032736554742" lon="11.424377616494894">
        <ele>632.440000000000055</ele>
        <time>2015-06-26T12:41:21Z</time>
      </trkpt>
      <trkpt lat="47.708018822595477" lon="11.424353644251823">
        <ele>632.440000000000055</ele>
        <time>2015-06-26T12:41:22Z</time>
      </trkpt>
      <trkpt lat="47.708006836473942" lon="11.424319194629788">
        <ele>632</ele>
        <time>2015-06-26T12:41:23Z</time>
      </trkpt>
      <trkpt lat="47.707993257790804" lon="11.42427871003747">
        <ele>632.350000000000023</ele>
        <time>2015-06-26T12:41:24Z</time>
      </trkpt>
      <trkpt lat="47.707656640559435" lon="11.423765067011118">
        <ele>633.200000000000045</ele>
        <time>2015-06-26T12:41:38Z</time>
      </trkpt>
      <trkpt lat="47.707173423841596" lon="11.423328286036849">
        <ele>634.080000000000041</ele>
        <time>2015-06-26T12:41:53Z</time>
      </trkpt>
      <trkpt lat="47.706684004515409" lon="11.423125946894288">
        <ele>635.370000000000005</ele>
        <time>2015-06-26T12:42:07Z</time>
      </trkpt>
      <trkpt lat="47.706086039543152" lon="11.423379750922322">
        <ele>637.039999999999964</ele>
        <time>2015-06-26T12:42:24Z</time>
      </trkpt>
      <trkpt lat="47.705853441730142" lon="11.423487206920981">
        <ele>637.620000000000005</ele>
        <time>2015-06-26T12:42:36Z</time>
      </trkpt>
      <trkpt lat="47.705849669873714" lon="11.423481171950698">
        <ele>637.769999999999982</ele>
        <time>2015-06-26T12:42:55Z</time>
      </trkpt>
      <trkpt lat="47.705834079533815" lon="11.423486704006791">
        <ele>637.919999999999959</ele>
        <time>2015-06-26T12:43:04Z</time>
      </trkpt>
      <trkpt lat="47.705790745094419" lon="11.423500701785088">
        <ele>637.539999999999964</ele>
        <time>2015-06-26T12:43:07Z</time>
      </trkpt>
      <trkpt lat="47.705422025173903" lon="11.423644870519638">
        <ele>639.580000000000041</ele>
        <time>2015-06-26T12:43:21Z</time>
      </trkpt>
      <trkpt lat="47.704924140125513" lon="11.423856010660529">
        <ele>641.009999999999991</ele>
        <time>2015-06-26T12:43:38Z</time>
      </trkpt>
      <trkpt lat="47.704906454309821" lon="11.423825081437826">
        <ele>641.029999999999973</ele>
        <time>2015-06-26T12:43:39Z</time>
      </trkpt>
      <trkpt lat="47.704894719645381" lon="11.423781914636493">
        <ele>641.330000000000041</ele>
        <time>2015-06-26T12:43:40Z</time>
      </trkpt>
      <trkpt lat="47.704886002466083" lon="11.423736400902271">
        <ele>641.120000000000005</ele>
        <time>2015-06-26T12:43:41Z</time>
      </trkpt>
      <trkpt lat="47.704879883676767" lon="11.423685187473893">
        <ele>640.980000000000018</ele>
        <time>2015-06-26T12:43:42Z</time>
      </trkpt>
      <trkpt lat="47.704874854534864" lon="11.42363028600812">
        <ele>641.299999999999955</ele>
        <time>2015-06-26T12:43:43Z</time>
      </trkpt>
      <trkpt lat="47.704804027453065" lon="11.423231726512313">
        <ele>641.639999999999986</ele>
        <time>2015-06-26T12:43:53Z</time>
      </trkpt>
      <trkpt lat="47.704754322767258" lon="11.423235330730677">
        <ele>641.940000000000055</ele>
        <time>2015-06-26T12:43:59Z</time>
      </trkpt>
      <trkpt lat="47.704737558960915" lon="11.423251256346703">
        <ele>641.690000000000055</ele>
        <time>2015-06-26T12:44:00Z</time>
      </trkpt>
      <trkpt lat="47.704383339732885" lon="11.423401879146695">
        <ele>642.700000000000045</ele>
        <time>2015-06-26T12:44:12Z</time>
      </trkpt>
      <trkpt lat="47.703826613724232" lon="11.423508580774069">
        <ele>644.799999999999955</ele>
        <time>2015-06-26T12:44:28Z</time>
      </trkpt>
      <trkpt lat="47.703254381194711" lon="11.423701448366046">
        <ele>646.970000000000027</ele>
        <time>2015-06-26T12:44:45Z</time>
      </trkpt>
      <trkpt lat="47.702898066490889" lon="11.423859614878893">
        <ele>647.309999999999945</ele>
        <time>2015-06-26T12:44:58Z</time>
      </trkpt>
      <trkpt lat="47.702565137296915" lon="11.423806641250849">
        <ele>647.799999999999955</ele>
        <time>2015-06-26T12:45:09Z</time>
      </trkpt>
      <trkpt lat="47.702059708535671" lon="11.423547472804785">
        <ele>649.269999999999982</ele>
        <time>2015-06-26T12:45:23Z</time>
      </trkpt>
      <trkpt lat="47.702018972486258" lon="11.423524171113968">
        <ele>649.710000000000036</ele>
        <time>2015-06-26T12:45:24Z</time>
      </trkpt>
      <trkpt lat="47.701980080455542" lon="11.42349692992866">
        <ele>649.700000000000045</ele>
        <time>2015-06-26T12:45:25Z</time>
      </trkpt>
      <trkpt lat="47.701269462704659" lon="11.423054281622171">
        <ele>650.879999999999995</ele>
        <time>2015-06-26T12:45:44Z</time>
      </trkpt>
      <trkpt lat="47.700706869363785" lon="11.42271657474339">
        <ele>652.220000000000027</ele>
        <time>2015-06-26T12:46:01Z</time>
      </trkpt>
      <trkpt lat="47.700507966801524" lon="11.42262713983655">
        <ele>651.379999999999995</ele>
        <time>2015-06-26T12:46:10Z</time>
      </trkpt>
      <trkpt lat="47.700490700080991" lon="11.422625379636884">
        <ele>651.259999999999991</ele>
        <time>2015-06-26T12:46:31Z</time>
      </trkpt>
      <trkpt lat="47.700420040637255" lon="11.422652285546064">
        <ele>651.139999999999986</ele>
        <time>2015-06-26T12:46:47Z</time>
      </trkpt>
      <trkpt lat="47.700395481660962" lon="11.422669552266598">
        <ele>650.960000000000036</ele>
        <time>2015-06-26T12:46:49Z</time>
      </trkpt>
      <trkpt lat="47.700383998453617" lon="11.422694697976112">
        <ele>651.490000000000009</ele>
        <time>2015-06-26T12:46:50Z</time>
      </trkpt>
      <trkpt lat="47.700382154434919" lon="11.422721771523356">
        <ele>651.639999999999986</ele>
        <time>2015-06-26T12:46:51Z</time>
      </trkpt>
      <trkpt lat="47.700387602671981" lon="11.422753538936377">
        <ele>651.059999999999945</ele>
        <time>2015-06-26T12:46:52Z</time>
      </trkpt>
      <trkpt lat="47.700399253517389" lon="11.422783294692636">
        <ele>651.220000000000027</ele>
        <time>2015-06-26T12:46:53Z</time>
      </trkpt>
      <trkpt lat="47.700415095314384" lon="11.422812966629863">
        <ele>651.5</ele>
        <time>2015-06-26T12:46:54Z</time>
      </trkpt>
      <trkpt lat="47.700428422540426" lon="11.422847332432866">
        <ele>651.730000000000018</ele>
        <time>2015-06-26T12:46:55Z</time>
      </trkpt>
      <trkpt lat="47.700434206053615" lon="11.422886643558741">
        <ele>651.620000000000005</ele>
        <time>2015-06-26T12:46:56Z</time>
      </trkpt>
      <trkpt lat="47.700429847463965" lon="11.422928301617503">
        <ele>651.419999999999959</ele>
        <time>2015-06-26T12:46:57Z</time>
      </trkpt>
      <trkpt lat="47.700422136113048" lon="11.422969037666917">
        <ele>651.490000000000009</ele>
        <time>2015-06-26T12:46:58Z</time>
      </trkpt>
      <trkpt lat="47.700412999838591" lon="11.42300684005022">
        <ele>650.870000000000005</ele>
        <time>2015-06-26T12:46:59Z</time>
      </trkpt>
      <trkpt lat="47.700350638478994" lon="11.423613773658872">
        <ele>652.730000000000018</ele>
        <time>2015-06-26T12:47:15Z</time>
      </trkpt>
      <trkpt lat="47.700294563546777" lon="11.424068911001086">
        <ele>653.779999999999973</ele>
        <time>2015-06-26T12:47:30Z</time>
      </trkpt>
      <trkpt lat="47.700287522748113" lon="11.424073269590735">
        <ele>653.669999999999959</ele>
        <time>2015-06-26T12:47:45Z</time>
      </trkpt>
      <trkpt lat="47.700288025662303" lon="11.42406614497304">
        <ele>652.690000000000055</ele>
        <time>2015-06-26T12:48:21Z</time>
      </trkpt>
      <trkpt lat="47.700285259634256" lon="11.424047369509935">
        <ele>653.090000000000032</ele>
        <time>2015-06-26T12:49:23Z</time>
      </trkpt>
      <trkpt lat="47.700286684557796" lon="11.424053739756346">
        <ele>654.779999999999973</ele>
        <time>2015-06-26T12:49:32Z</time>
      </trkpt>
      <trkpt lat="47.700273105874658" lon="11.42405541613698">
        <ele>654.690000000000055</ele>
        <time>2015-06-26T12:49:58Z</time>
      </trkpt>
      <trkpt lat="47.700284002348781" lon="11.42406958155334">
        <ele>654.950000000000045</ele>
        <time>2015-06-26T12:50:18Z</time>
      </trkpt>
      <trkpt lat="47.700281068682671" lon="11.424101013690233">
        <ele>654.850000000000023</ele>
        <time>2015-06-26T12:50:27Z</time>
      </trkpt>
      <trkpt lat="47.700276039540768" lon="11.424121968448162">
        <ele>655.169999999999959</ele>
        <time>2015-06-26T12:50:28Z</time>
      </trkpt>
      <trkpt lat="47.70026832818985" lon="11.424147197976708">
        <ele>655.25</ele>
        <time>2015-06-26T12:50:29Z</time>
      </trkpt>
      <trkpt lat="47.700261371210217" lon="11.424175780266523">
        <ele>655.059999999999945</ele>
        <time>2015-06-26T12:50:30Z</time>
      </trkpt>
      <trkpt lat="47.7002536598593" lon="11.424207296222448">
        <ele>655.379999999999995</ele>
        <time>2015-06-26T12:50:31Z</time>
      </trkpt>
      <trkpt lat="47.700101444497705" lon="11.424840884283185">
        <ele>657.259999999999991</ele>
        <time>2015-06-26T12:50:48Z</time>
      </trkpt>
      <trkpt lat="47.700068922713399" lon="11.425342708826065">
        <ele>660.149999999999977</ele>
        <time>2015-06-26T12:51:06Z</time>
      </trkpt>
      <trkpt lat="47.700061881914735" lon="11.425412530079484">
        <ele>661.659999999999968</ele>
        <time>2015-06-26T12:51:09Z</time>
      </trkpt>
      <trkpt lat="47.700037406757474" lon="11.425545047968626">
        <ele>662.779999999999973</ele>
        <time>2015-06-26T12:51:16Z</time>
      </trkpt>
      <trkpt lat="47.700029360130429" lon="11.425559213384986">
        <ele>663.309999999999945</ele>
        <time>2015-06-26T12:51:17Z</time>
      </trkpt>
      <trkpt lat="47.700023995712399" lon="11.425575893372297">
        <ele>663.440000000000055</ele>
        <time>2015-06-26T12:51:18Z</time>
      </trkpt>
      <trkpt lat="47.70001427270472" lon="11.425630291923881">
        <ele>664.279999999999973</ele>
        <time>2015-06-26T12:51:21Z</time>
      </trkpt>
      <trkpt lat="47.700005555525422" lon="11.425646468997002">
        <ele>664.309999999999945</ele>
        <time>2015-06-26T12:51:22Z</time>
      </trkpt>
      <trkpt lat="47.699996754527092" lon="11.425662478432059">
        <ele>664.440000000000055</ele>
        <time>2015-06-26T12:51:23Z</time>
      </trkpt>
      <trkpt lat="47.699929615482688" lon="11.425780411809683">
        <ele>666.009999999999991</ele>
        <time>2015-06-26T12:51:31Z</time>
      </trkpt>
      <trkpt lat="47.699911091476679" lon="11.425802037119865">
        <ele>665.990000000000009</ele>
        <time>2015-06-26T12:51:33Z</time>
      </trkpt>
      <trkpt lat="47.699898518621922" lon="11.425811005756259">
        <ele>666.799999999999955</ele>
        <time>2015-06-26T12:51:34Z</time>
      </trkpt>
      <trkpt lat="47.699824757874012" lon="11.425889628008008">
        <ele>668.17999999999995</ele>
        <time>2015-06-26T12:51:41Z</time>
      </trkpt>
      <trkpt lat="47.699816711246967" lon="11.425906307995319">
        <ele>668.080000000000041</ele>
        <time>2015-06-26T12:51:42Z</time>
      </trkpt>
      <trkpt lat="47.699807491153479" lon="11.425920473411679">
        <ele>668.470000000000027</ele>
        <time>2015-06-26T12:51:43Z</time>
      </trkpt>
      <trkpt lat="47.699652006849647" lon="11.426131865009665">
        <ele>671.759999999999991</ele>
        <time>2015-06-26T12:52:00Z</time>
      </trkpt>
      <trkpt lat="47.699613366276026" lon="11.426239488646388">
        <ele>671.970000000000027</ele>
        <time>2015-06-26T12:52:13Z</time>
      </trkpt>
      <trkpt lat="47.699562320485711" lon="11.42626496963203">
        <ele>673.100000000000023</ele>
        <time>2015-06-26T12:52:21Z</time>
      </trkpt>
      <trkpt lat="47.699509682133794" lon="11.426304867491126">
        <ele>673.759999999999991</ele>
        <time>2015-06-26T12:52:27Z</time>
      </trkpt>
      <trkpt lat="47.699462324380875" lon="11.426369408145547">
        <ele>674.649999999999977</ele>
        <time>2015-06-26T12:52:41Z</time>
      </trkpt>
      <trkpt lat="47.699452433735132" lon="11.426378795877099">
        <ele>674.620000000000005</ele>
        <time>2015-06-26T12:52:42Z</time>
      </trkpt>
      <trkpt lat="47.699440028518438" lon="11.426387010142207">
        <ele>674.740000000000009</ele>
        <time>2015-06-26T12:52:43Z</time>
      </trkpt>
      <trkpt lat="47.699428796768188" lon="11.426397571340203">
        <ele>675.049999999999955</ele>
        <time>2015-06-26T12:52:44Z</time>
      </trkpt>
      <trkpt lat="47.699419157579541" lon="11.426409892737865">
        <ele>675.5</ele>
        <time>2015-06-26T12:52:45Z</time>
      </trkpt>
      <trkpt lat="47.699264260008931" lon="11.42656110227108">
        <ele>678.559999999999945</ele>
        <time>2015-06-26T12:53:01Z</time>
      </trkpt>
      <trkpt lat="47.69918848760426" lon="11.426621619611979">
        <ele>678.629999999999995</ele>
        <time>2015-06-26T12:53:17Z</time>
      </trkpt>
      <trkpt lat="47.69917038269341" lon="11.426640562713146">
        <ele>678.700000000000045</ele>
        <time>2015-06-26T12:53:19Z</time>
      </trkpt>
      <trkpt lat="47.69915864802897" lon="11.426651459187269">
        <ele>678.980000000000018</ele>
        <time>2015-06-26T12:53:20Z</time>
      </trkpt>
      <trkpt lat="47.698981873691082" lon="11.426808536052704">
        <ele>681.730000000000018</ele>
        <time>2015-06-26T12:53:36Z</time>
      </trkpt>
      <trkpt lat="47.698802752420306" lon="11.426935940980911">
        <ele>683.980000000000018</ele>
        <time>2015-06-26T12:53:52Z</time>
      </trkpt>
      <trkpt lat="47.698679286986589" lon="11.427041552960873">
        <ele>685.460000000000036</ele>
        <time>2015-06-26T12:54:07Z</time>
      </trkpt>
      <trkpt lat="47.698667300865054" lon="11.427050018683076">
        <ele>685.669999999999959</ele>
        <time>2015-06-26T12:54:08Z</time>
      </trkpt>
      <trkpt lat="47.698657494038343" lon="11.427062256261706">
        <ele>686.149999999999977</ele>
        <time>2015-06-26T12:54:09Z</time>
      </trkpt>
      <trkpt lat="47.69864902831614" lon="11.427070973441005">
        <ele>685.75</ele>
        <time>2015-06-26T12:54:10Z</time>
      </trkpt>
      <trkpt lat="47.698582643643022" lon="11.427178932353854">
        <ele>687.700000000000045</ele>
        <time>2015-06-26T12:54:19Z</time>
      </trkpt>
      <trkpt lat="47.698555234819651" lon="11.427245317026973">
        <ele>688.169999999999959</ele>
        <time>2015-06-26T12:54:23Z</time>
      </trkpt>
      <trkpt lat="47.69854785874486" lon="11.427259650081396">
        <ele>688.190000000000055</ele>
        <time>2015-06-26T12:54:24Z</time>
      </trkpt>
      <trkpt lat="47.698541907593608" lon="11.4272749889642">
        <ele>688.169999999999959</ele>
        <time>2015-06-26T12:54:25Z</time>
      </trkpt>
      <trkpt lat="47.698534280061722" lon="11.427289824932814">
        <ele>688.539999999999964</ele>
        <time>2015-06-26T12:54:26Z</time>
      </trkpt>
      <trkpt lat="47.69852832891047" lon="11.427306169643998">
        <ele>688.759999999999991</ele>
        <time>2015-06-26T12:54:27Z</time>
      </trkpt>
      <trkpt lat="47.698523718863726" lon="11.427321257069707">
        <ele>688.82000000000005</ele>
        <time>2015-06-26T12:54:28Z</time>
      </trkpt>
      <trkpt lat="47.698570908978581" lon="11.427397783845663">
        <ele>689.230000000000018</ele>
        <time>2015-06-26T12:54:36Z</time>
      </trkpt>
      <trkpt lat="47.698555234819651" lon="11.427462492138147">
        <ele>689.529999999999973</ele>
        <time>2015-06-26T12:54:44Z</time>
      </trkpt>
      <trkpt lat="47.698547691106796" lon="11.427478836849332">
        <ele>689.899999999999977</ele>
        <time>2015-06-26T12:54:45Z</time>
      </trkpt>
      <trkpt lat="47.698538135737181" lon="11.427492750808597">
        <ele>689.350000000000023</ele>
        <time>2015-06-26T12:54:46Z</time>
      </trkpt>
      <trkpt lat="47.698526568710804" lon="11.427506916224957">
        <ele>689.92999999999995</ele>
        <time>2015-06-26T12:54:47Z</time>
      </trkpt>
      <trkpt lat="47.698518019169569" lon="11.427518567070365">
        <ele>690.379999999999995</ele>
        <time>2015-06-26T12:54:48Z</time>
      </trkpt>
      <trkpt lat="47.698510643094778" lon="11.427530134096742">
        <ele>690.330000000000041</ele>
        <time>2015-06-26T12:54:49Z</time>
      </trkpt>
      <trkpt lat="47.69850293174386" lon="11.42757841385901">
        <ele>690.789999999999964</ele>
        <time>2015-06-26T12:54:52Z</time>
      </trkpt>
      <trkpt lat="47.6983886025846" lon="11.427655024453998">
        <ele>692.970000000000027</ele>
        <time>2015-06-26T12:55:06Z</time>
      </trkpt>
      <trkpt lat="47.698270250111818" lon="11.42764781601727">
        <ele>695.009999999999991</ele>
        <time>2015-06-26T12:55:15Z</time>
      </trkpt>
      <trkpt lat="47.698259018361568" lon="11.427642032504082">
        <ele>694.590000000000032</ele>
        <time>2015-06-26T12:55:16Z</time>
      </trkpt>
      <trkpt lat="47.698055673390627" lon="11.427605990320444">
        <ele>697.100000000000023</ele>
        <time>2015-06-26T12:55:28Z</time>
      </trkpt>
      <trkpt lat="47.697863224893808" lon="11.427613869309425">
        <ele>699.210000000000036</ele>
        <time>2015-06-26T12:55:41Z</time>
      </trkpt>
      <trkpt lat="47.697763312608004" lon="11.427645133808255">
        <ele>700.230000000000018</ele>
        <time>2015-06-26T12:55:49Z</time>
      </trkpt>
      <trkpt lat="47.697751242667437" lon="11.427656533196568">
        <ele>700.340000000000032</ele>
        <time>2015-06-26T12:55:50Z</time>
      </trkpt>
      <trkpt lat="47.697740430012345" lon="11.427664579823613">
        <ele>700.460000000000036</ele>
        <time>2015-06-26T12:55:51Z</time>
      </trkpt>
      <trkpt lat="47.697719559073448" lon="11.427682265639305">
        <ele>700.710000000000036</ele>
        <time>2015-06-26T12:55:53Z</time>
      </trkpt>
      <trkpt lat="47.697632554918528" lon="11.427893238142133">
        <ele>702.5</ele>
        <time>2015-06-26T12:56:06Z</time>
      </trkpt>
      <trkpt lat="47.697626519948244" lon="11.42790824174881">
        <ele>702.92999999999995</ele>
        <time>2015-06-26T12:56:07Z</time>
      </trkpt>
      <trkpt lat="47.69761017523706" lon="11.427949732169509">
        <ele>703.480000000000018</ele>
        <time>2015-06-26T12:56:10Z</time>
      </trkpt>
      <trkpt lat="47.697597183287144" lon="11.427988205105066">
        <ele>703.620000000000005</ele>
        <time>2015-06-26T12:56:13Z</time>
      </trkpt>
      <trkpt lat="47.697495678439736" lon="11.428246535360813">
        <ele>706.730000000000018</ele>
        <time>2015-06-26T12:56:29Z</time>
      </trkpt>
      <trkpt lat="47.697461480274796" lon="11.428325911983848">
        <ele>707.330000000000041</ele>
        <time>2015-06-26T12:56:34Z</time>
      </trkpt>
      <trkpt lat="47.69745527766645" lon="11.428342005237937">
        <ele>707.909999999999968</ele>
        <time>2015-06-26T12:56:35Z</time>
      </trkpt>
      <trkpt lat="47.697452930733562" lon="11.428359942510724">
        <ele>707.960000000000036</ele>
        <time>2015-06-26T12:56:36Z</time>
      </trkpt>
      <trkpt lat="47.697447817772627" lon="11.42837637104094">
        <ele>707.899999999999977</ele>
        <time>2015-06-26T12:56:37Z</time>
      </trkpt>
      <trkpt lat="47.697446057572961" lon="11.428394056856632">
        <ele>707.57000000000005</ele>
        <time>2015-06-26T12:56:38Z</time>
      </trkpt>
      <trkpt lat="47.697440190240741" lon="11.428409228101373">
        <ele>708.039999999999964</ele>
        <time>2015-06-26T12:56:39Z</time>
      </trkpt>
      <trkpt lat="47.69743675366044" lon="11.428425824269652">
        <ele>708.139999999999986</ele>
        <time>2015-06-26T12:56:40Z</time>
      </trkpt>
      <trkpt lat="47.697435580193996" lon="11.428443090990186">
        <ele>708.409999999999968</ele>
        <time>2015-06-26T12:56:41Z</time>
      </trkpt>
      <trkpt lat="47.697434825822711" lon="11.428476870059967">
        <ele>708.950000000000045</ele>
        <time>2015-06-26T12:56:43Z</time>
      </trkpt>
      <trkpt lat="47.697440190240741" lon="11.428495980799198">
        <ele>708.899999999999977</ele>
        <time>2015-06-26T12:56:44Z</time>
      </trkpt>
      <trkpt lat="47.697446309030056" lon="11.428514085710049">
        <ele>709.190000000000055</ele>
        <time>2015-06-26T12:56:45Z</time>
      </trkpt>
      <trkpt lat="47.697452930733562" lon="11.428530598059297">
        <ele>709.779999999999973</ele>
        <time>2015-06-26T12:56:46Z</time>
      </trkpt>
      <trkpt lat="47.697463324293494" lon="11.428548619151115">
        <ele>709.870000000000005</ele>
        <time>2015-06-26T12:56:47Z</time>
      </trkpt>
      <trkpt lat="47.697475478053093" lon="11.428564796224236">
        <ele>709.32000000000005</ele>
        <time>2015-06-26T12:56:48Z</time>
      </trkpt>
      <trkpt lat="47.697486039251089" lon="11.428574938327074">
        <ele>709.92999999999995</ele>
        <time>2015-06-26T12:56:49Z</time>
      </trkpt>
      <trkpt lat="47.697690641507506" lon="11.428623469546437">
        <ele>712.039999999999964</ele>
        <time>2015-06-26T12:57:07Z</time>
      </trkpt>
      <trkpt lat="47.697720313444734" lon="11.42859036102891">
        <ele>712.75</ele>
        <time>2015-06-26T12:57:21Z</time>
      </trkpt>
      <trkpt lat="47.697740932926536" lon="11.428578207269311">
        <ele>712.490000000000009</ele>
        <time>2015-06-26T12:57:29Z</time>
      </trkpt>
      <trkpt lat="47.697755601257086" lon="11.428576614707708">
        <ele>712.370000000000005</ele>
        <time>2015-06-26T12:57:30Z</time>
      </trkpt>
      <trkpt lat="47.697767000645399" lon="11.428567646071315">
        <ele>712.840000000000032</ele>
        <time>2015-06-26T12:57:31Z</time>
      </trkpt>
      <trkpt lat="47.69777923822403" lon="11.428558425977826">
        <ele>713.039999999999964</ele>
        <time>2015-06-26T12:57:32Z</time>
      </trkpt>
      <trkpt lat="47.697791894897819" lon="11.42855079844594">
        <ele>713.389999999999986</ele>
        <time>2015-06-26T12:57:33Z</time>
      </trkpt>
      <trkpt lat="47.697804467752576" lon="11.428543170914054">
        <ele>713.75</ele>
        <time>2015-06-26T12:57:34Z</time>
      </trkpt>
      <trkpt lat="47.697825590148568" lon="11.428529340773821">
        <ele>713.850000000000023</ele>
        <time>2015-06-26T12:57:36Z</time>
      </trkpt>
      <trkpt lat="47.69784327596426" lon="11.428530178964138">
        <ele>713.789999999999964</ele>
        <time>2015-06-26T12:57:37Z</time>
      </trkpt>
      <trkpt lat="47.697864314541221" lon="11.428536549210548">
        <ele>713.82000000000005</ele>
        <time>2015-06-26T12:57:38Z</time>
      </trkpt>
      <trkpt lat="47.698014099150896" lon="11.428529759868979">
        <ele>715.220000000000027</ele>
        <time>2015-06-26T12:57:48Z</time>
      </trkpt>
      <trkpt lat="47.698028180748224" lon="11.428525066003203">
        <ele>715.450000000000045</ele>
        <time>2015-06-26T12:57:49Z</time>
      </trkpt>
      <trkpt lat="47.698132283985615" lon="11.428486257791519">
        <ele>717.139999999999986</ele>
        <time>2015-06-26T12:57:57Z</time>
      </trkpt>
      <trkpt lat="47.698143012821674" lon="11.428481563925743">
        <ele>717.120000000000005</ele>
        <time>2015-06-26T12:57:58Z</time>
      </trkpt>
      <trkpt lat="47.698154160752892" lon="11.428480306640267">
        <ele>717.700000000000045</ele>
        <time>2015-06-26T12:57:59Z</time>
      </trkpt>
      <trkpt lat="47.698309812694788" lon="11.428458346053958">
        <ele>720.220000000000027</ele>
        <time>2015-06-26T12:58:13Z</time>
      </trkpt>
      <trkpt lat="47.69845406524837" lon="11.428657500073314">
        <ele>723.049999999999955</ele>
        <time>2015-06-26T12:58:29Z</time>
      </trkpt>
      <trkpt lat="47.69855716265738" lon="11.428815666586161">
        <ele>725.059999999999945</ele>
        <time>2015-06-26T12:58:45Z</time>
      </trkpt>
      <trkpt lat="47.698594965040684" lon="11.428860509768128">
        <ele>725.360000000000014</ele>
        <time>2015-06-26T12:59:03Z</time>
      </trkpt>
      <trkpt lat="47.698601000010967" lon="11.428873250260949">
        <ele>725.740000000000009</ele>
        <time>2015-06-26T12:59:04Z</time>
      </trkpt>
      <trkpt lat="47.698607118800282" lon="11.42888599075377">
        <ele>725.950000000000045</ele>
        <time>2015-06-26T12:59:05Z</time>
      </trkpt>
      <trkpt lat="47.698612567037344" lon="11.428898395970464">
        <ele>726.080000000000041</ele>
        <time>2015-06-26T12:59:06Z</time>
      </trkpt>
      <trkpt lat="47.698616674169898" lon="11.428911639377475">
        <ele>726.190000000000055</ele>
        <time>2015-06-26T12:59:07Z</time>
      </trkpt>
      <trkpt lat="47.698622206225991" lon="11.42892555333674">
        <ele>726.490000000000009</ele>
        <time>2015-06-26T12:59:08Z</time>
      </trkpt>
      <trkpt lat="47.698629079386592" lon="11.428936952725053">
        <ele>726.649999999999977</ele>
        <time>2015-06-26T12:59:09Z</time>
      </trkpt>
      <trkpt lat="47.698727063834667" lon="11.429140381515026">
        <ele>730.039999999999964</ele>
        <time>2015-06-26T12:59:23Z</time>
      </trkpt>
      <trkpt lat="47.698844661936164" lon="11.429454451426864">
        <ele>733.159999999999968</ele>
        <time>2015-06-26T12:59:43Z</time>
      </trkpt>
      <trkpt lat="47.699068458750844" lon="11.42974111251533">
        <ele>736.32000000000005</ele>
        <time>2015-06-26T13:00:06Z</time>
      </trkpt>
      <trkpt lat="47.699215058237314" lon="11.430003549903631">
        <ele>739.450000000000045</ele>
        <time>2015-06-26T13:00:24Z</time>
      </trkpt>
      <trkpt lat="47.699346654117107" lon="11.430292893201113">
        <ele>742.029999999999973</ele>
        <time>2015-06-26T13:00:48Z</time>
      </trkpt>
      <trkpt lat="47.69935897551477" lon="11.430303286761045">
        <ele>742.049999999999955</ele>
        <time>2015-06-26T13:00:52Z</time>
      </trkpt>
      <trkpt lat="47.699372973293066" lon="11.430330527946353">
        <ele>742.269999999999982</ele>
        <time>2015-06-26T13:00:54Z</time>
      </trkpt>
      <trkpt lat="47.699380097910762" lon="11.430344944819808">
        <ele>742.480000000000018</ele>
        <time>2015-06-26T13:00:55Z</time>
      </trkpt>
      <trkpt lat="47.699384791776538" lon="11.430359948426485">
        <ele>742.480000000000018</ele>
        <time>2015-06-26T13:00:56Z</time>
      </trkpt>
      <trkpt lat="47.699390491470695" lon="11.430377215147018">
        <ele>742.789999999999964</ele>
        <time>2015-06-26T13:00:57Z</time>
      </trkpt>
      <trkpt lat="47.699396861717105" lon="11.430392637848854">
        <ele>742.840000000000032</ele>
        <time>2015-06-26T13:00:58Z</time>
      </trkpt>
      <trkpt lat="47.699499540030956" lon="11.430643256753683">
        <ele>745.879999999999995</ele>
        <time>2015-06-26T13:01:14Z</time>
      </trkpt>
      <trkpt lat="47.699524266645312" lon="11.430966546759009">
        <ele>749.019999999999982</ele>
        <time>2015-06-26T13:01:32Z</time>
      </trkpt>
      <trkpt lat="47.699455702677369" lon="11.431145500391722">
        <ele>750.840000000000032</ele>
        <time>2015-06-26T13:01:45Z</time>
      </trkpt>
      <trkpt lat="47.699370374903083" lon="11.431155223399401">
        <ele>752.940000000000055</ele>
        <time>2015-06-26T13:02:06Z</time>
      </trkpt>
      <trkpt lat="47.699212962761521" lon="11.431182213127613">
        <ele>755.149999999999977</ele>
        <time>2015-06-26T13:02:20Z</time>
      </trkpt>
      <trkpt lat="47.698951112106442" lon="11.43118254840374">
        <ele>758.200000000000045</ele>
        <time>2015-06-26T13:02:37Z</time>
      </trkpt>
      <trkpt lat="47.698654644191265" lon="11.431230744346976">
        <ele>760.870000000000005</ele>
        <time>2015-06-26T13:02:58Z</time>
      </trkpt>
      <trkpt lat="47.698569903150201" lon="11.431299056857824">
        <ele>760.92999999999995</ele>
        <time>2015-06-26T13:03:13Z</time>
      </trkpt>
      <trkpt lat="47.698599742725492" lon="11.431293189525604">
        <ele>761.549999999999955</ele>
        <time>2015-06-26T13:03:39Z</time>
      </trkpt>
      <trkpt lat="47.698583649471402" lon="11.431336356326938">
        <ele>761.620000000000005</ele>
        <time>2015-06-26T13:03:47Z</time>
      </trkpt>
      <trkpt lat="47.69855372607708" lon="11.431365190073848">
        <ele>762.200000000000045</ele>
        <time>2015-06-26T13:03:50Z</time>
      </trkpt>
      <trkpt lat="47.698491029441357" lon="11.431413888931274">
        <ele>762.509999999999991</ele>
        <time>2015-06-26T13:03:54Z</time>
      </trkpt>
      <trkpt lat="47.698478456586599" lon="11.431439621374011">
        <ele>762.460000000000036</ele>
        <time>2015-06-26T13:03:55Z</time>
      </trkpt>
      <trkpt lat="47.69821316935122" lon="11.431820746511221">
        <ele>763.42999999999995</ele>
        <time>2015-06-26T13:04:10Z</time>
      </trkpt>
      <trkpt lat="47.698098085820675" lon="11.431910349056125">
        <ele>764.720000000000027</ele>
        <time>2015-06-26T13:04:18Z</time>
      </trkpt>
      <trkpt lat="47.698077717795968" lon="11.431919233873487">
        <ele>765.080000000000041</ele>
        <time>2015-06-26T13:04:19Z</time>
      </trkpt>
      <trkpt lat="47.698062043637037" lon="11.431921496987343">
        <ele>765.230000000000018</ele>
        <time>2015-06-26T13:04:20Z</time>
      </trkpt>
      <trkpt lat="47.698053997009993" lon="11.431933315470815">
        <ele>765.419999999999959</ele>
        <time>2015-06-26T13:04:21Z</time>
      </trkpt>
      <trkpt lat="47.697891723364592" lon="11.431963741779327">
        <ele>767.970000000000027</ele>
        <time>2015-06-26T13:04:33Z</time>
      </trkpt>
      <trkpt lat="47.697712015360594" lon="11.431956784799695">
        <ele>769.789999999999964</ele>
        <time>2015-06-26T13:04:44Z</time>
      </trkpt>
      <trkpt lat="47.697687791660428" lon="11.431967094540596">
        <ele>770.299999999999955</ele>
        <time>2015-06-26T13:04:45Z</time>
      </trkpt>
      <trkpt lat="47.697668764740229" lon="11.431966004893184">
        <ele>770.269999999999982</ele>
        <time>2015-06-26T13:04:46Z</time>
      </trkpt>
      <trkpt lat="47.697655353695154" lon="11.431962987408042">
        <ele>770.370000000000005</ele>
        <time>2015-06-26T13:04:47Z</time>
      </trkpt>
      <trkpt lat="47.697642277926207" lon="11.431955443695188">
        <ele>770.67999999999995</ele>
        <time>2015-06-26T13:04:48Z</time>
      </trkpt>
      <trkpt lat="47.697605146095157" lon="11.431947816163301">
        <ele>770.740000000000009</ele>
        <time>2015-06-26T13:04:51Z</time>
      </trkpt>
      <trkpt lat="47.697590393945575" lon="11.431938763707876">
        <ele>771.289999999999964</ele>
        <time>2015-06-26T13:04:52Z</time>
      </trkpt>
      <trkpt lat="47.697574384510517" lon="11.431932142004371">
        <ele>771.279999999999973</ele>
        <time>2015-06-26T13:04:53Z</time>
      </trkpt>
      <trkpt lat="47.697408925741911" lon="11.431907331570983">
        <ele>773.220000000000027</ele>
        <time>2015-06-26T13:05:06Z</time>
      </trkpt>
      <trkpt lat="47.697266098111868" lon="11.431871121749282">
        <ele>775.32000000000005</ele>
        <time>2015-06-26T13:05:26Z</time>
      </trkpt>
      <trkpt lat="47.697016904130578" lon="11.431865086778998">
        <ele>778.42999999999995</ele>
        <time>2015-06-26T13:05:46Z</time>
      </trkpt>
      <trkpt lat="47.69682252779603" lon="11.431860895827413">
        <ele>780.600000000000023</ele>
        <time>2015-06-26T13:06:01Z</time>
      </trkpt>
      <trkpt lat="47.696612142026424" lon="11.431904733181">
        <ele>783.159999999999968</ele>
        <time>2015-06-26T13:06:18Z</time>
      </trkpt>
      <trkpt lat="47.696386082097888" lon="11.431909259408712">
        <ele>785.889999999999986</ele>
        <time>2015-06-26T13:06:38Z</time>
      </trkpt>
      <trkpt lat="47.696215426549315" lon="11.431929124519229">
        <ele>787.279999999999973</ele>
        <time>2015-06-26T13:06:54Z</time>
      </trkpt>
      <trkpt lat="47.696209726855159" lon="11.431915713474154">
        <ele>787.289999999999964</ele>
        <time>2015-06-26T13:06:55Z</time>
      </trkpt>
      <trkpt lat="47.696174941956997" lon="11.431973800063133">
        <ele>787.600000000000023</ele>
        <time>2015-06-26T13:07:17Z</time>
      </trkpt>
      <trkpt lat="47.695994982495904" lon="11.431965585798025">
        <ele>789.009999999999991</ele>
        <time>2015-06-26T13:07:37Z</time>
      </trkpt>
      <trkpt lat="47.695983415469527" lon="11.431963993236423">
        <ele>789.389999999999986</ele>
        <time>2015-06-26T13:07:38Z</time>
      </trkpt>
      <trkpt lat="47.695731371641159" lon="11.432050159201026">
        <ele>790.889999999999986</ele>
        <time>2015-06-26T13:07:54Z</time>
      </trkpt>
      <trkpt lat="47.695621317252517" lon="11.432095086202025">
        <ele>791.990000000000009</ele>
        <time>2015-06-26T13:08:01Z</time>
      </trkpt>
      <trkpt lat="47.695605559274554" lon="11.432105898857117">
        <ele>792.159999999999968</ele>
        <time>2015-06-26T13:08:02Z</time>
      </trkpt>
      <trkpt lat="47.695591729134321" lon="11.43211780115962">
        <ele>792.220000000000027</ele>
        <time>2015-06-26T13:08:03Z</time>
      </trkpt>
      <trkpt lat="47.695520734414458" lon="11.432179072871804">
        <ele>792.590000000000032</ele>
        <time>2015-06-26T13:08:08Z</time>
      </trkpt>
      <trkpt lat="47.695504976436496" lon="11.43220329657197">
        <ele>792.919999999999959</ele>
        <time>2015-06-26T13:08:09Z</time>
      </trkpt>
      <trkpt lat="47.695488799363375" lon="11.432227855548263">
        <ele>792.970000000000027</ele>
        <time>2015-06-26T13:08:10Z</time>
      </trkpt>
      <trkpt lat="47.695472370833158" lon="11.432248223572969">
        <ele>793.590000000000032</ele>
        <time>2015-06-26T13:08:11Z</time>
      </trkpt>
      <trkpt lat="47.695459714159369" lon="11.432266160845757">
        <ele>793.370000000000005</ele>
        <time>2015-06-26T13:08:12Z</time>
      </trkpt>
      <trkpt lat="47.695355108007789" lon="11.432476211339235">
        <ele>795.289999999999964</ele>
        <time>2015-06-26T13:08:25Z</time>
      </trkpt>
      <trkpt lat="47.695260643959045" lon="11.43265918828547">
        <ele>796.899999999999977</ele>
        <time>2015-06-26T13:08:40Z</time>
      </trkpt>
      <trkpt lat="47.695251842960715" lon="11.432670084759593">
        <ele>797.370000000000005</ele>
        <time>2015-06-26T13:08:41Z</time>
      </trkpt>
      <trkpt lat="47.695236504077911" lon="11.432696236297488">
        <ele>797.700000000000045</ele>
        <time>2015-06-26T13:08:43Z</time>
      </trkpt>
      <trkpt lat="47.695226781070232" lon="11.432713754475117">
        <ele>797.990000000000009</ele>
        <time>2015-06-26T13:08:44Z</time>
      </trkpt>
      <trkpt lat="47.695128712803125" lon="11.433029752224684">
        <ele>800.360000000000014</ele>
        <time>2015-06-26T13:09:02Z</time>
      </trkpt>
      <trkpt lat="47.695119408890605" lon="11.433150032535195">
        <ele>802.049999999999955</ele>
        <time>2015-06-26T13:09:09Z</time>
      </trkpt>
      <trkpt lat="47.695113457739353" lon="11.433168221265078">
        <ele>802.200000000000045</ele>
        <time>2015-06-26T13:09:10Z</time>
      </trkpt>
      <trkpt lat="47.695074146613479" lon="11.433234270662069">
        <ele>803.259999999999991</ele>
        <time>2015-06-26T13:09:15Z</time>
      </trkpt>
      <trkpt lat="47.695070374757051" lon="11.433248855173588">
        <ele>803.710000000000036</ele>
        <time>2015-06-26T13:09:16Z</time>
      </trkpt>
      <trkpt lat="47.694999715313315" lon="11.433419426903129">
        <ele>805.440000000000055</ele>
        <time>2015-06-26T13:09:29Z</time>
      </trkpt>
      <trkpt lat="47.694981526583433" lon="11.433458738029003">
        <ele>805.799999999999955</ele>
        <time>2015-06-26T13:09:32Z</time>
      </trkpt>
      <trkpt lat="47.694971803575754" lon="11.433469215407968">
        <ele>806.230000000000018</ele>
        <time>2015-06-26T13:09:33Z</time>
      </trkpt>
      <trkpt lat="47.694964092224836" lon="11.433482291176915">
        <ele>805.950000000000045</ele>
        <time>2015-06-26T13:09:34Z</time>
      </trkpt>
      <trkpt lat="47.694956967607141" lon="11.433494528755546">
        <ele>805.82000000000005</ele>
        <time>2015-06-26T13:09:35Z</time>
      </trkpt>
      <trkpt lat="47.694949256256223" lon="11.433507688343525">
        <ele>806.330000000000041</ele>
        <time>2015-06-26T13:09:36Z</time>
      </trkpt>
      <trkpt lat="47.694940203800797" lon="11.433521686121821">
        <ele>806.210000000000036</ele>
        <time>2015-06-26T13:09:37Z</time>
      </trkpt>
      <trkpt lat="47.69493249244988" lon="11.433536941185594">
        <ele>806.830000000000041</ele>
        <time>2015-06-26T13:09:38Z</time>
      </trkpt>
      <trkpt lat="47.694924613460898" lon="11.433552280068398">
        <ele>806.600000000000023</ele>
        <time>2015-06-26T13:09:39Z</time>
      </trkpt>
      <trkpt lat="47.694919081404805" lon="11.433568876236677">
        <ele>806.970000000000027</ele>
        <time>2015-06-26T13:09:40Z</time>
      </trkpt>
      <trkpt lat="47.69491539336741" lon="11.433584885671735">
        <ele>807.190000000000055</ele>
        <time>2015-06-26T13:09:41Z</time>
      </trkpt>
      <trkpt lat="47.694910867139697" lon="11.433600476011634">
        <ele>807.110000000000014</ele>
        <time>2015-06-26T13:09:42Z</time>
      </trkpt>
      <trkpt lat="47.694843644276261" lon="11.433752523735166">
        <ele>809.210000000000036</ele>
        <time>2015-06-26T13:09:52Z</time>
      </trkpt>
      <trkpt lat="47.694838028401136" lon="11.433770209550858">
        <ele>809.240000000000009</ele>
        <time>2015-06-26T13:09:53Z</time>
      </trkpt>
      <trkpt lat="47.694831490516663" lon="11.433787392452359">
        <ele>809.700000000000045</ele>
        <time>2015-06-26T13:09:54Z</time>
      </trkpt>
      <trkpt lat="47.694823946803808" lon="11.433802647516131">
        <ele>809.590000000000032</ele>
        <time>2015-06-26T13:09:55Z</time>
      </trkpt>
      <trkpt lat="47.694801902398467" lon="11.43384313210845">
        <ele>810.519999999999982</ele>
        <time>2015-06-26T13:09:58Z</time>
      </trkpt>
      <trkpt lat="47.694789916276932" lon="11.433850508183241">
        <ele>810.899999999999977</ele>
        <time>2015-06-26T13:09:59Z</time>
      </trkpt>
      <trkpt lat="47.69477759487927" lon="11.433859309181571">
        <ele>810.899999999999977</ele>
        <time>2015-06-26T13:10:00Z</time>
      </trkpt>
      <trkpt lat="47.694758987054229" lon="11.433893507346511">
        <ele>812.009999999999991</ele>
        <time>2015-06-26T13:10:03Z</time>
      </trkpt>
      <trkpt lat="47.694749431684613" lon="11.433906918391585">
        <ele>811.159999999999968</ele>
        <time>2015-06-26T13:10:04Z</time>
      </trkpt>
      <trkpt lat="47.694608615711331" lon="11.434067934751511">
        <ele>813.669999999999959</ele>
        <time>2015-06-26T13:10:18Z</time>
      </trkpt>
      <trkpt lat="47.694597719237208" lon="11.434078412130475">
        <ele>813.779999999999973</ele>
        <time>2015-06-26T13:10:19Z</time>
      </trkpt>
      <trkpt lat="47.694363445043564" lon="11.434277230873704">
        <ele>816.240000000000009</ele>
        <time>2015-06-26T13:10:38Z</time>
      </trkpt>
      <trkpt lat="47.694352045655251" lon="11.434285026043653">
        <ele>816.230000000000018</ele>
        <time>2015-06-26T13:10:39Z</time>
      </trkpt>
      <trkpt lat="47.694340646266937" lon="11.434294665232301">
        <ele>816.360000000000014</ele>
        <time>2015-06-26T13:10:40Z</time>
      </trkpt>
      <trkpt lat="47.694329917430878" lon="11.434305310249329">
        <ele>817.019999999999982</ele>
        <time>2015-06-26T13:10:41Z</time>
      </trkpt>
      <trkpt lat="47.694319523870945" lon="11.434314865618944">
        <ele>816.559999999999945</ele>
        <time>2015-06-26T13:10:42Z</time>
      </trkpt>
      <trkpt lat="47.694309130311012" lon="11.434327438473701">
        <ele>816.789999999999964</ele>
        <time>2015-06-26T13:10:43Z</time>
      </trkpt>
      <trkpt lat="47.694298904389143" lon="11.434339340776205">
        <ele>816.950000000000045</ele>
        <time>2015-06-26T13:10:44Z</time>
      </trkpt>
      <trkpt lat="47.694287588819861" lon="11.434355769306421">
        <ele>816.899999999999977</ele>
        <time>2015-06-26T13:10:45Z</time>
      </trkpt>
      <trkpt lat="47.694278201088309" lon="11.434373203665018">
        <ele>817.509999999999991</ele>
        <time>2015-06-26T13:10:46Z</time>
      </trkpt>
      <trkpt lat="47.694270154461265" lon="11.43438845872879">
        <ele>817.230000000000018</ele>
        <time>2015-06-26T13:10:47Z</time>
      </trkpt>
      <trkpt lat="47.694260096177459" lon="11.434403713792562">
        <ele>817.67999999999995</ele>
        <time>2015-06-26T13:10:48Z</time>
      </trkpt>
      <trkpt lat="47.694175103679299" lon="11.434623152017593">
        <ele>820.149999999999977</ele>
        <time>2015-06-26T13:11:03Z</time>
      </trkpt>
      <trkpt lat="47.694163285195827" lon="11.434659697115421">
        <ele>819.67999999999995</ele>
        <time>2015-06-26T13:11:10Z</time>
      </trkpt>
      <trkpt lat="47.694155322387815" lon="11.434670509770513">
        <ele>820.230000000000018</ele>
        <time>2015-06-26T13:11:11Z</time>
      </trkpt>
      <trkpt lat="47.694147191941738" lon="11.43468551337719">
        <ele>820.639999999999986</ele>
        <time>2015-06-26T13:11:12Z</time>
      </trkpt>
      <trkpt lat="47.694129003211856" lon="11.43473488278687">
        <ele>820.980000000000018</ele>
        <time>2015-06-26T13:11:15Z</time>
      </trkpt>
      <trkpt lat="47.694123974069953" lon="11.434751227498055">
        <ele>821.149999999999977</ele>
        <time>2015-06-26T13:11:16Z</time>
      </trkpt>
      <trkpt lat="47.694120453670621" lon="11.434770589694381">
        <ele>821.440000000000055</ele>
        <time>2015-06-26T13:11:17Z</time>
      </trkpt>
      <trkpt lat="47.694116681814194" lon="11.434787940233946">
        <ele>821.649999999999977</ele>
        <time>2015-06-26T13:11:18Z</time>
      </trkpt>
      <trkpt lat="47.694114251062274" lon="11.434805374592543">
        <ele>821.720000000000027</ele>
        <time>2015-06-26T13:11:19Z</time>
      </trkpt>
      <trkpt lat="47.69411014392972" lon="11.434822725132108">
        <ele>821.759999999999991</ele>
        <time>2015-06-26T13:11:20Z</time>
      </trkpt>
      <trkpt lat="47.694106958806515" lon="11.43483798019588">
        <ele>822.029999999999973</ele>
        <time>2015-06-26T13:11:21Z</time>
      </trkpt>
      <trkpt lat="47.694103606045246" lon="11.434854241088033">
        <ele>822.169999999999959</ele>
        <time>2015-06-26T13:11:22Z</time>
      </trkpt>
      <trkpt lat="47.694101678207517" lon="11.43487217836082">
        <ele>822.230000000000018</ele>
        <time>2015-06-26T13:11:23Z</time>
      </trkpt>
      <trkpt lat="47.69409648142755" lon="11.434892630204558">
        <ele>822.460000000000036</ele>
        <time>2015-06-26T13:11:24Z</time>
      </trkpt>
      <trkpt lat="47.694092039018869" lon="11.434911238029599">
        <ele>822.42999999999995</ele>
        <time>2015-06-26T13:11:25Z</time>
      </trkpt>
      <trkpt lat="47.694039484485984" lon="11.435254896059632">
        <ele>826.059999999999945</ele>
        <time>2015-06-26T13:11:43Z</time>
      </trkpt>
      <trkpt lat="47.694032276049256" lon="11.435286244377494">
        <ele>826.07000000000005</ele>
        <time>2015-06-26T13:11:45Z</time>
      </trkpt>
      <trkpt lat="47.694024313241243" lon="11.435301080346107">
        <ele>825.840000000000032</ele>
        <time>2015-06-26T13:11:46Z</time>
      </trkpt>
      <trkpt lat="47.694018110632896" lon="11.435318347066641">
        <ele>826.110000000000014</ele>
        <time>2015-06-26T13:11:47Z</time>
      </trkpt>
      <trkpt lat="47.694009225815535" lon="11.43533343449235">
        <ele>826.529999999999973</ele>
        <time>2015-06-26T13:11:48Z</time>
      </trkpt>
      <trkpt lat="47.694007214158773" lon="11.435351707041264">
        <ele>826.340000000000032</ele>
        <time>2015-06-26T13:11:49Z</time>
      </trkpt>
      <trkpt lat="47.694005286321044" lon="11.435369560495019">
        <ele>826.470000000000027</ele>
        <time>2015-06-26T13:11:50Z</time>
      </trkpt>
      <trkpt lat="47.69400461576879" lon="11.435387246310711">
        <ele>826.779999999999973</ele>
        <time>2015-06-26T13:11:51Z</time>
      </trkpt>
      <trkpt lat="47.694003442302346" lon="11.435406105592847">
        <ele>826.509999999999991</ele>
        <time>2015-06-26T13:11:52Z</time>
      </trkpt>
      <trkpt lat="47.69398357719183" lon="11.435510879382491">
        <ele>827.870000000000005</ele>
        <time>2015-06-26T13:11:58Z</time>
      </trkpt>
      <trkpt lat="47.693980392068624" lon="11.435528732836246">
        <ele>827.75</ele>
        <time>2015-06-26T13:11:59Z</time>
      </trkpt>
      <trkpt lat="47.693973015993834" lon="11.435544993728399">
        <ele>828.289999999999964</ele>
        <time>2015-06-26T13:12:00Z</time>
      </trkpt>
      <trkpt lat="47.693965891376138" lon="11.435561506077647">
        <ele>828.139999999999986</ele>
        <time>2015-06-26T13:12:01Z</time>
      </trkpt>
      <trkpt lat="47.693958263844252" lon="11.435577096417546">
        <ele>828.350000000000023</ele>
        <time>2015-06-26T13:12:02Z</time>
      </trkpt>
      <trkpt lat="47.69395180977881" lon="11.43559193238616">
        <ele>828.879999999999995</ele>
        <time>2015-06-26T13:12:03Z</time>
      </trkpt>
      <trkpt lat="47.693947367370129" lon="11.435607187449932">
        <ele>828.970000000000027</ele>
        <time>2015-06-26T13:12:04Z</time>
      </trkpt>
      <trkpt lat="47.693943679332733" lon="11.43562319688499">
        <ele>829.059999999999945</ele>
        <time>2015-06-26T13:12:05Z</time>
      </trkpt>
      <trkpt lat="47.693941667675972" lon="11.435640379786491">
        <ele>829.220000000000027</ele>
        <time>2015-06-26T13:12:06Z</time>
      </trkpt>
      <trkpt lat="47.693943260237575" lon="11.435658987611532">
        <ele>829.25</ele>
        <time>2015-06-26T13:12:07Z</time>
      </trkpt>
      <trkpt lat="47.693947702646255" lon="11.435679020360112">
        <ele>829.57000000000005</ele>
        <time>2015-06-26T13:12:08Z</time>
      </trkpt>
      <trkpt lat="47.693951390683651" lon="11.435714811086655">
        <ele>829.879999999999995</ele>
        <time>2015-06-26T13:12:10Z</time>
      </trkpt>
      <trkpt lat="47.69394644536078" lon="11.435733335092664">
        <ele>829.620000000000005</ele>
        <time>2015-06-26T13:12:11Z</time>
      </trkpt>
      <trkpt lat="47.693943008780479" lon="11.435751188546419">
        <ele>829.899999999999977</ele>
        <time>2015-06-26T13:12:12Z</time>
      </trkpt>
      <trkpt lat="47.693941332399845" lon="11.435769544914365">
        <ele>830.340000000000032</ele>
        <time>2015-06-26T13:12:13Z</time>
      </trkpt>
      <trkpt lat="47.693939236924052" lon="11.435789745301008">
        <ele>830.419999999999959</ele>
        <time>2015-06-26T13:12:14Z</time>
      </trkpt>
      <trkpt lat="47.693937057629228" lon="11.435809945687652">
        <ele>830.779999999999973</ele>
        <time>2015-06-26T13:12:15Z</time>
      </trkpt>
      <trkpt lat="47.69393571652472" lon="11.435833750292659">
        <ele>830.980000000000018</ele>
        <time>2015-06-26T13:12:16Z</time>
      </trkpt>
      <trkpt lat="47.693931693211198" lon="11.435850346460938">
        <ele>831.049999999999955</ele>
        <time>2015-06-26T13:12:17Z</time>
      </trkpt>
      <trkpt lat="47.69393227994442" lon="11.435873312875628">
        <ele>831.440000000000055</ele>
        <time>2015-06-26T13:12:18Z</time>
      </trkpt>
      <trkpt lat="47.693925825878978" lon="11.435888400301337">
        <ele>831.200000000000045</ele>
        <time>2015-06-26T13:12:19Z</time>
      </trkpt>
      <trkpt lat="47.69392691552639" lon="11.43590952269733">
        <ele>831.450000000000045</ele>
        <time>2015-06-26T13:12:20Z</time>
      </trkpt>
      <trkpt lat="47.69392691552639" lon="11.435929220169783">
        <ele>831.580000000000041</ele>
        <time>2015-06-26T13:12:21Z</time>
      </trkpt>
      <trkpt lat="47.693926328793168" lon="11.435948498547077">
        <ele>831.830000000000041</ele>
        <time>2015-06-26T13:12:22Z</time>
      </trkpt>
      <trkpt lat="47.693922389298677" lon="11.435966687276959">
        <ele>831.899999999999977</ele>
        <time>2015-06-26T13:12:23Z</time>
      </trkpt>
      <trkpt lat="47.693918449804187" lon="11.435985378921032">
        <ele>832.399999999999977</ele>
        <time>2015-06-26T13:12:24Z</time>
      </trkpt>
      <trkpt lat="47.693917863070965" lon="11.436006417497993">
        <ele>832</ele>
        <time>2015-06-26T13:12:25Z</time>
      </trkpt>
      <trkpt lat="47.693915935233235" lon="11.436025695875287">
        <ele>832.590000000000032</ele>
        <time>2015-06-26T13:12:26Z</time>
      </trkpt>
      <trkpt lat="47.693845527246594" lon="11.436271034181118">
        <ele>834.539999999999964</ele>
        <time>2015-06-26T13:12:40Z</time>
      </trkpt>
      <trkpt lat="47.69380671903491" lon="11.436409503221512">
        <ele>835.32000000000005</ele>
        <time>2015-06-26T13:12:46Z</time>
      </trkpt>
      <trkpt lat="47.693797079846263" lon="11.436421824619174">
        <ele>835.789999999999964</ele>
        <time>2015-06-26T13:12:47Z</time>
      </trkpt>
      <trkpt lat="47.693790709599853" lon="11.436442695558071">
        <ele>835.769999999999982</ele>
        <time>2015-06-26T13:12:48Z</time>
      </trkpt>
      <trkpt lat="47.693778220564127" lon="11.43645292147994">
        <ele>835.799999999999955</ele>
        <time>2015-06-26T13:12:49Z</time>
      </trkpt>
      <trkpt lat="47.6937744487077" lon="11.436468595638871">
        <ele>836.330000000000041</ele>
        <time>2015-06-26T13:12:50Z</time>
      </trkpt>
      <trkpt lat="47.693773610517383" lon="11.436483766883612">
        <ele>836.419999999999959</ele>
        <time>2015-06-26T13:12:51Z</time>
      </trkpt>
      <trkpt lat="47.693773359060287" lon="11.436498435214162">
        <ele>836.559999999999945</ele>
        <time>2015-06-26T13:12:52Z</time>
      </trkpt>
      <trkpt lat="47.693770257756114" lon="11.436514360830188">
        <ele>836.759999999999991</ele>
        <time>2015-06-26T13:12:53Z</time>
      </trkpt>
      <trkpt lat="47.693764055147767" lon="11.436530370265245">
        <ele>836.580000000000041</ele>
        <time>2015-06-26T13:12:54Z</time>
      </trkpt>
      <trkpt lat="47.693759528920054" lon="11.436547469347715">
        <ele>837.25</ele>
        <time>2015-06-26T13:12:55Z</time>
      </trkpt>
      <trkpt lat="47.693750895559788" lon="11.436598766595125">
        <ele>837.970000000000027</ele>
        <time>2015-06-26T13:13:02Z</time>
      </trkpt>
      <trkpt lat="47.693749638274312" lon="11.436616033315659">
        <ele>837.610000000000014</ele>
        <time>2015-06-26T13:13:03Z</time>
      </trkpt>
      <trkpt lat="47.693744106218219" lon="11.436639418825507">
        <ele>838.07000000000005</ele>
        <time>2015-06-26T13:13:04Z</time>
      </trkpt>
      <trkpt lat="47.693736897781491" lon="11.436658278107643">
        <ele>838.080000000000041</ele>
        <time>2015-06-26T13:13:05Z</time>
      </trkpt>
      <trkpt lat="47.693727090954781" lon="11.436679819598794">
        <ele>838.090000000000032</ele>
        <time>2015-06-26T13:13:06Z</time>
      </trkpt>
      <trkpt lat="47.693697502836585" lon="11.436815271154046">
        <ele>838.200000000000045</ele>
        <time>2015-06-26T13:13:12Z</time>
      </trkpt>
      <trkpt lat="47.693696245551109" lon="11.436838572844863">
        <ele>838.840000000000032</ele>
        <time>2015-06-26T13:13:13Z</time>
      </trkpt>
      <trkpt lat="47.693689791485667" lon="11.43685894086957">
        <ele>838.92999999999995</ele>
        <time>2015-06-26T13:13:14Z</time>
      </trkpt>
      <trkpt lat="47.693684091791511" lon="11.436876123771071">
        <ele>838.730000000000018</ele>
        <time>2015-06-26T13:13:15Z</time>
      </trkpt>
      <trkpt lat="47.693678559735417" lon="11.436892887577415">
        <ele>838.740000000000009</ele>
        <time>2015-06-26T13:13:16Z</time>
      </trkpt>
      <trkpt lat="47.693669926375151" lon="11.436927421018481">
        <ele>839.240000000000009</ele>
        <time>2015-06-26T13:13:18Z</time>
      </trkpt>
      <trkpt lat="47.69366892054677" lon="11.436949046328664">
        <ele>839.080000000000041</ele>
        <time>2015-06-26T13:13:19Z</time>
      </trkpt>
      <trkpt lat="47.693664561957121" lon="11.436968492344022">
        <ele>839.720000000000027</ele>
        <time>2015-06-26T13:13:20Z</time>
      </trkpt>
      <trkpt lat="47.69365961663425" lon="11.436987519264221">
        <ele>839.740000000000009</ele>
        <time>2015-06-26T13:13:21Z</time>
      </trkpt>
      <trkpt lat="47.693654671311378" lon="11.437005624175072">
        <ele>839.950000000000045</ele>
        <time>2015-06-26T13:13:22Z</time>
      </trkpt>
      <trkpt lat="47.693651067093015" lon="11.437024064362049">
        <ele>839.82000000000005</ele>
        <time>2015-06-26T13:13:23Z</time>
      </trkpt>
      <trkpt lat="47.693648636341095" lon="11.437042756006122">
        <ele>840.129999999999995</ele>
        <time>2015-06-26T13:13:24Z</time>
      </trkpt>
      <trkpt lat="47.693645786494017" lon="11.437060944736004">
        <ele>839.950000000000045</ele>
        <time>2015-06-26T13:13:25Z</time>
      </trkpt>
      <trkpt lat="47.693641846999526" lon="11.437078127637506">
        <ele>839.919999999999959</ele>
        <time>2015-06-26T13:13:26Z</time>
      </trkpt>
      <trkpt lat="47.693635560572147" lon="11.437092879787087">
        <ele>840.360000000000014</ele>
        <time>2015-06-26T13:13:27Z</time>
      </trkpt>
      <trkpt lat="47.693628771230578" lon="11.437106542289257">
        <ele>840.120000000000005</ele>
        <time>2015-06-26T13:13:28Z</time>
      </trkpt>
      <trkpt lat="47.693623406812549" lon="11.437120959162712">
        <ele>840.700000000000045</ele>
        <time>2015-06-26T13:13:29Z</time>
      </trkpt>
      <trkpt lat="47.693618880584836" lon="11.437134956941009">
        <ele>840.740000000000009</ele>
        <time>2015-06-26T13:13:30Z</time>
      </trkpt>
      <trkpt lat="47.693616533651948" lon="11.437153983861208">
        <ele>840.669999999999959</ele>
        <time>2015-06-26T13:13:31Z</time>
      </trkpt>
      <trkpt lat="47.69361175596714" lon="11.437173178419471">
        <ele>840.860000000000014</ele>
        <time>2015-06-26T13:13:32Z</time>
      </trkpt>
      <trkpt lat="47.693612845614552" lon="11.437236545607448">
        <ele>841.039999999999964</ele>
        <time>2015-06-26T13:13:46Z</time>
      </trkpt>
      <trkpt lat="47.693660287186503" lon="11.437323046848178">
        <ele>841.860000000000014</ele>
        <time>2015-06-26T13:14:13Z</time>
      </trkpt>
      <trkpt lat="47.693604715168476" lon="11.43744919449091">
        <ele>842.149999999999977</ele>
        <time>2015-06-26T13:14:28Z</time>
      </trkpt>
      <trkpt lat="47.693594824522734" lon="11.437462270259857">
        <ele>842.019999999999982</ele>
        <time>2015-06-26T13:14:29Z</time>
      </trkpt>
      <trkpt lat="47.693581497296691" lon="11.437474088743329">
        <ele>841.690000000000055</ele>
        <time>2015-06-26T13:14:30Z</time>
      </trkpt>
      <trkpt lat="47.693582084029913" lon="11.437505772337317">
        <ele>842.370000000000005</ele>
        <time>2015-06-26T13:14:32Z</time>
      </trkpt>
      <trkpt lat="47.693485440686345" lon="11.437560422345996">
        <ele>842.57000000000005</ele>
        <time>2015-06-26T13:14:50Z</time>
      </trkpt>
      <trkpt lat="47.693427102640271" lon="11.437595626339316">
        <ele>843.25</ele>
        <time>2015-06-26T13:14:54Z</time>
      </trkpt>
      <trkpt lat="47.69341092556715" lon="11.437611468136311">
        <ele>843.25</ele>
        <time>2015-06-26T13:14:55Z</time>
      </trkpt>
      <trkpt lat="47.693393994122744" lon="11.437624040991068">
        <ele>843.639999999999986</ele>
        <time>2015-06-26T13:14:56Z</time>
      </trkpt>
      <trkpt lat="47.693375973030925" lon="11.437639631330967">
        <ele>843.370000000000005</ele>
        <time>2015-06-26T13:14:57Z</time>
      </trkpt>
      <trkpt lat="47.69335669465363" lon="11.437651617452502">
        <ele>843.919999999999959</ele>
        <time>2015-06-26T13:14:58Z</time>
      </trkpt>
      <trkpt lat="47.693333979696035" lon="11.437677852809429">
        <ele>843.110000000000014</ele>
        <time>2015-06-26T13:14:59Z</time>
      </trkpt>
      <trkpt lat="47.693314952775836" lon="11.437703585252166">
        <ele>843.17999999999995</ele>
        <time>2015-06-26T13:15:00Z</time>
      </trkpt>
      <trkpt lat="47.693065255880356" lon="11.438027545809746">
        <ele>843.889999999999986</ele>
        <time>2015-06-26T13:15:10Z</time>
      </trkpt>
      <trkpt lat="47.692733500152826" lon="11.438577231019735">
        <ele>843.419999999999959</ele>
        <time>2015-06-26T13:15:22Z</time>
      </trkpt>
      <trkpt lat="47.692564185708761" lon="11.438950980082154">
        <ele>844.92999999999995</ele>
        <time>2015-06-26T13:15:32Z</time>
      </trkpt>
      <trkpt lat="47.692445749416947" lon="11.439314167946577">
        <ele>847.139999999999986</ele>
        <time>2015-06-26T13:15:43Z</time>
      </trkpt>
      <trkpt lat="47.692440217360854" lon="11.439342079684138">
        <ele>846.909999999999968</ele>
        <time>2015-06-26T13:15:44Z</time>
      </trkpt>
      <trkpt lat="47.692432086914778" lon="11.439367476850748">
        <ele>847.309999999999945</ele>
        <time>2015-06-26T13:15:45Z</time>
      </trkpt>
      <trkpt lat="47.692423369735479" lon="11.439394382759929">
        <ele>847.519999999999982</ele>
        <time>2015-06-26T13:15:46Z</time>
      </trkpt>
      <trkpt lat="47.692414904013276" lon="11.439419025555253">
        <ele>847.840000000000032</ele>
        <time>2015-06-26T13:15:47Z</time>
      </trkpt>
      <trkpt lat="47.692408617585897" lon="11.439443835988641">
        <ele>847.850000000000023</ele>
        <time>2015-06-26T13:15:48Z</time>
      </trkpt>
      <trkpt lat="47.692402331158519" lon="11.439470238983631">
        <ele>847.970000000000027</ele>
        <time>2015-06-26T13:15:49Z</time>
      </trkpt>
      <trkpt lat="47.692395457997918" lon="11.439496893435717">
        <ele>847.649999999999977</ele>
        <time>2015-06-26T13:15:50Z</time>
      </trkpt>
      <trkpt lat="47.69238674081862" lon="11.439520278945565">
        <ele>847.850000000000023</ele>
        <time>2015-06-26T13:15:51Z</time>
      </trkpt>
      <trkpt lat="47.69238137640059" lon="11.439547520130873">
        <ele>848.009999999999991</ele>
        <time>2015-06-26T13:15:52Z</time>
      </trkpt>
      <trkpt lat="47.69237944856286" lon="11.43957425840199">
        <ele>848.019999999999982</ele>
        <time>2015-06-26T13:15:53Z</time>
      </trkpt>
      <trkpt lat="47.692359834909439" lon="11.439623292535543">
        <ele>848.559999999999945</ele>
        <time>2015-06-26T13:15:55Z</time>
      </trkpt>
      <trkpt lat="47.692256066948175" lon="11.439966280013323">
        <ele>850.330000000000041</ele>
        <time>2015-06-26T13:16:08Z</time>
      </trkpt>
      <trkpt lat="47.692230083048344" lon="11.440089326351881">
        <ele>851.230000000000018</ele>
        <time>2015-06-26T13:16:13Z</time>
      </trkpt>
      <trkpt lat="47.692227317020297" lon="11.440112544223666">
        <ele>851.059999999999945</ele>
        <time>2015-06-26T13:16:14Z</time>
      </trkpt>
      <trkpt lat="47.692225724458694" lon="11.440141461789608">
        <ele>851.379999999999995</ele>
        <time>2015-06-26T13:16:15Z</time>
      </trkpt>
      <trkpt lat="47.692221282050014" lon="11.440169122070074">
        <ele>851.519999999999982</ele>
        <time>2015-06-26T13:16:16Z</time>
      </trkpt>
      <trkpt lat="47.692234525457025" lon="11.440204493701458">
        <ele>851.159999999999968</ele>
        <time>2015-06-26T13:16:17Z</time>
      </trkpt>
      <trkpt lat="47.692228993400931" lon="11.440229974687099">
        <ele>851.730000000000018</ele>
        <time>2015-06-26T13:16:18Z</time>
      </trkpt>
      <trkpt lat="47.692222958430648" lon="11.44025637768209">
        <ele>851.799999999999955</ele>
        <time>2015-06-26T13:16:19Z</time>
      </trkpt>
      <trkpt lat="47.692215414717793" lon="11.44027934409678">
        <ele>851.889999999999986</ele>
        <time>2015-06-26T13:16:20Z</time>
      </trkpt>
      <trkpt lat="47.692172583192587" lon="11.440448071807623">
        <ele>852.75</ele>
        <time>2015-06-26T13:16:27Z</time>
      </trkpt>
      <trkpt lat="47.692167637869716" lon="11.44047430716455">
        <ele>852.580000000000041</ele>
        <time>2015-06-26T13:16:28Z</time>
      </trkpt>
      <trkpt lat="47.692161183804274" lon="11.440501715987921">
        <ele>852.470000000000027</ele>
        <time>2015-06-26T13:16:29Z</time>
      </trkpt>
      <trkpt lat="47.692074095830321" lon="11.44087890163064">
        <ele>854.730000000000018</ele>
        <time>2015-06-26T13:16:44Z</time>
      </trkpt>
      <trkpt lat="47.692070323973894" lon="11.440899604931474">
        <ele>854.870000000000005</ele>
        <time>2015-06-26T13:16:45Z</time>
      </trkpt>
      <trkpt lat="47.692066300660372" lon="11.440919302403927">
        <ele>855</ele>
        <time>2015-06-26T13:16:46Z</time>
      </trkpt>
      <trkpt lat="47.692060098052025" lon="11.440937155857682">
        <ele>855.279999999999973</ele>
        <time>2015-06-26T13:16:47Z</time>
      </trkpt>
      <trkpt lat="47.692071329802275" lon="11.441035559400916">
        <ele>855.799999999999955</ele>
        <time>2015-06-26T13:16:54Z</time>
      </trkpt>
      <trkpt lat="47.692057248204947" lon="11.441084844991565">
        <ele>856.07000000000005</ele>
        <time>2015-06-26T13:16:57Z</time>
      </trkpt>
      <trkpt lat="47.692057667300105" lon="11.441105213016272">
        <ele>856.539999999999964</ele>
        <time>2015-06-26T13:16:58Z</time>
      </trkpt>
      <trkpt lat="47.692055907100439" lon="11.441126000136137">
        <ele>856.350000000000023</ele>
        <time>2015-06-26T13:16:59Z</time>
      </trkpt>
      <trkpt lat="47.692047189921141" lon="11.441145781427622">
        <ele>856.769999999999982</ele>
        <time>2015-06-26T13:17:00Z</time>
      </trkpt>
      <trkpt lat="47.692042579874396" lon="11.441166149452329">
        <ele>856.389999999999986</ele>
        <time>2015-06-26T13:17:01Z</time>
      </trkpt>
      <trkpt lat="47.692044926807284" lon="11.441192300990224">
        <ele>856.32000000000005</ele>
        <time>2015-06-26T13:17:02Z</time>
      </trkpt>
      <trkpt lat="47.691964125260711" lon="11.44144325517118">
        <ele>858.549999999999955</ele>
        <time>2015-06-26T13:17:16Z</time>
      </trkpt>
      <trkpt lat="47.691953983157873" lon="11.441467395052314">
        <ele>858.5</ele>
        <time>2015-06-26T13:17:17Z</time>
      </trkpt>
      <trkpt lat="47.69193721935153" lon="11.441578455269337">
        <ele>859.169999999999959</ele>
        <time>2015-06-26T13:17:24Z</time>
      </trkpt>
      <trkpt lat="47.691929340362549" lon="11.441594548523426">
        <ele>859.120000000000005</ele>
        <time>2015-06-26T13:17:25Z</time>
      </trkpt>
      <trkpt lat="47.69192255102098" lon="11.441610893234611">
        <ele>859.610000000000014</ele>
        <time>2015-06-26T13:17:26Z</time>
      </trkpt>
      <trkpt lat="47.691912408918142" lon="11.441627824679017">
        <ele>859.629999999999995</ele>
        <time>2015-06-26T13:17:27Z</time>
      </trkpt>
      <trkpt lat="47.691902685910463" lon="11.441644001752138">
        <ele>859.610000000000014</ele>
        <time>2015-06-26T13:17:28Z</time>
      </trkpt>
      <trkpt lat="47.691891705617309" lon="11.441660011187196">
        <ele>859.990000000000009</ele>
        <time>2015-06-26T13:17:29Z</time>
      </trkpt>
      <trkpt lat="47.691790368407965" lon="11.44187081605196">
        <ele>862.440000000000055</ele>
        <time>2015-06-26T13:17:43Z</time>
      </trkpt>
      <trkpt lat="47.69169338978827" lon="11.442040549591184">
        <ele>864.200000000000045</ele>
        <time>2015-06-26T13:17:56Z</time>
      </trkpt>
      <trkpt lat="47.691651899367571" lon="11.442160997539759">
        <ele>865.850000000000023</ele>
        <time>2015-06-26T13:18:03Z</time>
      </trkpt>
      <trkpt lat="47.691643014550209" lon="11.442185891792178">
        <ele>865.649999999999977</ele>
        <time>2015-06-26T13:18:04Z</time>
      </trkpt>
      <trkpt lat="47.691597081720829" lon="11.442409018054605">
        <ele>868.240000000000009</ele>
        <time>2015-06-26T13:18:16Z</time>
      </trkpt>
      <trkpt lat="47.691596494987607" lon="11.442425111308694">
        <ele>868.230000000000018</ele>
        <time>2015-06-26T13:18:17Z</time>
      </trkpt>
      <trkpt lat="47.69159666262567" lon="11.442441204562783">
        <ele>868.279999999999973</ele>
        <time>2015-06-26T13:18:18Z</time>
      </trkpt>
      <trkpt lat="47.691606134176254" lon="11.442528543993831">
        <ele>869.360000000000014</ele>
        <time>2015-06-26T13:18:24Z</time>
      </trkpt>
      <trkpt lat="47.691607307642698" lon="11.442545643076301">
        <ele>869.57000000000005</ele>
        <time>2015-06-26T13:18:25Z</time>
      </trkpt>
      <trkpt lat="47.691607642918825" lon="11.442562574520707">
        <ele>869.919999999999959</ele>
        <time>2015-06-26T13:18:26Z</time>
      </trkpt>
      <trkpt lat="47.691657934337854" lon="11.44275426864624">
        <ele>871.549999999999955</ele>
        <time>2015-06-26T13:18:38Z</time>
      </trkpt>
      <trkpt lat="47.69166455604136" lon="11.442773379385471">
        <ele>871.67999999999995</ele>
        <time>2015-06-26T13:18:39Z</time>
      </trkpt>
      <trkpt lat="47.69171585328877" lon="11.442947052419186">
        <ele>873.169999999999959</ele>
        <time>2015-06-26T13:18:48Z</time>
      </trkpt>
      <trkpt lat="47.691707387566566" lon="11.443022321909666">
        <ele>874.049999999999955</ele>
        <time>2015-06-26T13:18:52Z</time>
      </trkpt>
      <trkpt lat="47.691715685650706" lon="11.443038918077946">
        <ele>873.889999999999986</ele>
        <time>2015-06-26T13:18:53Z</time>
      </trkpt>
      <trkpt lat="47.691722558811307" lon="11.443053167313337">
        <ele>874.019999999999982</ele>
        <time>2015-06-26T13:18:54Z</time>
      </trkpt>
      <trkpt lat="47.691729096695781" lon="11.44306649453938">
        <ele>873.990000000000009</ele>
        <time>2015-06-26T13:18:55Z</time>
      </trkpt>
      <trkpt lat="47.69173588603735" lon="11.443082001060247">
        <ele>873.809999999999945</ele>
        <time>2015-06-26T13:18:56Z</time>
      </trkpt>
      <trkpt lat="47.691741418093443" lon="11.4430982619524">
        <ele>874.259999999999991</ele>
        <time>2015-06-26T13:18:57Z</time>
      </trkpt>
      <trkpt lat="47.691745776683092" lon="11.443117959424853">
        <ele>874.190000000000055</ele>
        <time>2015-06-26T13:18:58Z</time>
      </trkpt>
      <trkpt lat="47.691742172464728" lon="11.443200018256903">
        <ele>874.5</ele>
        <time>2015-06-26T13:19:02Z</time>
      </trkpt>
      <trkpt lat="47.691739741712809" lon="11.443219380453229">
        <ele>874.549999999999955</ele>
        <time>2015-06-26T13:19:03Z</time>
      </trkpt>
      <trkpt lat="47.69175298511982" lon="11.443245783448219">
        <ele>874.659999999999968</ele>
        <time>2015-06-26T13:19:04Z</time>
      </trkpt>
      <trkpt lat="47.691743178293109" lon="11.443295739591122">
        <ele>875.019999999999982</ele>
        <time>2015-06-26T13:19:07Z</time>
      </trkpt>
      <trkpt lat="47.691741082817316" lon="11.443314012140036">
        <ele>875.090000000000032</ele>
        <time>2015-06-26T13:19:08Z</time>
      </trkpt>
      <trkpt lat="47.691739238798618" lon="11.443336140364408">
        <ele>875.269999999999982</ele>
        <time>2015-06-26T13:19:09Z</time>
      </trkpt>
      <trkpt lat="47.691734293475747" lon="11.443358268588781">
        <ele>875.559999999999945</ele>
        <time>2015-06-26T13:19:10Z</time>
      </trkpt>
      <trkpt lat="47.69173102453351" lon="11.443377211689949">
        <ele>875.450000000000045</ele>
        <time>2015-06-26T13:19:11Z</time>
      </trkpt>
      <trkpt lat="47.691700430586934" lon="11.443647611886263">
        <ele>877.940000000000055</ele>
        <time>2015-06-26T13:19:25Z</time>
      </trkpt>
      <trkpt lat="47.691700598224998" lon="11.443661777302623">
        <ele>878.129999999999995</ele>
        <time>2015-06-26T13:19:26Z</time>
      </trkpt>
      <trkpt lat="47.691617617383599" lon="11.443820111453533">
        <ele>879.710000000000036</ele>
        <time>2015-06-26T13:19:37Z</time>
      </trkpt>
      <trkpt lat="47.691610576584935" lon="11.443839808925986">
        <ele>879.710000000000036</ele>
        <time>2015-06-26T13:19:38Z</time>
      </trkpt>
      <trkpt lat="47.691603032872081" lon="11.443860847502947">
        <ele>879.759999999999991</ele>
        <time>2015-06-26T13:19:39Z</time>
      </trkpt>
      <trkpt lat="47.691477807238698" lon="11.44402764737606">
        <ele>882.480000000000018</ele>
        <time>2015-06-26T13:19:52Z</time>
      </trkpt>
      <trkpt lat="47.691336320713162" lon="11.444202577695251">
        <ele>884.389999999999986</ele>
        <time>2015-06-26T13:20:07Z</time>
      </trkpt>
      <trkpt lat="47.691227691248059" lon="11.444367282092571">
        <ele>886.230000000000018</ele>
        <time>2015-06-26T13:20:19Z</time>
      </trkpt>
      <trkpt lat="47.691080337390304" lon="11.444659978151321">
        <ele>889.009999999999991</ele>
        <time>2015-06-26T13:20:37Z</time>
      </trkpt>
      <trkpt lat="47.691009007394314" lon="11.444787299260497">
        <ele>890.190000000000055</ele>
        <time>2015-06-26T13:20:45Z</time>
      </trkpt>
      <trkpt lat="47.690885877236724" lon="11.445112265646458">
        <ele>892.710000000000036</ele>
        <time>2015-06-26T13:21:00Z</time>
      </trkpt>
      <trkpt lat="47.690887721255422" lon="11.445134310051799">
        <ele>892.629999999999995</ele>
        <time>2015-06-26T13:21:01Z</time>
      </trkpt>
      <trkpt lat="47.69085343927145" lon="11.445391299203038">
        <ele>895.799999999999955</ele>
        <time>2015-06-26T13:21:15Z</time>
      </trkpt>
      <trkpt lat="47.690816558897495" lon="11.445534126833081">
        <ele>896.259999999999991</ele>
        <time>2015-06-26T13:21:23Z</time>
      </trkpt>
      <trkpt lat="47.69082410261035" lon="11.445553908124566">
        <ele>897</ele>
        <time>2015-06-26T13:21:24Z</time>
      </trkpt>
      <trkpt lat="47.690825778990984" lon="11.44557218067348">
        <ele>897.149999999999977</ele>
        <time>2015-06-26T13:21:25Z</time>
      </trkpt>
      <trkpt lat="47.690816977992654" lon="11.445628507062793">
        <ele>897.539999999999964</ele>
        <time>2015-06-26T13:21:41Z</time>
      </trkpt>
      <trkpt lat="47.690812451764941" lon="11.445692209526896">
        <ele>897.899999999999977</ele>
        <time>2015-06-26T13:21:48Z</time>
      </trkpt>
      <trkpt lat="47.690808260813355" lon="11.4457075484097">
        <ele>898.419999999999959</ele>
        <time>2015-06-26T13:21:49Z</time>
      </trkpt>
      <trkpt lat="47.690806919708848" lon="11.445724731311202">
        <ele>898.259999999999991</ele>
        <time>2015-06-26T13:21:50Z</time>
      </trkpt>
      <trkpt lat="47.690803818404675" lon="11.445741327479482">
        <ele>898.529999999999973</ele>
        <time>2015-06-26T13:21:51Z</time>
      </trkpt>
      <trkpt lat="47.690800884738564" lon="11.445759013295174">
        <ele>899.009999999999991</ele>
        <time>2015-06-26T13:21:52Z</time>
      </trkpt>
      <trkpt lat="47.690800549462438" lon="11.445777453482151">
        <ele>898.740000000000009</ele>
        <time>2015-06-26T13:21:53Z</time>
      </trkpt>
      <trkpt lat="47.690794179216027" lon="11.445793127641082">
        <ele>899.07000000000005</ele>
        <time>2015-06-26T13:21:54Z</time>
      </trkpt>
      <trkpt lat="47.690787306055427" lon="11.445809304714203">
        <ele>899.629999999999995</ele>
        <time>2015-06-26T13:21:55Z</time>
      </trkpt>
      <trkpt lat="47.690754868090153" lon="11.445903182029724">
        <ele>900.580000000000041</ele>
        <time>2015-06-26T13:22:01Z</time>
      </trkpt>
      <trkpt lat="47.690751599147916" lon="11.445922292768955">
        <ele>900.92999999999995</ele>
        <time>2015-06-26T13:22:02Z</time>
      </trkpt>
      <trkpt lat="47.690687393769622" lon="11.446180371567607">
        <ele>903.389999999999986</ele>
        <time>2015-06-26T13:22:17Z</time>
      </trkpt>
      <trkpt lat="47.690645148977637" lon="11.446287492290139">
        <ele>903.690000000000055</ele>
        <time>2015-06-26T13:22:23Z</time>
      </trkpt>
      <trkpt lat="47.690643472597003" lon="11.446307776495814">
        <ele>903.909999999999968</ele>
        <time>2015-06-26T13:22:24Z</time>
      </trkpt>
      <trkpt lat="47.690641460940242" lon="11.446328982710838">
        <ele>904.57000000000005</ele>
        <time>2015-06-26T13:22:25Z</time>
      </trkpt>
      <trkpt lat="47.690637689083815" lon="11.446347422897816">
        <ele>904.42999999999995</ele>
        <time>2015-06-26T13:22:26Z</time>
      </trkpt>
      <trkpt lat="47.690629558637738" lon="11.446365946903825">
        <ele>904.809999999999945</ele>
        <time>2015-06-26T13:22:27Z</time>
      </trkpt>
      <trkpt lat="47.69062620587647" lon="11.446382626891136">
        <ele>904.539999999999964</ele>
        <time>2015-06-26T13:22:28Z</time>
      </trkpt>
      <trkpt lat="47.690619332715869" lon="11.446399642154574">
        <ele>904.909999999999968</ele>
        <time>2015-06-26T13:22:29Z</time>
      </trkpt>
      <trkpt lat="47.690613465383649" lon="11.446419255807996">
        <ele>905.07000000000005</ele>
        <time>2015-06-26T13:22:30Z</time>
      </trkpt>
      <trkpt lat="47.690608687698841" lon="11.446437695994973">
        <ele>905.299999999999955</ele>
        <time>2015-06-26T13:22:31Z</time>
      </trkpt>
      <trkpt lat="47.690606927499175" lon="11.446456555277109">
        <ele>905.279999999999973</ele>
        <time>2015-06-26T13:22:32Z</time>
      </trkpt>
      <trkpt lat="47.690608017146587" lon="11.446476588025689">
        <ele>905.990000000000009</ele>
        <time>2015-06-26T13:22:33Z</time>
      </trkpt>
      <trkpt lat="47.690604832023382" lon="11.446496536955237">
        <ele>905.960000000000036</ele>
        <time>2015-06-26T13:22:34Z</time>
      </trkpt>
      <trkpt lat="47.690574238076806" lon="11.446596952155232">
        <ele>907.029999999999973</ele>
        <time>2015-06-26T13:22:40Z</time>
      </trkpt>
      <trkpt lat="47.690560994669795" lon="11.4466417953372">
        <ele>906.850000000000023</ele>
        <time>2015-06-26T13:22:43Z</time>
      </trkpt>
      <trkpt lat="47.69055487588048" lon="11.446655625477433">
        <ele>907.470000000000027</ele>
        <time>2015-06-26T13:22:44Z</time>
      </trkpt>
      <trkpt lat="47.690548002719879" lon="11.446671970188618">
        <ele>907.580000000000041</ele>
        <time>2015-06-26T13:22:45Z</time>
      </trkpt>
      <trkpt lat="47.690550182014704" lon="11.446690075099468">
        <ele>907.769999999999982</ele>
        <time>2015-06-26T13:22:46Z</time>
      </trkpt>
      <trkpt lat="47.69054607488215" lon="11.446707174181938">
        <ele>907.509999999999991</ele>
        <time>2015-06-26T13:22:47Z</time>
      </trkpt>
      <trkpt lat="47.690544649958611" lon="11.446726620197296">
        <ele>907.889999999999986</ele>
        <time>2015-06-26T13:22:48Z</time>
      </trkpt>
      <trkpt lat="47.690538950264454" lon="11.446742881089449">
        <ele>907.700000000000045</ele>
        <time>2015-06-26T13:22:49Z</time>
      </trkpt>
      <trkpt lat="47.690493268892169" lon="11.446917895227671">
        <ele>909.919999999999959</ele>
        <time>2015-06-26T13:22:59Z</time>
      </trkpt>
      <trkpt lat="47.690488826483488" lon="11.446933317929506">
        <ele>910.210000000000036</ele>
        <time>2015-06-26T13:23:00Z</time>
      </trkpt>
      <trkpt lat="47.690483462065458" lon="11.446948740631342">
        <ele>909.990000000000009</ele>
        <time>2015-06-26T13:23:01Z</time>
      </trkpt>
      <trkpt lat="47.690386064350605" lon="11.447267755866051">
        <ele>912.450000000000045</ele>
        <time>2015-06-26T13:23:18Z</time>
      </trkpt>
      <trkpt lat="47.690345915034413" lon="11.447428939864039">
        <ele>913.090000000000032</ele>
        <time>2015-06-26T13:23:26Z</time>
      </trkpt>
      <trkpt lat="47.690343232825398" lon="11.447447715327144">
        <ele>913.740000000000009</ele>
        <time>2015-06-26T13:23:27Z</time>
      </trkpt>
      <trkpt lat="47.690335856750607" lon="11.447467412799597">
        <ele>913.330000000000041</ele>
        <time>2015-06-26T13:23:28Z</time>
      </trkpt>
      <trkpt lat="47.690328732132912" lon="11.447487361729145">
        <ele>913.950000000000045</ele>
        <time>2015-06-26T13:23:29Z</time>
      </trkpt>
      <trkpt lat="47.690321356058121" lon="11.44750664010644">
        <ele>913.909999999999968</ele>
        <time>2015-06-26T13:23:30Z</time>
      </trkpt>
      <trkpt lat="47.690300904214382" lon="11.447557350620627">
        <ele>913.899999999999977</ele>
        <time>2015-06-26T13:23:33Z</time>
      </trkpt>
      <trkpt lat="47.690296629443765" lon="11.447573024779558">
        <ele>914.240000000000009</ele>
        <time>2015-06-26T13:23:34Z</time>
      </trkpt>
      <trkpt lat="47.690293192863464" lon="11.447589872404933">
        <ele>914.370000000000005</ele>
        <time>2015-06-26T13:23:35Z</time>
      </trkpt>
      <trkpt lat="47.690257402136922" lon="11.447718031704426">
        <ele>915.370000000000005</ele>
        <time>2015-06-26T13:23:50Z</time>
      </trkpt>
      <trkpt lat="47.690266286954284" lon="11.447699926793575">
        <ele>915.279999999999973</ele>
        <time>2015-06-26T13:24:20Z</time>
      </trkpt>
      <trkpt lat="47.69021968357265" lon="11.447710487991571">
        <ele>915.32000000000005</ele>
        <time>2015-06-26T13:24:34Z</time>
      </trkpt>
      <trkpt lat="47.690198225900531" lon="11.44775683991611">
        <ele>915.860000000000014</ele>
        <time>2015-06-26T13:24:37Z</time>
      </trkpt>
      <trkpt lat="47.690172409638762" lon="11.447944007813931">
        <ele>916.559999999999945</ele>
        <time>2015-06-26T13:24:47Z</time>
      </trkpt>
      <trkpt lat="47.690158076584339" lon="11.447984240949154">
        <ele>917.289999999999964</ele>
        <time>2015-06-26T13:24:49Z</time>
      </trkpt>
      <trkpt lat="47.690117005258799" lon="11.448100665584207">
        <ele>917.82000000000005</ele>
        <time>2015-06-26T13:24:56Z</time>
      </trkpt>
      <trkpt lat="47.690114406868815" lon="11.448120698332787">
        <ele>918.149999999999977</ele>
        <time>2015-06-26T13:24:57Z</time>
      </trkpt>
      <trkpt lat="47.690089680254459" lon="11.448198398575187">
        <ele>918.980000000000018</ele>
        <time>2015-06-26T13:25:02Z</time>
      </trkpt>
      <trkpt lat="47.690086578950286" lon="11.448213737457991">
        <ele>918.850000000000023</ele>
        <time>2015-06-26T13:25:03Z</time>
      </trkpt>
      <trkpt lat="47.690081633627415" lon="11.448230501264334">
        <ele>919.149999999999977</ele>
        <time>2015-06-26T13:25:04Z</time>
      </trkpt>
      <trkpt lat="47.69008289091289" lon="11.44826696254313">
        <ele>919.370000000000005</ele>
        <time>2015-06-26T13:25:06Z</time>
      </trkpt>
      <trkpt lat="47.690081214532256" lon="11.448286157101393">
        <ele>920.230000000000018</ele>
        <time>2015-06-26T13:25:07Z</time>
      </trkpt>
      <trkpt lat="47.690088758245111" lon="11.448317086324096">
        <ele>920.059999999999945</ele>
        <time>2015-06-26T13:25:09Z</time>
      </trkpt>
      <trkpt lat="47.690155310556293" lon="11.448437534272671">
        <ele>920.509999999999991</ele>
        <time>2015-06-26T13:25:18Z</time>
      </trkpt>
      <trkpt lat="47.69016545265913" lon="11.448445664718747">
        <ele>920.82000000000005</ele>
        <time>2015-06-26T13:25:19Z</time>
      </trkpt>
      <trkpt lat="47.690175510942936" lon="11.448455471545458">
        <ele>921.42999999999995</ele>
        <time>2015-06-26T13:25:20Z</time>
      </trkpt>
      <trkpt lat="47.690305933356285" lon="11.448514480143785">
        <ele>923.200000000000045</ele>
        <time>2015-06-26T13:25:32Z</time>
      </trkpt>
      <trkpt lat="47.690420849248767" lon="11.448464440181851">
        <ele>925.17999999999995</ele>
        <time>2015-06-26T13:25:42Z</time>
      </trkpt>
      <trkpt lat="47.690431913360953" lon="11.448455303907394">
        <ele>925.42999999999995</ele>
        <time>2015-06-26T13:25:43Z</time>
      </trkpt>
      <trkpt lat="47.690441301092505" lon="11.448447676375508">
        <ele>925.440000000000055</ele>
        <time>2015-06-26T13:25:44Z</time>
      </trkpt>
      <trkpt lat="47.690451610833406" lon="11.44843652844429">
        <ele>925.620000000000005</ele>
        <time>2015-06-26T13:25:45Z</time>
      </trkpt>
      <trkpt lat="47.690462926402688" lon="11.448427475988865">
        <ele>925.960000000000036</ele>
        <time>2015-06-26T13:25:46Z</time>
      </trkpt>
      <trkpt lat="47.690473487600684" lon="11.448420183733106">
        <ele>925.559999999999945</ele>
        <time>2015-06-26T13:25:47Z</time>
      </trkpt>
      <trkpt lat="47.690534424036741" lon="11.448365114629269">
        <ele>926.720000000000027</ele>
        <time>2015-06-26T13:25:55Z</time>
      </trkpt>
      <trkpt lat="47.690538447350264" lon="11.448352541774511">
        <ele>927.259999999999991</ele>
        <time>2015-06-26T13:25:56Z</time>
      </trkpt>
      <trkpt lat="47.690543225035071" lon="11.448333011940122">
        <ele>927.220000000000027</ele>
        <time>2015-06-26T13:25:57Z</time>
      </trkpt>
      <trkpt lat="47.690549176186323" lon="11.448319768533111">
        <ele>927.289999999999964</ele>
        <time>2015-06-26T13:25:58Z</time>
      </trkpt>
      <trkpt lat="47.690557222813368" lon="11.448302837088704">
        <ele>927.669999999999959</ele>
        <time>2015-06-26T13:25:59Z</time>
      </trkpt>
      <trkpt lat="47.69058957695961" lon="11.44824399612844">
        <ele>927.92999999999995</ele>
        <time>2015-06-26T13:26:03Z</time>
      </trkpt>
      <trkpt lat="47.690594438463449" lon="11.448229914531112">
        <ele>927.850000000000023</ele>
        <time>2015-06-26T13:26:04Z</time>
      </trkpt>
      <trkpt lat="47.690598545596004" lon="11.44821222871542">
        <ele>928.17999999999995</ele>
        <time>2015-06-26T13:26:05Z</time>
      </trkpt>
      <trkpt lat="47.690599048510194" lon="11.448198314756155">
        <ele>928.360000000000014</ele>
        <time>2015-06-26T13:26:06Z</time>
      </trkpt>
      <trkpt lat="47.690601898357272" lon="11.448178449645638">
        <ele>928.730000000000018</ele>
        <time>2015-06-26T13:26:07Z</time>
      </trkpt>
      <trkpt lat="47.690610447898507" lon="11.448133187368512">
        <ele>929.07000000000005</ele>
        <time>2015-06-26T13:26:09Z</time>
      </trkpt>
      <trkpt lat="47.690624445676804" lon="11.448094379156828">
        <ele>929.149999999999977</ele>
        <time>2015-06-26T13:26:11Z</time>
      </trkpt>
      <trkpt lat="47.690646657720208" lon="11.447922382503748">
        <ele>930.139999999999986</ele>
        <time>2015-06-26T13:26:18Z</time>
      </trkpt>
      <trkpt lat="47.690650681033731" lon="11.447899919003248">
        <ele>930.379999999999995</ele>
        <time>2015-06-26T13:26:19Z</time>
      </trkpt>
      <trkpt lat="47.690658895298839" lon="11.447880556806922">
        <ele>930.240000000000009</ele>
        <time>2015-06-26T13:26:20Z</time>
      </trkpt>
      <trkpt lat="47.690698709338903" lon="11.447775615379214">
        <ele>931.220000000000027</ele>
        <time>2015-06-26T13:26:31Z</time>
      </trkpt>
      <trkpt lat="47.690721591934562" lon="11.447736136615276">
        <ele>931.480000000000018</ele>
        <time>2015-06-26T13:26:33Z</time>
      </trkpt>
      <trkpt lat="47.690731566399336" lon="11.44771141000092">
        <ele>931.340000000000032</ele>
        <time>2015-06-26T13:26:34Z</time>
      </trkpt>
      <trkpt lat="47.690741792321205" lon="11.447692215442657">
        <ele>931.67999999999995</ele>
        <time>2015-06-26T13:26:35Z</time>
      </trkpt>
      <trkpt lat="47.690751431509852" lon="11.447669081389904">
        <ele>932.139999999999986</ele>
        <time>2015-06-26T13:26:36Z</time>
      </trkpt>
      <trkpt lat="47.690758220851421" lon="11.447643935680389">
        <ele>932.279999999999973</ele>
        <time>2015-06-26T13:26:37Z</time>
      </trkpt>
      <trkpt lat="47.690766267478466" lon="11.447618370875716">
        <ele>932.259999999999991</ele>
        <time>2015-06-26T13:26:38Z</time>
      </trkpt>
      <trkpt lat="47.690777750685811" lon="11.447595739737153">
        <ele>932.600000000000023</ele>
        <time>2015-06-26T13:26:39Z</time>
      </trkpt>
      <trkpt lat="47.69079091027379" lon="11.447577551007271">
        <ele>932.600000000000023</ele>
        <time>2015-06-26T13:26:40Z</time>
      </trkpt>
      <trkpt lat="47.690803315490484" lon="11.44756137393415">
        <ele>932.700000000000045</ele>
        <time>2015-06-26T13:26:41Z</time>
      </trkpt>
      <trkpt lat="47.690817900002003" lon="11.44754720851779">
        <ele>932.740000000000009</ele>
        <time>2015-06-26T13:26:42Z</time>
      </trkpt>
      <trkpt lat="47.690826868638396" lon="11.447526337578893">
        <ele>932.5</ele>
        <time>2015-06-26T13:26:43Z</time>
      </trkpt>
      <trkpt lat="47.690836172550917" lon="11.447508232668042">
        <ele>933.200000000000045</ele>
        <time>2015-06-26T13:26:44Z</time>
      </trkpt>
      <trkpt lat="47.690841620787978" lon="11.447491385042667">
        <ele>933.57000000000005</ele>
        <time>2015-06-26T13:26:45Z</time>
      </trkpt>
      <trkpt lat="47.690854109823704" lon="11.447482081130147">
        <ele>933.549999999999955</ele>
        <time>2015-06-26T13:26:46Z</time>
      </trkpt>
      <trkpt lat="47.690868694335222" lon="11.447472609579563">
        <ele>933.759999999999991</ele>
        <time>2015-06-26T13:26:47Z</time>
      </trkpt>
      <trkpt lat="47.690880680456758" lon="11.447455761954188">
        <ele>933.639999999999986</ele>
        <time>2015-06-26T13:26:48Z</time>
      </trkpt>
      <trkpt lat="47.690897192806005" lon="11.447437992319465">
        <ele>933.779999999999973</ele>
        <time>2015-06-26T13:26:49Z</time>
      </trkpt>
      <trkpt lat="47.690911274403334" lon="11.447427598759532">
        <ele>933.610000000000014</ele>
        <time>2015-06-26T13:26:50Z</time>
      </trkpt>
      <trkpt lat="47.690923679620028" lon="11.447417624294758">
        <ele>934.139999999999986</ele>
        <time>2015-06-26T13:26:51Z</time>
      </trkpt>
      <trkpt lat="47.690937342122197" lon="11.447405638173223">
        <ele>934.120000000000005</ele>
        <time>2015-06-26T13:26:52Z</time>
      </trkpt>
      <trkpt lat="47.690955530852079" lon="11.447392394766212">
        <ele>934.710000000000036</ele>
        <time>2015-06-26T13:26:53Z</time>
      </trkpt>
      <trkpt lat="47.69104203209281" lon="11.447320226579905">
        <ele>935.309999999999945</ele>
        <time>2015-06-26T13:26:59Z</time>
      </trkpt>
      <trkpt lat="47.691054018214345" lon="11.447314778342843">
        <ele>935.610000000000014</ele>
        <time>2015-06-26T13:27:00Z</time>
      </trkpt>
      <trkpt lat="47.691067680716515" lon="11.4472980145365">
        <ele>935.669999999999959</ele>
        <time>2015-06-26T13:27:01Z</time>
      </trkpt>
      <trkpt lat="47.691080421209335" lon="11.447292063385248">
        <ele>935.92999999999995</ele>
        <time>2015-06-26T13:27:02Z</time>
      </trkpt>
      <trkpt lat="47.69109676592052" lon="11.447284268215299">
        <ele>936.159999999999968</ele>
        <time>2015-06-26T13:27:03Z</time>
      </trkpt>
      <trkpt lat="47.691115122288465" lon="11.447267085313797">
        <ele>936.029999999999973</ele>
        <time>2015-06-26T13:27:04Z</time>
      </trkpt>
      <trkpt lat="47.691132053732872" lon="11.447263564914465">
        <ele>936.509999999999991</ele>
        <time>2015-06-26T13:27:05Z</time>
      </trkpt>
      <trkpt lat="47.691148482263088" lon="11.447254596278071">
        <ele>936.279999999999973</ele>
        <time>2015-06-26T13:27:06Z</time>
      </trkpt>
      <trkpt lat="47.69116323441267" lon="11.447242861613631">
        <ele>936.67999999999995</ele>
        <time>2015-06-26T13:27:07Z</time>
      </trkpt>
      <trkpt lat="47.691170945763588" lon="11.447225594893098">
        <ele>936.600000000000023</ele>
        <time>2015-06-26T13:27:08Z</time>
      </trkpt>
      <trkpt lat="47.691267086192966" lon="11.447150409221649">
        <ele>937.5</ele>
        <time>2015-06-26T13:27:17Z</time>
      </trkpt>
      <trkpt lat="47.691285358741879" lon="11.44714118912816">
        <ele>937.600000000000023</ele>
        <time>2015-06-26T13:27:18Z</time>
      </trkpt>
      <trkpt lat="47.691302709281445" lon="11.447133477777243">
        <ele>937.899999999999977</ele>
        <time>2015-06-26T13:27:19Z</time>
      </trkpt>
      <trkpt lat="47.691416954621673" lon="11.447061980143189">
        <ele>939.059999999999945</ele>
        <time>2015-06-26T13:27:29Z</time>
      </trkpt>
      <trkpt lat="47.691428856924176" lon="11.447055358439684">
        <ele>938.620000000000005</ele>
        <time>2015-06-26T13:27:30Z</time>
      </trkpt>
      <trkpt lat="47.6915761269629" lon="11.446934659034014">
        <ele>941.480000000000018</ele>
        <time>2015-06-26T13:27:46Z</time>
      </trkpt>
      <trkpt lat="47.691713673993945" lon="11.44681035540998">
        <ele>943.259999999999991</ele>
        <time>2015-06-26T13:27:58Z</time>
      </trkpt>
      <trkpt lat="47.691730353981256" lon="11.446780096739531">
        <ele>943.399999999999977</ele>
        <time>2015-06-26T13:28:00Z</time>
      </trkpt>
      <trkpt lat="47.69188248552382" lon="11.446643136441708">
        <ele>945.879999999999995</ele>
        <time>2015-06-26T13:28:13Z</time>
      </trkpt>
      <trkpt lat="47.692043418064713" lon="11.446524364873767">
        <ele>947.230000000000018</ele>
        <time>2015-06-26T13:28:27Z</time>
      </trkpt>
      <trkpt lat="47.692093709483743" lon="11.446476671844721">
        <ele>948.870000000000005</ele>
        <time>2015-06-26T13:28:33Z</time>
      </trkpt>
      <trkpt lat="47.692251456901431" lon="11.446363516151905">
        <ele>951.129999999999995</ele>
        <time>2015-06-26T13:28:47Z</time>
      </trkpt>
      <trkpt lat="47.692391434684396" lon="11.446281876415014">
        <ele>952.850000000000023</ele>
        <time>2015-06-26T13:28:58Z</time>
      </trkpt>
      <trkpt lat="47.692545158788562" lon="11.446092780679464">
        <ele>955.370000000000005</ele>
        <time>2015-06-26T13:29:13Z</time>
      </trkpt>
      <trkpt lat="47.692555887624621" lon="11.446080040186644">
        <ele>955.950000000000045</ele>
        <time>2015-06-26T13:29:14Z</time>
      </trkpt>
      <trkpt lat="47.692564856261015" lon="11.446065874770284">
        <ele>955.82000000000005</ele>
        <time>2015-06-26T13:29:15Z</time>
      </trkpt>
      <trkpt lat="47.692573741078377" lon="11.446053637191653">
        <ele>955.909999999999968</ele>
        <time>2015-06-26T13:29:16Z</time>
      </trkpt>
      <trkpt lat="47.69258220680058" lon="11.44603930413723">
        <ele>955.850000000000023</ele>
        <time>2015-06-26T13:29:17Z</time>
      </trkpt>
      <trkpt lat="47.692741714417934" lon="11.445871330797672">
        <ele>958.210000000000036</ele>
        <time>2015-06-26T13:29:31Z</time>
      </trkpt>
      <trkpt lat="47.692879680544138" lon="11.445696065202355">
        <ele>961.159999999999968</ele>
        <time>2015-06-26T13:29:46Z</time>
      </trkpt>
      <trkpt lat="47.69289837218821" lon="11.445679804310203">
        <ele>961.299999999999955</ele>
        <time>2015-06-26T13:29:48Z</time>
      </trkpt>
      <trkpt lat="47.69304983317852" lon="11.445551812648773">
        <ele>964.039999999999964</ele>
        <time>2015-06-26T13:30:02Z</time>
      </trkpt>
      <trkpt lat="47.693222081288695" lon="11.445632111281157">
        <ele>965.889999999999986</ele>
        <time>2015-06-26T13:30:16Z</time>
      </trkpt>
      <trkpt lat="47.693277904763818" lon="11.445746105164289">
        <ele>966.289999999999964</ele>
        <time>2015-06-26T13:30:29Z</time>
      </trkpt>
      <trkpt lat="47.693280251696706" lon="11.445751469582319">
        <ele>967.159999999999968</ele>
        <time>2015-06-26T13:30:49Z</time>
      </trkpt>
      <trkpt lat="47.693272205069661" lon="11.445769825950265">
        <ele>966.600000000000023</ele>
        <time>2015-06-26T13:31:11Z</time>
      </trkpt>
      <trkpt lat="47.693242197856307" lon="11.445786003023386">
        <ele>966.600000000000023</ele>
        <time>2015-06-26T13:31:20Z</time>
      </trkpt>
      <trkpt lat="47.693241694942117" lon="11.445790780708194">
        <ele>962.389999999999986</ele>
        <time>2015-06-26T13:31:21Z</time>
      </trkpt>
      <trkpt lat="47.693237503990531" lon="11.44578717648983">
        <ele>966.799999999999955</ele>
        <time>2015-06-26T13:31:22Z</time>
      </trkpt>
      <trkpt lat="47.693216381594539" lon="11.445784661918879">
        <ele>967.309999999999945</ele>
        <time>2015-06-26T13:31:50Z</time>
      </trkpt>
      <trkpt lat="47.693258542567492" lon="11.445717355236411">
        <ele>967.370000000000005</ele>
        <time>2015-06-26T13:32:22Z</time>
      </trkpt>
      <trkpt lat="47.693271618336439" lon="11.445787260308862">
        <ele>968.42999999999995</ele>
        <time>2015-06-26T13:32:52Z</time>
      </trkpt>
      <trkpt lat="47.693276898935437" lon="11.445742081850767">
        <ele>968.5</ele>
        <time>2015-06-26T13:33:25Z</time>
      </trkpt>
      <trkpt lat="47.693235911428928" lon="11.445708135142922">
        <ele>969.539999999999964</ele>
        <time>2015-06-26T13:33:55Z</time>
      </trkpt>
      <trkpt lat="47.693220069631934" lon="11.445753565058112">
        <ele>969.779999999999973</ele>
        <time>2015-06-26T13:34:28Z</time>
      </trkpt>
      <trkpt lat="47.693258207291365" lon="11.44580184482038">
        <ele>970.389999999999986</ele>
        <time>2015-06-26T13:34:59Z</time>
      </trkpt>
      <trkpt lat="47.693260638043284" lon="11.445771586149931">
        <ele>970.340000000000032</ele>
        <time>2015-06-26T13:35:30Z</time>
      </trkpt>
      <trkpt lat="47.693251082673669" lon="11.445755157619715">
        <ele>970.5</ele>
        <time>2015-06-26T13:36:02Z</time>
      </trkpt>
      <trkpt lat="47.693247394636273" lon="11.445790864527225">
        <ele>970.940000000000055</ele>
        <time>2015-06-26T13:36:23Z</time>
      </trkpt>
      <trkpt lat="47.693252172321081" lon="11.445753145962954">
        <ele>970.740000000000009</ele>
        <time>2015-06-26T13:36:33Z</time>
      </trkpt>
      <trkpt lat="47.693222416564822" lon="11.445634290575981">
        <ele>971.75</ele>
        <time>2015-06-26T13:37:07Z</time>
      </trkpt>
      <trkpt lat="47.693195259198546" lon="11.445579305291176">
        <ele>971.67999999999995</ele>
        <time>2015-06-26T13:37:53Z</time>
      </trkpt>
      <trkpt lat="47.693205233663321" lon="11.445613084360957">
        <ele>973.879999999999995</ele>
        <time>2015-06-26T13:38:19Z</time>
      </trkpt>
      <trkpt lat="47.693230379372835" lon="11.445651892572641">
        <ele>974.370000000000005</ele>
        <time>2015-06-26T13:38:32Z</time>
      </trkpt>
      <trkpt lat="47.693229373544455" lon="11.44566697999835">
        <ele>973.490000000000009</ele>
        <time>2015-06-26T13:38:34Z</time>
      </trkpt>
      <trkpt lat="47.693256950005889" lon="11.445695478469133">
        <ele>974.139999999999986</ele>
        <time>2015-06-26T13:39:07Z</time>
      </trkpt>
      <trkpt lat="47.693254770711064" lon="11.445652060210705">
        <ele>974.549999999999955</ele>
        <time>2015-06-26T13:39:48Z</time>
      </trkpt>
      <trkpt lat="47.693247394636273" lon="11.445651641115546">
        <ele>975.090000000000032</ele>
        <time>2015-06-26T13:40:35Z</time>
      </trkpt>
      <trkpt lat="47.693258877843618" lon="11.44569480791688">
        <ele>975.850000000000023</ele>
        <time>2015-06-26T13:41:07Z</time>
      </trkpt>
      <trkpt lat="47.693259548395872" lon="11.445755911991">
        <ele>975.639999999999986</ele>
        <time>2015-06-26T13:41:33Z</time>
      </trkpt>
      <trkpt lat="47.693276982754469" lon="11.445713834837079">
        <ele>976.360000000000014</ele>
        <time>2015-06-26T13:41:43Z</time>
      </trkpt>
      <trkpt lat="47.693286538124084" lon="11.445706291124225">
        <ele>976.100000000000023</ele>
        <time>2015-06-26T13:41:44Z</time>
      </trkpt>
      <trkpt lat="47.693299446254969" lon="11.445705285295844">
        <ele>976.009999999999991</ele>
        <time>2015-06-26T13:41:45Z</time>
      </trkpt>
      <trkpt lat="47.693313611671329" lon="11.445710314437747">
        <ele>976.330000000000041</ele>
        <time>2015-06-26T13:41:46Z</time>
      </trkpt>
      <trkpt lat="47.693331381306052" lon="11.445716768503189">
        <ele>976.690000000000055</ele>
        <time>2015-06-26T13:41:47Z</time>
      </trkpt>
      <trkpt lat="47.693352838978171" lon="11.445720456540585">
        <ele>976.759999999999991</ele>
        <time>2015-06-26T13:41:48Z</time>
      </trkpt>
      <trkpt lat="47.693656599149108" lon="11.445661280304193">
        <ele>975.5</ele>
        <time>2015-06-26T13:41:58Z</time>
      </trkpt>
      <trkpt lat="47.693793056532741" lon="11.445105224847794">
        <ele>974.789999999999964</ele>
        <time>2015-06-26T13:42:09Z</time>
      </trkpt>
      <trkpt lat="47.693857429549098" lon="11.444505667313933">
        <ele>975.269999999999982</ele>
        <time>2015-06-26T13:42:19Z</time>
      </trkpt>
      <trkpt lat="47.693911995738745" lon="11.444335598498583">
        <ele>975.32000000000005</ele>
        <time>2015-06-26T13:42:22Z</time>
      </trkpt>
      <trkpt lat="47.694205194711685" lon="11.443708715960383">
        <ele>975.92999999999995</ele>
        <time>2015-06-26T13:42:35Z</time>
      </trkpt>
      <trkpt lat="47.694576848298311" lon="11.443117205053568">
        <ele>975.269999999999982</ele>
        <time>2015-06-26T13:42:48Z</time>
      </trkpt>
      <trkpt lat="47.69496526569128" lon="11.442583445459604">
        <ele>976.379999999999995</ele>
        <time>2015-06-26T13:43:01Z</time>
      </trkpt>
      <trkpt lat="47.695137178525329" lon="11.441990844905376">
        <ele>975.330000000000041</ele>
        <time>2015-06-26T13:43:12Z</time>
      </trkpt>
      <trkpt lat="47.695222841575742" lon="11.441700663417578">
        <ele>975.990000000000009</ele>
        <time>2015-06-26T13:43:17Z</time>
      </trkpt>
      <trkpt lat="47.69524765200913" lon="11.441649366170168">
        <ele>976.210000000000036</ele>
        <time>2015-06-26T13:43:18Z</time>
      </trkpt>
      <trkpt lat="47.695271875709295" lon="11.44159521907568">
        <ele>976.360000000000014</ele>
        <time>2015-06-26T13:43:19Z</time>
      </trkpt>
      <trkpt lat="47.695295261219144" lon="11.441537216305733">
        <ele>976.279999999999973</ele>
        <time>2015-06-26T13:43:20Z</time>
      </trkpt>
      <trkpt lat="47.695318395271897" lon="11.441474603489041">
        <ele>976.039999999999964</ele>
        <time>2015-06-26T13:43:21Z</time>
      </trkpt>
      <trkpt lat="47.695338679477572" lon="11.441410230472684">
        <ele>976.230000000000018</ele>
        <time>2015-06-26T13:43:22Z</time>
      </trkpt>
      <trkpt lat="47.695419229567051" lon="11.441169669851661">
        <ele>975.870000000000005</ele>
        <time>2015-06-26T13:43:26Z</time>
      </trkpt>
      <trkpt lat="47.695477986708283" lon="11.441078474745154">
        <ele>976.169999999999959</ele>
        <time>2015-06-26T13:43:28Z</time>
      </trkpt>
      <trkpt lat="47.695543114095926" lon="11.440987950190902">
        <ele>975.809999999999945</ele>
        <time>2015-06-26T13:43:30Z</time>
      </trkpt>
      <trkpt lat="47.695569852367043" lon="11.440937491133809">
        <ele>975.600000000000023</ele>
        <time>2015-06-26T13:43:31Z</time>
      </trkpt>
      <trkpt lat="47.695997916162014" lon="11.440087482333183">
        <ele>975.279999999999973</ele>
        <time>2015-06-26T13:43:46Z</time>
      </trkpt>
      <trkpt lat="47.696218611672521" lon="11.439555902034044">
        <ele>974.549999999999955</ele>
        <time>2015-06-26T13:43:54Z</time>
      </trkpt>
      <trkpt lat="47.696312572807074" lon="11.439142841845751">
        <ele>974.480000000000018</ele>
        <time>2015-06-26T13:44:00Z</time>
      </trkpt>
      <trkpt lat="47.696389937773347" lon="11.438966989517212">
        <ele>974.240000000000009</ele>
        <time>2015-06-26T13:44:03Z</time>
      </trkpt>
      <trkpt lat="47.696423968300223" lon="11.438917368650436">
        <ele>974.350000000000023</ele>
        <time>2015-06-26T13:44:04Z</time>
      </trkpt>
      <trkpt lat="47.696461351588368" lon="11.438869507983327">
        <ele>974.629999999999995</ele>
        <time>2015-06-26T13:44:05Z</time>
      </trkpt>
      <trkpt lat="47.696499824523926" lon="11.438829945400357">
        <ele>974.370000000000005</ele>
        <time>2015-06-26T13:44:06Z</time>
      </trkpt>
      <trkpt lat="47.696542320773005" lon="11.438798429444432">
        <ele>974.559999999999945</ele>
        <time>2015-06-26T13:44:07Z</time>
      </trkpt>
      <trkpt lat="47.696585403755307" lon="11.438770433887839">
        <ele>974.100000000000023</ele>
        <time>2015-06-26T13:44:08Z</time>
      </trkpt>
      <trkpt lat="47.696629660204053" lon="11.438752245157957">
        <ele>974.549999999999955</ele>
        <time>2015-06-26T13:44:09Z</time>
      </trkpt>
      <trkpt lat="47.696676263585687" lon="11.438744114711881">
        <ele>974.580000000000041</ele>
        <time>2015-06-26T13:44:10Z</time>
      </trkpt>
      <trkpt lat="47.696724375709891" lon="11.438737073913217">
        <ele>974.350000000000023</ele>
        <time>2015-06-26T13:44:11Z</time>
      </trkpt>
      <trkpt lat="47.696815822273493" lon="11.438731290400028">
        <ele>974.230000000000018</ele>
        <time>2015-06-26T13:44:13Z</time>
      </trkpt>
      <trkpt lat="47.696860330179334" lon="11.438738415017724">
        <ele>974.509999999999991</ele>
        <time>2015-06-26T13:44:14Z</time>
      </trkpt>
      <trkpt lat="47.696902407333255" lon="11.438750987872481">
        <ele>974.730000000000018</ele>
        <time>2015-06-26T13:44:15Z</time>
      </trkpt>
      <trkpt lat="47.696979017928243" lon="11.438789963722229">
        <ele>974.580000000000041</ele>
        <time>2015-06-26T13:44:17Z</time>
      </trkpt>
      <trkpt lat="47.697014976292849" lon="11.438815947622061">
        <ele>974.740000000000009</ele>
        <time>2015-06-26T13:44:18Z</time>
      </trkpt>
      <trkpt lat="47.697154451161623" lon="11.438947962597013">
        <ele>974.740000000000009</ele>
        <time>2015-06-26T13:44:22Z</time>
      </trkpt>
      <trkpt lat="47.697188062593341" lon="11.438987106084824">
        <ele>974.620000000000005</ele>
        <time>2015-06-26T13:44:23Z</time>
      </trkpt>
      <trkpt lat="47.697624173015356" lon="11.439430341124535">
        <ele>974.539999999999964</ele>
        <time>2015-06-26T13:44:35Z</time>
      </trkpt>
      <trkpt lat="47.69765954464674" lon="11.43947166390717">
        <ele>974.419999999999959</ele>
        <time>2015-06-26T13:44:36Z</time>
      </trkpt>
      <trkpt lat="47.697696089744568" lon="11.439514411613345">
        <ele>974.669999999999959</ele>
        <time>2015-06-26T13:44:37Z</time>
      </trkpt>
      <trkpt lat="47.69780614413321" lon="11.439641816541553">
        <ele>974.769999999999982</ele>
        <time>2015-06-26T13:44:40Z</time>
      </trkpt>
      <trkpt lat="47.697838833555579" lon="11.439688503742218">
        <ele>974.279999999999973</ele>
        <time>2015-06-26T13:44:41Z</time>
      </trkpt>
      <trkpt lat="47.697872696444392" lon="11.439734352752566">
        <ele>974.120000000000005</ele>
        <time>2015-06-26T13:44:42Z</time>
      </trkpt>
      <trkpt lat="47.697901781648397" lon="11.4397843927145">
        <ele>974.129999999999995</ele>
        <time>2015-06-26T13:44:43Z</time>
      </trkpt>
      <trkpt lat="47.697933968156576" lon="11.439834013581276">
        <ele>973.769999999999982</ele>
        <time>2015-06-26T13:44:44Z</time>
      </trkpt>
      <trkpt lat="47.697967998683453" lon="11.439883215352893">
        <ele>973.990000000000009</ele>
        <time>2015-06-26T13:44:45Z</time>
      </trkpt>
      <trkpt lat="47.698034048080444" lon="11.439981032162905">
        <ele>973.82000000000005</ele>
        <time>2015-06-26T13:44:47Z</time>
      </trkpt>
      <trkpt lat="47.698066737502813" lon="11.440030066296458">
        <ele>973.340000000000032</ele>
        <time>2015-06-26T13:44:48Z</time>
      </trkpt>
      <trkpt lat="47.698101019486785" lon="11.440077675506473">
        <ele>973.440000000000055</ele>
        <time>2015-06-26T13:44:49Z</time>
      </trkpt>
      <trkpt lat="47.698207637295127" lon="11.440195105969906">
        <ele>973.700000000000045</ele>
        <time>2015-06-26T13:44:52Z</time>
      </trkpt>
      <trkpt lat="47.698339316993952" lon="11.440340699627995">
        <ele>974.450000000000045</ele>
        <time>2015-06-26T13:44:56Z</time>
      </trkpt>
      <trkpt lat="47.698369072750211" lon="11.440387219190598">
        <ele>974.230000000000018</ele>
        <time>2015-06-26T13:44:57Z</time>
      </trkpt>
      <trkpt lat="47.698392709717155" lon="11.440438767895103">
        <ele>973.690000000000055</ele>
        <time>2015-06-26T13:44:58Z</time>
      </trkpt>
      <trkpt lat="47.698410814628005" lon="11.440494759008288">
        <ele>973.379999999999995</ele>
        <time>2015-06-26T13:44:59Z</time>
      </trkpt>
      <trkpt lat="47.698428248986602" lon="11.440547481179237">
        <ele>974.17999999999995</ele>
        <time>2015-06-26T13:45:00Z</time>
      </trkpt>
      <trkpt lat="47.698437385261059" lon="11.440666420385242">
        <ele>973.480000000000018</ele>
        <time>2015-06-26T13:45:02Z</time>
      </trkpt>
      <trkpt lat="47.698438474908471" lon="11.441115858033299">
        <ele>972.190000000000055</ele>
        <time>2015-06-26T13:45:09Z</time>
      </trkpt>
      <trkpt lat="47.69844526425004" lon="11.441191881895065">
        <ele>972.210000000000036</ele>
        <time>2015-06-26T13:45:10Z</time>
      </trkpt>
      <trkpt lat="47.698458172380924" lon="11.441277293488383">
        <ele>971.870000000000005</ele>
        <time>2015-06-26T13:45:11Z</time>
      </trkpt>
      <trkpt lat="47.698480635881424" lon="11.441365471109748">
        <ele>971.17999999999995</ele>
        <time>2015-06-26T13:45:12Z</time>
      </trkpt>
      <trkpt lat="47.698503602296114" lon="11.441456917673349">
        <ele>970.990000000000009</ele>
        <time>2015-06-26T13:45:13Z</time>
      </trkpt>
      <trkpt lat="47.698556492105126" lon="11.441625729203224">
        <ele>970.480000000000018</ele>
        <time>2015-06-26T13:45:15Z</time>
      </trkpt>
      <trkpt lat="47.698585577309132" lon="11.441701669245958">
        <ele>970.659999999999968</ele>
        <time>2015-06-26T13:45:16Z</time>
      </trkpt>
      <trkpt lat="47.698613069951534" lon="11.441767048090696">
        <ele>970.919999999999959</ele>
        <time>2015-06-26T13:45:17Z</time>
      </trkpt>
      <trkpt lat="47.698776097968221" lon="11.44206234253943">
        <ele>973.690000000000055</ele>
        <time>2015-06-26T13:45:26Z</time>
      </trkpt>
      <trkpt lat="47.698968714103103" lon="11.442236099392176">
        <ele>975.299999999999955</ele>
        <time>2015-06-26T13:45:36Z</time>
      </trkpt>
      <trkpt lat="47.699221093207598" lon="11.44255243241787">
        <ele>977.32000000000005</ele>
        <time>2015-06-26T13:45:51Z</time>
      </trkpt>
      <trkpt lat="47.699344391003251" lon="11.442826436832547">
        <ele>978.659999999999968</ele>
        <time>2015-06-26T13:46:05Z</time>
      </trkpt>
      <trkpt lat="47.699362579733133" lon="11.442886451259255">
        <ele>978.629999999999995</ele>
        <time>2015-06-26T13:46:15Z</time>
      </trkpt>
      <trkpt lat="47.699369452893734" lon="11.442901454865932">
        <ele>978.460000000000036</ele>
        <time>2015-06-26T13:46:16Z</time>
      </trkpt>
      <trkpt lat="47.699377164244652" lon="11.442917799577117">
        <ele>978.720000000000027</ele>
        <time>2015-06-26T13:46:17Z</time>
      </trkpt>
      <trkpt lat="47.699386551976204" lon="11.442932551726699">
        <ele>978.379999999999995</ele>
        <time>2015-06-26T13:46:18Z</time>
      </trkpt>
      <trkpt lat="47.699394430965185" lon="11.442944621667266">
        <ele>978.25</ele>
        <time>2015-06-26T13:46:19Z</time>
      </trkpt>
      <trkpt lat="47.699443213641644" lon="11.442994242534041">
        <ele>979.559999999999945</ele>
        <time>2015-06-26T13:46:23Z</time>
      </trkpt>
      <trkpt lat="47.699455702677369" lon="11.443001786246896">
        <ele>979.830000000000041</ele>
        <time>2015-06-26T13:46:24Z</time>
      </trkpt>
      <trkpt lat="47.699470538645983" lon="11.443003714084625">
        <ele>979.889999999999986</ele>
        <time>2015-06-26T13:46:25Z</time>
      </trkpt>
      <trkpt lat="47.699485206976533" lon="11.443010335788131">
        <ele>979.919999999999959</ele>
        <time>2015-06-26T13:46:26Z</time>
      </trkpt>
      <trkpt lat="47.69949970766902" lon="11.443021735176444">
        <ele>979.970000000000027</ele>
        <time>2015-06-26T13:46:27Z</time>
      </trkpt>
      <trkpt lat="47.699513956904411" lon="11.443033050745726">
        <ele>979.909999999999968</ele>
        <time>2015-06-26T13:46:28Z</time>
      </trkpt>
      <trkpt lat="47.69956617616117" lon="11.443067584186792">
        <ele>980.529999999999973</ele>
        <time>2015-06-26T13:46:32Z</time>
      </trkpt>
      <trkpt lat="47.699581095948815" lon="11.44307479262352">
        <ele>980.889999999999986</ele>
        <time>2015-06-26T13:46:33Z</time>
      </trkpt>
      <trkpt lat="47.699692323803902" lon="11.44317545928061">
        <ele>982.029999999999973</ele>
        <time>2015-06-26T13:46:42Z</time>
      </trkpt>
      <trkpt lat="47.699703136458993" lon="11.443188618868589">
        <ele>982.350000000000023</ele>
        <time>2015-06-26T13:46:43Z</time>
      </trkpt>
      <trkpt lat="47.69971763715148" lon="11.443199766799808">
        <ele>982.850000000000023</ele>
        <time>2015-06-26T13:46:44Z</time>
      </trkpt>
      <trkpt lat="47.699730964377522" lon="11.443208651617169">
        <ele>982.480000000000018</ele>
        <time>2015-06-26T13:46:45Z</time>
      </trkpt>
      <trkpt lat="47.699743453413248" lon="11.443222062662244">
        <ele>982.669999999999959</ele>
        <time>2015-06-26T13:46:46Z</time>
      </trkpt>
      <trkpt lat="47.6997528411448" lon="11.443235641345382">
        <ele>982.740000000000009</ele>
        <time>2015-06-26T13:46:47Z</time>
      </trkpt>
      <trkpt lat="47.699784524738789" lon="11.443276377394795">
        <ele>983.07000000000005</ele>
        <time>2015-06-26T13:46:50Z</time>
      </trkpt>
      <trkpt lat="47.699798941612244" lon="11.443290710449219">
        <ele>983.769999999999982</ele>
        <time>2015-06-26T13:46:51Z</time>
      </trkpt>
      <trkpt lat="47.699813526123762" lon="11.443304540589452">
        <ele>984.159999999999968</ele>
        <time>2015-06-26T13:46:52Z</time>
      </trkpt>
      <trkpt lat="47.699825344607234" lon="11.443319963291287">
        <ele>983.92999999999995</ele>
        <time>2015-06-26T13:46:53Z</time>
      </trkpt>
      <trkpt lat="47.699832888320088" lon="11.443338235840201">
        <ele>984.220000000000027</ele>
        <time>2015-06-26T13:46:54Z</time>
      </trkpt>
      <trkpt lat="47.699863482266665" lon="11.443385761231184">
        <ele>984.919999999999959</ele>
        <time>2015-06-26T13:46:57Z</time>
      </trkpt>
      <trkpt lat="47.69987647421658" lon="11.443400261923671">
        <ele>984.659999999999968</ele>
        <time>2015-06-26T13:46:58Z</time>
      </trkpt>
      <trkpt lat="47.699969680979848" lon="11.443653479218483">
        <ele>986.809999999999945</ele>
        <time>2015-06-26T13:47:13Z</time>
      </trkpt>
      <trkpt lat="47.700070515275002" lon="11.443833941593766">
        <ele>990.169999999999959</ele>
        <time>2015-06-26T13:47:25Z</time>
      </trkpt>
      <trkpt lat="47.700188113376498" lon="11.443952964618802">
        <ele>992.450000000000045</ele>
        <time>2015-06-26T13:47:39Z</time>
      </trkpt>
      <trkpt lat="47.700360445305705" lon="11.443978194147348">
        <ele>995.210000000000036</ele>
        <time>2015-06-26T13:47:54Z</time>
      </trkpt>
      <trkpt lat="47.700532777234912" lon="11.444119261577725">
        <ele>997.210000000000036</ele>
        <time>2015-06-26T13:48:08Z</time>
      </trkpt>
      <trkpt lat="47.700678957626224" lon="11.444315146654844">
        <ele>999.75</ele>
        <time>2015-06-26T13:48:22Z</time>
      </trkpt>
      <trkpt lat="47.700741151347756" lon="11.444439701735973">
        <ele>1000.769999999999982</ele>
        <time>2015-06-26T13:48:30Z</time>
      </trkpt>
      <trkpt lat="47.700747521594167" lon="11.444457555189729">
        <ele>1000.769999999999982</ele>
        <time>2015-06-26T13:48:31Z</time>
      </trkpt>
      <trkpt lat="47.700754059478641" lon="11.444475743919611">
        <ele>1001.059999999999945</ele>
        <time>2015-06-26T13:48:32Z</time>
      </trkpt>
      <trkpt lat="47.700887750834227" lon="11.44474639557302">
        <ele>1004.129999999999995</ele>
        <time>2015-06-26T13:48:49Z</time>
      </trkpt>
      <trkpt lat="47.700928235426545" lon="11.444843038916588">
        <ele>1004.769999999999982</ele>
        <time>2015-06-26T13:48:58Z</time>
      </trkpt>
      <trkpt lat="47.700945669785142" lon="11.444870699197054">
        <ele>1004.950000000000045</ele>
        <time>2015-06-26T13:49:00Z</time>
      </trkpt>
      <trkpt lat="47.701004594564438" lon="11.444946639239788">
        <ele>1006.529999999999973</ele>
        <time>2015-06-26T13:49:06Z</time>
      </trkpt>
      <trkpt lat="47.701136693358421" lon="11.445076810196042">
        <ele>1007.419999999999959</ele>
        <time>2015-06-26T13:49:21Z</time>
      </trkpt>
      <trkpt lat="47.701166365295649" lon="11.445096926763654">
        <ele>1008.009999999999991</ele>
        <time>2015-06-26T13:49:29Z</time>
      </trkpt>
      <trkpt lat="47.701179860159755" lon="11.445113942027092">
        <ele>1007.960000000000036</ele>
        <time>2015-06-26T13:49:30Z</time>
      </trkpt>
      <trkpt lat="47.701196037232876" lon="11.445134142413735">
        <ele>1007.92999999999995</ele>
        <time>2015-06-26T13:49:31Z</time>
      </trkpt>
      <trkpt lat="47.701211795210838" lon="11.445155013352633">
        <ele>1008.259999999999991</ele>
        <time>2015-06-26T13:49:32Z</time>
      </trkpt>
      <trkpt lat="47.701225290074944" lon="11.445182338356972">
        <ele>1008.490000000000009</ele>
        <time>2015-06-26T13:49:33Z</time>
      </trkpt>
      <trkpt lat="47.701240461319685" lon="11.445209579542279">
        <ele>1008.110000000000014</ele>
        <time>2015-06-26T13:49:34Z</time>
      </trkpt>
      <trkpt lat="47.701255548745394" lon="11.445237826555967">
        <ele>1008.17999999999995</ele>
        <time>2015-06-26T13:49:35Z</time>
      </trkpt>
      <trkpt lat="47.701274240389466" lon="11.445265989750624">
        <ele>1007.889999999999986</ele>
        <time>2015-06-26T13:49:36Z</time>
      </trkpt>
      <trkpt lat="47.701549837365746" lon="11.445606043562293">
        <ele>1008.92999999999995</ele>
        <time>2015-06-26T13:49:48Z</time>
      </trkpt>
      <trkpt lat="47.701689060777426" lon="11.445777369663119">
        <ele>1008.779999999999973</ele>
        <time>2015-06-26T13:50:00Z</time>
      </trkpt>
      <trkpt lat="47.701698113232851" lon="11.445767730474472">
        <ele>1008.620000000000005</ele>
        <time>2015-06-26T13:50:01Z</time>
      </trkpt>
      <trkpt lat="47.701776819303632" lon="11.445751804858446">
        <ele>1008.529999999999973</ele>
        <time>2015-06-26T13:50:20Z</time>
      </trkpt>
      <trkpt lat="47.701790733262897" lon="11.445773430168629">
        <ele>1008.970000000000027</ele>
        <time>2015-06-26T13:50:21Z</time>
      </trkpt>
      <trkpt lat="47.701807580888271" lon="11.445802347734571">
        <ele>1008.799999999999955</ele>
        <time>2015-06-26T13:50:22Z</time>
      </trkpt>
      <trkpt lat="47.701828451827168" lon="11.445834869518876">
        <ele>1008.220000000000027</ele>
        <time>2015-06-26T13:50:23Z</time>
      </trkpt>
      <trkpt lat="47.701849993318319" lon="11.445874013006687">
        <ele>1008.409999999999968</ele>
        <time>2015-06-26T13:50:24Z</time>
      </trkpt>
      <trkpt lat="47.701868768781424" lon="11.44591617397964">
        <ele>1008.039999999999964</ele>
        <time>2015-06-26T13:50:25Z</time>
      </trkpt>
      <trkpt lat="47.70187446847558" lon="11.445967052131891">
        <ele>1007.690000000000055</ele>
        <time>2015-06-26T13:50:26Z</time>
      </trkpt>
      <trkpt lat="47.70186273381114" lon="11.446296460926533">
        <ele>1007.460000000000036</ele>
        <time>2015-06-26T13:50:32Z</time>
      </trkpt>
      <trkpt lat="47.701859381049871" lon="11.446366868913174">
        <ele>1007.210000000000036</ele>
        <time>2015-06-26T13:50:33Z</time>
      </trkpt>
      <trkpt lat="47.701853765174747" lon="11.446441551670432">
        <ele>1007.399999999999977</ele>
        <time>2015-06-26T13:50:34Z</time>
      </trkpt>
      <trkpt lat="47.701819650828838" lon="11.446732319891453">
        <ele>1007.450000000000045</ele>
        <time>2015-06-26T13:50:38Z</time>
      </trkpt>
      <trkpt lat="47.701815124601126" lon="11.446946728974581">
        <ele>1007.330000000000041</ele>
        <time>2015-06-26T13:50:41Z</time>
      </trkpt>
      <trkpt lat="47.701850915327668" lon="11.447152337059379">
        <ele>1006.970000000000027</ele>
        <time>2015-06-26T13:50:44Z</time>
      </trkpt>
      <trkpt lat="47.701911348849535" lon="11.447339840233326">
        <ele>1008.100000000000023</ele>
        <time>2015-06-26T13:50:47Z</time>
      </trkpt>
      <trkpt lat="47.7019286993891" lon="11.447400357574224">
        <ele>1007.450000000000045</ele>
        <time>2015-06-26T13:50:48Z</time>
      </trkpt>
      <trkpt lat="47.701940517872572" lon="11.447464060038328">
        <ele>1007.57000000000005</ele>
        <time>2015-06-26T13:50:49Z</time>
      </trkpt>
      <trkpt lat="47.701947893947363" lon="11.447527846321464">
        <ele>1008.200000000000045</ele>
        <time>2015-06-26T13:50:50Z</time>
      </trkpt>
      <trkpt lat="47.701949905604124" lon="11.447593308985233">
        <ele>1008.230000000000018</ele>
        <time>2015-06-26T13:50:51Z</time>
      </trkpt>
      <trkpt lat="47.701949067413807" lon="11.447656592354178">
        <ele>1008.190000000000055</ele>
        <time>2015-06-26T13:50:52Z</time>
      </trkpt>
      <trkpt lat="47.701945379376411" lon="11.447715936228633">
        <ele>1008.580000000000041</ele>
        <time>2015-06-26T13:50:53Z</time>
      </trkpt>
      <trkpt lat="47.701931297779083" lon="11.44777050241828">
        <ele>1008.919999999999959</ele>
        <time>2015-06-26T13:50:54Z</time>
      </trkpt>
      <trkpt lat="47.701910762116313" lon="11.447819285094738">
        <ele>1009.120000000000005</ele>
        <time>2015-06-26T13:50:55Z</time>
      </trkpt>
      <trkpt lat="47.70188913680613" lon="11.447864715009928">
        <ele>1009.190000000000055</ele>
        <time>2015-06-26T13:50:56Z</time>
      </trkpt>
      <trkpt lat="47.701570708304644" lon="11.44842135719955">
        <ele>1011</ele>
        <time>2015-06-26T13:51:09Z</time>
      </trkpt>
      <trkpt lat="47.701358227059245" lon="11.449209926649928">
        <ele>1012.330000000000041</ele>
        <time>2015-06-26T13:51:23Z</time>
      </trkpt>
      <trkpt lat="47.701328722760081" lon="11.449830438941717">
        <ele>1013.840000000000032</ele>
        <time>2015-06-26T13:51:36Z</time>
      </trkpt>
      <trkpt lat="47.701267786324024" lon="11.450104610994458">
        <ele>1014.090000000000032</ele>
        <time>2015-06-26T13:51:44Z</time>
      </trkpt>
      <trkpt lat="47.701149433851242" lon="11.450598305091262">
        <ele>1016.639999999999986</ele>
        <time>2015-06-26T13:51:59Z</time>
      </trkpt>
      <trkpt lat="47.70100224763155" lon="11.451013460755348">
        <ele>1016.950000000000045</ele>
        <time>2015-06-26T13:52:13Z</time>
      </trkpt>
      <trkpt lat="47.700702091678977" lon="11.451278328895569">
        <ele>1018.049999999999955</ele>
        <time>2015-06-26T13:52:27Z</time>
      </trkpt>
      <trkpt lat="47.700427668169141" lon="11.451809490099549">
        <ele>1016.059999999999945</ele>
        <time>2015-06-26T13:52:40Z</time>
      </trkpt>
      <trkpt lat="47.700272016227245" lon="11.452474761754274">
        <ele>1014.92999999999995</ele>
        <time>2015-06-26T13:52:52Z</time>
      </trkpt>
      <trkpt lat="47.700280314311385" lon="11.452991757541895">
        <ele>1014.049999999999955</ele>
        <time>2015-06-26T13:53:00Z</time>
      </trkpt>
      <trkpt lat="47.700296239927411" lon="11.453048586845398">
        <ele>1014.529999999999973</ele>
        <time>2015-06-26T13:53:01Z</time>
      </trkpt>
      <trkpt lat="47.700363546609879" lon="11.4532954338938">
        <ele>1014.769999999999982</ele>
        <time>2015-06-26T13:53:05Z</time>
      </trkpt>
      <trkpt lat="47.700379472225904" lon="11.453352263197303">
        <ele>1014.840000000000032</ele>
        <time>2015-06-26T13:53:06Z</time>
      </trkpt>
      <trkpt lat="47.700391290709376" lon="11.453402973711491">
        <ele>1014.779999999999973</ele>
        <time>2015-06-26T13:53:07Z</time>
      </trkpt>
      <trkpt lat="47.700410652905703" lon="11.454124068841338">
        <ele>1014.700000000000045</ele>
        <time>2015-06-26T13:53:19Z</time>
      </trkpt>
      <trkpt lat="47.700418112799525" lon="11.454192465171218">
        <ele>1014.490000000000009</ele>
        <time>2015-06-26T13:53:20Z</time>
      </trkpt>
      <trkpt lat="47.700430182740092" lon="11.454260526224971">
        <ele>1015</ele>
        <time>2015-06-26T13:53:21Z</time>
      </trkpt>
      <trkpt lat="47.700527831912041" lon="11.454745922237635">
        <ele>1012.610000000000014</ele>
        <time>2015-06-26T13:53:27Z</time>
      </trkpt>
      <trkpt lat="47.700591534376144" lon="11.455046245828271">
        <ele>1011.279999999999973</ele>
        <time>2015-06-26T13:53:30Z</time>
      </trkpt>
      <trkpt lat="47.700735870748758" lon="11.455921567976475">
        <ele>1007.460000000000036</ele>
        <time>2015-06-26T13:53:38Z</time>
      </trkpt>
      <trkpt lat="47.700758501887321" lon="11.456038160249591">
        <ele>1007.17999999999995</ele>
        <time>2015-06-26T13:53:39Z</time>
      </trkpt>
      <trkpt lat="47.700905688107014" lon="11.456584492698312">
        <ele>1006.580000000000041</ele>
        <time>2015-06-26T13:53:44Z</time>
      </trkpt>
      <trkpt lat="47.700951788574457" lon="11.456838045269251">
        <ele>1007.909999999999968</ele>
        <time>2015-06-26T13:53:47Z</time>
      </trkpt>
      <trkpt lat="47.70095145329833" lon="11.45690887235105">
        <ele>1007.080000000000041</ele>
        <time>2015-06-26T13:53:48Z</time>
      </trkpt>
      <trkpt lat="47.700815666466951" lon="11.457932386547327">
        <ele>1006.399999999999977</ele>
        <time>2015-06-26T13:54:02Z</time>
      </trkpt>
      <trkpt lat="47.700770488008857" lon="11.458127265796065">
        <ele>1007.059999999999945</ele>
        <time>2015-06-26T13:54:05Z</time>
      </trkpt>
      <trkpt lat="47.700553564354777" lon="11.458481401205063">
        <ele>1009.080000000000041</ele>
        <time>2015-06-26T13:54:16Z</time>
      </trkpt>
      <trkpt lat="47.700525987893343" lon="11.4585623703897">
        <ele>1008.789999999999964</ele>
        <time>2015-06-26T13:54:24Z</time>
      </trkpt>
      <trkpt lat="47.700520791113377" lon="11.458579888567328">
        <ele>1009.399999999999977</ele>
        <time>2015-06-26T13:54:25Z</time>
      </trkpt>
      <trkpt lat="47.700512241572142" lon="11.458594808354974">
        <ele>1009.360000000000014</ele>
        <time>2015-06-26T13:54:26Z</time>
      </trkpt>
      <trkpt lat="47.700437307357788" lon="11.458754064515233">
        <ele>1010.960000000000036</ele>
        <time>2015-06-26T13:54:36Z</time>
      </trkpt>
      <trkpt lat="47.700282242149115" lon="11.458963695913553">
        <ele>1012.340000000000032</ele>
        <time>2015-06-26T13:54:52Z</time>
      </trkpt>
      <trkpt lat="47.700078980997205" lon="11.459239376708865">
        <ele>1014.190000000000055</ele>
        <time>2015-06-26T13:55:12Z</time>
      </trkpt>
      <trkpt lat="47.699971944093704" lon="11.459463089704514">
        <ele>1016.42999999999995</ele>
        <time>2015-06-26T13:55:26Z</time>
      </trkpt>
      <trkpt lat="47.699928777292371" lon="11.459584962576628">
        <ele>1017.600000000000023</ele>
        <time>2015-06-26T13:55:33Z</time>
      </trkpt>
      <trkpt lat="47.699917880818248" lon="11.459607090801001">
        <ele>1017.620000000000005</ele>
        <time>2015-06-26T13:55:34Z</time>
      </trkpt>
      <trkpt lat="47.699882844462991" lon="11.459687892347574">
        <ele>1018.289999999999964</ele>
        <time>2015-06-26T13:55:39Z</time>
      </trkpt>
      <trkpt lat="47.69987789914012" lon="11.459708344191313">
        <ele>1018.240000000000009</ele>
        <time>2015-06-26T13:55:40Z</time>
      </trkpt>
      <trkpt lat="47.699868846684694" lon="11.459722928702831">
        <ele>1018.340000000000032</ele>
        <time>2015-06-26T13:55:41Z</time>
      </trkpt>
      <trkpt lat="47.699861722066998" lon="11.459735417738557">
        <ele>1018.759999999999991</ele>
        <time>2015-06-26T13:55:42Z</time>
      </trkpt>
      <trkpt lat="47.699846047908068" lon="11.459780763834715">
        <ele>1019.379999999999995</ele>
        <time>2015-06-26T13:55:45Z</time>
      </trkpt>
      <trkpt lat="47.699816208332777" lon="11.459851423278451">
        <ele>1019.460000000000036</ele>
        <time>2015-06-26T13:55:49Z</time>
      </trkpt>
      <trkpt lat="47.699702130630612" lon="11.45997597835958">
        <ele>1021.279999999999973</ele>
        <time>2015-06-26T13:55:59Z</time>
      </trkpt>
      <trkpt lat="47.699626525864005" lon="11.46006440743804">
        <ele>1021.450000000000045</ele>
        <time>2015-06-26T13:56:09Z</time>
      </trkpt>
      <trkpt lat="47.699614372104406" lon="11.460084859281778">
        <ele>1021.919999999999959</ele>
        <time>2015-06-26T13:56:11Z</time>
      </trkpt>
      <trkpt lat="47.699582185596228" lon="11.460112938657403">
        <ele>1022.559999999999945</ele>
        <time>2015-06-26T13:56:14Z</time>
      </trkpt>
      <trkpt lat="47.699381606653333" lon="11.460271188989282">
        <ele>1024.769999999999982</ele>
        <time>2015-06-26T13:56:29Z</time>
      </trkpt>
      <trkpt lat="47.699191253632307" lon="11.460418710485101">
        <ele>1026.829999999999927</ele>
        <time>2015-06-26T13:56:45Z</time>
      </trkpt>
      <trkpt lat="47.699073320254683" lon="11.460422901436687">
        <ele>1027.740000000000009</ele>
        <time>2015-06-26T13:57:03Z</time>
      </trkpt>
      <trkpt lat="47.699042726308107" lon="11.46040010266006">
        <ele>1028.440000000000055</ele>
        <time>2015-06-26T13:57:14Z</time>
      </trkpt>
      <trkpt lat="47.698994698002934" lon="11.460419716313481">
        <ele>1028.670000000000073</ele>
        <time>2015-06-26T13:57:18Z</time>
      </trkpt>
      <trkpt lat="47.69882152788341" lon="11.460413597524166">
        <ele>1029.769999999999982</ele>
        <time>2015-06-26T13:57:34Z</time>
      </trkpt>
      <trkpt lat="47.698812559247017" lon="11.460416950285435">
        <ele>1029.470000000000027</ele>
        <time>2015-06-26T13:57:35Z</time>
      </trkpt>
      <trkpt lat="47.698738379403949" lon="11.460474114865065">
        <ele>1029.309999999999945</ele>
        <time>2015-06-26T13:57:42Z</time>
      </trkpt>
      <trkpt lat="47.698676520958543" lon="11.460505379363894">
        <ele>1029.6400000000001</ele>
        <time>2015-06-26T13:57:45Z</time>
      </trkpt>
      <trkpt lat="47.698650117963552" lon="11.4605120010674">
        <ele>1029.009999999999991</ele>
        <time>2015-06-26T13:57:46Z</time>
      </trkpt>
      <trkpt lat="47.698615500703454" lon="11.460521891713142">
        <ele>1028.819999999999936</ele>
        <time>2015-06-26T13:57:47Z</time>
      </trkpt>
      <trkpt lat="47.698469571769238" lon="11.460583498701453">
        <ele>1026.8900000000001</ele>
        <time>2015-06-26T13:57:51Z</time>
      </trkpt>
      <trkpt lat="47.698414251208305" lon="11.460639070719481">
        <ele>1026.269999999999982</ele>
        <time>2015-06-26T13:57:52Z</time>
      </trkpt>
      <trkpt lat="47.698348201811314" lon="11.460681399330497">
        <ele>1025.579999999999927</ele>
        <time>2015-06-26T13:57:53Z</time>
      </trkpt>
      <trkpt lat="47.697951318696141" lon="11.460881475359201">
        <ele>1021.870000000000005</ele>
        <time>2015-06-26T13:57:58Z</time>
      </trkpt>
      <trkpt lat="47.697776388376951" lon="11.460943249985576">
        <ele>1021.07000000000005</ele>
        <time>2015-06-26T13:58:00Z</time>
      </trkpt>
      <trkpt lat="47.697617970407009" lon="11.461035115644336">
        <ele>1020.389999999999986</ele>
        <time>2015-06-26T13:58:02Z</time>
      </trkpt>
      <trkpt lat="47.697552843019366" lon="11.461100075393915">
        <ele>1020.120000000000005</ele>
        <time>2015-06-26T13:58:03Z</time>
      </trkpt>
      <trkpt lat="47.697505569085479" lon="11.461176183074713">
        <ele>1019.120000000000005</ele>
        <time>2015-06-26T13:58:04Z</time>
      </trkpt>
      <trkpt lat="47.697478327900171" lon="11.461247764527798">
        <ele>1018.759999999999991</ele>
        <time>2015-06-26T13:58:05Z</time>
      </trkpt>
      <trkpt lat="47.69745284691453" lon="11.461305264383554">
        <ele>1019.690000000000055</ele>
        <time>2015-06-26T13:58:06Z</time>
      </trkpt>
      <trkpt lat="47.697411607950926" lon="11.461426634341478">
        <ele>1020.240000000000009</ele>
        <time>2015-06-26T13:58:14Z</time>
      </trkpt>
      <trkpt lat="47.697400543838739" lon="11.461546244099736">
        <ele>1020.710000000000036</ele>
        <time>2015-06-26T13:58:28Z</time>
      </trkpt>
      <trkpt lat="47.697400208562613" lon="11.461574994027615">
        <ele>1020.75</ele>
        <time>2015-06-26T13:58:29Z</time>
      </trkpt>
      <trkpt lat="47.697401801124215" lon="11.461609862744808">
        <ele>1020.330000000000041</ele>
        <time>2015-06-26T13:58:30Z</time>
      </trkpt>
      <trkpt lat="47.697402890771627" lon="11.461652107536793">
        <ele>1020.539999999999964</ele>
        <time>2015-06-26T13:58:31Z</time>
      </trkpt>
      <trkpt lat="47.697400711476803" lon="11.461690329015255">
        <ele>1020.789999999999964</ele>
        <time>2015-06-26T13:58:32Z</time>
      </trkpt>
      <trkpt lat="47.6973956823349" lon="11.461725868284702">
        <ele>1020.940000000000055</ele>
        <time>2015-06-26T13:58:33Z</time>
      </trkpt>
      <trkpt lat="47.697392329573631" lon="11.46176534704864">
        <ele>1020.710000000000036</ele>
        <time>2015-06-26T13:58:34Z</time>
      </trkpt>
      <trkpt lat="47.697388222441077" lon="11.461812201887369">
        <ele>1020.940000000000055</ele>
        <time>2015-06-26T13:58:35Z</time>
      </trkpt>
      <trkpt lat="47.697384115308523" lon="11.461856290698051">
        <ele>1020.590000000000032</ele>
        <time>2015-06-26T13:58:36Z</time>
      </trkpt>
      <trkpt lat="47.697380930185318" lon="11.461901050060987">
        <ele>1021.029999999999973</ele>
        <time>2015-06-26T13:58:37Z</time>
      </trkpt>
      <trkpt lat="47.697373302653432" lon="11.461939439177513">
        <ele>1021.700000000000045</ele>
        <time>2015-06-26T13:58:38Z</time>
      </trkpt>
      <trkpt lat="47.6973663456738" lon="11.461980259045959">
        <ele>1021.120000000000005</ele>
        <time>2015-06-26T13:58:39Z</time>
      </trkpt>
      <trkpt lat="47.697358382865787" lon="11.462016217410564">
        <ele>1021.17999999999995</ele>
        <time>2015-06-26T13:58:40Z</time>
      </trkpt>
      <trkpt lat="47.697348659858108" lon="11.462054355069995">
        <ele>1021.480000000000018</ele>
        <time>2015-06-26T13:58:41Z</time>
      </trkpt>
      <trkpt lat="47.697239108383656" lon="11.462665647268295">
        <ele>1021.649999999999977</ele>
        <time>2015-06-26T13:58:52Z</time>
      </trkpt>
      <trkpt lat="47.697213124483824" lon="11.463092369958758">
        <ele>1023.580000000000041</ele>
        <time>2015-06-26T13:59:02Z</time>
      </trkpt>
      <trkpt lat="47.69724321551621" lon="11.463509788736701">
        <ele>1026.670000000000073</ele>
        <time>2015-06-26T13:59:14Z</time>
      </trkpt>
      <trkpt lat="47.697266517207026" lon="11.463712546974421">
        <ele>1028.539999999999964</ele>
        <time>2015-06-26T13:59:21Z</time>
      </trkpt>
      <trkpt lat="47.697326699271798" lon="11.46411806344986">
        <ele>1030.119999999999891</ele>
        <time>2015-06-26T13:59:36Z</time>
      </trkpt>
      <trkpt lat="47.697325609624386" lon="11.464160140603781">
        <ele>1030.559999999999945</ele>
        <time>2015-06-26T13:59:38Z</time>
      </trkpt>
      <trkpt lat="47.697334159165621" lon="11.464231722056866">
        <ele>1030.529999999999973</ele>
        <time>2015-06-26T13:59:47Z</time>
      </trkpt>
      <trkpt lat="47.69733608700335" lon="11.46426566876471">
        <ele>1030.680000000000064</ele>
        <time>2015-06-26T13:59:49Z</time>
      </trkpt>
      <trkpt lat="47.697336338460445" lon="11.464284108951688">
        <ele>1030.450000000000045</ele>
        <time>2015-06-26T13:59:50Z</time>
      </trkpt>
      <trkpt lat="47.69732921384275" lon="11.464565405622125">
        <ele>1031.1400000000001</ele>
        <time>2015-06-26T14:00:03Z</time>
      </trkpt>
      <trkpt lat="47.697326615452766" lon="11.464588372036815">
        <ele>1031.130000000000109</ele>
        <time>2015-06-26T14:00:04Z</time>
      </trkpt>
      <trkpt lat="47.69732778891921" lon="11.464606309309602">
        <ele>1031.210000000000036</ele>
        <time>2015-06-26T14:00:05Z</time>
      </trkpt>
      <trkpt lat="47.697464246302843" lon="11.464926581829786">
        <ele>1034.039999999999964</ele>
        <time>2015-06-26T14:00:24Z</time>
      </trkpt>
      <trkpt lat="47.697583101689816" lon="11.465195473283529">
        <ele>1037.069999999999936</ele>
        <time>2015-06-26T14:00:40Z</time>
      </trkpt>
      <trkpt lat="47.697684438899159" lon="11.46547551266849">
        <ele>1038.990000000000009</ele>
        <time>2015-06-26T14:00:57Z</time>
      </trkpt>
      <trkpt lat="47.697764234617352" lon="11.465768124908209">
        <ele>1040.470000000000027</ele>
        <time>2015-06-26T14:01:13Z</time>
      </trkpt>
      <trkpt lat="47.697914438322186" lon="11.465908521786332">
        <ele>1042.789999999999964</ele>
        <time>2015-06-26T14:01:30Z</time>
      </trkpt>
      <trkpt lat="47.698091464117169" lon="11.465977253392339">
        <ele>1045.809999999999945</ele>
        <time>2015-06-26T14:01:46Z</time>
      </trkpt>
      <trkpt lat="47.698224233463407" lon="11.46608822979033">
        <ele>1047.400000000000091</ele>
        <time>2015-06-26T14:01:59Z</time>
      </trkpt>
      <trkpt lat="47.698237225413322" lon="11.466098371893167">
        <ele>1047.809999999999945</ele>
        <time>2015-06-26T14:02:00Z</time>
      </trkpt>
      <trkpt lat="47.698249462991953" lon="11.466110106557608">
        <ele>1047.75</ele>
        <time>2015-06-26T14:02:01Z</time>
      </trkpt>
      <trkpt lat="47.698263041675091" lon="11.466121003031731">
        <ele>1047.670000000000073</ele>
        <time>2015-06-26T14:02:02Z</time>
      </trkpt>
      <trkpt lat="47.698275027796626" lon="11.466130977496505">
        <ele>1048.279999999999973</ele>
        <time>2015-06-26T14:02:03Z</time>
      </trkpt>
      <trkpt lat="47.698295898735523" lon="11.466165594756603">
        <ele>1048.710000000000036</ele>
        <time>2015-06-26T14:02:06Z</time>
      </trkpt>
      <trkpt lat="47.698304196819663" lon="11.466179005801678">
        <ele>1048.769999999999982</ele>
        <time>2015-06-26T14:02:07Z</time>
      </trkpt>
      <trkpt lat="47.698311321437359" lon="11.466194512322545">
        <ele>1048.579999999999927</ele>
        <time>2015-06-26T14:02:08Z</time>
      </trkpt>
      <trkpt lat="47.698321463540196" lon="11.466207252815366">
        <ele>1048.410000000000082</ele>
        <time>2015-06-26T14:02:09Z</time>
      </trkpt>
      <trkpt lat="47.69833093509078" lon="11.466220747679472">
        <ele>1048.289999999999964</ele>
        <time>2015-06-26T14:02:10Z</time>
      </trkpt>
      <trkpt lat="47.698340322822332" lon="11.466235080733895">
        <ele>1048.789999999999964</ele>
        <time>2015-06-26T14:02:11Z</time>
      </trkpt>
      <trkpt lat="47.69843939691782" lon="11.466509001329541">
        <ele>1050.150000000000091</ele>
        <time>2015-06-26T14:02:27Z</time>
      </trkpt>
      <trkpt lat="47.698446521535516" lon="11.466536913067102">
        <ele>1050.400000000000091</ele>
        <time>2015-06-26T14:02:31Z</time>
      </trkpt>
      <trkpt lat="47.698450293391943" lon="11.466554682701826">
        <ele>1050.589999999999918</ele>
        <time>2015-06-26T14:02:32Z</time>
      </trkpt>
      <trkpt lat="47.698456915095448" lon="11.466572619974613">
        <ele>1050.599999999999909</ele>
        <time>2015-06-26T14:02:33Z</time>
      </trkpt>
      <trkpt lat="47.698463201522827" lon="11.466590808704495">
        <ele>1050.549999999999955</ele>
        <time>2015-06-26T14:02:34Z</time>
      </trkpt>
      <trkpt lat="47.698469571769238" lon="11.466609081253409">
        <ele>1050.240000000000009</ele>
        <time>2015-06-26T14:02:35Z</time>
      </trkpt>
      <trkpt lat="47.698477450758219" lon="11.466625342145562">
        <ele>1050.289999999999964</ele>
        <time>2015-06-26T14:02:36Z</time>
      </trkpt>
      <trkpt lat="47.698481976985931" lon="11.466642692685127">
        <ele>1050.769999999999982</ele>
        <time>2015-06-26T14:02:37Z</time>
      </trkpt>
      <trkpt lat="47.698483821004629" lon="11.466661803424358">
        <ele>1050.299999999999955</ele>
        <time>2015-06-26T14:02:38Z</time>
      </trkpt>
      <trkpt lat="47.698489269241691" lon="11.466678148135543">
        <ele>1051.319999999999936</ele>
        <time>2015-06-26T14:02:39Z</time>
      </trkpt>
      <trkpt lat="47.698495136573911" lon="11.466695247218013">
        <ele>1050.730000000000018</ele>
        <time>2015-06-26T14:02:40Z</time>
      </trkpt>
      <trkpt lat="47.698499327525496" lon="11.466715279966593">
        <ele>1051.119999999999891</ele>
        <time>2015-06-26T14:02:41Z</time>
      </trkpt>
      <trkpt lat="47.698504691943526" lon="11.466733049601316">
        <ele>1050.869999999999891</ele>
        <time>2015-06-26T14:02:42Z</time>
      </trkpt>
      <trkpt lat="47.698540147393942" lon="11.466917200013995">
        <ele>1052.1400000000001</ele>
        <time>2015-06-26T14:02:57Z</time>
      </trkpt>
      <trkpt lat="47.698556156829" lon="11.466929940506816">
        <ele>1052.769999999999982</ele>
        <time>2015-06-26T14:03:00Z</time>
      </trkpt>
      <trkpt lat="47.698566466569901" lon="11.466945698484778">
        <ele>1052.380000000000109</ele>
        <time>2015-06-26T14:03:01Z</time>
      </trkpt>
      <trkpt lat="47.698577614501119" lon="11.466967826709151">
        <ele>1052.490000000000009</ele>
        <time>2015-06-26T14:03:02Z</time>
      </trkpt>
      <trkpt lat="47.698650453239679" lon="11.467290027067065">
        <ele>1053.420000000000073</ele>
        <time>2015-06-26T14:03:14Z</time>
      </trkpt>
      <trkpt lat="47.698693536221981" lon="11.467781458050013">
        <ele>1053.769999999999982</ele>
        <time>2015-06-26T14:03:26Z</time>
      </trkpt>
      <trkpt lat="47.698726058006287" lon="11.468041464686394">
        <ele>1053.720000000000027</ele>
        <time>2015-06-26T14:03:31Z</time>
      </trkpt>
      <trkpt lat="47.698859414085746" lon="11.46845025010407">
        <ele>1051.720000000000027</ele>
        <time>2015-06-26T14:03:37Z</time>
      </trkpt>
      <trkpt lat="47.698893696069717" lon="11.468526357784867">
        <ele>1051.25</ele>
        <time>2015-06-26T14:03:38Z</time>
      </trkpt>
      <trkpt lat="47.698927978053689" lon="11.468609422445297">
        <ele>1051</ele>
        <time>2015-06-26T14:03:39Z</time>
      </trkpt>
      <trkpt lat="47.698997966945171" lon="11.468790303915739">
        <ele>1049.819999999999936</ele>
        <time>2015-06-26T14:03:41Z</time>
      </trkpt>
      <trkpt lat="47.69912444986403" lon="11.469087358564138">
        <ele>1048.240000000000009</ele>
        <time>2015-06-26T14:03:44Z</time>
      </trkpt>
      <trkpt lat="47.699166610836983" lon="11.469197077676654">
        <ele>1047.589999999999918</ele>
        <time>2015-06-26T14:03:45Z</time>
      </trkpt>
      <trkpt lat="47.699365513399243" lon="11.469655986875296">
        <ele>1043.829999999999927</ele>
        <time>2015-06-26T14:03:49Z</time>
      </trkpt>
      <trkpt lat="47.699413625523448" lon="11.469779536128044">
        <ele>1042.990000000000009</ele>
        <time>2015-06-26T14:03:50Z</time>
      </trkpt>
      <trkpt lat="47.699464671313763" lon="11.469897720962763">
        <ele>1042.079999999999927</ele>
        <time>2015-06-26T14:03:51Z</time>
      </trkpt>
      <trkpt lat="47.699657874181867" lon="11.47038571536541">
        <ele>1040.059999999999945</ele>
        <time>2015-06-26T14:03:55Z</time>
      </trkpt>
      <trkpt lat="47.69968880340457" lon="11.470517814159393">
        <ele>1038.730000000000018</ele>
        <time>2015-06-26T14:03:56Z</time>
      </trkpt>
      <trkpt lat="47.699782429262996" lon="11.47096180357039">
        <ele>1035.740000000000009</ele>
        <time>2015-06-26T14:04:00Z</time>
      </trkpt>
      <trkpt lat="47.699799695983529" lon="11.471074623987079">
        <ele>1035.1099999999999</ele>
        <time>2015-06-26T14:04:01Z</time>
      </trkpt>
      <trkpt lat="47.699823500588536" lon="11.471192222088575">
        <ele>1034.700000000000045</ele>
        <time>2015-06-26T14:04:02Z</time>
      </trkpt>
      <trkpt lat="47.699844958260655" lon="11.471313927322626">
        <ele>1033.769999999999982</ele>
        <time>2015-06-26T14:04:03Z</time>
      </trkpt>
      <trkpt lat="47.699864823371172" lon="11.471434291452169">
        <ele>1033.119999999999891</ele>
        <time>2015-06-26T14:04:04Z</time>
      </trkpt>
      <trkpt lat="47.699940176680684" lon="11.47198791615665">
        <ele>1030.059999999999945</ele>
        <time>2015-06-26T14:04:08Z</time>
      </trkpt>
      <trkpt lat="47.700006477534771" lon="11.472411789000034">
        <ele>1026.519999999999982</ele>
        <time>2015-06-26T14:04:11Z</time>
      </trkpt>
      <trkpt lat="47.700024247169495" lon="11.472534416243434">
        <ele>1026.730000000000018</ele>
        <time>2015-06-26T14:04:12Z</time>
      </trkpt>
      <trkpt lat="47.700085183605552" lon="11.473000785335898">
        <ele>1023.690000000000055</ele>
        <time>2015-06-26T14:04:19Z</time>
      </trkpt>
      <trkpt lat="47.700110161677003" lon="11.473082592710853">
        <ele>1023.409999999999968</ele>
        <time>2015-06-26T14:04:41Z</time>
      </trkpt>
      <trkpt lat="47.700116196647286" lon="11.473102457821369">
        <ele>1023.67999999999995</ele>
        <time>2015-06-26T14:04:42Z</time>
      </trkpt>
      <trkpt lat="47.700124075636268" lon="11.473128944635391">
        <ele>1023.639999999999986</ele>
        <time>2015-06-26T14:04:43Z</time>
      </trkpt>
      <trkpt lat="47.700133798643947" lon="11.473162723705173">
        <ele>1023.590000000000032</ele>
        <time>2015-06-26T14:04:44Z</time>
      </trkpt>
      <trkpt lat="47.700142683461308" lon="11.473205639049411">
        <ele>1023.700000000000045</ele>
        <time>2015-06-26T14:04:45Z</time>
      </trkpt>
      <trkpt lat="47.700149221345782" lon="11.47325936704874">
        <ele>1024.079999999999927</ele>
        <time>2015-06-26T14:04:46Z</time>
      </trkpt>
      <trkpt lat="47.700153160840273" lon="11.473316699266434">
        <ele>1023.75</ele>
        <time>2015-06-26T14:04:47Z</time>
      </trkpt>
      <trkpt lat="47.700154669582844" lon="11.473381156101823">
        <ele>1023.460000000000036</ele>
        <time>2015-06-26T14:04:48Z</time>
      </trkpt>
      <trkpt lat="47.700121980160475" lon="11.474114824086428">
        <ele>1020.220000000000027</ele>
        <time>2015-06-26T14:04:57Z</time>
      </trkpt>
      <trkpt lat="47.700060792267323" lon="11.474765259772539">
        <ele>1016.889999999999986</ele>
        <time>2015-06-26T14:05:03Z</time>
      </trkpt>
      <trkpt lat="47.700026677921414" lon="11.475109504535794">
        <ele>1014.960000000000036</ele>
        <time>2015-06-26T14:05:06Z</time>
      </trkpt>
      <trkpt lat="47.699980409815907" lon="11.47541812621057">
        <ele>1011.279999999999973</ele>
        <time>2015-06-26T14:05:09Z</time>
      </trkpt>
      <trkpt lat="47.699960041791201" lon="11.475502029061317">
        <ele>1010.740000000000009</ele>
        <time>2015-06-26T14:05:10Z</time>
      </trkpt>
      <trkpt lat="47.69993606954813" lon="11.475572353228927">
        <ele>1009.549999999999955</ele>
        <time>2015-06-26T14:05:11Z</time>
      </trkpt>
      <trkpt lat="47.699912935495377" lon="11.475622728466988">
        <ele>1008.909999999999968</ele>
        <time>2015-06-26T14:05:12Z</time>
      </trkpt>
      <trkpt lat="47.699890388175845" lon="11.475656507536769">
        <ele>1008.649999999999977</ele>
        <time>2015-06-26T14:05:13Z</time>
      </trkpt>
      <trkpt lat="47.699875887483358" lon="11.475682575255632">
        <ele>1008.090000000000032</ele>
        <time>2015-06-26T14:05:14Z</time>
      </trkpt>
      <trkpt lat="47.699857447296381" lon="11.475751725956798">
        <ele>1009.090000000000032</ele>
        <time>2015-06-26T14:05:26Z</time>
      </trkpt>
      <trkpt lat="47.699839174747467" lon="11.475757509469986">
        <ele>1008.590000000000032</ele>
        <time>2015-06-26T14:05:33Z</time>
      </trkpt>
      <trkpt lat="47.699773460626602" lon="11.47578458301723">
        <ele>1008.090000000000032</ele>
        <time>2015-06-26T14:05:36Z</time>
      </trkpt>
      <trkpt lat="47.699709674343467" lon="11.475828588008881">
        <ele>1007.92999999999995</ele>
        <time>2015-06-26T14:05:38Z</time>
      </trkpt>
      <trkpt lat="47.699669525027275" lon="11.475869072601199">
        <ele>1007.129999999999995</ele>
        <time>2015-06-26T14:05:39Z</time>
      </trkpt>
      <trkpt lat="47.699625184759498" lon="11.475918777287006">
        <ele>1006.840000000000032</ele>
        <time>2015-06-26T14:05:40Z</time>
      </trkpt>
      <trkpt lat="47.69957740791142" lon="11.475985161960125">
        <ele>1005.960000000000036</ele>
        <time>2015-06-26T14:05:41Z</time>
      </trkpt>
      <trkpt lat="47.699271468445659" lon="11.476414147764444">
        <ele>1002.470000000000027</ele>
        <time>2015-06-26T14:05:47Z</time>
      </trkpt>
      <trkpt lat="47.69903945736587" lon="11.476717740297318">
        <ele>1001.809999999999945</ele>
        <time>2015-06-26T14:05:51Z</time>
      </trkpt>
      <trkpt lat="47.698761261999607" lon="11.477000629529357">
        <ele>999.269999999999982</ele>
        <time>2015-06-26T14:05:55Z</time>
      </trkpt>
      <trkpt lat="47.698624134063721" lon="11.477152928709984">
        <ele>998.009999999999991</ele>
        <time>2015-06-26T14:05:57Z</time>
      </trkpt>
      <trkpt lat="47.69837292842567" lon="11.477432884275913">
        <ele>996.580000000000041</ele>
        <time>2015-06-26T14:06:01Z</time>
      </trkpt>
      <trkpt lat="47.697803378105164" lon="11.478202342987061">
        <ele>992.090000000000032</ele>
        <time>2015-06-26T14:06:11Z</time>
      </trkpt>
      <trkpt lat="47.697750572115183" lon="11.478298651054502">
        <ele>992.230000000000018</ele>
        <time>2015-06-26T14:06:12Z</time>
      </trkpt>
      <trkpt lat="47.697645463049412" lon="11.478492692112923">
        <ele>990.059999999999945</ele>
        <time>2015-06-26T14:06:14Z</time>
      </trkpt>
      <trkpt lat="47.697504311800003" lon="11.47895579226315">
        <ele>988.460000000000036</ele>
        <time>2015-06-26T14:06:19Z</time>
      </trkpt>
      <trkpt lat="47.697438597679138" lon="11.479536322876811">
        <ele>986.059999999999945</ele>
        <time>2015-06-26T14:06:27Z</time>
      </trkpt>
      <trkpt lat="47.697369530797005" lon="11.479760957881808">
        <ele>985.190000000000055</ele>
        <time>2015-06-26T14:06:31Z</time>
      </trkpt>
      <trkpt lat="47.697200048714876" lon="11.479994058609009">
        <ele>982.950000000000045</ele>
        <time>2015-06-26T14:06:36Z</time>
      </trkpt>
      <trkpt lat="47.697050767019391" lon="11.480107381939888">
        <ele>982.100000000000023</ele>
        <time>2015-06-26T14:06:43Z</time>
      </trkpt>
      <trkpt lat="47.696987148374319" lon="11.480186926200986">
        <ele>981.370000000000005</ele>
        <time>2015-06-26T14:07:08Z</time>
      </trkpt>
      <trkpt lat="47.696952782571316" lon="11.480196230113506">
        <ele>981.720000000000027</ele>
        <time>2015-06-26T14:07:10Z</time>
      </trkpt>
      <trkpt lat="47.696806434541941" lon="11.480226069688797">
        <ele>980.769999999999982</ele>
        <time>2015-06-26T14:07:15Z</time>
      </trkpt>
      <trkpt lat="47.696545757353306" lon="11.480107633396983">
        <ele>982.779999999999973</ele>
        <time>2015-06-26T14:07:23Z</time>
      </trkpt>
      <trkpt lat="47.696470990777016" lon="11.480190446600318">
        <ele>983.919999999999959</ele>
        <time>2015-06-26T14:07:29Z</time>
      </trkpt>
      <trkpt lat="47.696436205878854" lon="11.480353893712163">
        <ele>986.379999999999995</ele>
        <time>2015-06-26T14:07:36Z</time>
      </trkpt>
      <trkpt lat="47.696387255564332" lon="11.48044953122735">
        <ele>988.330000000000041</ele>
        <time>2015-06-26T14:07:41Z</time>
      </trkpt>
      <trkpt lat="47.696319865062833" lon="11.480719931423664">
        <ele>990.009999999999991</ele>
        <time>2015-06-26T14:07:57Z</time>
      </trkpt>
      <trkpt lat="47.696293964982033" lon="11.480905758216977">
        <ele>992.159999999999968</ele>
        <time>2015-06-26T14:08:08Z</time>
      </trkpt>
      <trkpt lat="47.696263371035457" lon="11.481062415987253">
        <ele>994.649999999999977</ele>
        <time>2015-06-26T14:08:23Z</time>
      </trkpt>
      <trkpt lat="47.696250127628446" lon="11.481103235855699">
        <ele>994.82000000000005</ele>
        <time>2015-06-26T14:08:26Z</time>
      </trkpt>
      <trkpt lat="47.696236884221435" lon="11.481139278039336">
        <ele>994.629999999999995</ele>
        <time>2015-06-26T14:09:13Z</time>
      </trkpt>
      <trkpt lat="47.696221210062504" lon="11.481198705732822">
        <ele>995.029999999999973</ele>
        <time>2015-06-26T14:09:33Z</time>
      </trkpt>
      <trkpt lat="47.69620394334197" lon="11.481218989938498">
        <ele>995.07000000000005</ele>
        <time>2015-06-26T14:09:55Z</time>
      </trkpt>
      <trkpt lat="47.696215258911252" lon="11.481280010193586">
        <ele>994.970000000000027</ele>
        <time>2015-06-26T14:09:58Z</time>
      </trkpt>
      <trkpt lat="47.696215426549315" lon="11.481707990169525">
        <ele>996.169999999999959</ele>
        <time>2015-06-26T14:10:10Z</time>
      </trkpt>
      <trkpt lat="47.69597327336669" lon="11.482480969280005">
        <ele>996.399999999999977</ele>
        <time>2015-06-26T14:10:25Z</time>
      </trkpt>
      <trkpt lat="47.695881491526961" lon="11.482940129935741">
        <ele>994.700000000000045</ele>
        <time>2015-06-26T14:10:31Z</time>
      </trkpt>
      <trkpt lat="47.695863973349333" lon="11.483314549550414">
        <ele>991.340000000000032</ele>
        <time>2015-06-26T14:10:35Z</time>
      </trkpt>
      <trkpt lat="47.69585307687521" lon="11.483566677197814">
        <ele>989.990000000000009</ele>
        <time>2015-06-26T14:10:37Z</time>
      </trkpt>
      <trkpt lat="47.695834888145328" lon="11.483689974993467">
        <ele>990.110000000000014</ele>
        <time>2015-06-26T14:10:38Z</time>
      </trkpt>
      <trkpt lat="47.695808652788401" lon="11.483804555609822">
        <ele>989.879999999999995</ele>
        <time>2015-06-26T14:10:39Z</time>
      </trkpt>
      <trkpt lat="47.695775208994746" lon="11.483906731009483">
        <ele>989.279999999999973</ele>
        <time>2015-06-26T14:10:40Z</time>
      </trkpt>
      <trkpt lat="47.695738580077887" lon="11.484011588618159">
        <ele>989.080000000000041</ele>
        <time>2015-06-26T14:10:41Z</time>
      </trkpt>
      <trkpt lat="47.695699101313949" lon="11.484108399599791">
        <ele>989.059999999999945</ele>
        <time>2015-06-26T14:10:42Z</time>
      </trkpt>
      <trkpt lat="47.69518562592566" lon="11.48506754077971">
        <ele>987.57000000000005</ele>
        <time>2015-06-26T14:10:55Z</time>
      </trkpt>
      <trkpt lat="47.695142878219485" lon="11.485112719237804">
        <ele>987.210000000000036</ele>
        <time>2015-06-26T14:10:56Z</time>
      </trkpt>
      <trkpt lat="47.695097532123327" lon="11.485152281820774">
        <ele>987.480000000000018</ele>
        <time>2015-06-26T14:10:57Z</time>
      </trkpt>
      <trkpt lat="47.694636443629861" lon="11.485407343134284">
        <ele>987.649999999999977</ele>
        <time>2015-06-26T14:11:07Z</time>
      </trkpt>
      <trkpt lat="47.69413118250668" lon="11.485656118020415">
        <ele>988.509999999999991</ele>
        <time>2015-06-26T14:11:20Z</time>
      </trkpt>
      <trkpt lat="47.69400947727263" lon="11.485633738338947">
        <ele>988.350000000000023</ele>
        <time>2015-06-26T14:11:23Z</time>
      </trkpt>
      <trkpt lat="47.693785429000854" lon="11.485583279281855">
        <ele>988.100000000000023</ele>
        <time>2015-06-26T14:11:28Z</time>
      </trkpt>
      <trkpt lat="47.693736646324396" lon="11.485581183806062">
        <ele>988.32000000000005</ele>
        <time>2015-06-26T14:11:29Z</time>
      </trkpt>
      <trkpt lat="47.693340769037604" lon="11.485667517408729">
        <ele>990.590000000000032</ele>
        <time>2015-06-26T14:11:40Z</time>
      </trkpt>
      <trkpt lat="47.692778427153826" lon="11.485682101920247">
        <ele>991.899999999999977</ele>
        <time>2015-06-26T14:11:56Z</time>
      </trkpt>
      <trkpt lat="47.692757472395897" lon="11.48568956181407">
        <ele>991.649999999999977</ele>
        <time>2015-06-26T14:12:00Z</time>
      </trkpt>
      <trkpt lat="47.692660661414266" lon="11.485671792179346">
        <ele>992.340000000000032</ele>
        <time>2015-06-26T14:12:15Z</time>
      </trkpt>
      <trkpt lat="47.692624786868691" lon="11.485661901533604">
        <ele>993.100000000000023</ele>
        <time>2015-06-26T14:12:34Z</time>
      </trkpt>
      <trkpt lat="47.692603245377541" lon="11.485664835199714">
        <ele>993.080000000000041</ele>
        <time>2015-06-26T14:12:58Z</time>
      </trkpt>
      <trkpt lat="47.692593187093735" lon="11.485661482438445">
        <ele>993.480000000000018</ele>
        <time>2015-06-26T14:12:59Z</time>
      </trkpt>
      <trkpt lat="47.692582877352834" lon="11.48565880022943">
        <ele>993.389999999999986</ele>
        <time>2015-06-26T14:13:00Z</time>
      </trkpt>
      <trkpt lat="47.692389003932476" lon="11.485629798844457">
        <ele>994.850000000000023</ele>
        <time>2015-06-26T14:13:22Z</time>
      </trkpt>
      <trkpt lat="47.692365366965532" lon="11.485634492710233">
        <ele>994.75</ele>
        <time>2015-06-26T14:13:41Z</time>
      </trkpt>
      <trkpt lat="47.692314991727471" lon="11.48563826456666">
        <ele>994.809999999999945</ele>
        <time>2015-06-26T14:13:44Z</time>
      </trkpt>
      <trkpt lat="47.691780561581254" lon="11.485745972022414">
        <ele>995.950000000000045</ele>
        <time>2015-06-26T14:14:01Z</time>
      </trkpt>
      <trkpt lat="47.691183015704155" lon="11.485998686403036">
        <ele>995.879999999999995</ele>
        <time>2015-06-26T14:14:16Z</time>
      </trkpt>
      <trkpt lat="47.690699296072125" lon="11.486621629446745">
        <ele>995.42999999999995</ele>
        <time>2015-06-26T14:14:29Z</time>
      </trkpt>
      <trkpt lat="47.690510787069798" lon="11.486883396282792">
        <ele>996.549999999999955</ele>
        <time>2015-06-26T14:14:35Z</time>
      </trkpt>
      <trkpt lat="47.689994629472494" lon="11.487387148663402">
        <ele>997.960000000000036</ele>
        <time>2015-06-26T14:14:51Z</time>
      </trkpt>
      <trkpt lat="47.689399095252156" lon="11.487890062853694">
        <ele>998.090000000000032</ele>
        <time>2015-06-26T14:15:08Z</time>
      </trkpt>
      <trkpt lat="47.68931427039206" lon="11.487941360101104">
        <ele>998.480000000000018</ele>
        <time>2015-06-26T14:15:10Z</time>
      </trkpt>
      <trkpt lat="47.688674479722977" lon="11.488394318148494">
        <ele>995.450000000000045</ele>
        <time>2015-06-26T14:15:23Z</time>
      </trkpt>
      <trkpt lat="47.688278015702963" lon="11.488797906786203">
        <ele>995.129999999999995</ele>
        <time>2015-06-26T14:15:32Z</time>
      </trkpt>
      <trkpt lat="47.688136864453554" lon="11.489023715257645">
        <ele>995.440000000000055</ele>
        <time>2015-06-26T14:15:36Z</time>
      </trkpt>
      <trkpt lat="47.687974506989121" lon="11.489365780726075">
        <ele>995.360000000000014</ele>
        <time>2015-06-26T14:15:42Z</time>
      </trkpt>
      <trkpt lat="47.687949109822512" lon="11.489422610029578">
        <ele>995.539999999999964</ele>
        <time>2015-06-26T14:15:43Z</time>
      </trkpt>
      <trkpt lat="47.68792262300849" lon="11.489480948075652">
        <ele>995.129999999999995</ele>
        <time>2015-06-26T14:15:44Z</time>
      </trkpt>
      <trkpt lat="47.687897561118007" lon="11.489541884511709">
        <ele>995.529999999999973</ele>
        <time>2015-06-26T14:15:45Z</time>
      </trkpt>
      <trkpt lat="47.687874175608158" lon="11.489606173709035">
        <ele>995.17999999999995</ele>
        <time>2015-06-26T14:15:46Z</time>
      </trkpt>
      <trkpt lat="47.687836540862918" lon="11.489738943055272">
        <ele>994.870000000000005</ele>
        <time>2015-06-26T14:15:48Z</time>
      </trkpt>
      <trkpt lat="47.687811562791467" lon="11.48988495580852">
        <ele>994.769999999999982</ele>
        <time>2015-06-26T14:15:50Z</time>
      </trkpt>
      <trkpt lat="47.687806701287627" lon="11.489959973841906">
        <ele>994.799999999999955</ele>
        <time>2015-06-26T14:15:51Z</time>
      </trkpt>
      <trkpt lat="47.68780586309731" lon="11.490034405142069">
        <ele>994.67999999999995</ele>
        <time>2015-06-26T14:15:52Z</time>
      </trkpt>
      <trkpt lat="47.687824219465256" lon="11.490344954654574">
        <ele>994.230000000000018</ele>
        <time>2015-06-26T14:16:01Z</time>
      </trkpt>
      <trkpt lat="47.687856908887625" lon="11.490399688482285">
        <ele>993.960000000000036</ele>
        <time>2015-06-26T14:16:19Z</time>
      </trkpt>
      <trkpt lat="47.687841653823853" lon="11.490396419540048">
        <ele>993.769999999999982</ele>
        <time>2015-06-26T14:16:34Z</time>
      </trkpt>
      <trkpt lat="47.687841150909662" lon="11.490403795614839">
        <ele>993.519999999999982</ele>
        <time>2015-06-26T14:16:54Z</time>
      </trkpt>
      <trkpt lat="47.687837462872267" lon="11.490436149761081">
        <ele>994.100000000000023</ele>
        <time>2015-06-26T14:17:13Z</time>
      </trkpt>
      <trkpt lat="47.687818603590131" lon="11.490423241630197">
        <ele>994.100000000000023</ele>
        <time>2015-06-26T14:17:41Z</time>
      </trkpt>
      <trkpt lat="47.687779376283288" lon="11.490452997386456">
        <ele>994.409999999999968</ele>
        <time>2015-06-26T14:18:00Z</time>
      </trkpt>
      <trkpt lat="47.687801755964756" lon="11.49045274592936">
        <ele>993.669999999999959</ele>
        <time>2015-06-26T14:18:11Z</time>
      </trkpt>
      <trkpt lat="47.687828997150064" lon="11.490436317399144">
        <ele>989.75</ele>
        <time>2015-06-26T14:18:17Z</time>
      </trkpt>
      <trkpt lat="47.687830422073603" lon="11.490437407046556">
        <ele>994.529999999999973</ele>
        <time>2015-06-26T14:18:20Z</time>
      </trkpt>
      <trkpt lat="47.687831511721015" lon="11.490437407046556">
        <ele>991.340000000000032</ele>
        <time>2015-06-26T14:18:23Z</time>
      </trkpt>
      <trkpt lat="47.687844503670931" lon="11.490430952981114">
        <ele>992.580000000000041</ele>
        <time>2015-06-26T14:18:58Z</time>
      </trkpt>
      <trkpt lat="47.687852382659912" lon="11.490405639633536">
        <ele>992.919999999999959</ele>
        <time>2015-06-26T14:19:39Z</time>
      </trkpt>
      <trkpt lat="47.687838049605489" lon="11.49041117168963">
        <ele>992.559999999999945</ele>
        <time>2015-06-26T14:20:32Z</time>
      </trkpt>
      <trkpt lat="47.687840145081282" lon="11.490403125062585">
        <ele>992.990000000000009</ele>
        <time>2015-06-26T14:21:23Z</time>
      </trkpt>
      <trkpt lat="47.687850957736373" lon="11.490406729280949">
        <ele>992.159999999999968</ele>
        <time>2015-06-26T14:22:09Z</time>
      </trkpt>
      <trkpt lat="47.687822291627526" lon="11.490416117012501">
        <ele>993.870000000000005</ele>
        <time>2015-06-26T14:22:42Z</time>
      </trkpt>
      <trkpt lat="47.687817849218845" lon="11.490428941324353">
        <ele>993.649999999999977</ele>
        <time>2015-06-26T14:23:04Z</time>
      </trkpt>
      <trkpt lat="47.687796894460917" lon="11.490389378741384">
        <ele>993.649999999999977</ele>
        <time>2015-06-26T14:23:10Z</time>
      </trkpt>
      <trkpt lat="47.687746519222856" lon="11.490337997674942">
        <ele>994.32000000000005</ele>
        <time>2015-06-26T14:23:13Z</time>
      </trkpt>
      <trkpt lat="47.687726486474276" lon="11.490316372364759">
        <ele>994.129999999999995</ele>
        <time>2015-06-26T14:23:14Z</time>
      </trkpt>
      <trkpt lat="47.687706621363759" lon="11.490288879722357">
        <ele>994.330000000000041</ele>
        <time>2015-06-26T14:23:15Z</time>
      </trkpt>
      <trkpt lat="47.687686923891306" lon="11.490258285775781">
        <ele>993.610000000000014</ele>
        <time>2015-06-26T14:23:16Z</time>
      </trkpt>
      <trkpt lat="47.687666723504663" lon="11.490227356553078">
        <ele>994.330000000000041</ele>
        <time>2015-06-26T14:23:17Z</time>
      </trkpt>
      <trkpt lat="47.687377296388149" lon="11.489819828420877">
        <ele>996.32000000000005</ele>
        <time>2015-06-26T14:23:32Z</time>
      </trkpt>
      <trkpt lat="47.687001619488001" lon="11.489329319447279">
        <ele>998.169999999999959</ele>
        <time>2015-06-26T14:23:50Z</time>
      </trkpt>
      <trkpt lat="47.686581686139107" lon="11.488696821033955">
        <ele>1000.779999999999973</ele>
        <time>2015-06-26T14:24:11Z</time>
      </trkpt>
      <trkpt lat="47.686327630653977" lon="11.488253502175212">
        <ele>1003.350000000000023</ele>
        <time>2015-06-26T14:24:27Z</time>
      </trkpt>
      <trkpt lat="47.686075922101736" lon="11.487800544127822">
        <ele>1006.029999999999973</ele>
        <time>2015-06-26T14:24:44Z</time>
      </trkpt>
      <trkpt lat="47.685986571013927" lon="11.487655621021986">
        <ele>1006.549999999999955</ele>
        <time>2015-06-26T14:24:57Z</time>
      </trkpt>
      <trkpt lat="47.685974752530456" lon="11.487636426463723">
        <ele>1006.860000000000014</ele>
        <time>2015-06-26T14:24:59Z</time>
      </trkpt>
      <trkpt lat="47.685958994552493" lon="11.487610274925828">
        <ele>1007.470000000000027</ele>
        <time>2015-06-26T14:25:01Z</time>
      </trkpt>
      <trkpt lat="47.685755481943488" lon="11.487234681844711">
        <ele>1010.779999999999973</ele>
        <time>2015-06-26T14:25:27Z</time>
      </trkpt>
      <trkpt lat="47.685543335974216" lon="11.486790860071778">
        <ele>1012.590000000000032</ele>
        <time>2015-06-26T14:25:54Z</time>
      </trkpt>
      <trkpt lat="47.685347367078066" lon="11.486498080193996">
        <ele>1015.82000000000005</ele>
        <time>2015-06-26T14:26:15Z</time>
      </trkpt>
      <trkpt lat="47.685306463390589" lon="11.486404370516539">
        <ele>1016.220000000000027</ele>
        <time>2015-06-26T14:26:20Z</time>
      </trkpt>
      <trkpt lat="47.685299338772893" lon="11.48638584651053">
        <ele>1016.100000000000023</ele>
        <time>2015-06-26T14:26:21Z</time>
      </trkpt>
      <trkpt lat="47.685290705412626" lon="11.486368915066123">
        <ele>1016.110000000000014</ele>
        <time>2015-06-26T14:26:22Z</time>
      </trkpt>
      <trkpt lat="47.685128012672067" lon="11.486087618395686">
        <ele>1018.830000000000041</ele>
        <time>2015-06-26T14:26:41Z</time>
      </trkpt>
      <trkpt lat="47.685014856979251" lon="11.48590799421072">
        <ele>1020.529999999999973</ele>
        <time>2015-06-26T14:26:55Z</time>
      </trkpt>
      <trkpt lat="47.684915363788605" lon="11.485639773309231">
        <ele>1023.940000000000055</ele>
        <time>2015-06-26T14:27:11Z</time>
      </trkpt>
      <trkpt lat="47.684785528108478" lon="11.485430393368006">
        <ele>1026.430000000000064</ele>
        <time>2015-06-26T14:27:28Z</time>
      </trkpt>
      <trkpt lat="47.684745211154222" lon="11.485301060602069">
        <ele>1027.470000000000027</ele>
        <time>2015-06-26T14:27:44Z</time>
      </trkpt>
      <trkpt lat="47.684661895036697" lon="11.485100314021111">
        <ele>1029.089999999999918</ele>
        <time>2015-06-26T14:28:07Z</time>
      </trkpt>
      <trkpt lat="47.684544883668423" lon="11.485003754496574">
        <ele>1029.839999999999918</ele>
        <time>2015-06-26T14:28:22Z</time>
      </trkpt>
      <trkpt lat="47.6845080871135" lon="11.484963856637478">
        <ele>1032.900000000000091</ele>
        <time>2015-06-26T14:28:32Z</time>
      </trkpt>
      <trkpt lat="47.684502974152565" lon="11.484961090609431">
        <ele>1032.8900000000001</ele>
        <time>2015-06-26T14:28:33Z</time>
      </trkpt>
      <trkpt lat="47.684498783200979" lon="11.484988667070866">
        <ele>1029.440000000000055</ele>
        <time>2015-06-26T14:29:03Z</time>
      </trkpt>
      <trkpt lat="47.684499118477106" lon="11.484989421442151">
        <ele>1029.220000000000027</ele>
        <time>2015-06-26T14:29:04Z</time>
      </trkpt>
      <trkpt lat="47.684480175375938" lon="11.484930161386728">
        <ele>1030.039999999999964</ele>
        <time>2015-06-26T14:29:15Z</time>
      </trkpt>
      <trkpt lat="47.68447631970048" lon="11.484918091446161">
        <ele>1030.079999999999927</ele>
        <time>2015-06-26T14:29:16Z</time>
      </trkpt>
      <trkpt lat="47.684473302215338" lon="11.484902920201421">
        <ele>1030.1099999999999</ele>
        <time>2015-06-26T14:29:17Z</time>
      </trkpt>
      <trkpt lat="47.684414209797978" lon="11.484673507511616">
        <ele>1033.759999999999991</ele>
        <time>2015-06-26T14:29:33Z</time>
      </trkpt>
      <trkpt lat="47.684317901730537" lon="11.484488099813461">
        <ele>1037.150000000000091</ele>
        <time>2015-06-26T14:29:48Z</time>
      </trkpt>
      <trkpt lat="47.684174403548241" lon="11.484374022111297">
        <ele>1039.480000000000018</ele>
        <time>2015-06-26T14:30:05Z</time>
      </trkpt>
      <trkpt lat="47.683994947001338" lon="11.484255082905293">
        <ele>1042.480000000000018</ele>
        <time>2015-06-26T14:30:21Z</time>
      </trkpt>
      <trkpt lat="47.683915151283145" lon="11.484211161732674">
        <ele>1042.940000000000055</ele>
        <time>2015-06-26T14:30:39Z</time>
      </trkpt>
      <trkpt lat="47.683886904269457" lon="11.484192973002791">
        <ele>1043.579999999999927</ele>
        <time>2015-06-26T14:30:42Z</time>
      </trkpt>
      <trkpt lat="47.683867709711194" lon="11.484167575836182">
        <ele>1043.940000000000055</ele>
        <time>2015-06-26T14:30:44Z</time>
      </trkpt>
      <trkpt lat="47.683753883466125" lon="11.484071686863899">
        <ele>1045.589999999999918</ele>
        <time>2015-06-26T14:30:55Z</time>
      </trkpt>
      <trkpt lat="47.683714907616377" lon="11.484054168686271">
        <ele>1046.630000000000109</ele>
        <time>2015-06-26T14:30:59Z</time>
      </trkpt>
      <trkpt lat="47.683630585670471" lon="11.483904970809817">
        <ele>1048.819999999999936</ele>
        <time>2015-06-26T14:31:13Z</time>
      </trkpt>
      <trkpt lat="47.683621533215046" lon="11.483891727402806">
        <ele>1048.839999999999918</ele>
        <time>2015-06-26T14:31:14Z</time>
      </trkpt>
      <trkpt lat="47.683603344485164" lon="11.483876220881939">
        <ele>1048.849999999999909</ele>
        <time>2015-06-26T14:31:16Z</time>
      </trkpt>
      <trkpt lat="47.683448363095522" lon="11.483726939186454">
        <ele>1052.230000000000018</ele>
        <time>2015-06-26T14:31:32Z</time>
      </trkpt>
      <trkpt lat="47.683410393074155" lon="11.483681593090296">
        <ele>1052.019999999999982</ele>
        <time>2015-06-26T14:31:46Z</time>
      </trkpt>
      <trkpt lat="47.68339890986681" lon="11.483651669695973">
        <ele>1052.349999999999909</ele>
        <time>2015-06-26T14:31:48Z</time>
      </trkpt>
      <trkpt lat="47.683305870741606" lon="11.483465591445565">
        <ele>1055.369999999999891</ele>
        <time>2015-06-26T14:32:02Z</time>
      </trkpt>
      <trkpt lat="47.683200342580676" lon="11.48333684541285">
        <ele>1058.430000000000064</ele>
        <time>2015-06-26T14:32:16Z</time>
      </trkpt>
      <trkpt lat="47.683154912665486" lon="11.483276160433888">
        <ele>1059.819999999999936</ele>
        <time>2015-06-26T14:32:32Z</time>
      </trkpt>
      <trkpt lat="47.683142339810729" lon="11.483266269788146">
        <ele>1059.839999999999918</ele>
        <time>2015-06-26T14:32:33Z</time>
      </trkpt>
      <trkpt lat="47.683131024241447" lon="11.483254702761769">
        <ele>1059.960000000000036</ele>
        <time>2015-06-26T14:32:34Z</time>
      </trkpt>
      <trkpt lat="47.683088863268495" lon="11.48321078158915">
        <ele>1059.970000000000027</ele>
        <time>2015-06-26T14:32:38Z</time>
      </trkpt>
      <trkpt lat="47.683081151917577" lon="11.4831961132586">
        <ele>1060.660000000000082</ele>
        <time>2015-06-26T14:32:39Z</time>
      </trkpt>
      <trkpt lat="47.683067908510566" lon="11.483171470463276">
        <ele>1060.579999999999927</ele>
        <time>2015-06-26T14:32:41Z</time>
      </trkpt>
      <trkpt lat="47.683050138875842" lon="11.483131740242243">
        <ele>1060.8900000000001</ele>
        <time>2015-06-26T14:32:44Z</time>
      </trkpt>
      <trkpt lat="47.682998925447464" lon="11.483031073585153">
        <ele>1062.309999999999945</ele>
        <time>2015-06-26T14:32:53Z</time>
      </trkpt>
      <trkpt lat="47.682984592393041" lon="11.483007101342082">
        <ele>1062.450000000000045</ele>
        <time>2015-06-26T14:32:55Z</time>
      </trkpt>
      <trkpt lat="47.682978725060821" lon="11.482991594821215">
        <ele>1062.509999999999991</ele>
        <time>2015-06-26T14:32:56Z</time>
      </trkpt>
      <trkpt lat="47.682948717847466" lon="11.482932586222887">
        <ele>1063.490000000000009</ele>
        <time>2015-06-26T14:33:00Z</time>
      </trkpt>
      <trkpt lat="47.682943101972342" lon="11.482914313673973">
        <ele>1063.569999999999936</ele>
        <time>2015-06-26T14:33:01Z</time>
      </trkpt>
      <trkpt lat="47.682937318459153" lon="11.482899058610201">
        <ele>1063.559999999999945</ele>
        <time>2015-06-26T14:33:02Z</time>
      </trkpt>
      <trkpt lat="47.682928685098886" lon="11.482887240126729">
        <ele>1063.8599999999999</ele>
        <time>2015-06-26T14:33:03Z</time>
      </trkpt>
      <trkpt lat="47.68292055465281" lon="11.482872739434242">
        <ele>1063.900000000000091</ele>
        <time>2015-06-26T14:33:04Z</time>
      </trkpt>
      <trkpt lat="47.682912005111575" lon="11.482861507683992">
        <ele>1063.799999999999955</ele>
        <time>2015-06-26T14:33:05Z</time>
      </trkpt>
      <trkpt lat="47.682798011228442" lon="11.48273728787899">
        <ele>1066.329999999999927</ele>
        <time>2015-06-26T14:33:19Z</time>
      </trkpt>
      <trkpt lat="47.682742271572351" lon="11.482681464403868">
        <ele>1067.450000000000045</ele>
        <time>2015-06-26T14:33:36Z</time>
      </trkpt>
      <trkpt lat="47.682608664035797" lon="11.482529332861304">
        <ele>1069.150000000000091</ele>
        <time>2015-06-26T14:33:50Z</time>
      </trkpt>
      <trkpt lat="47.682504476979375" lon="11.482406957075">
        <ele>1071.019999999999982</ele>
        <time>2015-06-26T14:34:00Z</time>
      </trkpt>
      <trkpt lat="47.682494334876537" lon="11.48239279165864">
        <ele>1071.319999999999936</ele>
        <time>2015-06-26T14:34:01Z</time>
      </trkpt>
      <trkpt lat="47.682384615764022" lon="11.482225907966495">
        <ele>1074.339999999999918</ele>
        <time>2015-06-26T14:34:15Z</time>
      </trkpt>
      <trkpt lat="47.682379335165024" lon="11.482239235192537">
        <ele>1074.099999999999909</ele>
        <time>2015-06-26T14:34:51Z</time>
      </trkpt>
      <trkpt lat="47.682286128401756" lon="11.482125744223595">
        <ele>1077.1099999999999</ele>
        <time>2015-06-26T14:35:08Z</time>
      </trkpt>
      <trkpt lat="47.682182276621461" lon="11.481987694278359">
        <ele>1080.569999999999936</ele>
        <time>2015-06-26T14:35:21Z</time>
      </trkpt>
      <trkpt lat="47.682171883061528" lon="11.481976546347141">
        <ele>1080.529999999999973</ele>
        <time>2015-06-26T14:35:22Z</time>
      </trkpt>
      <trkpt lat="47.682056548073888" lon="11.481811171397567">
        <ele>1083.380000000000109</ele>
        <time>2015-06-26T14:35:36Z</time>
      </trkpt>
      <trkpt lat="47.681962167844176" lon="11.481653843075037">
        <ele>1086.769999999999982</ele>
        <time>2015-06-26T14:35:49Z</time>
      </trkpt>
      <trkpt lat="47.681936016306281" lon="11.481429543346167">
        <ele>1087.369999999999891</ele>
        <time>2015-06-26T14:36:05Z</time>
      </trkpt>
      <trkpt lat="47.681959066540003" lon="11.481324769556522">
        <ele>1086.789999999999964</ele>
        <time>2015-06-26T14:36:22Z</time>
      </trkpt>
      <trkpt lat="47.68196769990027" lon="11.481317393481731">
        <ele>1087.279999999999973</ele>
        <time>2015-06-26T14:36:49Z</time>
      </trkpt>
      <trkpt lat="47.68191983923316" lon="11.481318399310112">
        <ele>1087.240000000000009</ele>
        <time>2015-06-26T14:37:08Z</time>
      </trkpt>
      <trkpt lat="47.681905589997768" lon="11.481330133974552">
        <ele>1087.049999999999955</ele>
        <time>2015-06-26T14:37:25Z</time>
      </trkpt>
      <trkpt lat="47.681896453723311" lon="11.481280345469713">
        <ele>1087.380000000000109</ele>
        <time>2015-06-26T14:37:28Z</time>
      </trkpt>
      <trkpt lat="47.681839121505618" lon="11.481111533939838">
        <ele>1086.200000000000045</ele>
        <time>2015-06-26T14:37:50Z</time>
      </trkpt>
      <trkpt lat="47.681817580014467" lon="11.481085130944848">
        <ele>1085.980000000000018</ele>
        <time>2015-06-26T14:38:08Z</time>
      </trkpt>
      <trkpt lat="47.681726804003119" lon="11.48083308711648">
        <ele>1081.430000000000064</ele>
        <time>2015-06-26T14:42:37Z</time>
      </trkpt>
      <trkpt lat="47.681695790961385" lon="11.480769971385598">
        <ele>1081.1099999999999</ele>
        <time>2015-06-26T14:42:38Z</time>
      </trkpt>
      <trkpt lat="47.681584898382425" lon="11.480574924498796">
        <ele>1077.049999999999955</ele>
        <time>2015-06-26T14:42:41Z</time>
      </trkpt>
      <trkpt lat="47.681511724367738" lon="11.480465373024344">
        <ele>1074.829999999999927</ele>
        <time>2015-06-26T14:42:43Z</time>
      </trkpt>
      <trkpt lat="47.681483728811145" lon="11.48039722815156">
        <ele>1074.130000000000109</ele>
        <time>2015-06-26T14:42:44Z</time>
      </trkpt>
      <trkpt lat="47.681454811245203" lon="11.4803312625736">
        <ele>1073.660000000000082</ele>
        <time>2015-06-26T14:42:45Z</time>
      </trkpt>
      <trkpt lat="47.681422876194119" lon="11.480274349451065">
        <ele>1073.029999999999973</ele>
        <time>2015-06-26T14:42:46Z</time>
      </trkpt>
      <trkpt lat="47.681394126266241" lon="11.480218023061752">
        <ele>1071.869999999999891</ele>
        <time>2015-06-26T14:42:47Z</time>
      </trkpt>
      <trkpt lat="47.681357162073255" lon="11.480158679187298">
        <ele>1071.119999999999891</ele>
        <time>2015-06-26T14:42:48Z</time>
      </trkpt>
      <trkpt lat="47.681330004706979" lon="11.480107884854078">
        <ele>1070.680000000000064</ele>
        <time>2015-06-26T14:42:49Z</time>
      </trkpt>
      <trkpt lat="47.68130661919713" lon="11.480070250108838">
        <ele>1070.230000000000018</ele>
        <time>2015-06-26T14:42:50Z</time>
      </trkpt>
      <trkpt lat="47.681282479315996" lon="11.480043092742562">
        <ele>1070.220000000000027</ele>
        <time>2015-06-26T14:42:51Z</time>
      </trkpt>
      <trkpt lat="47.681263284757733" lon="11.480014342814684">
        <ele>1069.829999999999927</ele>
        <time>2015-06-26T14:42:52Z</time>
      </trkpt>
      <trkpt lat="47.681150548160076" lon="11.479857265949249">
        <ele>1068.519999999999982</ele>
        <time>2015-06-26T14:42:56Z</time>
      </trkpt>
      <trkpt lat="47.681078882887959" lon="11.479751318693161">
        <ele>1066.8900000000001</ele>
        <time>2015-06-26T14:42:58Z</time>
      </trkpt>
      <trkpt lat="47.681052479892969" lon="11.479696417227387">
        <ele>1066.829999999999927</ele>
        <time>2015-06-26T14:42:59Z</time>
      </trkpt>
      <trkpt lat="47.681027166545391" lon="11.479639923200011">
        <ele>1066.319999999999936</ele>
        <time>2015-06-26T14:43:00Z</time>
      </trkpt>
      <trkpt lat="47.680969666689634" lon="11.479517295956612">
        <ele>1064.900000000000091</ele>
        <time>2015-06-26T14:43:02Z</time>
      </trkpt>
      <trkpt lat="47.680941922590137" lon="11.479453342035413">
        <ele>1063.880000000000109</ele>
        <time>2015-06-26T14:43:03Z</time>
      </trkpt>
      <trkpt lat="47.680913172662258" lon="11.479389052838087">
        <ele>1063.079999999999927</ele>
        <time>2015-06-26T14:43:04Z</time>
      </trkpt>
      <trkpt lat="47.680882411077619" lon="11.479324428364635">
        <ele>1062.549999999999955</ele>
        <time>2015-06-26T14:43:05Z</time>
      </trkpt>
      <trkpt lat="47.680844441056252" lon="11.479258043691516">
        <ele>1061.910000000000082</ele>
        <time>2015-06-26T14:43:06Z</time>
      </trkpt>
      <trkpt lat="47.680806806311011" lon="11.479201214388013">
        <ele>1061.049999999999955</ele>
        <time>2015-06-26T14:43:07Z</time>
      </trkpt>
      <trkpt lat="47.680648053064942" lon="11.478956462815404">
        <ele>1057.6099999999999</ele>
        <time>2015-06-26T14:43:11Z</time>
      </trkpt>
      <trkpt lat="47.680613100528717" lon="11.478905333206058">
        <ele>1057.3599999999999</ele>
        <time>2015-06-26T14:43:12Z</time>
      </trkpt>
      <trkpt lat="47.680572113022208" lon="11.478856131434441">
        <ele>1056.829999999999927</ele>
        <time>2015-06-26T14:43:13Z</time>
      </trkpt>
      <trkpt lat="47.680487539619207" lon="11.478753453120589">
        <ele>1055.839999999999918</ele>
        <time>2015-06-26T14:43:15Z</time>
      </trkpt>
      <trkpt lat="47.680459041148424" lon="11.478698803111911">
        <ele>1055.480000000000018</ele>
        <time>2015-06-26T14:43:16Z</time>
      </trkpt>
      <trkpt lat="47.680433057248592" lon="11.478638788685203">
        <ele>1054.5</ele>
        <time>2015-06-26T14:43:17Z</time>
      </trkpt>
      <trkpt lat="47.68040313385427" lon="11.478583887219429">
        <ele>1053.3599999999999</ele>
        <time>2015-06-26T14:43:18Z</time>
      </trkpt>
      <trkpt lat="47.680370947346091" lon="11.478514149785042">
        <ele>1052.259999999999991</ele>
        <time>2015-06-26T14:43:19Z</time>
      </trkpt>
      <trkpt lat="47.680228538811207" lon="11.478227823972702">
        <ele>1049.490000000000009</ele>
        <time>2015-06-26T14:43:23Z</time>
      </trkpt>
      <trkpt lat="47.680195765569806" lon="11.478162696585059">
        <ele>1048.670000000000073</ele>
        <time>2015-06-26T14:43:24Z</time>
      </trkpt>
      <trkpt lat="47.680167183279991" lon="11.478100838139653">
        <ele>1047.819999999999936</ele>
        <time>2015-06-26T14:43:25Z</time>
      </trkpt>
      <trkpt lat="47.680053692311049" lon="11.477904450148344">
        <ele>1046.230000000000018</ele>
        <time>2015-06-26T14:43:28Z</time>
      </trkpt>
      <trkpt lat="47.679894184693694" lon="11.477660201489925">
        <ele>1044.1400000000001</ele>
        <time>2015-06-26T14:43:32Z</time>
      </trkpt>
      <trkpt lat="47.679720763117075" lon="11.477437661960721">
        <ele>1042.059999999999945</ele>
        <time>2015-06-26T14:43:36Z</time>
      </trkpt>
      <trkpt lat="47.679634764790535" lon="11.477380665019155">
        <ele>1040.599999999999909</ele>
        <time>2015-06-26T14:43:38Z</time>
      </trkpt>
      <trkpt lat="47.679590089246631" lon="11.477360380813479">
        <ele>1040.869999999999891</ele>
        <time>2015-06-26T14:43:39Z</time>
      </trkpt>
      <trkpt lat="47.679398730397224" lon="11.477253511548042">
        <ele>1038.529999999999973</ele>
        <time>2015-06-26T14:43:43Z</time>
      </trkpt>
      <trkpt lat="47.679353971034288" lon="11.47723725065589">
        <ele>1038.480000000000018</ele>
        <time>2015-06-26T14:43:44Z</time>
      </trkpt>
      <trkpt lat="47.679206700995564" lon="11.477160137146711">
        <ele>1035.3599999999999</ele>
        <time>2015-06-26T14:43:47Z</time>
      </trkpt>
      <trkpt lat="47.679157080128789" lon="11.477139852941036">
        <ele>1035.160000000000082</ele>
        <time>2015-06-26T14:43:48Z</time>
      </trkpt>
      <trkpt lat="47.679118607193232" lon="11.477131051942706">
        <ele>1034.470000000000027</ele>
        <time>2015-06-26T14:43:49Z</time>
      </trkpt>
      <trkpt lat="47.679082648828626" lon="11.47712635807693">
        <ele>1034.460000000000036</ele>
        <time>2015-06-26T14:43:50Z</time>
      </trkpt>
      <trkpt lat="47.679051384329796" lon="11.477143038064241">
        <ele>1033.75</ele>
        <time>2015-06-26T14:43:51Z</time>
      </trkpt>
      <trkpt lat="47.679022634401917" lon="11.477171452715993">
        <ele>1033.069999999999936</ele>
        <time>2015-06-26T14:43:52Z</time>
      </trkpt>
      <trkpt lat="47.678974103182554" lon="11.477238507941365">
        <ele>1032.150000000000091</ele>
        <time>2015-06-26T14:43:54Z</time>
      </trkpt>
      <trkpt lat="47.678869077935815" lon="11.477212104946375">
        <ele>1031.650000000000091</ele>
        <time>2015-06-26T14:43:55Z</time>
      </trkpt>
      <trkpt lat="47.678801100701094" lon="11.477236496284604">
        <ele>1030.8599999999999</ele>
        <time>2015-06-26T14:43:56Z</time>
      </trkpt>
      <trkpt lat="47.678738487884402" lon="11.477219983935356">
        <ele>1031.230000000000018</ele>
        <time>2015-06-26T14:43:57Z</time>
      </trkpt>
      <trkpt lat="47.678677132353187" lon="11.477184947580099">
        <ele>1030.710000000000036</ele>
        <time>2015-06-26T14:43:58Z</time>
      </trkpt>
      <trkpt lat="47.678621057420969" lon="11.477144043892622">
        <ele>1030.509999999999991</ele>
        <time>2015-06-26T14:43:59Z</time>
      </trkpt>
      <trkpt lat="47.678564144298434" lon="11.47710096091032">
        <ele>1029.960000000000036</ele>
        <time>2015-06-26T14:44:00Z</time>
      </trkpt>
      <trkpt lat="47.678346130996943" lon="11.476924605667591">
        <ele>1026.8900000000001</ele>
        <time>2015-06-26T14:44:03Z</time>
      </trkpt>
      <trkpt lat="47.677915468811989" lon="11.476779850199819">
        <ele>1026.819999999999936</ele>
        <time>2015-06-26T14:44:09Z</time>
      </trkpt>
      <trkpt lat="47.677865512669086" lon="11.476768534630537">
        <ele>1026.849999999999909</ele>
        <time>2015-06-26T14:44:10Z</time>
      </trkpt>
      <trkpt lat="47.677512047812343" lon="11.476801726967096">
        <ele>1027.569999999999936</ele>
        <time>2015-06-26T14:44:20Z</time>
      </trkpt>
      <trkpt lat="47.677281713113189" lon="11.476755207404494">
        <ele>1028.730000000000018</ele>
        <time>2015-06-26T14:44:28Z</time>
      </trkpt>
      <trkpt lat="47.677154056727886" lon="11.476752860471606">
        <ele>1028.490000000000009</ele>
        <time>2015-06-26T14:44:32Z</time>
      </trkpt>
      <trkpt lat="47.676926488056779" lon="11.476662838831544">
        <ele>1029.440000000000055</ele>
        <time>2015-06-26T14:44:39Z</time>
      </trkpt>
      <trkpt lat="47.676732530817389" lon="11.47667046636343">
        <ele>1031.460000000000036</ele>
        <time>2015-06-26T14:44:46Z</time>
      </trkpt>
      <trkpt lat="47.676691878587008" lon="11.476689912378788">
        <ele>1031.630000000000109</ele>
        <time>2015-06-26T14:44:47Z</time>
      </trkpt>
      <trkpt lat="47.676661619916558" lon="11.476724110543728">
        <ele>1031.670000000000073</ele>
        <time>2015-06-26T14:44:48Z</time>
      </trkpt>
      <trkpt lat="47.676641838625073" lon="11.476754872128367">
        <ele>1031.6400000000001</ele>
        <time>2015-06-26T14:44:49Z</time>
      </trkpt>
      <trkpt lat="47.676613591611385" lon="11.476788148283958">
        <ele>1031.6400000000001</ele>
        <time>2015-06-26T14:44:50Z</time>
      </trkpt>
      <trkpt lat="47.676590709015727" lon="11.476816395297647">
        <ele>1031.5</ele>
        <time>2015-06-26T14:44:51Z</time>
      </trkpt>
      <trkpt lat="47.676566066220403" lon="11.476850928738713">
        <ele>1031.670000000000073</ele>
        <time>2015-06-26T14:44:52Z</time>
      </trkpt>
      <trkpt lat="47.676541339606047" lon="11.476881774142385">
        <ele>1031.690000000000055</ele>
        <time>2015-06-26T14:44:53Z</time>
      </trkpt>
      <trkpt lat="47.676453748717904" lon="11.476952265948057">
        <ele>1031.829999999999927</ele>
        <time>2015-06-26T14:44:56Z</time>
      </trkpt>
      <trkpt lat="47.676424663513899" lon="11.47696852684021">
        <ele>1032.339999999999918</ele>
        <time>2015-06-26T14:44:57Z</time>
      </trkpt>
      <trkpt lat="47.676398763433099" lon="11.476975232362747">
        <ele>1032.690000000000055</ele>
        <time>2015-06-26T14:44:58Z</time>
      </trkpt>
      <trkpt lat="47.67637831158936" lon="11.476982608437538">
        <ele>1032.690000000000055</ele>
        <time>2015-06-26T14:44:59Z</time>
      </trkpt>
      <trkpt lat="47.676357356831431" lon="11.476984033361077">
        <ele>1032.589999999999918</ele>
        <time>2015-06-26T14:45:00Z</time>
      </trkpt>
      <trkpt lat="47.676328020170331" lon="11.476975651457906">
        <ele>1032.869999999999891</ele>
        <time>2015-06-26T14:45:01Z</time>
      </trkpt>
      <trkpt lat="47.676303628832102" lon="11.47696802392602">
        <ele>1033.029999999999973</ele>
        <time>2015-06-26T14:45:02Z</time>
      </trkpt>
      <trkpt lat="47.676224252209067" lon="11.476976322010159">
        <ele>1033.200000000000045</ele>
        <time>2015-06-26T14:45:06Z</time>
      </trkpt>
      <trkpt lat="47.67607731744647" lon="11.477007335051894">
        <ele>1032.039999999999964</ele>
        <time>2015-06-26T14:45:11Z</time>
      </trkpt>
      <trkpt lat="47.675766432657838" lon="11.477124681696296">
        <ele>1031.920000000000073</ele>
        <time>2015-06-26T14:45:21Z</time>
      </trkpt>
      <trkpt lat="47.675452027469873" lon="11.477481666952372">
        <ele>1033.25</ele>
        <time>2015-06-26T14:45:33Z</time>
      </trkpt>
      <trkpt lat="47.675173664465547" lon="11.477737482637167">
        <ele>1032.569999999999936</ele>
        <time>2015-06-26T14:45:42Z</time>
      </trkpt>
      <trkpt lat="47.674865210428834" lon="11.478022048249841">
        <ele>1031.75</ele>
        <time>2015-06-26T14:45:50Z</time>
      </trkpt>
      <trkpt lat="47.67482447437942" lon="11.478039231151342">
        <ele>1030.839999999999918</ele>
        <time>2015-06-26T14:45:51Z</time>
      </trkpt>
      <trkpt lat="47.674795053899288" lon="11.478051971644163">
        <ele>1030.230000000000018</ele>
        <time>2015-06-26T14:45:52Z</time>
      </trkpt>
      <trkpt lat="47.674724729731679" lon="11.478098072111607">
        <ele>1029.990000000000009</ele>
        <time>2015-06-26T14:46:01Z</time>
      </trkpt>
      <trkpt lat="47.674713833257556" lon="11.478075524792075">
        <ele>1029.450000000000045</ele>
        <time>2015-06-26T14:46:31Z</time>
      </trkpt>
      <trkpt lat="47.674708971753716" lon="11.478114165365696">
        <ele>1029.3900000000001</ele>
        <time>2015-06-26T14:46:34Z</time>
      </trkpt>
      <trkpt lat="47.674685083329678" lon="11.478240564465523">
        <ele>1029.480000000000018</ele>
        <time>2015-06-26T14:46:47Z</time>
      </trkpt>
      <trkpt lat="47.674637474119663" lon="11.478335196152329">
        <ele>1029.650000000000091</ele>
        <time>2015-06-26T14:47:01Z</time>
      </trkpt>
      <trkpt lat="47.674620961770415" lon="11.478365957736969">
        <ele>1029.369999999999891</ele>
        <time>2015-06-26T14:47:02Z</time>
      </trkpt>
      <trkpt lat="47.674600258469582" lon="11.478392276912928">
        <ele>1029.410000000000082</ele>
        <time>2015-06-26T14:47:03Z</time>
      </trkpt>
      <trkpt lat="47.674577292054892" lon="11.478432090952992">
        <ele>1029.400000000000091</ele>
        <time>2015-06-26T14:47:04Z</time>
      </trkpt>
      <trkpt lat="47.674556756392121" lon="11.478482382372022">
        <ele>1029.650000000000091</ele>
        <time>2015-06-26T14:47:05Z</time>
      </trkpt>
      <trkpt lat="47.6745337061584" lon="11.478511970490217">
        <ele>1029.460000000000036</ele>
        <time>2015-06-26T14:47:06Z</time>
      </trkpt>
      <trkpt lat="47.674506632611156" lon="11.478543570265174">
        <ele>1029.400000000000091</ele>
        <time>2015-06-26T14:47:07Z</time>
      </trkpt>
      <trkpt lat="47.674489952623844" lon="11.478520184755325">
        <ele>1029.259999999999991</ele>
        <time>2015-06-26T14:51:54Z</time>
      </trkpt>
      <trkpt lat="47.674469500780106" lon="11.478498140349984">
        <ele>1028.519999999999982</ele>
        <time>2015-06-26T14:52:01Z</time>
      </trkpt>
      <trkpt lat="47.674440331757069" lon="11.478475341573358">
        <ele>1027.710000000000036</ele>
        <time>2015-06-26T14:52:04Z</time>
      </trkpt>
      <trkpt lat="47.674429267644882" lon="11.478468971326947">
        <ele>1026.8900000000001</ele>
        <time>2015-06-26T14:52:05Z</time>
      </trkpt>
      <trkpt lat="47.674418119713664" lon="11.478467797860503">
        <ele>1026.5</ele>
        <time>2015-06-26T14:52:06Z</time>
      </trkpt>
      <trkpt lat="47.674336982890964" lon="11.478493111208081">
        <ele>1022.659999999999968</ele>
        <time>2015-06-26T14:52:12Z</time>
      </trkpt>
      <trkpt lat="47.674328349530697" lon="11.478500822558999">
        <ele>1022.600000000000023</ele>
        <time>2015-06-26T14:52:13Z</time>
      </trkpt>
      <trkpt lat="47.674310579895973" lon="11.478506689891219">
        <ele>1021.879999999999995</ele>
        <time>2015-06-26T14:52:15Z</time>
      </trkpt>
      <trkpt lat="47.674277974292636" lon="11.478517251089215">
        <ele>1020.049999999999955</ele>
        <time>2015-06-26T14:52:18Z</time>
      </trkpt>
      <trkpt lat="47.674263725057244" lon="11.478530075401068">
        <ele>1019.5</ele>
        <time>2015-06-26T14:52:19Z</time>
      </trkpt>
      <trkpt lat="47.674249056726694" lon="11.478545414283872">
        <ele>1019.210000000000036</ele>
        <time>2015-06-26T14:52:20Z</time>
      </trkpt>
      <trkpt lat="47.674237824976444" lon="11.478563100099564">
        <ele>1018.75</ele>
        <time>2015-06-26T14:52:21Z</time>
      </trkpt>
      <trkpt lat="47.674229694530368" lon="11.478581037372351">
        <ele>1017.740000000000009</ele>
        <time>2015-06-26T14:52:22Z</time>
      </trkpt>
      <trkpt lat="47.674216451123357" lon="11.478595118969679">
        <ele>1017.57000000000005</ele>
        <time>2015-06-26T14:52:23Z</time>
      </trkpt>
      <trkpt lat="47.674201782792807" lon="11.478609535843134">
        <ele>1017.039999999999964</ele>
        <time>2015-06-26T14:52:24Z</time>
      </trkpt>
      <trkpt lat="47.674186695367098" lon="11.478624287992716">
        <ele>1015.909999999999968</ele>
        <time>2015-06-26T14:52:25Z</time>
      </trkpt>
      <trkpt lat="47.674170266836882" lon="11.478635268285871">
        <ele>1015.850000000000023</ele>
        <time>2015-06-26T14:52:26Z</time>
      </trkpt>
      <trkpt lat="47.674152832478285" lon="11.478648679330945">
        <ele>1014.960000000000036</ele>
        <time>2015-06-26T14:52:27Z</time>
      </trkpt>
      <trkpt lat="47.674137325957417" lon="11.478661336004734">
        <ele>1014.419999999999959</ele>
        <time>2015-06-26T14:52:28Z</time>
      </trkpt>
      <trkpt lat="47.674068175256252" lon="11.478679357096553">
        <ele>1012.090000000000032</ele>
        <time>2015-06-26T14:52:32Z</time>
      </trkpt>
      <trkpt lat="47.674054931849241" lon="11.478667119517922">
        <ele>1011.409999999999968</ele>
        <time>2015-06-26T14:52:33Z</time>
      </trkpt>
      <trkpt lat="47.673964826390147" lon="11.478617498651147">
        <ele>1008.330000000000041</ele>
        <time>2015-06-26T14:52:39Z</time>
      </trkpt>
      <trkpt lat="47.673943703994155" lon="11.478611882776022">
        <ele>1007.590000000000032</ele>
        <time>2015-06-26T14:52:40Z</time>
      </trkpt>
      <trkpt lat="47.673891736194491" lon="11.478578271344304">
        <ele>1007.159999999999968</ele>
        <time>2015-06-26T14:52:43Z</time>
      </trkpt>
      <trkpt lat="47.673799116164446" lon="11.478597968816757">
        <ele>1005.789999999999964</ele>
        <time>2015-06-26T14:52:46Z</time>
      </trkpt>
      <trkpt lat="47.673746729269624" lon="11.478620348498225">
        <ele>1006.019999999999982</ele>
        <time>2015-06-26T14:52:50Z</time>
      </trkpt>
      <trkpt lat="47.673657713457942" lon="11.478518843650818">
        <ele>1007.889999999999986</ele>
        <time>2015-06-26T14:53:08Z</time>
      </trkpt>
      <trkpt lat="47.673670202493668" lon="11.478362437337637">
        <ele>1008.419999999999959</ele>
        <time>2015-06-26T14:53:26Z</time>
      </trkpt>
      <trkpt lat="47.673676740378141" lon="11.478324634954333">
        <ele>1008.159999999999968</ele>
        <time>2015-06-26T14:53:28Z</time>
      </trkpt>
      <trkpt lat="47.673688223585486" lon="11.478302674368024">
        <ele>1008.25</ele>
        <time>2015-06-26T14:53:29Z</time>
      </trkpt>
      <trkpt lat="47.673701466992497" lon="11.478270990774035">
        <ele>1007.669999999999959</ele>
        <time>2015-06-26T14:53:30Z</time>
      </trkpt>
      <trkpt lat="47.673712279647589" lon="11.478240313008428">
        <ele>1007.580000000000041</ele>
        <time>2015-06-26T14:53:31Z</time>
      </trkpt>
      <trkpt lat="47.673718817532063" lon="11.47820133715868">
        <ele>1007.419999999999959</ele>
        <time>2015-06-26T14:53:32Z</time>
      </trkpt>
      <trkpt lat="47.673723176121712" lon="11.478166887536645">
        <ele>1007.340000000000032</ele>
        <time>2015-06-26T14:53:33Z</time>
      </trkpt>
      <trkpt lat="47.673728624358773" lon="11.478134114295244">
        <ele>1007.309999999999945</ele>
        <time>2015-06-26T14:53:34Z</time>
      </trkpt>
      <trkpt lat="47.673721918836236" lon="11.478000842034817">
        <ele>1006.690000000000055</ele>
        <time>2015-06-26T14:53:38Z</time>
      </trkpt>
      <trkpt lat="47.673709262162447" lon="11.47796630859375">
        <ele>1007.149999999999977</ele>
        <time>2015-06-26T14:53:39Z</time>
      </trkpt>
      <trkpt lat="47.67369425855577" lon="11.477933702990413">
        <ele>1007.370000000000005</ele>
        <time>2015-06-26T14:53:40Z</time>
      </trkpt>
      <trkpt lat="47.673651510849595" lon="11.477818451821804">
        <ele>1007.100000000000023</ele>
        <time>2015-06-26T14:53:47Z</time>
      </trkpt>
      <trkpt lat="47.673604739829898" lon="11.477696746587753">
        <ele>1007.740000000000009</ele>
        <time>2015-06-26T14:54:08Z</time>
      </trkpt>
      <trkpt lat="47.673596441745758" lon="11.477488121017814">
        <ele>1011.049999999999955</ele>
        <time>2015-06-26T14:54:35Z</time>
      </trkpt>
      <trkpt lat="47.67358579672873" lon="11.477389298379421">
        <ele>1014.07000000000005</ele>
        <time>2015-06-26T14:54:48Z</time>
      </trkpt>
      <trkpt lat="47.673569200560451" lon="11.477231299504638">
        <ele>1017.149999999999977</ele>
        <time>2015-06-26T14:55:03Z</time>
      </trkpt>
      <trkpt lat="47.67353299073875" lon="11.477015968412161">
        <ele>1019.590000000000032</ele>
        <time>2015-06-26T14:55:25Z</time>
      </trkpt>
      <trkpt lat="47.673590490594506" lon="11.476928796619177">
        <ele>1019.529999999999973</ele>
        <time>2015-06-26T14:55:44Z</time>
      </trkpt>
      <trkpt lat="47.67353592440486" lon="11.476930808275938">
        <ele>1019.559999999999945</ele>
        <time>2015-06-26T14:56:08Z</time>
      </trkpt>
      <trkpt lat="47.673460571095347" lon="11.476870626211166">
        <ele>1019.870000000000005</ele>
        <time>2015-06-26T14:56:21Z</time>
      </trkpt>
      <trkpt lat="47.673446657136083" lon="11.476853108033538">
        <ele>1020.190000000000055</ele>
        <time>2015-06-26T14:56:22Z</time>
      </trkpt>
      <trkpt lat="47.673430647701025" lon="11.476826705038548">
        <ele>1020.059999999999945</ele>
        <time>2015-06-26T14:56:23Z</time>
      </trkpt>
      <trkpt lat="47.673410447314382" lon="11.47678580135107">
        <ele>1019.980000000000018</ele>
        <time>2015-06-26T14:56:24Z</time>
      </trkpt>
      <trkpt lat="47.67339133657515" lon="11.476746657863259">
        <ele>1020.519999999999982</ele>
        <time>2015-06-26T14:56:25Z</time>
      </trkpt>
      <trkpt lat="47.673220597207546" lon="11.476483633741736">
        <ele>1023.509999999999991</ele>
        <time>2015-06-26T14:56:35Z</time>
      </trkpt>
      <trkpt lat="47.673199977725744" lon="11.476455805823207">
        <ele>1023.649999999999977</ele>
        <time>2015-06-26T14:56:36Z</time>
      </trkpt>
      <trkpt lat="47.673176843672991" lon="11.476420015096664">
        <ele>1024.079999999999927</ele>
        <time>2015-06-26T14:56:37Z</time>
      </trkpt>
      <trkpt lat="47.672982215881348" lon="11.476192614063621">
        <ele>1026.759999999999991</ele>
        <time>2015-06-26T14:56:47Z</time>
      </trkpt>
      <trkpt lat="47.672846764326096" lon="11.476067556068301">
        <ele>1027.630000000000109</ele>
        <time>2015-06-26T14:56:58Z</time>
      </trkpt>
      <trkpt lat="47.672829078510404" lon="11.476042661815882">
        <ele>1027.150000000000091</ele>
        <time>2015-06-26T14:56:59Z</time>
      </trkpt>
      <trkpt lat="47.6728171762079" lon="11.476018689572811">
        <ele>1026.589999999999918</ele>
        <time>2015-06-26T14:57:00Z</time>
      </trkpt>
      <trkpt lat="47.672808961942792" lon="11.475996393710375">
        <ele>1027.309999999999945</ele>
        <time>2015-06-26T14:57:01Z</time>
      </trkpt>
      <trkpt lat="47.672797394916415" lon="11.475977953523397">
        <ele>1027.369999999999891</ele>
        <time>2015-06-26T14:57:02Z</time>
      </trkpt>
      <trkpt lat="47.672783983871341" lon="11.475963369011879">
        <ele>1028.089999999999918</ele>
        <time>2015-06-26T14:57:03Z</time>
      </trkpt>
      <trkpt lat="47.672769734635949" lon="11.475939312949777">
        <ele>1028.240000000000009</ele>
        <time>2015-06-26T14:57:04Z</time>
      </trkpt>
      <trkpt lat="47.672755820676684" lon="11.475932942703366">
        <ele>1028.599999999999909</ele>
        <time>2015-06-26T14:57:05Z</time>
      </trkpt>
      <trkpt lat="47.672746349126101" lon="11.475922465324402">
        <ele>1028.519999999999982</ele>
        <time>2015-06-26T14:57:06Z</time>
      </trkpt>
      <trkpt lat="47.672698069363832" lon="11.475807968527079">
        <ele>1028.509999999999991</ele>
        <time>2015-06-26T14:57:15Z</time>
      </trkpt>
      <trkpt lat="47.67270578071475" lon="11.475754659622908">
        <ele>1028.380000000000109</ele>
        <time>2015-06-26T14:57:24Z</time>
      </trkpt>
      <trkpt lat="47.67270821146667" lon="11.47573328576982">
        <ele>1028.3900000000001</ele>
        <time>2015-06-26T14:57:25Z</time>
      </trkpt>
      <trkpt lat="47.672724220901728" lon="11.475348975509405">
        <ele>1028.299999999999955</ele>
        <time>2015-06-26T14:57:45Z</time>
      </trkpt>
      <trkpt lat="47.672752970829606" lon="11.4751938264817">
        <ele>1027.420000000000073</ele>
        <time>2015-06-26T14:58:08Z</time>
      </trkpt>
      <trkpt lat="47.672689938917756" lon="11.475098440423608">
        <ele>1025.740000000000009</ele>
        <time>2015-06-26T14:58:36Z</time>
      </trkpt>
      <trkpt lat="47.672686753794551" lon="11.475081760436296">
        <ele>1025.130000000000109</ele>
        <time>2015-06-26T14:58:37Z</time>
      </trkpt>
      <trkpt lat="47.672689771279693" lon="11.475050328299403">
        <ele>1025.009999999999991</ele>
        <time>2015-06-26T14:58:38Z</time>
      </trkpt>
      <trkpt lat="47.672694381326437" lon="11.475020907819271">
        <ele>1024.279999999999973</ele>
        <time>2015-06-26T14:58:39Z</time>
      </trkpt>
      <trkpt lat="47.67269890755415" lon="11.474994756281376">
        <ele>1023.269999999999982</ele>
        <time>2015-06-26T14:58:40Z</time>
      </trkpt>
      <trkpt lat="47.672703098505735" lon="11.474974807351828">
        <ele>1022.759999999999991</ele>
        <time>2015-06-26T14:58:41Z</time>
      </trkpt>
      <trkpt lat="47.672705864533782" lon="11.474939770996571">
        <ele>1022.039999999999964</ele>
        <time>2015-06-26T14:58:42Z</time>
      </trkpt>
      <trkpt lat="47.672710977494717" lon="11.474866177886724">
        <ele>1021.240000000000009</ele>
        <time>2015-06-26T14:58:44Z</time>
      </trkpt>
      <trkpt lat="47.672670911997557" lon="11.474424116313457">
        <ele>1020.940000000000055</ele>
        <time>2015-06-26T14:58:54Z</time>
      </trkpt>
      <trkpt lat="47.672663452103734" lon="11.474332837387919">
        <ele>1018.399999999999977</ele>
        <time>2015-06-26T14:59:06Z</time>
      </trkpt>
      <trkpt lat="47.672711983323097" lon="11.474272739142179">
        <ele>1015.870000000000005</ele>
        <time>2015-06-26T14:59:22Z</time>
      </trkpt>
      <trkpt lat="47.672724388539791" lon="11.474219933152199">
        <ele>1016.220000000000027</ele>
        <time>2015-06-26T14:59:30Z</time>
      </trkpt>
      <trkpt lat="47.672725478187203" lon="11.474179867655039">
        <ele>1015.67999999999995</ele>
        <time>2015-06-26T14:59:36Z</time>
      </trkpt>
      <trkpt lat="47.672696560621262" lon="11.474161259829998">
        <ele>1015.379999999999995</ele>
        <time>2015-06-26T15:00:02Z</time>
      </trkpt>
      <trkpt lat="47.672749366611242" lon="11.474124044179916">
        <ele>1014.529999999999973</ele>
        <time>2015-06-26T15:00:26Z</time>
      </trkpt>
      <trkpt lat="47.672771327197552" lon="11.474184142425656">
        <ele>1013.330000000000041</ele>
        <time>2015-06-26T15:00:42Z</time>
      </trkpt>
      <trkpt lat="47.672904012724757" lon="11.474280031397939">
        <ele>1012.970000000000027</ele>
        <time>2015-06-26T15:01:03Z</time>
      </trkpt>
      <trkpt lat="47.672959584742785" lon="11.474311631172895">
        <ele>1013.200000000000045</ele>
        <time>2015-06-26T15:01:06Z</time>
      </trkpt>
      <trkpt lat="47.672976348549128" lon="11.474327724426985">
        <ele>1013.620000000000005</ele>
        <time>2015-06-26T15:01:07Z</time>
      </trkpt>
      <trkpt lat="47.673091934993863" lon="11.47438170388341">
        <ele>1014.110000000000014</ele>
        <time>2015-06-26T15:01:13Z</time>
      </trkpt>
      <trkpt lat="47.673251945525408" lon="11.474530482664704">
        <ele>1013.049999999999955</ele>
        <time>2015-06-26T15:01:23Z</time>
      </trkpt>
      <trkpt lat="47.673476245254278" lon="11.474689319729805">
        <ele>1011.419999999999959</ele>
        <time>2015-06-26T15:01:35Z</time>
      </trkpt>
      <trkpt lat="47.673502480611205" lon="11.474689319729805">
        <ele>1011.440000000000055</ele>
        <time>2015-06-26T15:01:36Z</time>
      </trkpt>
      <trkpt lat="47.673525949940085" lon="11.474682781845331">
        <ele>1011.169999999999959</ele>
        <time>2015-06-26T15:01:37Z</time>
      </trkpt>
      <trkpt lat="47.673544390127063" lon="11.474672891199589">
        <ele>1010.980000000000018</ele>
        <time>2015-06-26T15:01:38Z</time>
      </trkpt>
      <trkpt lat="47.673572720959783" lon="11.474668364971876">
        <ele>1011.07000000000005</ele>
        <time>2015-06-26T15:01:39Z</time>
      </trkpt>
      <trkpt lat="47.673600297421217" lon="11.474657887592912">
        <ele>1011.17999999999995</ele>
        <time>2015-06-26T15:01:40Z</time>
      </trkpt>
      <trkpt lat="47.673627957701683" lon="11.474641626700759">
        <ele>1010.539999999999964</ele>
        <time>2015-06-26T15:01:41Z</time>
      </trkpt>
      <trkpt lat="47.673652935773134" lon="11.474632993340492">
        <ele>1010.330000000000041</ele>
        <time>2015-06-26T15:01:42Z</time>
      </trkpt>
      <trkpt lat="47.674039592966437" lon="11.474469797685742">
        <ele>1006.92999999999995</ele>
        <time>2015-06-26T15:01:49Z</time>
      </trkpt>
      <trkpt lat="47.674372186884284" lon="11.47425564005971">
        <ele>1003.649999999999977</ele>
        <time>2015-06-26T15:01:53Z</time>
      </trkpt>
      <trkpt lat="47.674648789688945" lon="11.473991945385933">
        <ele>1000.509999999999991</ele>
        <time>2015-06-26T15:01:57Z</time>
      </trkpt>
      <trkpt lat="47.674946347251534" lon="11.473719365894794">
        <ele>998.75</ele>
        <time>2015-06-26T15:02:01Z</time>
      </trkpt>
      <trkpt lat="47.675402909517288" lon="11.473220977932215">
        <ele>997.009999999999991</ele>
        <time>2015-06-26T15:02:08Z</time>
      </trkpt>
      <trkpt lat="47.675660820677876" lon="11.472839517518878">
        <ele>997.17999999999995</ele>
        <time>2015-06-26T15:02:13Z</time>
      </trkpt>
      <trkpt lat="47.675705160945654" lon="11.47278880700469">
        <ele>997.960000000000036</ele>
        <time>2015-06-26T15:02:14Z</time>
      </trkpt>
      <trkpt lat="47.675895681604743" lon="11.472480185329914">
        <ele>998.120000000000005</ele>
        <time>2015-06-26T15:02:22Z</time>
      </trkpt>
      <trkpt lat="47.67594144679606" lon="11.472452273592353">
        <ele>998.409999999999968</ele>
        <time>2015-06-26T15:02:23Z</time>
      </trkpt>
      <trkpt lat="47.676010010764003" lon="11.472399467602372">
        <ele>998.200000000000045</ele>
        <time>2015-06-26T15:02:24Z</time>
      </trkpt>
      <trkpt lat="47.676374707370996" lon="11.472495105117559">
        <ele>999.149999999999977</ele>
        <time>2015-06-26T15:02:34Z</time>
      </trkpt>
      <trkpt lat="47.676709564402699" lon="11.472814036533237">
        <ele>1000.440000000000055</ele>
        <time>2015-06-26T15:02:47Z</time>
      </trkpt>
      <trkpt lat="47.677010390907526" lon="11.472949320450425">
        <ele>1002.399999999999977</ele>
        <time>2015-06-26T15:02:58Z</time>
      </trkpt>
      <trkpt lat="47.677335105836391" lon="11.472763493657112">
        <ele>1003.419999999999959</ele>
        <time>2015-06-26T15:03:10Z</time>
      </trkpt>
      <trkpt lat="47.677506180480123" lon="11.47261337377131">
        <ele>1002.830000000000041</ele>
        <time>2015-06-26T15:03:24Z</time>
      </trkpt>
      <trkpt lat="47.677576672285795" lon="11.472507091239095">
        <ele>1002.539999999999964</ele>
        <time>2015-06-26T15:03:49Z</time>
      </trkpt>
      <trkpt lat="47.677585389465094" lon="11.472485046833754">
        <ele>1002.840000000000032</ele>
        <time>2015-06-26T15:03:50Z</time>
      </trkpt>
      <trkpt lat="47.677595783025026" lon="11.472451519221067">
        <ele>1003.25</ele>
        <time>2015-06-26T15:03:51Z</time>
      </trkpt>
      <trkpt lat="47.677609780803323" lon="11.472413800656796">
        <ele>1003.419999999999959</ele>
        <time>2015-06-26T15:03:52Z</time>
      </trkpt>
      <trkpt lat="47.677612546831369" lon="11.472364012151957">
        <ele>1002.559999999999945</ele>
        <time>2015-06-26T15:03:53Z</time>
      </trkpt>
      <trkpt lat="47.677617575973272" lon="11.472314223647118">
        <ele>1002.870000000000005</ele>
        <time>2015-06-26T15:03:54Z</time>
      </trkpt>
      <trkpt lat="47.677622940391302" lon="11.472258819267154">
        <ele>1002.299999999999955</ele>
        <time>2015-06-26T15:03:55Z</time>
      </trkpt>
      <trkpt lat="47.677632831037045" lon="11.472197296097875">
        <ele>1002.480000000000018</ele>
        <time>2015-06-26T15:03:56Z</time>
      </trkpt>
      <trkpt lat="47.677643056958914" lon="11.472135689109564">
        <ele>1001.440000000000055</ele>
        <time>2015-06-26T15:03:57Z</time>
      </trkpt>
      <trkpt lat="47.677649343386292" lon="11.472068633884192">
        <ele>1001.419999999999959</ele>
        <time>2015-06-26T15:03:58Z</time>
      </trkpt>
      <trkpt lat="47.677659653127193" lon="11.471994956955314">
        <ele>1000.809999999999945</ele>
        <time>2015-06-26T15:03:59Z</time>
      </trkpt>
      <trkpt lat="47.677683876827359" lon="11.471836203709245">
        <ele>1000.299999999999955</ele>
        <time>2015-06-26T15:04:01Z</time>
      </trkpt>
      <trkpt lat="47.677795104682446" lon="11.471021063625813">
        <ele>996.480000000000018</ele>
        <time>2015-06-26T15:04:09Z</time>
      </trkpt>
      <trkpt lat="47.677927371114492" lon="11.470348751172423">
        <ele>992.100000000000023</ele>
        <time>2015-06-26T15:04:15Z</time>
      </trkpt>
      <trkpt lat="47.677939357236028" lon="11.470263255760074">
        <ele>991.42999999999995</ele>
        <time>2015-06-26T15:04:16Z</time>
      </trkpt>
      <trkpt lat="47.677949834614992" lon="11.470193434506655">
        <ele>990.57000000000005</ele>
        <time>2015-06-26T15:04:17Z</time>
      </trkpt>
      <trkpt lat="47.67795754596591" lon="11.470131827518344">
        <ele>990.279999999999973</ele>
        <time>2015-06-26T15:04:18Z</time>
      </trkpt>
      <trkpt lat="47.677958803251386" lon="11.470085140317678">
        <ele>990.129999999999995</ele>
        <time>2015-06-26T15:04:19Z</time>
      </trkpt>
      <trkpt lat="47.677959138527513" lon="11.470043482258916">
        <ele>989.799999999999955</ele>
        <time>2015-06-26T15:04:20Z</time>
      </trkpt>
      <trkpt lat="47.677954863756895" lon="11.470006015151739">
        <ele>989.450000000000045</ele>
        <time>2015-06-26T15:04:21Z</time>
      </trkpt>
      <trkpt lat="47.677948577329516" lon="11.469979863613844">
        <ele>989.759999999999991</ele>
        <time>2015-06-26T15:04:22Z</time>
      </trkpt>
      <trkpt lat="47.677950169891119" lon="11.469957986846566">
        <ele>989.42999999999995</ele>
        <time>2015-06-26T15:04:34Z</time>
      </trkpt>
      <trkpt lat="47.677969532087445" lon="11.469902331009507">
        <ele>989.970000000000027</ele>
        <time>2015-06-26T15:04:45Z</time>
      </trkpt>
      <trkpt lat="47.677982775494456" lon="11.469911551102996">
        <ele>989.779999999999973</ele>
        <time>2015-06-26T15:04:46Z</time>
      </trkpt>
      <trkpt lat="47.677996773272753" lon="11.469915742054582">
        <ele>989.899999999999977</ele>
        <time>2015-06-26T15:04:47Z</time>
      </trkpt>
      <trkpt lat="47.678014794364572" lon="11.469925297424197">
        <ele>989.039999999999964</ele>
        <time>2015-06-26T15:04:48Z</time>
      </trkpt>
      <trkpt lat="47.6780357491225" lon="11.469944240525365">
        <ele>989.059999999999945</ele>
        <time>2015-06-26T15:04:49Z</time>
      </trkpt>
      <trkpt lat="47.678099954500794" lon="11.46998749114573">
        <ele>988.409999999999968</ele>
        <time>2015-06-26T15:04:51Z</time>
      </trkpt>
      <trkpt lat="47.678145049139857" lon="11.4700045902282">
        <ele>987.809999999999945</ele>
        <time>2015-06-26T15:04:52Z</time>
      </trkpt>
      <trkpt lat="47.678197855129838" lon="11.47001531906426">
        <ele>987.25</ele>
        <time>2015-06-26T15:04:53Z</time>
      </trkpt>
      <trkpt lat="47.678313944488764" lon="11.47001925855875">
        <ele>986.360000000000014</ele>
        <time>2015-06-26T15:04:55Z</time>
      </trkpt>
      <trkpt lat="47.67836700193584" lon="11.470001405104995">
        <ele>985.370000000000005</ele>
        <time>2015-06-26T15:04:56Z</time>
      </trkpt>
      <trkpt lat="47.678420646116138" lon="11.469971733167768">
        <ele>984.450000000000045</ele>
        <time>2015-06-26T15:04:57Z</time>
      </trkpt>
      <trkpt lat="47.678472697734833" lon="11.469936361536384">
        <ele>983.799999999999955</ele>
        <time>2015-06-26T15:04:58Z</time>
      </trkpt>
      <trkpt lat="47.678526174277067" lon="11.469899397343397">
        <ele>983.419999999999959</ele>
        <time>2015-06-26T15:04:59Z</time>
      </trkpt>
      <trkpt lat="47.678587697446346" lon="11.469792444258928">
        <ele>982.559999999999945</ele>
        <time>2015-06-26T15:05:01Z</time>
      </trkpt>
      <trkpt lat="47.678582752123475" lon="11.469716168940067">
        <ele>981.67999999999995</ele>
        <time>2015-06-26T15:05:02Z</time>
      </trkpt>
      <trkpt lat="47.678580908104777" lon="11.469619441777468">
        <ele>981.559999999999945</ele>
        <time>2015-06-26T15:05:03Z</time>
      </trkpt>
      <trkpt lat="47.678577303886414" lon="11.469089705497026">
        <ele>978.82000000000005</ele>
        <time>2015-06-26T15:05:08Z</time>
      </trkpt>
      <trkpt lat="47.678583757951856" lon="11.468988452106714">
        <ele>978.840000000000032</ele>
        <time>2015-06-26T15:05:09Z</time>
      </trkpt>
      <trkpt lat="47.678611418232322" lon="11.468802122399211">
        <ele>978.460000000000036</ele>
        <time>2015-06-26T15:05:11Z</time>
      </trkpt>
      <trkpt lat="47.67867436632514" lon="11.468540774658322">
        <ele>977.07000000000005</ele>
        <time>2015-06-26T15:05:14Z</time>
      </trkpt>
      <trkpt lat="47.678709318861365" lon="11.468359809368849">
        <ele>976.370000000000005</ele>
        <time>2015-06-26T15:05:16Z</time>
      </trkpt>
      <trkpt lat="47.678752234205604" lon="11.468179430812597">
        <ele>975.740000000000009</ele>
        <time>2015-06-26T15:05:18Z</time>
      </trkpt>
      <trkpt lat="47.678783498704433" lon="11.468092259019613">
        <ele>975.5</ele>
        <time>2015-06-26T15:05:19Z</time>
      </trkpt>
      <trkpt lat="47.678972007706761" lon="11.467729657888412">
        <ele>972.279999999999973</ele>
        <time>2015-06-26T15:05:23Z</time>
      </trkpt>
      <trkpt lat="47.679039398208261" lon="11.467654723674059">
        <ele>971.57000000000005</ele>
        <time>2015-06-26T15:05:24Z</time>
      </trkpt>
      <trkpt lat="47.679116846993566" lon="11.467592194676399">
        <ele>971.07000000000005</ele>
        <time>2015-06-26T15:05:25Z</time>
      </trkpt>
      <trkpt lat="47.679266631603241" lon="11.467475602403283">
        <ele>970.269999999999982</ele>
        <time>2015-06-26T15:05:27Z</time>
      </trkpt>
      <trkpt lat="47.679344248026609" lon="11.467408211901784">
        <ele>969.519999999999982</ele>
        <time>2015-06-26T15:05:28Z</time>
      </trkpt>
      <trkpt lat="47.679501241073012" lon="11.467252057045698">
        <ele>968.860000000000014</ele>
        <time>2015-06-26T15:05:30Z</time>
      </trkpt>
      <trkpt lat="47.679736856371164" lon="11.466985009610653">
        <ele>966.990000000000009</ele>
        <time>2015-06-26T15:05:33Z</time>
      </trkpt>
      <trkpt lat="47.679876917973161" lon="11.466788705438375">
        <ele>965.779999999999973</ele>
        <time>2015-06-26T15:05:35Z</time>
      </trkpt>
      <trkpt lat="47.680020248517394" lon="11.466586533933878">
        <ele>963.879999999999995</ele>
        <time>2015-06-26T15:05:37Z</time>
      </trkpt>
      <trkpt lat="47.680336162447929" lon="11.466182442381978">
        <ele>959.25</ele>
        <time>2015-06-26T15:05:41Z</time>
      </trkpt>
      <trkpt lat="47.680401625111699" lon="11.466071885079145">
        <ele>958.480000000000018</ele>
        <time>2015-06-26T15:05:42Z</time>
      </trkpt>
      <trkpt lat="47.680459460243583" lon="11.465960657224059">
        <ele>958.450000000000045</ele>
        <time>2015-06-26T15:05:43Z</time>
      </trkpt>
      <trkpt lat="47.680728435516357" lon="11.465259091928601">
        <ele>955.169999999999959</ele>
        <time>2015-06-26T15:05:49Z</time>
      </trkpt>
      <trkpt lat="47.680774452164769" lon="11.465162197127938">
        <ele>955.019999999999982</ele>
        <time>2015-06-26T15:05:50Z</time>
      </trkpt>
      <trkpt lat="47.681066812947392" lon="11.464670179411769">
        <ele>954.200000000000045</ele>
        <time>2015-06-26T15:05:56Z</time>
      </trkpt>
      <trkpt lat="47.681212238967419" lon="11.464470019564033">
        <ele>954.309999999999945</ele>
        <time>2015-06-26T15:05:59Z</time>
      </trkpt>
      <trkpt lat="47.68130267970264" lon="11.464360468089581">
        <ele>954.120000000000005</ele>
        <time>2015-06-26T15:06:05Z</time>
      </trkpt>
      <trkpt lat="47.681344756856561" lon="11.464122589677572">
        <ele>953.149999999999977</ele>
        <time>2015-06-26T15:06:33Z</time>
      </trkpt>
      <trkpt lat="47.681360263377428" lon="11.464084619656205">
        <ele>952.940000000000055</ele>
        <time>2015-06-26T15:06:44Z</time>
      </trkpt>
      <trkpt lat="47.681380044668913" lon="11.464067436754704">
        <ele>952.690000000000055</ele>
        <time>2015-06-26T15:06:59Z</time>
      </trkpt>
      <trkpt lat="47.681380966678262" lon="11.464075734838843">
        <ele>952.470000000000027</ele>
        <time>2015-06-26T15:07:43Z</time>
      </trkpt>
      <trkpt lat="47.681408124044538" lon="11.464062659069896">
        <ele>951.32000000000005</ele>
        <time>2015-06-26T15:07:59Z</time>
      </trkpt>
      <trkpt lat="47.6814273186028" lon="11.464056707918644">
        <ele>951.210000000000036</ele>
        <time>2015-06-26T15:08:00Z</time>
      </trkpt>
      <trkpt lat="47.681466713547707" lon="11.464044470340014">
        <ele>949.659999999999968</ele>
        <time>2015-06-26T15:08:03Z</time>
      </trkpt>
      <trkpt lat="47.681557824835181" lon="11.464054947718978">
        <ele>946.639999999999986</ele>
        <time>2015-06-26T15:08:07Z</time>
      </trkpt>
      <trkpt lat="47.681675339117646" lon="11.464084452018142">
        <ele>943.029999999999973</ele>
        <time>2015-06-26T15:08:11Z</time>
      </trkpt>
      <trkpt lat="47.681751698255539" lon="11.464085625484586">
        <ele>940.67999999999995</ele>
        <time>2015-06-26T15:08:14Z</time>
      </trkpt>
      <trkpt lat="47.681780196726322" lon="11.46409073844552">
        <ele>940.200000000000045</ele>
        <time>2015-06-26T15:08:15Z</time>
      </trkpt>
      <trkpt lat="47.68179721198976" lon="11.464088642969728">
        <ele>939.409999999999968</ele>
        <time>2015-06-26T15:08:16Z</time>
      </trkpt>
      <trkpt lat="47.681827889755368" lon="11.464082105085254">
        <ele>938.769999999999982</ele>
        <time>2015-06-26T15:08:17Z</time>
      </trkpt>
      <trkpt lat="47.681843396276236" lon="11.464079674333334">
        <ele>938.350000000000023</ele>
        <time>2015-06-26T15:08:18Z</time>
      </trkpt>
      <trkpt lat="47.681868793442845" lon="11.464063161984086">
        <ele>937.75</ele>
        <time>2015-06-26T15:08:19Z</time>
      </trkpt>
      <trkpt lat="47.681891759857535" lon="11.464057294651866">
        <ele>936.970000000000027</ele>
        <time>2015-06-26T15:08:20Z</time>
      </trkpt>
      <trkpt lat="47.681924700737" lon="11.464043213054538">
        <ele>936.299999999999955</ele>
        <time>2015-06-26T15:08:21Z</time>
      </trkpt>
      <trkpt lat="47.681953199207783" lon="11.464036507532001">
        <ele>935.690000000000055</ele>
        <time>2015-06-26T15:08:22Z</time>
      </trkpt>
      <trkpt lat="47.682112120091915" lon="11.464005829766393">
        <ele>931.710000000000036</ele>
        <time>2015-06-26T15:08:26Z</time>
      </trkpt>
      <trkpt lat="47.682147743180394" lon="11.464005829766393">
        <ele>931.460000000000036</ele>
        <time>2015-06-26T15:08:27Z</time>
      </trkpt>
      <trkpt lat="47.682281518355012" lon="11.463992418721318">
        <ele>929.200000000000045</ele>
        <time>2015-06-26T15:08:30Z</time>
      </trkpt>
      <trkpt lat="47.682406324893236" lon="11.464036507532001">
        <ele>927.580000000000041</ele>
        <time>2015-06-26T15:08:34Z</time>
      </trkpt>
      <trkpt lat="47.682437170296907" lon="11.464034328237176">
        <ele>926.289999999999964</ele>
        <time>2015-06-26T15:08:35Z</time>
      </trkpt>
      <trkpt lat="47.682465584948659" lon="11.464036172255874">
        <ele>926.519999999999982</ele>
        <time>2015-06-26T15:08:36Z</time>
      </trkpt>
      <trkpt lat="47.682494586333632" lon="11.464037597179413">
        <ele>925.409999999999968</ele>
        <time>2015-06-26T15:08:37Z</time>
      </trkpt>
      <trkpt lat="47.682531299069524" lon="11.464032819494605">
        <ele>925.059999999999945</ele>
        <time>2015-06-26T15:08:38Z</time>
      </trkpt>
      <trkpt lat="47.682584272697568" lon="11.464021084830165">
        <ele>924.710000000000036</ele>
        <time>2015-06-26T15:08:39Z</time>
      </trkpt>
      <trkpt lat="47.682632971554995" lon="11.464011697098613">
        <ele>924.450000000000045</ele>
        <time>2015-06-26T15:08:40Z</time>
      </trkpt>
      <trkpt lat="47.682890379801393" lon="11.463965177536011">
        <ele>921.190000000000055</ele>
        <time>2015-06-26T15:08:45Z</time>
      </trkpt>
      <trkpt lat="47.683103699237108" lon="11.463879514485598">
        <ele>918.100000000000023</ele>
        <time>2015-06-26T15:08:50Z</time>
      </trkpt>
      <trkpt lat="47.683196906000376" lon="11.463722605258226">
        <ele>914.92999999999995</ele>
        <time>2015-06-26T15:08:55Z</time>
      </trkpt>
      <trkpt lat="47.683217860758305" lon="11.463486822322011">
        <ele>912.769999999999982</ele>
        <time>2015-06-26T15:08:59Z</time>
      </trkpt>
      <trkpt lat="47.683239066973329" lon="11.463424377143383">
        <ele>912.590000000000032</ele>
        <time>2015-06-26T15:09:00Z</time>
      </trkpt>
      <trkpt lat="47.683344092220068" lon="11.463150708004832">
        <ele>908.960000000000036</ele>
        <time>2015-06-26T15:09:04Z</time>
      </trkpt>
      <trkpt lat="47.683372255414724" lon="11.463078120723367">
        <ele>908.559999999999945</ele>
        <time>2015-06-26T15:09:05Z</time>
      </trkpt>
      <trkpt lat="47.683414248749614" lon="11.462794477120042">
        <ele>905.539999999999964</ele>
        <time>2015-06-26T15:09:10Z</time>
      </trkpt>
      <trkpt lat="47.683376027271152" lon="11.462684841826558">
        <ele>904.799999999999955</ele>
        <time>2015-06-26T15:09:12Z</time>
      </trkpt>
      <trkpt lat="47.683283239603043" lon="11.462494404986501">
        <ele>901.75</ele>
        <time>2015-06-26T15:09:15Z</time>
      </trkpt>
      <trkpt lat="47.683259854093194" lon="11.462424332275987">
        <ele>901.17999999999995</ele>
        <time>2015-06-26T15:09:16Z</time>
      </trkpt>
      <trkpt lat="47.683243341743946" lon="11.462355684489012">
        <ele>900.32000000000005</ele>
        <time>2015-06-26T15:09:17Z</time>
      </trkpt>
      <trkpt lat="47.683231020346284" lon="11.462287707254291">
        <ele>899.620000000000005</ele>
        <time>2015-06-26T15:09:18Z</time>
      </trkpt>
      <trkpt lat="47.683220040053129" lon="11.462223585695028">
        <ele>898.590000000000032</ele>
        <time>2015-06-26T15:09:19Z</time>
      </trkpt>
      <trkpt lat="47.683193888515234" lon="11.462085703387856">
        <ele>896.67999999999995</ele>
        <time>2015-06-26T15:09:21Z</time>
      </trkpt>
      <trkpt lat="47.683156505227089" lon="11.461953772231936">
        <ele>895.269999999999982</ele>
        <time>2015-06-26T15:09:23Z</time>
      </trkpt>
      <trkpt lat="47.683111075311899" lon="11.461797365918756">
        <ele>893.610000000000014</ele>
        <time>2015-06-26T15:09:25Z</time>
      </trkpt>
      <trkpt lat="47.683057598769665" lon="11.461559571325779">
        <ele>889.600000000000023</ele>
        <time>2015-06-26T15:09:28Z</time>
      </trkpt>
      <trkpt lat="47.683051060885191" lon="11.461492851376534">
        <ele>888.610000000000014</ele>
        <time>2015-06-26T15:09:29Z</time>
      </trkpt>
      <trkpt lat="47.683034716174006" lon="11.461314149200916">
        <ele>885.460000000000036</ele>
        <time>2015-06-26T15:09:32Z</time>
      </trkpt>
      <trkpt lat="47.683022059500217" lon="11.46109638735652">
        <ele>882.610000000000014</ele>
        <time>2015-06-26T15:09:36Z</time>
      </trkpt>
      <trkpt lat="47.682992471382022" lon="11.46093612536788">
        <ele>879.340000000000032</ele>
        <time>2015-06-26T15:09:39Z</time>
      </trkpt>
      <trkpt lat="47.682924158871174" lon="11.460772678256035">
        <ele>876.720000000000027</ele>
        <time>2015-06-26T15:09:43Z</time>
      </trkpt>
      <trkpt lat="47.682903371751308" lon="11.460751807317138">
        <ele>875.940000000000055</ele>
        <time>2015-06-26T15:09:44Z</time>
      </trkpt>
      <trkpt lat="47.682786528021097" lon="11.460673017427325">
        <ele>872.720000000000027</ele>
        <time>2015-06-26T15:09:49Z</time>
      </trkpt>
      <trkpt lat="47.682739002630115" lon="11.460636053234339">
        <ele>871.549999999999955</ele>
        <time>2015-06-26T15:09:51Z</time>
      </trkpt>
      <trkpt lat="47.682655351236463" lon="11.460566399618983">
        <ele>869.029999999999973</ele>
        <time>2015-06-26T15:09:54Z</time>
      </trkpt>
      <trkpt lat="47.682632384821773" lon="11.46053547039628">
        <ele>868.379999999999995</ele>
        <time>2015-06-26T15:09:55Z</time>
      </trkpt>
      <trkpt lat="47.68262006342411" lon="11.460503451526165">
        <ele>867.75</ele>
        <time>2015-06-26T15:09:56Z</time>
      </trkpt>
      <trkpt lat="47.682617381215096" lon="11.460464727133512">
        <ele>866.509999999999991</ele>
        <time>2015-06-26T15:09:57Z</time>
      </trkpt>
      <trkpt lat="47.682618722319603" lon="11.460423739627004">
        <ele>865.5</ele>
        <time>2015-06-26T15:09:58Z</time>
      </trkpt>
      <trkpt lat="47.682701284065843" lon="11.460217963904142">
        <ele>862.210000000000036</ele>
        <time>2015-06-26T15:10:03Z</time>
      </trkpt>
      <trkpt lat="47.682749731466174" lon="11.460050577297807">
        <ele>858.970000000000027</ele>
        <time>2015-06-26T15:10:07Z</time>
      </trkpt>
      <trkpt lat="47.682777307927608" lon="11.459919149056077">
        <ele>855.809999999999945</ele>
        <time>2015-06-26T15:10:11Z</time>
      </trkpt>
      <trkpt lat="47.682774877175689" lon="11.459890985861421">
        <ele>855.870000000000005</ele>
        <time>2015-06-26T15:10:12Z</time>
      </trkpt>
      <trkpt lat="47.682766662910581" lon="11.459848154336214">
        <ele>854.879999999999995</ele>
        <time>2015-06-26T15:10:13Z</time>
      </trkpt>
      <trkpt lat="47.682757023721933" lon="11.45979467779398">
        <ele>854.190000000000055</ele>
        <time>2015-06-26T15:10:14Z</time>
      </trkpt>
      <trkpt lat="47.682744534686208" lon="11.459759809076786">
        <ele>853.889999999999986</ele>
        <time>2015-06-26T15:10:15Z</time>
      </trkpt>
      <trkpt lat="47.682725004851818" lon="11.459711194038391">
        <ele>853.049999999999955</ele>
        <time>2015-06-26T15:10:16Z</time>
      </trkpt>
      <trkpt lat="47.682704972103238" lon="11.459668865427375">
        <ele>852.67999999999995</ele>
        <time>2015-06-26T15:10:17Z</time>
      </trkpt>
      <trkpt lat="47.68268602900207" lon="11.459640953689814">
        <ele>852.07000000000005</ele>
        <time>2015-06-26T15:10:18Z</time>
      </trkpt>
      <trkpt lat="47.682663900777698" lon="11.459609270095825">
        <ele>851.690000000000055</ele>
        <time>2015-06-26T15:10:19Z</time>
      </trkpt>
      <trkpt lat="47.682640682905912" lon="11.459584208205342">
        <ele>850.470000000000027</ele>
        <time>2015-06-26T15:10:20Z</time>
      </trkpt>
      <trkpt lat="47.682612435892224" lon="11.459569204598665">
        <ele>849.970000000000027</ele>
        <time>2015-06-26T15:10:21Z</time>
      </trkpt>
      <trkpt lat="47.682582763954997" lon="11.459552189335227">
        <ele>849.690000000000055</ele>
        <time>2015-06-26T15:10:22Z</time>
      </trkpt>
      <trkpt lat="47.68253993242979" lon="11.459538443014026">
        <ele>848.440000000000055</ele>
        <time>2015-06-26T15:10:23Z</time>
      </trkpt>
      <trkpt lat="47.682490311563015" lon="11.459527797996998">
        <ele>846.919999999999959</ele>
        <time>2015-06-26T15:10:24Z</time>
      </trkpt>
      <trkpt lat="47.682323846966028" lon="11.459471806883812">
        <ele>843.919999999999959</ele>
        <time>2015-06-26T15:10:28Z</time>
      </trkpt>
      <trkpt lat="47.682174984365702" lon="11.45936275832355">
        <ele>840.480000000000018</ele>
        <time>2015-06-26T15:10:33Z</time>
      </trkpt>
      <trkpt lat="47.682083286345005" lon="11.45927919074893">
        <ele>837.450000000000045</ele>
        <time>2015-06-26T15:10:38Z</time>
      </trkpt>
      <trkpt lat="47.682048920542002" lon="11.459244405850768">
        <ele>836.580000000000041</ele>
        <time>2015-06-26T15:10:40Z</time>
      </trkpt>
      <trkpt lat="47.681985469534993" lon="11.459125718101859">
        <ele>834.32000000000005</ele>
        <time>2015-06-26T15:10:44Z</time>
      </trkpt>
      <trkpt lat="47.681968873366714" lon="11.459114653989673">
        <ele>833.529999999999973</ele>
        <time>2015-06-26T15:10:45Z</time>
      </trkpt>
      <trkpt lat="47.681942973285913" lon="11.459095040336251">
        <ele>832.549999999999955</ele>
        <time>2015-06-26T15:10:47Z</time>
      </trkpt>
      <trkpt lat="47.681840546429157" lon="11.459068469703197">
        <ele>829.419999999999959</ele>
        <time>2015-06-26T15:10:52Z</time>
      </trkpt>
      <trkpt lat="47.681790171191096" lon="11.459017507731915">
        <ele>828.370000000000005</ele>
        <time>2015-06-26T15:10:54Z</time>
      </trkpt>
      <trkpt lat="47.681697048246861" lon="11.458698995411396">
        <ele>825.700000000000045</ele>
        <time>2015-06-26T15:11:04Z</time>
      </trkpt>
      <trkpt lat="47.681690258905292" lon="11.458684494718909">
        <ele>825.870000000000005</ele>
        <time>2015-06-26T15:11:05Z</time>
      </trkpt>
      <trkpt lat="47.681632339954376" lon="11.458418453112245">
        <ele>825.07000000000005</ele>
        <time>2015-06-26T15:11:23Z</time>
      </trkpt>
      <trkpt lat="47.681633261963725" lon="11.458269255235791">
        <ele>823.789999999999964</ele>
        <time>2015-06-26T15:11:32Z</time>
      </trkpt>
      <trkpt lat="47.681647008284926" lon="11.458222316578031">
        <ele>823.039999999999964</ele>
        <time>2015-06-26T15:11:33Z</time>
      </trkpt>
      <trkpt lat="47.681683050468564" lon="11.458121063187718">
        <ele>822.279999999999973</ele>
        <time>2015-06-26T15:11:35Z</time>
      </trkpt>
      <trkpt lat="47.681752871721983" lon="11.457946887239814">
        <ele>820.450000000000045</ele>
        <time>2015-06-26T15:11:38Z</time>
      </trkpt>
      <trkpt lat="47.681863931939006" lon="11.457711858674884">
        <ele>817.009999999999991</ele>
        <time>2015-06-26T15:11:42Z</time>
      </trkpt>
      <trkpt lat="47.681885473430157" lon="11.457655280828476">
        <ele>817</ele>
        <time>2015-06-26T15:11:43Z</time>
      </trkpt>
      <trkpt lat="47.681899638846517" lon="11.457592500373721">
        <ele>816.870000000000005</ele>
        <time>2015-06-26T15:11:44Z</time>
      </trkpt>
      <trkpt lat="47.681944482028484" lon="11.45723476074636">
        <ele>813.850000000000023</ele>
        <time>2015-06-26T15:11:49Z</time>
      </trkpt>
      <trkpt lat="47.681946828961372" lon="11.457188408821821">
        <ele>813.710000000000036</ele>
        <time>2015-06-26T15:11:50Z</time>
      </trkpt>
      <trkpt lat="47.681943811476231" lon="11.457090592011809">
        <ele>813.409999999999968</ele>
        <time>2015-06-26T15:12:00Z</time>
      </trkpt>
      <trkpt lat="47.681931154802442" lon="11.457030326128006">
        <ele>813.759999999999991</ele>
        <time>2015-06-26T15:12:10Z</time>
      </trkpt>
      <trkpt lat="47.681913385167718" lon="11.456971233710647">
        <ele>813.67999999999995</ele>
        <time>2015-06-26T15:12:12Z</time>
      </trkpt>
      <trkpt lat="47.681905003264546" lon="11.456938544288278">
        <ele>813.389999999999986</ele>
        <time>2015-06-26T15:12:13Z</time>
      </trkpt>
      <trkpt lat="47.681899471208453" lon="11.456555407494307">
        <ele>812.690000000000055</ele>
        <time>2015-06-26T15:12:21Z</time>
      </trkpt>
      <trkpt lat="47.681925371289253" lon="11.455906815826893">
        <ele>811.620000000000005</ele>
        <time>2015-06-26T15:12:33Z</time>
      </trkpt>
      <trkpt lat="47.68196870572865" lon="11.455597272142768">
        <ele>811.07000000000005</ele>
        <time>2015-06-26T15:12:38Z</time>
      </trkpt>
      <trkpt lat="47.68199410289526" lon="11.455541113391519">
        <ele>809.379999999999995</ele>
        <time>2015-06-26T15:12:39Z</time>
      </trkpt>
      <trkpt lat="47.682216390967369" lon="11.455127885565162">
        <ele>805.960000000000036</ele>
        <time>2015-06-26T15:12:44Z</time>
      </trkpt>
      <trkpt lat="47.682276824489236" lon="11.455038031563163">
        <ele>805.139999999999986</ele>
        <time>2015-06-26T15:12:45Z</time>
      </trkpt>
      <trkpt lat="47.682347819209099" lon="11.454964438453317">
        <ele>804.399999999999977</ele>
        <time>2015-06-26T15:12:46Z</time>
      </trkpt>
      <trkpt lat="47.682414203882217" lon="11.454887660220265">
        <ele>804.519999999999982</ele>
        <time>2015-06-26T15:12:47Z</time>
      </trkpt>
      <trkpt lat="47.682598186656833" lon="11.454639723524451">
        <ele>800.860000000000014</ele>
        <time>2015-06-26T15:12:51Z</time>
      </trkpt>
      <trkpt lat="47.682620147243142" lon="11.454579373821616">
        <ele>801.460000000000036</ele>
        <time>2015-06-26T15:12:52Z</time>
      </trkpt>
      <trkpt lat="47.682636743411422" lon="11.454506618902087">
        <ele>801.049999999999955</ele>
        <time>2015-06-26T15:12:53Z</time>
      </trkpt>
      <trkpt lat="47.682643951848149" lon="11.454431097954512">
        <ele>799.779999999999973</ele>
        <time>2015-06-26T15:12:54Z</time>
      </trkpt>
      <trkpt lat="47.682646550238132" lon="11.454357085749507">
        <ele>799.480000000000018</ele>
        <time>2015-06-26T15:12:55Z</time>
      </trkpt>
      <trkpt lat="47.682638922706246" lon="11.454280307516456">
        <ele>798.879999999999995</ele>
        <time>2015-06-26T15:12:56Z</time>
      </trkpt>
      <trkpt lat="47.682616207748652" lon="11.454205457121134">
        <ele>798.669999999999959</ele>
        <time>2015-06-26T15:12:57Z</time>
      </trkpt>
      <trkpt lat="47.682589050382376" lon="11.454107724130154">
        <ele>798.389999999999986</ele>
        <time>2015-06-26T15:12:58Z</time>
      </trkpt>
      <trkpt lat="47.682563234120607" lon="11.454013595357537">
        <ele>798.450000000000045</ele>
        <time>2015-06-26T15:12:59Z</time>
      </trkpt>
      <trkpt lat="47.682541105896235" lon="11.453916365280747">
        <ele>798.200000000000045</ele>
        <time>2015-06-26T15:13:00Z</time>
      </trkpt>
      <trkpt lat="47.682523168623447" lon="11.45382366143167">
        <ele>797.639999999999986</ele>
        <time>2015-06-26T15:13:01Z</time>
      </trkpt>
      <trkpt lat="47.682510931044817" lon="11.453728275373578">
        <ele>797.129999999999995</ele>
        <time>2015-06-26T15:13:02Z</time>
      </trkpt>
      <trkpt lat="47.682501124218106" lon="11.453628027811646">
        <ele>797.129999999999995</ele>
        <time>2015-06-26T15:13:03Z</time>
      </trkpt>
      <trkpt lat="47.682496681809425" lon="11.453528953716159">
        <ele>797.220000000000027</ele>
        <time>2015-06-26T15:13:04Z</time>
      </trkpt>
      <trkpt lat="47.682496681809425" lon="11.453434992581606">
        <ele>797.210000000000036</ele>
        <time>2015-06-26T15:13:05Z</time>
      </trkpt>
      <trkpt lat="47.682502130046487" lon="11.453353185206652">
        <ele>796.42999999999995</ele>
        <time>2015-06-26T15:13:06Z</time>
      </trkpt>
      <trkpt lat="47.682504979893565" lon="11.453255452215672">
        <ele>796.580000000000041</ele>
        <time>2015-06-26T15:13:07Z</time>
      </trkpt>
      <trkpt lat="47.682524090632796" lon="11.452226238325238">
        <ele>794.240000000000009</ele>
        <time>2015-06-26T15:13:17Z</time>
      </trkpt>
      <trkpt lat="47.682554768398404" lon="11.45181099884212">
        <ele>793.440000000000055</ele>
        <time>2015-06-26T15:13:22Z</time>
      </trkpt>
      <trkpt lat="47.682551750913262" lon="11.451646126806736">
        <ele>792.850000000000023</ele>
        <time>2015-06-26T15:13:24Z</time>
      </trkpt>
      <trkpt lat="47.682541692629457" lon="11.451565576717257">
        <ele>792.299999999999955</ele>
        <time>2015-06-26T15:13:25Z</time>
      </trkpt>
      <trkpt lat="47.682500788941979" lon="11.4513941667974">
        <ele>791.5</ele>
        <time>2015-06-26T15:13:27Z</time>
      </trkpt>
      <trkpt lat="47.682471452280879" lon="11.45130674354732">
        <ele>791.32000000000005</ele>
        <time>2015-06-26T15:13:28Z</time>
      </trkpt>
      <trkpt lat="47.682383609935641" lon="11.45105067640543">
        <ele>789.039999999999964</ele>
        <time>2015-06-26T15:13:31Z</time>
      </trkpt>
      <trkpt lat="47.682371539995074" lon="11.450951518490911">
        <ele>788.509999999999991</ele>
        <time>2015-06-26T15:13:32Z</time>
      </trkpt>
      <trkpt lat="47.682369444519281" lon="11.450841212645173">
        <ele>787.539999999999964</ele>
        <time>2015-06-26T15:13:33Z</time>
      </trkpt>
      <trkpt lat="47.682368187233806" lon="11.450730320066214">
        <ele>787.600000000000023</ele>
        <time>2015-06-26T15:13:34Z</time>
      </trkpt>
      <trkpt lat="47.682358380407095" lon="11.450611129403114">
        <ele>786.490000000000009</ele>
        <time>2015-06-26T15:13:35Z</time>
      </trkpt>
      <trkpt lat="47.682339018210769" lon="11.450503254309297">
        <ele>786.139999999999986</ele>
        <time>2015-06-26T15:13:36Z</time>
      </trkpt>
      <trkpt lat="47.68231026828289" lon="11.450391942635179">
        <ele>785.139999999999986</ele>
        <time>2015-06-26T15:13:37Z</time>
      </trkpt>
      <trkpt lat="47.682220498099923" lon="11.450089523568749">
        <ele>782.960000000000036</ele>
        <time>2015-06-26T15:13:40Z</time>
      </trkpt>
      <trkpt lat="47.682190826162696" lon="11.449957927688956">
        <ele>783.149999999999977</ele>
        <time>2015-06-26T15:13:42Z</time>
      </trkpt>
      <trkpt lat="47.682187724858522" lon="11.449899505823851">
        <ele>783.009999999999991</ele>
        <time>2015-06-26T15:13:43Z</time>
      </trkpt>
      <trkpt lat="47.682190574705601" lon="11.449842592701316">
        <ele>783.090000000000032</ele>
        <time>2015-06-26T15:13:44Z</time>
      </trkpt>
      <trkpt lat="47.682239525020123" lon="11.449348982423544">
        <ele>779.940000000000055</ele>
        <time>2015-06-26T15:13:50Z</time>
      </trkpt>
      <trkpt lat="47.68223742954433" lon="11.449259631335735">
        <ele>779.639999999999986</ele>
        <time>2015-06-26T15:13:51Z</time>
      </trkpt>
      <trkpt lat="47.682233154773712" lon="11.44917631521821">
        <ele>779.639999999999986</ele>
        <time>2015-06-26T15:13:52Z</time>
      </trkpt>
      <trkpt lat="47.682219408452511" lon="11.449083611369133">
        <ele>779.029999999999973</ele>
        <time>2015-06-26T15:13:53Z</time>
      </trkpt>
      <trkpt lat="47.682201890274882" lon="11.448988225311041">
        <ele>778.700000000000045</ele>
        <time>2015-06-26T15:13:54Z</time>
      </trkpt>
      <trkpt lat="47.682192754000425" lon="11.448833579197526">
        <ele>777.940000000000055</ele>
        <time>2015-06-26T15:13:56Z</time>
      </trkpt>
      <trkpt lat="47.682211780920625" lon="11.448764679953456">
        <ele>777.230000000000018</ele>
        <time>2015-06-26T15:13:57Z</time>
      </trkpt>
      <trkpt lat="47.682252349331975" lon="11.44870919175446">
        <ele>777.110000000000014</ele>
        <time>2015-06-26T15:13:58Z</time>
      </trkpt>
      <trkpt lat="47.682377826422453" lon="11.44852495752275">
        <ele>775.419999999999959</ele>
        <time>2015-06-26T15:14:01Z</time>
      </trkpt>
      <trkpt lat="47.68241629935801" lon="11.448453543707728">
        <ele>775.700000000000045</ele>
        <time>2015-06-26T15:14:02Z</time>
      </trkpt>
      <trkpt lat="47.682449324056506" lon="11.44837399944663">
        <ele>775.049999999999955</ele>
        <time>2015-06-26T15:14:03Z</time>
      </trkpt>
      <trkpt lat="47.682516882196069" lon="11.448225723579526">
        <ele>774.149999999999977</ele>
        <time>2015-06-26T15:14:05Z</time>
      </trkpt>
      <trkpt lat="47.682550745084882" lon="11.448165960609913">
        <ele>774.399999999999977</ele>
        <time>2015-06-26T15:14:06Z</time>
      </trkpt>
      <trkpt lat="47.682589385658503" lon="11.448116507381201">
        <ele>774.139999999999986</ele>
        <time>2015-06-26T15:14:07Z</time>
      </trkpt>
      <trkpt lat="47.682634731754661" lon="11.448054146021605">
        <ele>773.669999999999959</ele>
        <time>2015-06-26T15:14:08Z</time>
      </trkpt>
      <trkpt lat="47.682684855535626" lon="11.447987845167518">
        <ele>773.230000000000018</ele>
        <time>2015-06-26T15:14:09Z</time>
      </trkpt>
      <trkpt lat="47.682799771428108" lon="11.447847196832299">
        <ele>772.190000000000055</ele>
        <time>2015-06-26T15:14:11Z</time>
      </trkpt>
      <trkpt lat="47.68285165540874" lon="11.447786008939147">
        <ele>771.200000000000045</ele>
        <time>2015-06-26T15:14:12Z</time>
      </trkpt>
      <trkpt lat="47.682897252961993" lon="11.44771040417254">
        <ele>770.809999999999945</ele>
        <time>2015-06-26T15:14:13Z</time>
      </trkpt>
      <trkpt lat="47.682936815544963" lon="11.447636475786567">
        <ele>770.090000000000032</ele>
        <time>2015-06-26T15:14:14Z</time>
      </trkpt>
      <trkpt lat="47.682970426976681" lon="11.447553662583232">
        <ele>770.080000000000041</ele>
        <time>2015-06-26T15:14:15Z</time>
      </trkpt>
      <trkpt lat="47.683000098913908" lon="11.447474369779229">
        <ele>769.809999999999945</ele>
        <time>2015-06-26T15:14:16Z</time>
      </trkpt>
      <trkpt lat="47.683033961802721" lon="11.447396501898766">
        <ele>769.730000000000018</ele>
        <time>2015-06-26T15:14:17Z</time>
      </trkpt>
      <trkpt lat="47.683065813034773" lon="11.447308240458369">
        <ele>769.080000000000041</ele>
        <time>2015-06-26T15:14:18Z</time>
      </trkpt>
      <trkpt lat="47.683098586276174" lon="11.447209669277072">
        <ele>768.190000000000055</ele>
        <time>2015-06-26T15:14:19Z</time>
      </trkpt>
      <trkpt lat="47.683151308447123" lon="11.447141692042351">
        <ele>767.289999999999964</ele>
        <time>2015-06-26T15:14:20Z</time>
      </trkpt>
      <trkpt lat="47.683200845494866" lon="11.44706348888576">
        <ele>767.220000000000027</ele>
        <time>2015-06-26T15:14:21Z</time>
      </trkpt>
      <trkpt lat="47.683316683396697" lon="11.446975311264396">
        <ele>766</ele>
        <time>2015-06-26T15:14:23Z</time>
      </trkpt>
      <trkpt lat="47.68337887711823" lon="11.446976065635681">
        <ele>765.970000000000027</ele>
        <time>2015-06-26T15:14:24Z</time>
      </trkpt>
      <trkpt lat="47.683440232649446" lon="11.446971204131842">
        <ele>764.009999999999991</ele>
        <time>2015-06-26T15:14:25Z</time>
      </trkpt>
      <trkpt lat="47.683490440249443" lon="11.446955781430006">
        <ele>763.509999999999991</ele>
        <time>2015-06-26T15:14:26Z</time>
      </trkpt>
      <trkpt lat="47.683537714183331" lon="11.446930216625333">
        <ele>763.019999999999982</ele>
        <time>2015-06-26T15:14:27Z</time>
      </trkpt>
      <trkpt lat="47.683578617870808" lon="11.44688461907208">
        <ele>762.960000000000036</ele>
        <time>2015-06-26T15:14:28Z</time>
      </trkpt>
      <trkpt lat="47.683619186282158" lon="11.446833489462733">
        <ele>762.590000000000032</ele>
        <time>2015-06-26T15:14:29Z</time>
      </trkpt>
      <trkpt lat="47.683654557913542" lon="11.446767440065742">
        <ele>762.610000000000014</ele>
        <time>2015-06-26T15:14:30Z</time>
      </trkpt>
      <trkpt lat="47.683688839897513" lon="11.446688650175929">
        <ele>761.840000000000032</ele>
        <time>2015-06-26T15:14:31Z</time>
      </trkpt>
      <trkpt lat="47.683723624795675" lon="11.446607178077102">
        <ele>761.279999999999973</ele>
        <time>2015-06-26T15:14:32Z</time>
      </trkpt>
      <trkpt lat="47.683829152956605" lon="11.446360666304827">
        <ele>760.399999999999977</ele>
        <time>2015-06-26T15:14:35Z</time>
      </trkpt>
      <trkpt lat="47.683879276737571" lon="11.446302160620689">
        <ele>760.460000000000036</ele>
        <time>2015-06-26T15:14:36Z</time>
      </trkpt>
      <trkpt lat="47.683935854583979" lon="11.446254383772612">
        <ele>760.360000000000014</ele>
        <time>2015-06-26T15:14:37Z</time>
      </trkpt>
      <trkpt lat="47.683992935344577" lon="11.446211552247405">
        <ele>759.450000000000045</ele>
        <time>2015-06-26T15:14:38Z</time>
      </trkpt>
      <trkpt lat="47.684054877609015" lon="11.446178779006004">
        <ele>759.42999999999995</ele>
        <time>2015-06-26T15:14:39Z</time>
      </trkpt>
      <trkpt lat="47.68411866389215" lon="11.446158746257424">
        <ele>759.25</ele>
        <time>2015-06-26T15:14:40Z</time>
      </trkpt>
      <trkpt lat="47.684168452396989" lon="11.446129661053419">
        <ele>759.610000000000014</ele>
        <time>2015-06-26T15:14:41Z</time>
      </trkpt>
      <trkpt lat="47.684194352477789" lon="11.446050619706511">
        <ele>758.919999999999959</ele>
        <time>2015-06-26T15:14:42Z</time>
      </trkpt>
      <trkpt lat="47.684211535379291" lon="11.445983061566949">
        <ele>758.970000000000027</ele>
        <time>2015-06-26T15:14:43Z</time>
      </trkpt>
      <trkpt lat="47.684230646118522" lon="11.445930926129222">
        <ele>758.629999999999995</ele>
        <time>2015-06-26T15:14:44Z</time>
      </trkpt>
      <trkpt lat="47.684241458773613" lon="11.445888848975301">
        <ele>758.370000000000005</ele>
        <time>2015-06-26T15:14:45Z</time>
      </trkpt>
      <trkpt lat="47.684247242286801" lon="11.44584534689784">
        <ele>758.17999999999995</ele>
        <time>2015-06-26T15:14:46Z</time>
      </trkpt>
      <trkpt lat="47.684241961687803" lon="11.445792121812701">
        <ele>757.92999999999995</ele>
        <time>2015-06-26T15:14:47Z</time>
      </trkpt>
      <trkpt lat="47.684222599491477" lon="11.445750379934907">
        <ele>757.629999999999995</ele>
        <time>2015-06-26T15:14:48Z</time>
      </trkpt>
      <trkpt lat="47.684181779623032" lon="11.445699082687497">
        <ele>757.009999999999991</ele>
        <time>2015-06-26T15:14:49Z</time>
      </trkpt>
      <trkpt lat="47.684132577851415" lon="11.445621885359287">
        <ele>757.240000000000009</ele>
        <time>2015-06-26T15:14:50Z</time>
      </trkpt>
      <trkpt lat="47.683992683887482" lon="11.445401944220066">
        <ele>755.350000000000023</ele>
        <time>2015-06-26T15:14:53Z</time>
      </trkpt>
      <trkpt lat="47.683955384418368" lon="11.445335475727916">
        <ele>754.860000000000014</ele>
        <time>2015-06-26T15:14:54Z</time>
      </trkpt>
      <trkpt lat="47.683926969766617" lon="11.445253416895866">
        <ele>754.470000000000027</ele>
        <time>2015-06-26T15:14:55Z</time>
      </trkpt>
      <trkpt lat="47.683916660025716" lon="11.445169849321246">
        <ele>753.75</ele>
        <time>2015-06-26T15:14:56Z</time>
      </trkpt>
      <trkpt lat="47.683924874290824" lon="11.445080330595374">
        <ele>753.740000000000009</ele>
        <time>2015-06-26T15:14:57Z</time>
      </trkpt>
      <trkpt lat="47.683946080505848" lon="11.444991985335946">
        <ele>752.950000000000045</ele>
        <time>2015-06-26T15:14:58Z</time>
      </trkpt>
      <trkpt lat="47.683990923687816" lon="11.444923589006066">
        <ele>752.840000000000032</ele>
        <time>2015-06-26T15:14:59Z</time>
      </trkpt>
      <trkpt lat="47.68404096364975" lon="11.44486466422677">
        <ele>752.32000000000005</ele>
        <time>2015-06-26T15:15:00Z</time>
      </trkpt>
      <trkpt lat="47.684103325009346" lon="11.444823844358325">
        <ele>751.799999999999955</ele>
        <time>2015-06-26T15:15:01Z</time>
      </trkpt>
      <trkpt lat="47.684171386063099" lon="11.444798447191715">
        <ele>750.82000000000005</ele>
        <time>2015-06-26T15:15:02Z</time>
      </trkpt>
      <trkpt lat="47.684237854555249" lon="11.444784281775355">
        <ele>751.269999999999982</ele>
        <time>2015-06-26T15:15:03Z</time>
      </trkpt>
      <trkpt lat="47.684305245056748" lon="11.444776905700564">
        <ele>750.990000000000009</ele>
        <time>2015-06-26T15:15:04Z</time>
      </trkpt>
      <trkpt lat="47.68443918786943" lon="11.444760309532285">
        <ele>750.309999999999945</ele>
        <time>2015-06-26T15:15:06Z</time>
      </trkpt>
      <trkpt lat="47.684500459581614" lon="11.444741953164339">
        <ele>749.830000000000041</ele>
        <time>2015-06-26T15:15:07Z</time>
      </trkpt>
      <trkpt lat="47.684657787904143" lon="11.444686129689217">
        <ele>747.940000000000055</ele>
        <time>2015-06-26T15:15:10Z</time>
      </trkpt>
      <trkpt lat="47.684707660228014" lon="11.444646650925279">
        <ele>747.190000000000055</ele>
        <time>2015-06-26T15:15:11Z</time>
      </trkpt>
      <trkpt lat="47.684799525886774" lon="11.444568196311593">
        <ele>746.559999999999945</ele>
        <time>2015-06-26T15:15:13Z</time>
      </trkpt>
      <trkpt lat="47.684832466766238" lon="11.444523772224784">
        <ele>746.129999999999995</ele>
        <time>2015-06-26T15:15:14Z</time>
      </trkpt>
      <trkpt lat="47.68485358916223" lon="11.444470463320613">
        <ele>745.789999999999964</ele>
        <time>2015-06-26T15:15:15Z</time>
      </trkpt>
      <trkpt lat="47.684866497293115" lon="11.444428050890565">
        <ele>745.600000000000023</ele>
        <time>2015-06-26T15:15:16Z</time>
      </trkpt>
      <trkpt lat="47.684879992157221" lon="11.444368874654174">
        <ele>745.610000000000014</ele>
        <time>2015-06-26T15:15:17Z</time>
      </trkpt>
      <trkpt lat="47.684894241392612" lon="11.444330485537648">
        <ele>745.419999999999959</ele>
        <time>2015-06-26T15:15:18Z</time>
      </trkpt>
      <trkpt lat="47.684914022684097" lon="11.44428220577538">
        <ele>745.350000000000023</ele>
        <time>2015-06-26T15:15:19Z</time>
      </trkpt>
      <trkpt lat="47.684939168393612" lon="11.444232417270541">
        <ele>745.730000000000018</ele>
        <time>2015-06-26T15:15:20Z</time>
      </trkpt>
      <trkpt lat="47.68497621640563" lon="11.444187574088573">
        <ele>745.289999999999964</ele>
        <time>2015-06-26T15:15:21Z</time>
      </trkpt>
      <trkpt lat="47.684997422620654" lon="11.444151448085904">
        <ele>744.980000000000018</ele>
        <time>2015-06-26T15:15:22Z</time>
      </trkpt>
      <trkpt lat="47.685023490339518" lon="11.444114232435822">
        <ele>744.42999999999995</ele>
        <time>2015-06-26T15:15:23Z</time>
      </trkpt>
      <trkpt lat="47.685050899162889" lon="11.444080285727978">
        <ele>744.289999999999964</ele>
        <time>2015-06-26T15:15:24Z</time>
      </trkpt>
      <trkpt lat="47.685083420947194" lon="11.444005938246846">
        <ele>743.590000000000032</ele>
        <time>2015-06-26T15:15:31Z</time>
      </trkpt>
      <trkpt lat="47.68509984947741" lon="11.44394701346755">
        <ele>743.629999999999995</ele>
        <time>2015-06-26T15:15:33Z</time>
      </trkpt>
      <trkpt lat="47.685149805620313" lon="11.443795720115304">
        <ele>743.409999999999968</ele>
        <time>2015-06-26T15:15:36Z</time>
      </trkpt>
      <trkpt lat="47.68525131046772" lon="11.443543843924999">
        <ele>742.740000000000009</ele>
        <time>2015-06-26T15:15:40Z</time>
      </trkpt>
      <trkpt lat="47.685277462005615" lon="11.443477543070912">
        <ele>742.549999999999955</ele>
        <time>2015-06-26T15:15:41Z</time>
      </trkpt>
      <trkpt lat="47.685302775353193" lon="11.443412583321333">
        <ele>742.509999999999991</ele>
        <time>2015-06-26T15:15:42Z</time>
      </trkpt>
      <trkpt lat="47.68532557412982" lon="11.443345528095961">
        <ele>742.139999999999986</ele>
        <time>2015-06-26T15:15:43Z</time>
      </trkpt>
      <trkpt lat="47.685343595221639" lon="11.443276377394795">
        <ele>741.92999999999995</ele>
        <time>2015-06-26T15:15:44Z</time>
      </trkpt>
      <trkpt lat="47.685370333492756" lon="11.443210830911994">
        <ele>741.899999999999977</ele>
        <time>2015-06-26T15:15:45Z</time>
      </trkpt>
      <trkpt lat="47.685398161411285" lon="11.443141009658575">
        <ele>741.629999999999995</ele>
        <time>2015-06-26T15:15:46Z</time>
      </trkpt>
      <trkpt lat="47.685423893854022" lon="11.443071607500315">
        <ele>741.850000000000023</ele>
        <time>2015-06-26T15:15:47Z</time>
      </trkpt>
      <trkpt lat="47.685472592711449" lon="11.442955434322357">
        <ele>741.659999999999968</ele>
        <time>2015-06-26T15:15:49Z</time>
      </trkpt>
      <trkpt lat="47.685522884130478" lon="11.442855102941394">
        <ele>740.909999999999968</ele>
        <time>2015-06-26T15:15:51Z</time>
      </trkpt>
      <trkpt lat="47.6855493709445" lon="11.442798944190145">
        <ele>740.840000000000032</ele>
        <time>2015-06-26T15:15:52Z</time>
      </trkpt>
      <trkpt lat="47.68558164127171" lon="11.442735577002168">
        <ele>741.080000000000041</ele>
        <time>2015-06-26T15:15:53Z</time>
      </trkpt>
      <trkpt lat="47.685804013162851" lon="11.442326456308365">
        <ele>740.360000000000014</ele>
        <time>2015-06-26T15:16:00Z</time>
      </trkpt>
      <trkpt lat="47.685950864106417" lon="11.442137947306037">
        <ele>740.049999999999955</ele>
        <time>2015-06-26T15:16:04Z</time>
      </trkpt>
      <trkpt lat="47.685998640954494" lon="11.442092685028911">
        <ele>739.799999999999955</ele>
        <time>2015-06-26T15:16:05Z</time>
      </trkpt>
      <trkpt lat="47.68604876473546" lon="11.442055720835924">
        <ele>739.990000000000009</ele>
        <time>2015-06-26T15:16:06Z</time>
      </trkpt>
      <trkpt lat="47.686104252934456" lon="11.442031832411885">
        <ele>739.169999999999959</ele>
        <time>2015-06-26T15:16:07Z</time>
      </trkpt>
      <trkpt lat="47.686160914599895" lon="11.44201498478651">
        <ele>738.809999999999945</ele>
        <time>2015-06-26T15:16:08Z</time>
      </trkpt>
      <trkpt lat="47.686226293444633" lon="11.44200325012207">
        <ele>738.720000000000027</ele>
        <time>2015-06-26T15:16:09Z</time>
      </trkpt>
      <trkpt lat="47.686295192688704" lon="11.442005597054958">
        <ele>738.220000000000027</ele>
        <time>2015-06-26T15:16:10Z</time>
      </trkpt>
      <trkpt lat="47.686361325904727" lon="11.442028228193521">
        <ele>737.950000000000045</ele>
        <time>2015-06-26T15:16:11Z</time>
      </trkpt>
      <trkpt lat="47.686422346159816" lon="11.442059073597193">
        <ele>737.779999999999973</ele>
        <time>2015-06-26T15:16:12Z</time>
      </trkpt>
      <trkpt lat="47.686483198776841" lon="11.442081201821566">
        <ele>736.950000000000045</ele>
        <time>2015-06-26T15:16:13Z</time>
      </trkpt>
      <trkpt lat="47.68685937859118" lon="11.44225780852139">
        <ele>734.82000000000005</ele>
        <time>2015-06-26T15:16:19Z</time>
      </trkpt>
      <trkpt lat="47.686900785192847" lon="11.442274656146765">
        <ele>734.309999999999945</ele>
        <time>2015-06-26T15:16:20Z</time>
      </trkpt>
      <trkpt lat="47.686945460736752" lon="11.442261664196849">
        <ele>734.379999999999995</ele>
        <time>2015-06-26T15:16:21Z</time>
      </trkpt>
      <trkpt lat="47.686992483213544" lon="11.442249258980155">
        <ele>733.960000000000036</ele>
        <time>2015-06-26T15:16:22Z</time>
      </trkpt>
      <trkpt lat="47.687021149322391" lon="11.442230734974146">
        <ele>733.690000000000055</ele>
        <time>2015-06-26T15:16:23Z</time>
      </trkpt>
      <trkpt lat="47.687072111293674" lon="11.44220307469368">
        <ele>734.009999999999991</ele>
        <time>2015-06-26T15:16:24Z</time>
      </trkpt>
      <trkpt lat="47.687120474874973" lon="11.442173486575484">
        <ele>733.490000000000009</ele>
        <time>2015-06-26T15:16:25Z</time>
      </trkpt>
      <trkpt lat="47.687161462381482" lon="11.442119926214218">
        <ele>733.210000000000036</ele>
        <time>2015-06-26T15:16:26Z</time>
      </trkpt>
      <trkpt lat="47.687208317220211" lon="11.442064857110381">
        <ele>733.07000000000005</ele>
        <time>2015-06-26T15:16:27Z</time>
      </trkpt>
      <trkpt lat="47.687256177887321" lon="11.442010458558798">
        <ele>732.379999999999995</ele>
        <time>2015-06-26T15:16:28Z</time>
      </trkpt>
      <trkpt lat="47.687342176213861" lon="11.441871235147119">
        <ele>731.549999999999955</ele>
        <time>2015-06-26T15:16:30Z</time>
      </trkpt>
      <trkpt lat="47.687378469854593" lon="11.44178481772542">
        <ele>730.990000000000009</ele>
        <time>2015-06-26T15:16:31Z</time>
      </trkpt>
      <trkpt lat="47.687445105984807" lon="11.44160645082593">
        <ele>729.92999999999995</ele>
        <time>2015-06-26T15:16:33Z</time>
      </trkpt>
      <trkpt lat="47.687464216724038" lon="11.441500168293715">
        <ele>729.539999999999964</ele>
        <time>2015-06-26T15:16:34Z</time>
      </trkpt>
      <trkpt lat="47.687481818720698" lon="11.441408051177859">
        <ele>729.279999999999973</ele>
        <time>2015-06-26T15:16:35Z</time>
      </trkpt>
      <trkpt lat="47.687655994668603" lon="11.440857946872711">
        <ele>728.42999999999995</ele>
        <time>2015-06-26T15:16:42Z</time>
      </trkpt>
      <trkpt lat="47.687679044902325" lon="11.440782090649009">
        <ele>728.389999999999986</ele>
        <time>2015-06-26T15:16:43Z</time>
      </trkpt>
      <trkpt lat="47.687926646322012" lon="11.440102737396955">
        <ele>727.299999999999955</ele>
        <time>2015-06-26T15:16:53Z</time>
      </trkpt>
      <trkpt lat="47.687961347401142" lon="11.440051775425673">
        <ele>726.740000000000009</ele>
        <time>2015-06-26T15:16:54Z</time>
      </trkpt>
      <trkpt lat="47.68800426274538" lon="11.440005004405975">
        <ele>726.5</ele>
        <time>2015-06-26T15:16:55Z</time>
      </trkpt>
      <trkpt lat="47.68804625608027" lon="11.439956221729517">
        <ele>726.129999999999995</ele>
        <time>2015-06-26T15:16:56Z</time>
      </trkpt>
      <trkpt lat="47.688093362376094" lon="11.439907355234027">
        <ele>726.220000000000027</ele>
        <time>2015-06-26T15:16:57Z</time>
      </trkpt>
      <trkpt lat="47.688143821433187" lon="11.439867541193962">
        <ele>726.220000000000027</ele>
        <time>2015-06-26T15:16:58Z</time>
      </trkpt>
      <trkpt lat="47.688196878880262" lon="11.439832001924515">
        <ele>726.240000000000009</ele>
        <time>2015-06-26T15:16:59Z</time>
      </trkpt>
      <trkpt lat="47.688252869993448" lon="11.439803587272763">
        <ele>726.299999999999955</ele>
        <time>2015-06-26T15:17:00Z</time>
      </trkpt>
      <trkpt lat="47.688309783115983" lon="11.43978338688612">
        <ele>726.190000000000055</ele>
        <time>2015-06-26T15:17:01Z</time>
      </trkpt>
      <trkpt lat="47.688365522772074" lon="11.439769808202982">
        <ele>725.5</ele>
        <time>2015-06-26T15:17:02Z</time>
      </trkpt>
      <trkpt lat="47.688425034284592" lon="11.439764024689794">
        <ele>725.139999999999986</ele>
        <time>2015-06-26T15:17:03Z</time>
      </trkpt>
      <trkpt lat="47.688483288511634" lon="11.439759163185954">
        <ele>725.42999999999995</ele>
        <time>2015-06-26T15:17:04Z</time>
      </trkpt>
      <trkpt lat="47.688538525253534" lon="11.439762599766254">
        <ele>724.980000000000018</ele>
        <time>2015-06-26T15:17:05Z</time>
      </trkpt>
      <trkpt lat="47.688595438376069" lon="11.439772909507155">
        <ele>724.809999999999945</ele>
        <time>2015-06-26T15:17:06Z</time>
      </trkpt>
      <trkpt lat="47.688725693151355" lon="11.439790762960911">
        <ele>724.769999999999982</ele>
        <time>2015-06-26T15:17:08Z</time>
      </trkpt>
      <trkpt lat="47.68890137784183" lon="11.439782045781612">
        <ele>723.67999999999995</ele>
        <time>2015-06-26T15:17:11Z</time>
      </trkpt>
      <trkpt lat="47.688943035900593" lon="11.439786069095135">
        <ele>722.629999999999995</ele>
        <time>2015-06-26T15:17:12Z</time>
      </trkpt>
      <trkpt lat="47.688987040892243" lon="11.439785398542881">
        <ele>722.480000000000018</ele>
        <time>2015-06-26T15:17:13Z</time>
      </trkpt>
      <trkpt lat="47.68902450799942" lon="11.439776094630361">
        <ele>722.080000000000041</ele>
        <time>2015-06-26T15:17:14Z</time>
      </trkpt>
      <trkpt lat="47.689066668972373" lon="11.439731754362583">
        <ele>721.610000000000014</ele>
        <time>2015-06-26T15:17:15Z</time>
      </trkpt>
      <trkpt lat="47.689105812460184" lon="11.439691269770265">
        <ele>720.870000000000005</ele>
        <time>2015-06-26T15:17:16Z</time>
      </trkpt>
      <trkpt lat="47.689146548509598" lon="11.439634440466762">
        <ele>719.92999999999995</ele>
        <time>2015-06-26T15:17:17Z</time>
      </trkpt>
      <trkpt lat="47.689182590693235" lon="11.439568307250738">
        <ele>720.120000000000005</ele>
        <time>2015-06-26T15:17:18Z</time>
      </trkpt>
      <trkpt lat="47.689199689775705" lon="11.439486499875784">
        <ele>719.370000000000005</ele>
        <time>2015-06-26T15:17:19Z</time>
      </trkpt>
      <trkpt lat="47.689211592078209" lon="11.43939689733088">
        <ele>719.299999999999955</ele>
        <time>2015-06-26T15:17:20Z</time>
      </trkpt>
      <trkpt lat="47.689215615391731" lon="11.439307630062103">
        <ele>718.789999999999964</ele>
        <time>2015-06-26T15:17:21Z</time>
      </trkpt>
      <trkpt lat="47.689219135791063" lon="11.439222218468785">
        <ele>718.42999999999995</ele>
        <time>2015-06-26T15:17:22Z</time>
      </trkpt>
      <trkpt lat="47.689219554886222" lon="11.439127335324883">
        <ele>718.629999999999995</ele>
        <time>2015-06-26T15:17:23Z</time>
      </trkpt>
      <trkpt lat="47.689223829656839" lon="11.439037648960948">
        <ele>717.82000000000005</ele>
        <time>2015-06-26T15:17:24Z</time>
      </trkpt>
      <trkpt lat="47.689325753599405" lon="11.438531801104546">
        <ele>717.799999999999955</ele>
        <time>2015-06-26T15:17:31Z</time>
      </trkpt>
      <trkpt lat="47.689363304525614" lon="11.438477151095867">
        <ele>717.450000000000045</ele>
        <time>2015-06-26T15:17:32Z</time>
      </trkpt>
      <trkpt lat="47.689401274546981" lon="11.438428452238441">
        <ele>717.539999999999964</ele>
        <time>2015-06-26T15:17:33Z</time>
      </trkpt>
      <trkpt lat="47.689455589279532" lon="11.438376065343618">
        <ele>716.529999999999973</ele>
        <time>2015-06-26T15:17:34Z</time>
      </trkpt>
      <trkpt lat="47.689514178782701" lon="11.438329797238111">
        <ele>715.919999999999959</ele>
        <time>2015-06-26T15:17:35Z</time>
      </trkpt>
      <trkpt lat="47.689586179330945" lon="11.438279170542955">
        <ele>715.409999999999968</ele>
        <time>2015-06-26T15:17:36Z</time>
      </trkpt>
      <trkpt lat="47.689658850431442" lon="11.438247486948967">
        <ele>714.539999999999964</ele>
        <time>2015-06-26T15:17:37Z</time>
      </trkpt>
      <trkpt lat="47.689729342237115" lon="11.438207002356648">
        <ele>714.539999999999964</ele>
        <time>2015-06-26T15:17:38Z</time>
      </trkpt>
      <trkpt lat="47.689793882891536" lon="11.438198955729604">
        <ele>714.059999999999945</ele>
        <time>2015-06-26T15:17:39Z</time>
      </trkpt>
      <trkpt lat="47.689977614209056" lon="11.438172804191709">
        <ele>713.529999999999973</ele>
        <time>2015-06-26T15:17:42Z</time>
      </trkpt>
      <trkpt lat="47.690018434077501" lon="11.438177162781358">
        <ele>713.399999999999977</ele>
        <time>2015-06-26T15:17:43Z</time>
      </trkpt>
      <trkpt lat="47.690065624192357" lon="11.438182443380356">
        <ele>713.240000000000009</ele>
        <time>2015-06-26T15:17:44Z</time>
      </trkpt>
      <trkpt lat="47.690075682476163" lon="11.438209349289536">
        <ele>713.019999999999982</ele>
        <time>2015-06-26T15:17:45Z</time>
      </trkpt>
      <trkpt lat="47.690116837620735" lon="11.438229298219085">
        <ele>712.450000000000045</ele>
        <time>2015-06-26T15:17:46Z</time>
      </trkpt>
      <trkpt lat="47.690150532871485" lon="11.438242625445127">
        <ele>711.710000000000036</ele>
        <time>2015-06-26T15:17:47Z</time>
      </trkpt>
      <trkpt lat="47.690182635560632" lon="11.438231645151973">
        <ele>711.629999999999995</ele>
        <time>2015-06-26T15:17:48Z</time>
      </trkpt>
      <trkpt lat="47.690222281962633" lon="11.438202308490872">
        <ele>711.220000000000027</ele>
        <time>2015-06-26T15:17:49Z</time>
      </trkpt>
      <trkpt lat="47.690260168164968" lon="11.438162159174681">
        <ele>710.919999999999959</ele>
        <time>2015-06-26T15:17:50Z</time>
      </trkpt>
      <trkpt lat="47.690289923921227" lon="11.438102144747972">
        <ele>710.149999999999977</ele>
        <time>2015-06-26T15:17:51Z</time>
      </trkpt>
      <trkpt lat="47.690313309431076" lon="11.438033077865839">
        <ele>709.490000000000009</ele>
        <time>2015-06-26T15:17:52Z</time>
      </trkpt>
      <trkpt lat="47.690326552838087" lon="11.43796325661242">
        <ele>708.960000000000036</ele>
        <time>2015-06-26T15:17:53Z</time>
      </trkpt>
      <trkpt lat="47.690336359664798" lon="11.437901146709919">
        <ele>708.879999999999995</ele>
        <time>2015-06-26T15:17:54Z</time>
      </trkpt>
      <trkpt lat="47.690357230603695" lon="11.437824284657836">
        <ele>708.850000000000023</ele>
        <time>2015-06-26T15:17:55Z</time>
      </trkpt>
      <trkpt lat="47.690367372706532" lon="11.437729317694902">
        <ele>708.450000000000045</ele>
        <time>2015-06-26T15:17:56Z</time>
      </trkpt>
      <trkpt lat="47.690364858135581" lon="11.437650611624122">
        <ele>708.129999999999995</ele>
        <time>2015-06-26T15:17:57Z</time>
      </trkpt>
      <trkpt lat="47.690356140956283" lon="11.437572743743658">
        <ele>707.710000000000036</ele>
        <time>2015-06-26T15:17:58Z</time>
      </trkpt>
      <trkpt lat="47.690347256138921" lon="11.437489511445165">
        <ele>707.549999999999955</ele>
        <time>2015-06-26T15:17:59Z</time>
      </trkpt>
      <trkpt lat="47.690332755446434" lon="11.437412397935987">
        <ele>707.139999999999986</ele>
        <time>2015-06-26T15:18:00Z</time>
      </trkpt>
      <trkpt lat="47.690264694392681" lon="11.436487790197134">
        <ele>705.990000000000009</ele>
        <time>2015-06-26T15:18:12Z</time>
      </trkpt>
      <trkpt lat="47.690191520377994" lon="11.435855124145746">
        <ele>704.279999999999973</ele>
        <time>2015-06-26T15:18:19Z</time>
      </trkpt>
      <trkpt lat="47.690198225900531" lon="11.435654545202851">
        <ele>703.850000000000023</ele>
        <time>2015-06-26T15:18:21Z</time>
      </trkpt>
      <trkpt lat="47.690232004970312" lon="11.435453966259956">
        <ele>703.220000000000027</ele>
        <time>2015-06-26T15:18:23Z</time>
      </trkpt>
      <trkpt lat="47.690261760726571" lon="11.435376266017556">
        <ele>703.110000000000014</ele>
        <time>2015-06-26T15:18:24Z</time>
      </trkpt>
      <trkpt lat="47.690298641100526" lon="11.435306360945106">
        <ele>702.529999999999973</ele>
        <time>2015-06-26T15:18:25Z</time>
      </trkpt>
      <trkpt lat="47.690424369648099" lon="11.435099076479673">
        <ele>701.399999999999977</ele>
        <time>2015-06-26T15:18:28Z</time>
      </trkpt>
      <trkpt lat="47.69047767855227" lon="11.435053143650293">
        <ele>702.029999999999973</ele>
        <time>2015-06-26T15:18:29Z</time>
      </trkpt>
      <trkpt lat="47.69053291529417" lon="11.435019867494702">
        <ele>701.080000000000041</ele>
        <time>2015-06-26T15:18:30Z</time>
      </trkpt>
      <trkpt lat="47.690586978569627" lon="11.435001427307725">
        <ele>701.620000000000005</ele>
        <time>2015-06-26T15:18:31Z</time>
      </trkpt>
      <trkpt lat="47.690633330494165" lon="11.434982903301716">
        <ele>701.559999999999945</ele>
        <time>2015-06-26T15:18:32Z</time>
      </trkpt>
      <trkpt lat="47.690688734874129" lon="11.434969492256641">
        <ele>701.580000000000041</ele>
        <time>2015-06-26T15:18:33Z</time>
      </trkpt>
      <trkpt lat="47.690742630511522" lon="11.434957925230265">
        <ele>701.399999999999977</ele>
        <time>2015-06-26T15:18:34Z</time>
      </trkpt>
      <trkpt lat="47.690785210579634" lon="11.434943173080683">
        <ele>701.529999999999973</ele>
        <time>2015-06-26T15:18:35Z</time>
      </trkpt>
      <trkpt lat="47.690826365724206" lon="11.434923391789198">
        <ele>701.559999999999945</ele>
        <time>2015-06-26T15:18:36Z</time>
      </trkpt>
      <trkpt lat="47.690867017954588" lon="11.43489757552743">
        <ele>701.279999999999973</ele>
        <time>2015-06-26T15:18:37Z</time>
      </trkpt>
      <trkpt lat="47.69090423360467" lon="11.434866646304727">
        <ele>701.419999999999959</ele>
        <time>2015-06-26T15:18:38Z</time>
      </trkpt>
      <trkpt lat="47.690952513366938" lon="11.434827754274011">
        <ele>701.200000000000045</ele>
        <time>2015-06-26T15:18:39Z</time>
      </trkpt>
      <trkpt lat="47.69098537042737" lon="11.434786515310407">
        <ele>701.220000000000027</ele>
        <time>2015-06-26T15:18:40Z</time>
      </trkpt>
      <trkpt lat="47.691032225266099" lon="11.434741169214249">
        <ele>701.690000000000055</ele>
        <time>2015-06-26T15:18:41Z</time>
      </trkpt>
      <trkpt lat="47.691077403724194" lon="11.434693057090044">
        <ele>701.019999999999982</ele>
        <time>2015-06-26T15:18:42Z</time>
      </trkpt>
      <trkpt lat="47.691120486706495" lon="11.434642262756824">
        <ele>701</ele>
        <time>2015-06-26T15:18:43Z</time>
      </trkpt>
      <trkpt lat="47.691158624365926" lon="11.434592893347144">
        <ele>700.830000000000041</ele>
        <time>2015-06-26T15:18:44Z</time>
      </trkpt>
      <trkpt lat="47.691195923835039" lon="11.434541009366512">
        <ele>700.92999999999995</ele>
        <time>2015-06-26T15:18:45Z</time>
      </trkpt>
      <trkpt lat="47.691234648227692" lon="11.434494154527783">
        <ele>700.779999999999973</ele>
        <time>2015-06-26T15:18:46Z</time>
      </trkpt>
      <trkpt lat="47.691271444782615" lon="11.434451155364513">
        <ele>701.269999999999982</ele>
        <time>2015-06-26T15:18:47Z</time>
      </trkpt>
      <trkpt lat="47.691372446715832" lon="11.43432735465467">
        <ele>701.240000000000009</ele>
        <time>2015-06-26T15:18:50Z</time>
      </trkpt>
      <trkpt lat="47.691416367888451" lon="11.434295754879713">
        <ele>701.210000000000036</ele>
        <time>2015-06-26T15:18:51Z</time>
      </trkpt>
      <trkpt lat="47.691468168050051" lon="11.434264490380883">
        <ele>700.840000000000032</ele>
        <time>2015-06-26T15:18:52Z</time>
      </trkpt>
      <trkpt lat="47.691675871610641" lon="11.434110263362527">
        <ele>696.950000000000045</ele>
        <time>2015-06-26T15:18:56Z</time>
      </trkpt>
      <trkpt lat="47.691714009270072" lon="11.434059469029307">
        <ele>697.120000000000005</ele>
        <time>2015-06-26T15:18:57Z</time>
      </trkpt>
      <trkpt lat="47.691732281818986" lon="11.433990569785237">
        <ele>696.590000000000032</ele>
        <time>2015-06-26T15:18:58Z</time>
      </trkpt>
      <trkpt lat="47.691744854673743" lon="11.433914629742503">
        <ele>696.350000000000023</ele>
        <time>2015-06-26T15:18:59Z</time>
      </trkpt>
      <trkpt lat="47.691766563802958" lon="11.433766689151525">
        <ele>695.470000000000027</ele>
        <time>2015-06-26T15:19:01Z</time>
      </trkpt>
      <trkpt lat="47.691778633743525" lon="11.433605253696442">
        <ele>694.919999999999959</ele>
        <time>2015-06-26T15:19:03Z</time>
      </trkpt>
      <trkpt lat="47.691770670935512" lon="11.433517830446362">
        <ele>694.67999999999995</ele>
        <time>2015-06-26T15:19:04Z</time>
      </trkpt>
      <trkpt lat="47.691772347316146" lon="11.433433927595615">
        <ele>694.190000000000055</ele>
        <time>2015-06-26T15:19:05Z</time>
      </trkpt>
      <trkpt lat="47.691789194941521" lon="11.433353880420327">
        <ele>693.960000000000036</ele>
        <time>2015-06-26T15:19:06Z</time>
      </trkpt>
      <trkpt lat="47.691808808594942" lon="11.433270815759897">
        <ele>693.620000000000005</ele>
        <time>2015-06-26T15:19:07Z</time>
      </trkpt>
      <trkpt lat="47.691819537431002" lon="11.433176854625344">
        <ele>693.559999999999945</ele>
        <time>2015-06-26T15:19:08Z</time>
      </trkpt>
      <trkpt lat="47.691842336207628" lon="11.432992620393634">
        <ele>693.220000000000027</ele>
        <time>2015-06-26T15:19:10Z</time>
      </trkpt>
      <trkpt lat="47.69184828735888" lon="11.43288642168045">
        <ele>692.970000000000027</ele>
        <time>2015-06-26T15:19:11Z</time>
      </trkpt>
      <trkpt lat="47.691848371177912" lon="11.432787766680121">
        <ele>692.490000000000009</ele>
        <time>2015-06-26T15:19:12Z</time>
      </trkpt>
      <trkpt lat="47.691845269873738" lon="11.432687686756253">
        <ele>691.629999999999995</ele>
        <time>2015-06-26T15:19:13Z</time>
      </trkpt>
      <trkpt lat="47.691843593493104" lon="11.432588696479797">
        <ele>691.75</ele>
        <time>2015-06-26T15:19:14Z</time>
      </trkpt>
      <trkpt lat="47.691851472482085" lon="11.432501105591655">
        <ele>692.049999999999955</ele>
        <time>2015-06-26T15:19:15Z</time>
      </trkpt>
      <trkpt lat="47.691868152469397" lon="11.432425417006016">
        <ele>690.57000000000005</ele>
        <time>2015-06-26T15:19:16Z</time>
      </trkpt>
      <trkpt lat="47.691886089742184" lon="11.43235232681036">
        <ele>689.480000000000018</ele>
        <time>2015-06-26T15:19:17Z</time>
      </trkpt>
      <trkpt lat="47.691908050328493" lon="11.432285103946924">
        <ele>689.610000000000014</ele>
        <time>2015-06-26T15:19:18Z</time>
      </trkpt>
      <trkpt lat="47.691941829398274" lon="11.432231543585658">
        <ele>689.720000000000027</ele>
        <time>2015-06-26T15:19:19Z</time>
      </trkpt>
      <trkpt lat="47.691979799419641" lon="11.432194830849767">
        <ele>689.169999999999959</ele>
        <time>2015-06-26T15:19:20Z</time>
      </trkpt>
      <trkpt lat="47.692027157172561" lon="11.432165913283825">
        <ele>689.419999999999959</ele>
        <time>2015-06-26T15:19:21Z</time>
      </trkpt>
      <trkpt lat="47.692083483561873" lon="11.432155100628734">
        <ele>688.370000000000005</ele>
        <time>2015-06-26T15:19:22Z</time>
      </trkpt>
      <trkpt lat="47.692139726132154" lon="11.432148814201355">
        <ele>689.039999999999964</ele>
        <time>2015-06-26T15:19:23Z</time>
      </trkpt>
      <trkpt lat="47.692253552377224" lon="11.432138839736581">
        <ele>687.769999999999982</ele>
        <time>2015-06-26T15:19:25Z</time>
      </trkpt>
      <trkpt lat="47.692349860444665" lon="11.43214805983007">
        <ele>687</ele>
        <time>2015-06-26T15:19:27Z</time>
      </trkpt>
      <trkpt lat="47.692373413592577" lon="11.432144958525896">
        <ele>686.889999999999986</ele>
        <time>2015-06-26T15:19:28Z</time>
      </trkpt>
      <trkpt lat="47.692416664212942" lon="11.432105395942926">
        <ele>686.440000000000055</ele>
        <time>2015-06-26T15:19:29Z</time>
      </trkpt>
      <trkpt lat="47.692450024187565" lon="11.432048231363297">
        <ele>686.610000000000014</ele>
        <time>2015-06-26T15:19:30Z</time>
      </trkpt>
      <trkpt lat="47.692474583163857" lon="11.43197120167315">
        <ele>686.450000000000045</ele>
        <time>2015-06-26T15:19:31Z</time>
      </trkpt>
      <trkpt lat="47.692500399425626" lon="11.431889478117228">
        <ele>685.799999999999955</ele>
        <time>2015-06-26T15:19:32Z</time>
      </trkpt>
      <trkpt lat="47.692528562620282" lon="11.431803312152624">
        <ele>685.159999999999968</ele>
        <time>2015-06-26T15:19:33Z</time>
      </trkpt>
      <trkpt lat="47.692555552348495" lon="11.431718906387687">
        <ele>684.870000000000005</ele>
        <time>2015-06-26T15:19:34Z</time>
      </trkpt>
      <trkpt lat="47.692594779655337" lon="11.431551771238446">
        <ele>684.519999999999982</ele>
        <time>2015-06-26T15:19:36Z</time>
      </trkpt>
      <trkpt lat="47.692603999748826" lon="11.43137994222343">
        <ele>684.120000000000005</ele>
        <time>2015-06-26T15:19:38Z</time>
      </trkpt>
      <trkpt lat="47.692608861252666" lon="11.431304840371013">
        <ele>684.049999999999955</ele>
        <time>2015-06-26T15:19:39Z</time>
      </trkpt>
      <trkpt lat="47.692592851817608" lon="11.431140974164009">
        <ele>683.82000000000005</ele>
        <time>2015-06-26T15:19:41Z</time>
      </trkpt>
      <trkpt lat="47.69256804138422" lon="11.430876022204757">
        <ele>682.690000000000055</ele>
        <time>2015-06-26T15:19:44Z</time>
      </trkpt>
      <trkpt lat="47.692581033334136" lon="11.430791448801756">
        <ele>682.919999999999959</ele>
        <time>2015-06-26T15:19:45Z</time>
      </trkpt>
      <trkpt lat="47.692599138244987" lon="11.430702516809106">
        <ele>682.350000000000023</ele>
        <time>2015-06-26T15:19:46Z</time>
      </trkpt>
      <trkpt lat="47.692639790475368" lon="11.430635629221797">
        <ele>682.17999999999995</ele>
        <time>2015-06-26T15:19:47Z</time>
      </trkpt>
      <trkpt lat="47.692678766325116" lon="11.430563628673553">
        <ele>682.539999999999964</ele>
        <time>2015-06-26T15:19:48Z</time>
      </trkpt>
      <trkpt lat="47.692726794630289" lon="11.430499674752355">
        <ele>682.129999999999995</ele>
        <time>2015-06-26T15:19:49Z</time>
      </trkpt>
      <trkpt lat="47.692877585068345" lon="11.430335221812129">
        <ele>681.289999999999964</ele>
        <time>2015-06-26T15:19:52Z</time>
      </trkpt>
      <trkpt lat="47.692989651113749" lon="11.430261796340346">
        <ele>680.559999999999945</ele>
        <time>2015-06-26T15:19:54Z</time>
      </trkpt>
      <trkpt lat="47.69309182651341" lon="11.430237237364054">
        <ele>680.620000000000005</ele>
        <time>2015-06-26T15:19:56Z</time>
      </trkpt>
      <trkpt lat="47.693129880353808" lon="11.430243272334337">
        <ele>680.549999999999955</ele>
        <time>2015-06-26T15:19:57Z</time>
      </trkpt>
      <trkpt lat="47.693252256140113" lon="11.430248972028494">
        <ele>680.230000000000018</ele>
        <time>2015-06-26T15:20:00Z</time>
      </trkpt>
      <trkpt lat="47.693582670763135" lon="11.430276548489928">
        <ele>678.220000000000027</ele>
        <time>2015-06-26T15:20:08Z</time>
      </trkpt>
      <trkpt lat="47.693681577220559" lon="11.43020873889327">
        <ele>677.379999999999995</ele>
        <time>2015-06-26T15:20:10Z</time>
      </trkpt>
      <trkpt lat="47.69377201795578" lon="11.430134726688266">
        <ele>676.899999999999977</ele>
        <time>2015-06-26T15:20:12Z</time>
      </trkpt>
      <trkpt lat="47.693869331851602" lon="11.430043950676918">
        <ele>676.389999999999986</ele>
        <time>2015-06-26T15:20:14Z</time>
      </trkpt>
      <trkpt lat="47.694006375968456" lon="11.429882263764739">
        <ele>675.480000000000018</ele>
        <time>2015-06-26T15:20:17Z</time>
      </trkpt>
      <trkpt lat="47.694051470607519" lon="11.429821746423841">
        <ele>675.230000000000018</ele>
        <time>2015-06-26T15:20:18Z</time>
      </trkpt>
      <trkpt lat="47.694277362897992" lon="11.42950214445591">
        <ele>674.080000000000041</ele>
        <time>2015-06-26T15:20:23Z</time>
      </trkpt>
      <trkpt lat="47.694458998739719" lon="11.429257644340396">
        <ele>673.700000000000045</ele>
        <time>2015-06-26T15:20:27Z</time>
      </trkpt>
      <trkpt lat="47.694507529959083" lon="11.429194025695324">
        <ele>673.419999999999959</ele>
        <time>2015-06-26T15:20:28Z</time>
      </trkpt>
      <trkpt lat="47.694703750312328" lon="11.428956985473633">
        <ele>673.32000000000005</ele>
        <time>2015-06-26T15:20:32Z</time>
      </trkpt>
      <trkpt lat="47.694750940427184" lon="11.428900826722383">
        <ele>673.279999999999973</ele>
        <time>2015-06-26T15:20:33Z</time>
      </trkpt>
      <trkpt lat="47.69509082660079" lon="11.428527245298028">
        <ele>671.720000000000027</ele>
        <time>2015-06-26T15:20:41Z</time>
      </trkpt>
      <trkpt lat="47.695229463279247" lon="11.428418699651957">
        <ele>671.519999999999982</ele>
        <time>2015-06-26T15:20:44Z</time>
      </trkpt>
      <trkpt lat="47.695276234298944" lon="11.428390201181173">
        <ele>671.860000000000014</ele>
        <time>2015-06-26T15:20:45Z</time>
      </trkpt>
      <trkpt lat="47.695318814367056" lon="11.4283680729568">
        <ele>671.710000000000036</ele>
        <time>2015-06-26T15:20:46Z</time>
      </trkpt>
      <trkpt lat="47.695358544588089" lon="11.428346363827586">
        <ele>671.379999999999995</ele>
        <time>2015-06-26T15:20:47Z</time>
      </trkpt>
      <trkpt lat="47.695404896512628" lon="11.428320966660976">
        <ele>671.5</ele>
        <time>2015-06-26T15:20:48Z</time>
      </trkpt>
      <trkpt lat="47.69544362090528" lon="11.428304370492697">
        <ele>671.169999999999959</ele>
        <time>2015-06-26T15:20:49Z</time>
      </trkpt>
      <trkpt lat="47.695481507107615" lon="11.428292132914066">
        <ele>671.32000000000005</ele>
        <time>2015-06-26T15:20:50Z</time>
      </trkpt>
      <trkpt lat="47.695812257006764" lon="11.428011590614915">
        <ele>672.25</ele>
        <time>2015-06-26T15:20:59Z</time>
      </trkpt>
      <trkpt lat="47.695832122117281" lon="11.427966915071011">
        <ele>672.360000000000014</ele>
        <time>2015-06-26T15:21:00Z</time>
      </trkpt>
      <trkpt lat="47.695849305018783" lon="11.427904134616256">
        <ele>672.200000000000045</ele>
        <time>2015-06-26T15:21:01Z</time>
      </trkpt>
      <trkpt lat="47.695906134322286" lon="11.427757535129786">
        <ele>672.039999999999964</ele>
        <time>2015-06-26T15:21:03Z</time>
      </trkpt>
      <trkpt lat="47.69593714736402" lon="11.427691904827952">
        <ele>671.610000000000014</ele>
        <time>2015-06-26T15:21:04Z</time>
      </trkpt>
      <trkpt lat="47.695974949747324" lon="11.42762484960258">
        <ele>670.659999999999968</ele>
        <time>2015-06-26T15:21:05Z</time>
      </trkpt>
      <trkpt lat="47.696014763787389" lon="11.427551088854671">
        <ele>670.740000000000009</ele>
        <time>2015-06-26T15:21:06Z</time>
      </trkpt>
      <trkpt lat="47.696058182045817" lon="11.427483363077044">
        <ele>670.240000000000009</ele>
        <time>2015-06-26T15:21:07Z</time>
      </trkpt>
      <trkpt lat="47.696098918095231" lon="11.427423264831305">
        <ele>669.519999999999982</ele>
        <time>2015-06-26T15:21:08Z</time>
      </trkpt>
      <trkpt lat="47.696131356060505" lon="11.427352018654346">
        <ele>669.669999999999959</ele>
        <time>2015-06-26T15:21:09Z</time>
      </trkpt>
      <trkpt lat="47.69616236910224" lon="11.427277335897088">
        <ele>669.539999999999964</ele>
        <time>2015-06-26T15:21:10Z</time>
      </trkpt>
      <trkpt lat="47.696201177313924" lon="11.427204748615623">
        <ele>669.009999999999991</ele>
        <time>2015-06-26T15:21:11Z</time>
      </trkpt>
      <trkpt lat="47.696359260007739" lon="11.426889169961214">
        <ele>667.120000000000005</ele>
        <time>2015-06-26T15:21:15Z</time>
      </trkpt>
      <trkpt lat="47.696476858109236" lon="11.426628828048706">
        <ele>665.879999999999995</ele>
        <time>2015-06-26T15:21:18Z</time>
      </trkpt>
      <trkpt lat="47.696625469252467" lon="11.426292126998305">
        <ele>664.769999999999982</ele>
        <time>2015-06-26T15:21:22Z</time>
      </trkpt>
      <trkpt lat="47.696794448420405" lon="11.426024492830038">
        <ele>663.990000000000009</ele>
        <time>2015-06-26T15:21:26Z</time>
      </trkpt>
      <trkpt lat="47.696884470060468" lon="11.425921143963933">
        <ele>663.700000000000045</ele>
        <time>2015-06-26T15:21:28Z</time>
      </trkpt>
      <trkpt lat="47.696936018764973" lon="11.42589264549315">
        <ele>663.889999999999986</ele>
        <time>2015-06-26T15:21:29Z</time>
      </trkpt>
      <trkpt lat="47.696991758421063" lon="11.425883090123534">
        <ele>663.789999999999964</ele>
        <time>2015-06-26T15:21:30Z</time>
      </trkpt>
      <trkpt lat="47.697054371237755" lon="11.425883760675788">
        <ele>663.970000000000027</ele>
        <time>2015-06-26T15:21:31Z</time>
      </trkpt>
      <trkpt lat="47.697120252996683" lon="11.425878815352917">
        <ele>664.200000000000045</ele>
        <time>2015-06-26T15:21:32Z</time>
      </trkpt>
      <trkpt lat="47.697172556072474" lon="11.425884179770947">
        <ele>663.450000000000045</ele>
        <time>2015-06-26T15:21:33Z</time>
      </trkpt>
      <trkpt lat="47.697220919653773" lon="11.425884934142232">
        <ele>663.370000000000005</ele>
        <time>2015-06-26T15:21:34Z</time>
      </trkpt>
      <trkpt lat="47.697276324033737" lon="11.425883257761598">
        <ele>662.860000000000014</ele>
        <time>2015-06-26T15:21:35Z</time>
      </trkpt>
      <trkpt lat="47.697339188307524" lon="11.425857692956924">
        <ele>661.879999999999995</ele>
        <time>2015-06-26T15:21:36Z</time>
      </trkpt>
      <trkpt lat="47.697399286553264" lon="11.42583497799933">
        <ele>661.279999999999973</ele>
        <time>2015-06-26T15:21:37Z</time>
      </trkpt>
      <trkpt lat="47.697465838864446" lon="11.425807820633054">
        <ele>660.25</ele>
        <time>2015-06-26T15:21:38Z</time>
      </trkpt>
      <trkpt lat="47.697531385347247" lon="11.425772281363606">
        <ele>660</ele>
        <time>2015-06-26T15:21:39Z</time>
      </trkpt>
      <trkpt lat="47.697603218257427" lon="11.425727270543575">
        <ele>660.190000000000055</ele>
        <time>2015-06-26T15:21:40Z</time>
      </trkpt>
      <trkpt lat="47.698205541819334" lon="11.425237264484167">
        <ele>657.090000000000032</ele>
        <time>2015-06-26T15:21:50Z</time>
      </trkpt>
      <trkpt lat="47.698265556246042" lon="11.425182279199362">
        <ele>656.899999999999977</ele>
        <time>2015-06-26T15:21:51Z</time>
      </trkpt>
      <trkpt lat="47.698328923434019" lon="11.425133915618062">
        <ele>657.019999999999982</ele>
        <time>2015-06-26T15:21:52Z</time>
      </trkpt>
      <trkpt lat="47.698396230116487" lon="11.425090162083507">
        <ele>656.909999999999968</ele>
        <time>2015-06-26T15:21:53Z</time>
      </trkpt>
      <trkpt lat="47.698466219007969" lon="11.425049677491188">
        <ele>656.5</ele>
        <time>2015-06-26T15:21:54Z</time>
      </trkpt>
      <trkpt lat="47.698747683316469" lon="11.424898216500878">
        <ele>654.840000000000032</ele>
        <time>2015-06-26T15:21:58Z</time>
      </trkpt>
      <trkpt lat="47.698801327496767" lon="11.424849182367325">
        <ele>655.159999999999968</ele>
        <time>2015-06-26T15:21:59Z</time>
      </trkpt>
      <trkpt lat="47.698849942535162" lon="11.42479226924479">
        <ele>655.039999999999964</ele>
        <time>2015-06-26T15:22:00Z</time>
      </trkpt>
      <trkpt lat="47.698891935870051" lon="11.424724208191037">
        <ele>654.909999999999968</ele>
        <time>2015-06-26T15:22:01Z</time>
      </trkpt>
      <trkpt lat="47.698934767395258" lon="11.424652291461825">
        <ele>654.389999999999986</ele>
        <time>2015-06-26T15:22:02Z</time>
      </trkpt>
      <trkpt lat="47.698974665254354" lon="11.424572998657823">
        <ele>654.450000000000045</ele>
        <time>2015-06-26T15:22:03Z</time>
      </trkpt>
      <trkpt lat="47.699032500386238" lon="11.424486245959997">
        <ele>653.92999999999995</ele>
        <time>2015-06-26T15:22:04Z</time>
      </trkpt>
      <trkpt lat="47.699070135131478" lon="11.424399325624108">
        <ele>653.779999999999973</ele>
        <time>2015-06-26T15:22:05Z</time>
      </trkpt>
      <trkpt lat="47.699097627773881" lon="11.424315506592393">
        <ele>653.330000000000041</ele>
        <time>2015-06-26T15:22:06Z</time>
      </trkpt>
      <trkpt lat="47.699246490374207" lon="11.423981739208102">
        <ele>653.399999999999977</ele>
        <time>2015-06-26T15:22:14Z</time>
      </trkpt>
      <trkpt lat="47.699294770136476" lon="11.423880401998758">
        <ele>652.309999999999945</ele>
        <time>2015-06-26T15:22:37Z</time>
      </trkpt>
      <trkpt lat="47.699296362698078" lon="11.423865649849176">
        <ele>652.299999999999955</ele>
        <time>2015-06-26T15:22:38Z</time>
      </trkpt>
      <trkpt lat="47.699366435408592" lon="11.423869505524635">
        <ele>652.529999999999973</ele>
        <time>2015-06-26T15:23:11Z</time>
      </trkpt>
      <trkpt lat="47.699397364631295" lon="11.423813430592418">
        <ele>652.889999999999986</ele>
        <time>2015-06-26T15:23:27Z</time>
      </trkpt>
      <trkpt lat="47.699323100969195" lon="11.423787698149681">
        <ele>652.899999999999977</ele>
        <time>2015-06-26T15:23:34Z</time>
      </trkpt>
      <trkpt lat="47.699237605556846" lon="11.423783339560032">
        <ele>652.350000000000023</ele>
        <time>2015-06-26T15:29:48Z</time>
      </trkpt>
      <trkpt lat="47.699236683547497" lon="11.423741513863206">
        <ele>652.879999999999995</ele>
        <time>2015-06-26T15:29:51Z</time>
      </trkpt>
      <trkpt lat="47.699233246967196" lon="11.423695161938667">
        <ele>652.309999999999945</ele>
        <time>2015-06-26T15:29:54Z</time>
      </trkpt>
      <trkpt lat="47.699235342442989" lon="11.423665825277567">
        <ele>652.269999999999982</ele>
        <time>2015-06-26T15:29:55Z</time>
      </trkpt>
      <trkpt lat="47.699234588071704" lon="11.423622574657202">
        <ele>651.830000000000041</ele>
        <time>2015-06-26T15:29:56Z</time>
      </trkpt>
      <trkpt lat="47.699123444035649" lon="11.423120582476258">
        <ele>649.559999999999945</ele>
        <time>2015-06-26T15:30:08Z</time>
      </trkpt>
      <trkpt lat="47.698922613635659" lon="11.422746749594808">
        <ele>649.210000000000036</ele>
        <time>2015-06-26T15:30:17Z</time>
      </trkpt>
      <trkpt lat="47.698689009994268" lon="11.422418095171452">
        <ele>647.029999999999973</ele>
        <time>2015-06-26T15:30:27Z</time>
      </trkpt>
      <trkpt lat="47.698593204841018" lon="11.421790458261967">
        <ele>645.080000000000041</ele>
        <time>2015-06-26T15:30:39Z</time>
      </trkpt>
      <trkpt lat="47.698580715805292" lon="11.4217559248209">
        <ele>645.07000000000005</ele>
        <time>2015-06-26T15:30:40Z</time>
      </trkpt>
      <trkpt lat="47.698560012504458" lon="11.421714602038264">
        <ele>645.539999999999964</ele>
        <time>2015-06-26T15:30:41Z</time>
      </trkpt>
      <trkpt lat="47.698338143527508" lon="11.421277150511742">
        <ele>643.5</ele>
        <time>2015-06-26T15:30:52Z</time>
      </trkpt>
      <trkpt lat="47.698252983391285" lon="11.421105489134789">
        <ele>643.850000000000023</ele>
        <time>2015-06-26T15:30:56Z</time>
      </trkpt>
      <trkpt lat="47.698023905977607" lon="11.420736350119114">
        <ele>642.240000000000009</ele>
        <time>2015-06-26T15:31:04Z</time>
      </trkpt>
      <trkpt lat="47.697998005896807" lon="11.420699721202254">
        <ele>642.710000000000036</ele>
        <time>2015-06-26T15:31:05Z</time>
      </trkpt>
      <trkpt lat="47.697973698377609" lon="11.420621182769537">
        <ele>643.460000000000036</ele>
        <time>2015-06-26T15:31:06Z</time>
      </trkpt>
      <trkpt lat="47.697959197685122" lon="11.420586230233312">
        <ele>644.509999999999991</ele>
        <time>2015-06-26T15:31:07Z</time>
      </trkpt>
      <trkpt lat="47.6979551743716" lon="11.420555049553514">
        <ele>644.990000000000009</ele>
        <time>2015-06-26T15:31:08Z</time>
      </trkpt>
      <trkpt lat="47.697940589860082" lon="11.420500986278057">
        <ele>644.75</ele>
        <time>2015-06-26T15:31:09Z</time>
      </trkpt>
      <trkpt lat="47.697932878509164" lon="11.420484976842999">
        <ele>645.090000000000032</ele>
        <time>2015-06-26T15:31:10Z</time>
      </trkpt>
      <trkpt lat="47.697922652587295" lon="11.420474918559194">
        <ele>645.419999999999959</ele>
        <time>2015-06-26T15:31:11Z</time>
      </trkpt>
      <trkpt lat="47.697912426665425" lon="11.420455640181899">
        <ele>645.490000000000009</ele>
        <time>2015-06-26T15:31:12Z</time>
      </trkpt>
      <trkpt lat="47.697892393916845" lon="11.420425130054355">
        <ele>644.629999999999995</ele>
        <time>2015-06-26T15:31:13Z</time>
      </trkpt>
      <trkpt lat="47.697872193530202" lon="11.420375006273389">
        <ele>644.590000000000032</ele>
        <time>2015-06-26T15:31:14Z</time>
      </trkpt>
      <trkpt lat="47.697846880182624" lon="11.420325050130486">
        <ele>644.440000000000055</ele>
        <time>2015-06-26T15:31:15Z</time>
      </trkpt>
      <trkpt lat="47.697830116376281" lon="11.420261766761541">
        <ele>644.710000000000036</ele>
        <time>2015-06-26T15:31:16Z</time>
      </trkpt>
      <trkpt lat="47.697710758075118" lon="11.419621724635363">
        <ele>643.539999999999964</ele>
        <time>2015-06-26T15:31:23Z</time>
      </trkpt>
      <trkpt lat="47.697700951248407" lon="11.419548969715834">
        <ele>643.67999999999995</ele>
        <time>2015-06-26T15:31:24Z</time>
      </trkpt>
      <trkpt lat="47.697688546031713" lon="11.419459283351898">
        <ele>642.899999999999977</ele>
        <time>2015-06-26T15:31:25Z</time>
      </trkpt>
      <trkpt lat="47.697678487747908" lon="11.419377727434039">
        <ele>642.710000000000036</ele>
        <time>2015-06-26T15:31:26Z</time>
      </trkpt>
      <trkpt lat="47.697661723941565" lon="11.419290388002992">
        <ele>643.120000000000005</ele>
        <time>2015-06-26T15:31:27Z</time>
      </trkpt>
      <trkpt lat="47.697643283754587" lon="11.419220315292478">
        <ele>642.860000000000014</ele>
        <time>2015-06-26T15:31:28Z</time>
      </trkpt>
      <trkpt lat="47.697609504684806" lon="11.419090647250414">
        <ele>643.100000000000023</ele>
        <time>2015-06-26T15:31:30Z</time>
      </trkpt>
      <trkpt lat="47.697535157203674" lon="11.418693931773305">
        <ele>641.509999999999991</ele>
        <time>2015-06-26T15:31:36Z</time>
      </trkpt>
      <trkpt lat="47.697491738945246" lon="11.418566945940256">
        <ele>641.07000000000005</ele>
        <time>2015-06-26T15:31:38Z</time>
      </trkpt>
      <trkpt lat="47.697436837479472" lon="11.41827248968184">
        <ele>639.190000000000055</ele>
        <time>2015-06-26T15:31:42Z</time>
      </trkpt>
      <trkpt lat="47.697422839701176" lon="11.418218342587352">
        <ele>638.440000000000055</ele>
        <time>2015-06-26T15:31:43Z</time>
      </trkpt>
      <trkpt lat="47.697418062016368" lon="11.418176600709558">
        <ele>638.159999999999968</ele>
        <time>2015-06-26T15:31:44Z</time>
      </trkpt>
      <trkpt lat="47.697388641536236" lon="11.418072832748294">
        <ele>637.809999999999945</ele>
        <time>2015-06-26T15:31:54Z</time>
      </trkpt>
      <trkpt lat="47.697323681786656" lon="11.417835624888539">
        <ele>636.960000000000036</ele>
        <time>2015-06-26T15:32:24Z</time>
      </trkpt>
      <trkpt lat="47.697300128638744" lon="11.417800169438124">
        <ele>636.649999999999977</ele>
        <time>2015-06-26T15:32:26Z</time>
      </trkpt>
      <trkpt lat="47.697266517207026" lon="11.417795559391379">
        <ele>636.789999999999964</ele>
        <time>2015-06-26T15:32:28Z</time>
      </trkpt>
      <trkpt lat="47.697253189980984" lon="11.417811317369342">
        <ele>636.639999999999986</ele>
        <time>2015-06-26T15:32:29Z</time>
      </trkpt>
      <trkpt lat="47.696896875277162" lon="11.417699502781034">
        <ele>640.509999999999991</ele>
        <time>2015-06-26T15:35:32Z</time>
      </trkpt>
      <trkpt lat="47.696952112019062" lon="11.417662538588047">
        <ele>640.07000000000005</ele>
        <time>2015-06-26T15:35:33Z</time>
      </trkpt>
      <trkpt lat="47.697004079818726" lon="11.417613588273525">
        <ele>640.009999999999991</ele>
        <time>2015-06-26T15:35:34Z</time>
      </trkpt>
      <trkpt lat="47.697049677371979" lon="11.417556339874864">
        <ele>639.960000000000036</ele>
        <time>2015-06-26T15:35:35Z</time>
      </trkpt>
      <trkpt lat="47.697092927992344" lon="11.417495654895902">
        <ele>639.129999999999995</ele>
        <time>2015-06-26T15:35:36Z</time>
      </trkpt>
      <trkpt lat="47.697170209139585" lon="11.417364645749331">
        <ele>638.149999999999977</ele>
        <time>2015-06-26T15:35:38Z</time>
      </trkpt>
      <trkpt lat="47.697197617962956" lon="11.417301362380385">
        <ele>638.009999999999991</ele>
        <time>2015-06-26T15:35:39Z</time>
      </trkpt>
      <trkpt lat="47.697398783639073" lon="11.416745977476239">
        <ele>636.279999999999973</ele>
        <time>2015-06-26T15:35:48Z</time>
      </trkpt>
      <trkpt lat="47.697410602122545" lon="11.41668688505888">
        <ele>636.389999999999986</ele>
        <time>2015-06-26T15:35:49Z</time>
      </trkpt>
      <trkpt lat="47.697414960712194" lon="11.416626451537013">
        <ele>636.190000000000055</ele>
        <time>2015-06-26T15:35:50Z</time>
      </trkpt>
      <trkpt lat="47.69741328433156" lon="11.416562665253878">
        <ele>635.789999999999964</ele>
        <time>2015-06-26T15:35:51Z</time>
      </trkpt>
      <trkpt lat="47.697403142228723" lon="11.416488401591778">
        <ele>636.299999999999955</ele>
        <time>2015-06-26T15:35:52Z</time>
      </trkpt>
      <trkpt lat="47.697391910478473" lon="11.416404079645872">
        <ele>636.139999999999986</ele>
        <time>2015-06-26T15:35:53Z</time>
      </trkpt>
      <trkpt lat="47.697360394522548" lon="11.416229400783777">
        <ele>635.210000000000036</ele>
        <time>2015-06-26T15:35:55Z</time>
      </trkpt>
      <trkpt lat="47.69733021967113" lon="11.416162345558405">
        <ele>634.200000000000045</ele>
        <time>2015-06-26T15:35:56Z</time>
      </trkpt>
      <trkpt lat="47.697288393974304" lon="11.41612010076642">
        <ele>634.07000000000005</ele>
        <time>2015-06-26T15:35:57Z</time>
      </trkpt>
      <trkpt lat="47.697249166667461" lon="11.416110461577773">
        <ele>634.32000000000005</ele>
        <time>2015-06-26T15:35:58Z</time>
      </trkpt>
      <trkpt lat="47.69721589051187" lon="11.416094116866589">
        <ele>634.009999999999991</ele>
        <time>2015-06-26T15:35:59Z</time>
      </trkpt>
      <trkpt lat="47.6971919182688" lon="11.41607366502285">
        <ele>634.210000000000036</ele>
        <time>2015-06-26T15:36:00Z</time>
      </trkpt>
      <trkpt lat="47.697165179997683" lon="11.416060253977776">
        <ele>634.690000000000055</ele>
        <time>2015-06-26T15:36:01Z</time>
      </trkpt>
      <trkpt lat="47.69687625579536" lon="11.415945589542389">
        <ele>635.909999999999968</ele>
        <time>2015-06-26T15:36:13Z</time>
      </trkpt>
      <trkpt lat="47.696392117068172" lon="11.416083974763751">
        <ele>636.769999999999982</ele>
        <time>2015-06-26T15:36:30Z</time>
      </trkpt>
      <trkpt lat="47.696059104055166" lon="11.416309699416161">
        <ele>640.269999999999982</ele>
        <time>2015-06-26T15:36:44Z</time>
      </trkpt>
      <trkpt lat="47.695527691394091" lon="11.416598120704293">
        <ele>642.440000000000055</ele>
        <time>2015-06-26T15:37:05Z</time>
      </trkpt>
      <trkpt lat="47.69527112133801" lon="11.416776403784752">
        <ele>643.190000000000055</ele>
        <time>2015-06-26T15:37:21Z</time>
      </trkpt>
      <trkpt lat="47.695240192115307" lon="11.416797358542681">
        <ele>643.690000000000055</ele>
        <time>2015-06-26T15:37:51Z</time>
      </trkpt>
      <trkpt lat="47.695229547098279" lon="11.41681395471096">
        <ele>644.17999999999995</ele>
        <time>2015-06-26T15:38:49Z</time>
      </trkpt>
      <trkpt lat="47.695210017263889" lon="11.416837591677904">
        <ele>644.120000000000005</ele>
        <time>2015-06-26T15:38:54Z</time>
      </trkpt>
      <trkpt lat="47.695187134668231" lon="11.416873801499605">
        <ele>644.240000000000009</ele>
        <time>2015-06-26T15:38:56Z</time>
      </trkpt>
      <trkpt lat="47.695006672292948" lon="11.417228607460856">
        <ele>645.590000000000032</ele>
        <time>2015-06-26T15:39:09Z</time>
      </trkpt>
      <trkpt lat="47.694712383672595" lon="11.417571092024446">
        <ele>647.32000000000005</ele>
        <time>2015-06-26T15:39:24Z</time>
      </trkpt>
      <trkpt lat="47.69447073340416" lon="11.417894465848804">
        <ele>649.370000000000005</ele>
        <time>2015-06-26T15:39:38Z</time>
      </trkpt>
      <trkpt lat="47.694218689575791" lon="11.418089596554637">
        <ele>651.159999999999968</ele>
        <time>2015-06-26T15:39:50Z</time>
      </trkpt>
      <trkpt lat="47.694121962413192" lon="11.418195040896535">
        <ele>651.629999999999995</ele>
        <time>2015-06-26T15:39:57Z</time>
      </trkpt>
      <trkpt lat="47.694089524447918" lon="11.41822949051857">
        <ele>651.539999999999964</ele>
        <time>2015-06-26T15:40:00Z</time>
      </trkpt>
      <trkpt lat="47.694067228585482" lon="11.418255558237433">
        <ele>651.659999999999968</ele>
        <time>2015-06-26T15:40:02Z</time>
      </trkpt>
      <trkpt lat="47.694057505577803" lon="11.418267544358969">
        <ele>651.75</ele>
        <time>2015-06-26T15:40:03Z</time>
      </trkpt>
      <trkpt lat="47.693966394290328" lon="11.418403247371316">
        <ele>653.580000000000041</ele>
        <time>2015-06-26T15:40:13Z</time>
      </trkpt>
      <trkpt lat="47.693859776481986" lon="11.41859888099134">
        <ele>655.889999999999986</ele>
        <time>2015-06-26T15:40:29Z</time>
      </trkpt>
      <trkpt lat="47.69370261579752" lon="11.418693931773305">
        <ele>658.919999999999959</ele>
        <time>2015-06-26T15:40:47Z</time>
      </trkpt>
      <trkpt lat="47.693679565563798" lon="11.418777164071798">
        <ele>661.850000000000023</ele>
        <time>2015-06-26T15:41:07Z</time>
      </trkpt>
      <trkpt lat="47.693643104285002" lon="11.418565353378654">
        <ele>662.740000000000009</ele>
        <time>2015-06-26T15:41:28Z</time>
      </trkpt>
      <trkpt lat="47.693633046001196" lon="11.418545907363296">
        <ele>662.870000000000005</ele>
        <time>2015-06-26T15:41:29Z</time>
      </trkpt>
      <trkpt lat="47.693546796217561" lon="11.418477008119226">
        <ele>664.009999999999991</ele>
        <time>2015-06-26T15:41:43Z</time>
      </trkpt>
      <trkpt lat="47.69341142848134" lon="11.418350022286177">
        <ele>666.210000000000036</ele>
        <time>2015-06-26T15:42:02Z</time>
      </trkpt>
      <trkpt lat="47.693344792351127" lon="11.418372988700867">
        <ele>665.549999999999955</ele>
        <time>2015-06-26T15:42:24Z</time>
      </trkpt>
      <trkpt lat="47.693291064351797" lon="11.41837215051055">
        <ele>665.529999999999973</ele>
        <time>2015-06-26T15:42:43Z</time>
      </trkpt>
      <trkpt lat="47.69312066026032" lon="11.418286403641105">
        <ele>667.340000000000032</ele>
        <time>2015-06-26T15:43:00Z</time>
      </trkpt>
      <trkpt lat="47.692926870658994" lon="11.41829595901072">
        <ele>668.789999999999964</ele>
        <time>2015-06-26T15:43:14Z</time>
      </trkpt>
      <trkpt lat="47.692712796851993" lon="11.418519001454115">
        <ele>670.759999999999991</ele>
        <time>2015-06-26T15:43:31Z</time>
      </trkpt>
      <trkpt lat="47.692703325301409" lon="11.418539956212044">
        <ele>670.799999999999955</ele>
        <time>2015-06-26T15:43:32Z</time>
      </trkpt>
      <trkpt lat="47.692538201808929" lon="11.418677838519216">
        <ele>672.710000000000036</ele>
        <time>2015-06-26T15:43:48Z</time>
      </trkpt>
      <trkpt lat="47.692467961460352" lon="11.418707929551601">
        <ele>672.980000000000018</ele>
        <time>2015-06-26T15:43:54Z</time>
      </trkpt>
      <trkpt lat="47.692387411370873" lon="11.418788144364953">
        <ele>673.610000000000014</ele>
        <time>2015-06-26T15:44:02Z</time>
      </trkpt>
      <trkpt lat="47.692187754437327" lon="11.418841788545251">
        <ele>674.240000000000009</ele>
        <time>2015-06-26T15:44:17Z</time>
      </trkpt>
      <trkpt lat="47.691997569054365" lon="11.418768782168627">
        <ele>674.850000000000023</ele>
        <time>2015-06-26T15:44:33Z</time>
      </trkpt>
      <trkpt lat="47.691961023956537" lon="11.418803986161947">
        <ele>674.67999999999995</ele>
        <time>2015-06-26T15:44:49Z</time>
      </trkpt>
      <trkpt lat="47.691947696730494" lon="11.418768027797341">
        <ele>674.700000000000045</ele>
        <time>2015-06-26T15:44:56Z</time>
      </trkpt>
      <trkpt lat="47.691933866590261" lon="11.418738439679146">
        <ele>674.870000000000005</ele>
        <time>2015-06-26T15:44:58Z</time>
      </trkpt>
      <trkpt lat="47.691925233229995" lon="11.418723268434405">
        <ele>675.389999999999986</ele>
        <time>2015-06-26T15:44:59Z</time>
      </trkpt>
      <trkpt lat="47.691915174946189" lon="11.418706756085157">
        <ele>674.940000000000055</ele>
        <time>2015-06-26T15:45:00Z</time>
      </trkpt>
      <trkpt lat="47.691701268777251" lon="11.418395703658462">
        <ele>677.639999999999986</ele>
        <time>2015-06-26T15:45:23Z</time>
      </trkpt>
      <trkpt lat="47.691646870225668" lon="11.418273076415062">
        <ele>677.990000000000009</ele>
        <time>2015-06-26T15:45:40Z</time>
      </trkpt>
      <trkpt lat="47.691650642082095" lon="11.418276093900204">
        <ele>678.730000000000018</ele>
        <time>2015-06-26T15:46:06Z</time>
      </trkpt>
      <trkpt lat="47.691643768921494" lon="11.418252708390355">
        <ele>678.92999999999995</ele>
        <time>2015-06-26T15:46:09Z</time>
      </trkpt>
      <trkpt lat="47.691627172753215" lon="11.418211637064815">
        <ele>679.240000000000009</ele>
        <time>2015-06-26T15:46:11Z</time>
      </trkpt>
      <trkpt lat="47.691614013165236" lon="11.418187245726585">
        <ele>678.789999999999964</ele>
        <time>2015-06-26T15:46:12Z</time>
      </trkpt>
      <trkpt lat="47.691598255187273" lon="11.418162770569324">
        <ele>679.409999999999968</ele>
        <time>2015-06-26T15:46:13Z</time>
      </trkpt>
      <trkpt lat="47.691203467547894" lon="11.417723391205072">
        <ele>680.360000000000014</ele>
        <time>2015-06-26T15:46:30Z</time>
      </trkpt>
      <trkpt lat="47.690774230286479" lon="11.417289962992072">
        <ele>682.519999999999982</ele>
        <time>2015-06-26T15:46:48Z</time>
      </trkpt>
      <trkpt lat="47.690343400463462" lon="11.417020484805107">
        <ele>682.240000000000009</ele>
        <time>2015-06-26T15:47:03Z</time>
      </trkpt>
      <trkpt lat="47.689917096868157" lon="11.416982095688581">
        <ele>684.32000000000005</ele>
        <time>2015-06-26T15:47:18Z</time>
      </trkpt>
      <trkpt lat="47.689528428018093" lon="11.416838681325316">
        <ele>687.629999999999995</ele>
        <time>2015-06-26T15:47:35Z</time>
      </trkpt>
      <trkpt lat="47.689368166029453" lon="11.416734158992767">
        <ele>688.129999999999995</ele>
        <time>2015-06-26T15:47:48Z</time>
      </trkpt>
      <trkpt lat="47.689357772469521" lon="11.416726280003786">
        <ele>688.399999999999977</ele>
        <time>2015-06-26T15:47:52Z</time>
      </trkpt>
      <trkpt lat="47.689315695315599" lon="11.416704738512635">
        <ele>688.509999999999991</ele>
        <time>2015-06-26T15:47:55Z</time>
      </trkpt>
      <trkpt lat="47.689298260957003" lon="11.416692836210132">
        <ele>688.190000000000055</ele>
        <time>2015-06-26T15:47:56Z</time>
      </trkpt>
      <trkpt lat="47.689278898760676" lon="11.41668395139277">
        <ele>688.470000000000027</ele>
        <time>2015-06-26T15:47:57Z</time>
      </trkpt>
      <trkpt lat="47.68925903365016" lon="11.416679173707962">
        <ele>688.580000000000041</ele>
        <time>2015-06-26T15:47:58Z</time>
      </trkpt>
      <trkpt lat="47.689239084720612" lon="11.41667079180479">
        <ele>688.559999999999945</ele>
        <time>2015-06-26T15:47:59Z</time>
      </trkpt>
      <trkpt lat="47.689219722524285" lon="11.416662577539682">
        <ele>688.629999999999995</ele>
        <time>2015-06-26T15:48:00Z</time>
      </trkpt>
      <trkpt lat="47.68920237198472" lon="11.416654614731669">
        <ele>688.490000000000009</ele>
        <time>2015-06-26T15:48:01Z</time>
      </trkpt>
      <trkpt lat="47.688937587663531" lon="11.416598204523325">
        <ele>687.840000000000032</ele>
        <time>2015-06-26T15:48:11Z</time>
      </trkpt>
      <trkpt lat="47.688648998737335" lon="11.416479516774416">
        <ele>688.389999999999986</ele>
        <time>2015-06-26T15:48:22Z</time>
      </trkpt>
      <trkpt lat="47.688382957130671" lon="11.41568030230701">
        <ele>688.460000000000036</ele>
        <time>2015-06-26T15:48:37Z</time>
      </trkpt>
      <trkpt lat="47.68835655413568" lon="11.415552981197834">
        <ele>688.159999999999968</ele>
        <time>2015-06-26T15:48:39Z</time>
      </trkpt>
      <trkpt lat="47.688336772844195" lon="11.415490955114365">
        <ele>688.470000000000027</ele>
        <time>2015-06-26T15:48:40Z</time>
      </trkpt>
      <trkpt lat="47.688276674598455" lon="11.415298338979483">
        <ele>688.370000000000005</ele>
        <time>2015-06-26T15:48:43Z</time>
      </trkpt>
      <trkpt lat="47.687967885285616" lon="11.414234172552824">
        <ele>686.659999999999968</ele>
        <time>2015-06-26T15:48:58Z</time>
      </trkpt>
      <trkpt lat="47.687414847314358" lon="11.413280144333839">
        <ele>687.92999999999995</ele>
        <time>2015-06-26T15:49:15Z</time>
      </trkpt>
      <trkpt lat="47.686979742720723" lon="11.412897510454059">
        <ele>689.740000000000009</ele>
        <time>2015-06-26T15:49:28Z</time>
      </trkpt>
      <trkpt lat="47.68649778328836" lon="11.41274563036859">
        <ele>690.129999999999995</ele>
        <time>2015-06-26T15:49:40Z</time>
      </trkpt>
      <trkpt lat="47.686223359778523" lon="11.412537591531873">
        <ele>689.409999999999968</ele>
        <time>2015-06-26T15:49:47Z</time>
      </trkpt>
      <trkpt lat="47.686190670356154" lon="11.412496687844396">
        <ele>689.529999999999973</ele>
        <time>2015-06-26T15:49:48Z</time>
      </trkpt>
      <trkpt lat="47.686162926256657" lon="11.412450419738889">
        <ele>689.299999999999955</ele>
        <time>2015-06-26T15:49:49Z</time>
      </trkpt>
      <trkpt lat="47.686139121651649" lon="11.412402810528874">
        <ele>689.330000000000041</ele>
        <time>2015-06-26T15:49:50Z</time>
      </trkpt>
      <trkpt lat="47.686122274026275" lon="11.412361739203334">
        <ele>689.080000000000041</ele>
        <time>2015-06-26T15:49:51Z</time>
      </trkpt>
      <trkpt lat="47.686112970113754" lon="11.412333492189646">
        <ele>689.240000000000009</ele>
        <time>2015-06-26T15:49:52Z</time>
      </trkpt>
      <trkpt lat="47.686108779162169" lon="11.412322260439396">
        <ele>688.909999999999968</ele>
        <time>2015-06-26T15:50:04Z</time>
      </trkpt>
      <trkpt lat="47.686095787212253" lon="11.412328965961933">
        <ele>689.42999999999995</ele>
        <time>2015-06-26T15:50:32Z</time>
      </trkpt>
      <trkpt lat="47.686090925708413" lon="11.412301138043404">
        <ele>689.07000000000005</ele>
        <time>2015-06-26T15:50:42Z</time>
      </trkpt>
      <trkpt lat="47.686089081689715" lon="11.412210445851088">
        <ele>688.909999999999968</ele>
        <time>2015-06-26T15:50:45Z</time>
      </trkpt>
      <trkpt lat="47.686087153851986" lon="11.41211380250752">
        <ele>688.559999999999945</ele>
        <time>2015-06-26T15:50:54Z</time>
      </trkpt>
      <trkpt lat="47.686070892959833" lon="11.412082370370626">
        <ele>688.529999999999973</ele>
        <time>2015-06-26T15:51:09Z</time>
      </trkpt>
      <trkpt lat="47.686043735593557" lon="11.412090416997671">
        <ele>688.480000000000018</ele>
        <time>2015-06-26T15:51:11Z</time>
      </trkpt>
      <trkpt lat="47.685734611004591" lon="11.412063930183649">
        <ele>688.580000000000041</ele>
        <time>2015-06-26T15:51:23Z</time>
      </trkpt>
      <trkpt lat="47.685309229418635" lon="11.411840720102191">
        <ele>689.549999999999955</ele>
        <time>2015-06-26T15:51:35Z</time>
      </trkpt>
      <trkpt lat="47.684707660228014" lon="11.411674674600363">
        <ele>688.5</ele>
        <time>2015-06-26T15:51:49Z</time>
      </trkpt>
      <trkpt lat="47.68448025919497" lon="11.4117072802037">
        <ele>688.639999999999986</ele>
        <time>2015-06-26T15:51:54Z</time>
      </trkpt>
      <trkpt lat="47.684441283345222" lon="11.41171365045011">
        <ele>689.090000000000032</ele>
        <time>2015-06-26T15:51:55Z</time>
      </trkpt>
      <trkpt lat="47.684174403548241" lon="11.411853460595012">
        <ele>691.049999999999955</ele>
        <time>2015-06-26T15:52:06Z</time>
      </trkpt>
      <trkpt lat="47.683921856805682" lon="11.412000143900514">
        <ele>694.169999999999959</ele>
        <time>2015-06-26T15:52:19Z</time>
      </trkpt>
      <trkpt lat="47.683762600645423" lon="11.412132829427719">
        <ele>694.139999999999986</ele>
        <time>2015-06-26T15:57:23Z</time>
      </trkpt>
      <trkpt lat="47.6837551407516" lon="11.412104163318872">
        <ele>694.129999999999995</ele>
        <time>2015-06-26T15:57:24Z</time>
      </trkpt>
      <trkpt lat="47.683605942875147" lon="11.411455320194364">
        <ele>693.25</ele>
        <time>2015-06-26T15:57:37Z</time>
      </trkpt>
      <trkpt lat="47.683459427207708" lon="11.410925583913922">
        <ele>690.710000000000036</ele>
        <time>2015-06-26T15:57:43Z</time>
      </trkpt>
      <trkpt lat="47.683214172720909" lon="11.410259138792753">
        <ele>687.450000000000045</ele>
        <time>2015-06-26T15:57:50Z</time>
      </trkpt>
      <trkpt lat="47.683031363412738" lon="11.409817580133677">
        <ele>684.17999999999995</ele>
        <time>2015-06-26T15:57:54Z</time>
      </trkpt>
      <trkpt lat="47.682975707575679" lon="11.40971171669662">
        <ele>684.009999999999991</ele>
        <time>2015-06-26T15:57:55Z</time>
      </trkpt>
      <trkpt lat="47.682793568819761" lon="11.409431593492627">
        <ele>682.110000000000014</ele>
        <time>2015-06-26T15:57:58Z</time>
      </trkpt>
      <trkpt lat="47.682737577706575" lon="11.40936772339046">
        <ele>683</ele>
        <time>2015-06-26T15:57:59Z</time>
      </trkpt>
      <trkpt lat="47.682636911049485" lon="11.409280886873603">
        <ele>683.450000000000045</ele>
        <time>2015-06-26T15:58:01Z</time>
      </trkpt>
      <trkpt lat="47.682595755904913" lon="11.409255154430866">
        <ele>683.840000000000032</ele>
        <time>2015-06-26T15:58:02Z</time>
      </trkpt>
      <trkpt lat="47.682558540254831" lon="11.409227075055242">
        <ele>684.370000000000005</ele>
        <time>2015-06-26T15:58:03Z</time>
      </trkpt>
      <trkpt lat="47.682376988232136" lon="11.40907259657979">
        <ele>686.710000000000036</ele>
        <time>2015-06-26T15:58:12Z</time>
      </trkpt>
      <trkpt lat="47.682316470891237" lon="11.409001434221864">
        <ele>686.759999999999991</ele>
        <time>2015-06-26T15:58:17Z</time>
      </trkpt>
      <trkpt lat="47.682231310755014" lon="11.408824911341071">
        <ele>686.470000000000027</ele>
        <time>2015-06-26T15:58:31Z</time>
      </trkpt>
      <trkpt lat="47.682196442037821" lon="11.408728267997503">
        <ele>686.850000000000023</ele>
        <time>2015-06-26T15:58:52Z</time>
      </trkpt>
      <trkpt lat="47.682088818401098" lon="11.408685017377138">
        <ele>688.659999999999968</ele>
        <time>2015-06-26T15:59:05Z</time>
      </trkpt>
      <trkpt lat="47.681883042678237" lon="11.40863330103457">
        <ele>692.029999999999973</ele>
        <time>2015-06-26T15:59:26Z</time>
      </trkpt>
      <trkpt lat="47.68162957392633" lon="11.40858837403357">
        <ele>695.07000000000005</ele>
        <time>2015-06-26T15:59:49Z</time>
      </trkpt>
      <trkpt lat="47.681419691070914" lon="11.40857320278883">
        <ele>696.870000000000005</ele>
        <time>2015-06-26T16:00:10Z</time>
      </trkpt>
      <trkpt lat="47.681150464341044" lon="11.408669175580144">
        <ele>699.159999999999968</ele>
        <time>2015-06-26T16:00:32Z</time>
      </trkpt>
      <trkpt lat="47.68087076023221" lon="11.408708989620209">
        <ele>701.519999999999982</ele>
        <time>2015-06-26T16:00:52Z</time>
      </trkpt>
      <trkpt lat="47.680722316727042" lon="11.408833879977465">
        <ele>701.789999999999964</ele>
        <time>2015-06-26T16:01:02Z</time>
      </trkpt>
      <trkpt lat="47.68070169724524" lon="11.408840920776129">
        <ele>701.610000000000014</ele>
        <time>2015-06-26T16:01:03Z</time>
      </trkpt>
      <trkpt lat="47.680683340877295" lon="11.408855756744742">
        <ele>701.940000000000055</ele>
        <time>2015-06-26T16:01:04Z</time>
      </trkpt>
      <trkpt lat="47.680661715567112" lon="11.408873442560434">
        <ele>702.029999999999973</ele>
        <time>2015-06-26T16:01:05Z</time>
      </trkpt>
      <trkpt lat="47.680643023923039" lon="11.408883919939399">
        <ele>702.299999999999955</ele>
        <time>2015-06-26T16:01:06Z</time>
      </trkpt>
      <trkpt lat="47.680620895698667" lon="11.408896157518029">
        <ele>702.049999999999955</ele>
        <time>2015-06-26T16:01:07Z</time>
      </trkpt>
      <trkpt lat="47.680600108578801" lon="11.408912753686309">
        <ele>701.960000000000036</ele>
        <time>2015-06-26T16:01:08Z</time>
      </trkpt>
      <trkpt lat="47.680375725030899" lon="11.409029429778457">
        <ele>704.57000000000005</ele>
        <time>2015-06-26T16:01:20Z</time>
      </trkpt>
      <trkpt lat="47.680023685097694" lon="11.409131353721023">
        <ele>706.159999999999968</ele>
        <time>2015-06-26T16:01:33Z</time>
      </trkpt>
      <trkpt lat="47.679884964600205" lon="11.409213161095977">
        <ele>705.960000000000036</ele>
        <time>2015-06-26T16:01:40Z</time>
      </trkpt>
      <trkpt lat="47.679739622399211" lon="11.409174939617515">
        <ele>707.17999999999995</ele>
        <time>2015-06-26T16:01:52Z</time>
      </trkpt>
      <trkpt lat="47.679734844714403" lon="11.40917032957077">
        <ele>707.230000000000018</ele>
        <time>2015-06-26T16:01:53Z</time>
      </trkpt>
      <trkpt lat="47.679703664034605" lon="11.409155577421188">
        <ele>707.269999999999982</ele>
        <time>2015-06-26T16:01:55Z</time>
      </trkpt>
      <trkpt lat="47.679335363209248" lon="11.409031273797154">
        <ele>708.399999999999977</ele>
        <time>2015-06-26T16:02:08Z</time>
      </trkpt>
      <trkpt lat="47.67901299521327" lon="11.408630283549428">
        <ele>707.769999999999982</ele>
        <time>2015-06-26T16:02:20Z</time>
      </trkpt>
      <trkpt lat="47.678920039907098" lon="11.408550404012203">
        <ele>707.470000000000027</ele>
        <time>2015-06-26T16:02:24Z</time>
      </trkpt>
      <trkpt lat="47.678679982200265" lon="11.4083416108042">
        <ele>707.669999999999959</ele>
        <time>2015-06-26T16:02:35Z</time>
      </trkpt>
      <trkpt lat="47.678513685241342" lon="11.408209260553122">
        <ele>708.539999999999964</ele>
        <time>2015-06-26T16:02:43Z</time>
      </trkpt>
      <trkpt lat="47.678482001647353" lon="11.40820037573576">
        <ele>708.629999999999995</ele>
        <time>2015-06-26T16:02:44Z</time>
      </trkpt>
      <trkpt lat="47.678441097959876" lon="11.408192329108715">
        <ele>708.559999999999945</ele>
        <time>2015-06-26T16:02:45Z</time>
      </trkpt>
      <trkpt lat="47.6784139405936" lon="11.408177576959133">
        <ele>708.539999999999964</ele>
        <time>2015-06-26T16:02:46Z</time>
      </trkpt>
      <trkpt lat="47.678385945037007" lon="11.40814857557416">
        <ele>708.370000000000005</ele>
        <time>2015-06-26T16:02:47Z</time>
      </trkpt>
      <trkpt lat="47.678362224251032" lon="11.408127620816231">
        <ele>708.379999999999995</ele>
        <time>2015-06-26T16:02:48Z</time>
      </trkpt>
      <trkpt lat="47.678329534828663" lon="11.408100128173828">
        <ele>708.720000000000027</ele>
        <time>2015-06-26T16:02:49Z</time>
      </trkpt>
      <trkpt lat="47.678307825699449" lon="11.408083532005548">
        <ele>708.990000000000009</ele>
        <time>2015-06-26T16:02:50Z</time>
      </trkpt>
      <trkpt lat="47.678180253133178" lon="11.408038269728422">
        <ele>709.120000000000005</ele>
        <time>2015-06-26T16:02:55Z</time>
      </trkpt>
      <trkpt lat="47.678153682500124" lon="11.408021673560143">
        <ele>708.870000000000005</ele>
        <time>2015-06-26T16:02:56Z</time>
      </trkpt>
      <trkpt lat="47.678107582032681" lon="11.408010022714734">
        <ele>708.92999999999995</ele>
        <time>2015-06-26T16:02:57Z</time>
      </trkpt>
      <trkpt lat="47.678076233714819" lon="11.407995438203216">
        <ele>709.259999999999991</ele>
        <time>2015-06-26T16:02:58Z</time>
      </trkpt>
      <trkpt lat="47.678075395524502" lon="11.407966185361147">
        <ele>709.370000000000005</ele>
        <time>2015-06-26T16:02:59Z</time>
      </trkpt>
      <trkpt lat="47.678070366382599" lon="11.407942464575171">
        <ele>709.309999999999945</ele>
        <time>2015-06-26T16:03:00Z</time>
      </trkpt>
      <trkpt lat="47.678042706102133" lon="11.40793165192008">
        <ele>709.350000000000023</ele>
        <time>2015-06-26T16:03:01Z</time>
      </trkpt>
      <trkpt lat="47.678009513765574" lon="11.407917821779847">
        <ele>709.259999999999991</ele>
        <time>2015-06-26T16:03:02Z</time>
      </trkpt>
      <trkpt lat="47.677977159619331" lon="11.407902566716075">
        <ele>709.100000000000023</ele>
        <time>2015-06-26T16:03:03Z</time>
      </trkpt>
      <trkpt lat="47.677953941747546" lon="11.407881444320083">
        <ele>709.480000000000018</ele>
        <time>2015-06-26T16:03:04Z</time>
      </trkpt>
      <trkpt lat="47.677927371114492" lon="11.407862836495042">
        <ele>709.419999999999959</ele>
        <time>2015-06-26T16:03:05Z</time>
      </trkpt>
      <trkpt lat="47.677938183769584" lon="11.40781732276082">
        <ele>709.57000000000005</ele>
        <time>2015-06-26T16:03:06Z</time>
      </trkpt>
      <trkpt lat="47.677901471033692" lon="11.40780508518219">
        <ele>709.539999999999964</ele>
        <time>2015-06-26T16:03:07Z</time>
      </trkpt>
      <trkpt lat="47.677750010043383" lon="11.40767022036016">
        <ele>710.450000000000045</ele>
        <time>2015-06-26T16:03:16Z</time>
      </trkpt>
      <trkpt lat="47.67747382633388" lon="11.407335698604584">
        <ele>710.629999999999995</ele>
        <time>2015-06-26T16:03:36Z</time>
      </trkpt>
      <trkpt lat="47.67742739059031" lon="11.407209299504757">
        <ele>708.460000000000036</ele>
        <time>2015-06-26T16:04:02Z</time>
      </trkpt>
      <trkpt lat="47.677407776936889" lon="11.407167306169868">
        <ele>709.029999999999973</ele>
        <time>2015-06-26T16:04:04Z</time>
      </trkpt>
      <trkpt lat="47.677276683971286" lon="11.406993800774217">
        <ele>709.149999999999977</ele>
        <time>2015-06-26T16:04:13Z</time>
      </trkpt>
      <trkpt lat="47.677244832739234" lon="11.406929343938828">
        <ele>708.860000000000014</ele>
        <time>2015-06-26T16:04:16Z</time>
      </trkpt>
      <trkpt lat="47.677200995385647" lon="11.406907550990582">
        <ele>708.539999999999964</ele>
        <time>2015-06-26T16:04:19Z</time>
      </trkpt>
      <trkpt lat="47.677158415317535" lon="11.406865976750851">
        <ele>708.370000000000005</ele>
        <time>2015-06-26T16:04:22Z</time>
      </trkpt>
      <trkpt lat="47.677033273503184" lon="11.406743433326483">
        <ele>708.700000000000045</ele>
        <time>2015-06-26T16:04:29Z</time>
      </trkpt>
      <trkpt lat="47.676996141672134" lon="11.406665733084083">
        <ele>709.049999999999955</ele>
        <time>2015-06-26T16:04:34Z</time>
      </trkpt>
      <trkpt lat="47.676810482516885" lon="11.406488288193941">
        <ele>709.789999999999964</ele>
        <time>2015-06-26T16:04:55Z</time>
      </trkpt>
      <trkpt lat="47.676786091178656" lon="11.406474960967898">
        <ele>709.82000000000005</ele>
        <time>2015-06-26T16:04:56Z</time>
      </trkpt>
      <trkpt lat="47.676756922155619" lon="11.406467668712139">
        <ele>709.730000000000018</ele>
        <time>2015-06-26T16:04:57Z</time>
      </trkpt>
      <trkpt lat="47.676736386492848" lon="11.406451240181923">
        <ele>709.960000000000036</ele>
        <time>2015-06-26T16:04:58Z</time>
      </trkpt>
      <trkpt lat="47.676709396764636" lon="11.406441768631339">
        <ele>709.57000000000005</ele>
        <time>2015-06-26T16:04:59Z</time>
      </trkpt>
      <trkpt lat="47.676732530817389" lon="11.406387705355883">
        <ele>710.279999999999973</ele>
        <time>2015-06-26T16:05:00Z</time>
      </trkpt>
      <trkpt lat="47.676708055660129" lon="11.406329618766904">
        <ele>710.970000000000027</ele>
        <time>2015-06-26T16:05:03Z</time>
      </trkpt>
      <trkpt lat="47.676638318225741" lon="11.40608562156558">
        <ele>710.009999999999991</ele>
        <time>2015-06-26T16:05:10Z</time>
      </trkpt>
      <trkpt lat="47.676498340442777" lon="11.406020829454064">
        <ele>709</ele>
        <time>2015-06-26T16:05:32Z</time>
      </trkpt>
      <trkpt lat="47.676498172804713" lon="11.40591798350215">
        <ele>710.730000000000018</ele>
        <time>2015-06-26T16:05:49Z</time>
      </trkpt>
      <trkpt lat="47.676516277715564" lon="11.405822178348899">
        <ele>710.200000000000045</ele>
        <time>2015-06-26T16:05:52Z</time>
      </trkpt>
      <trkpt lat="47.676480151712894" lon="11.40576065517962">
        <ele>708.850000000000023</ele>
        <time>2015-06-26T16:05:55Z</time>
      </trkpt>
      <trkpt lat="47.676456095650792" lon="11.405742717906833">
        <ele>708.080000000000041</ele>
        <time>2015-06-26T16:05:56Z</time>
      </trkpt>
      <trkpt lat="47.676439164206386" lon="11.405723942443728">
        <ele>708.379999999999995</ele>
        <time>2015-06-26T16:05:57Z</time>
      </trkpt>
      <trkpt lat="47.676430949941278" lon="11.405698042362928">
        <ele>707.899999999999977</ele>
        <time>2015-06-26T16:05:58Z</time>
      </trkpt>
      <trkpt lat="47.676423070952296" lon="11.405665604397655">
        <ele>707.440000000000055</ele>
        <time>2015-06-26T16:05:59Z</time>
      </trkpt>
      <trkpt lat="47.676407564431429" lon="11.405617073178291">
        <ele>707.5</ele>
        <time>2015-06-26T16:06:00Z</time>
      </trkpt>
      <trkpt lat="47.676403876394033" lon="11.405574074015021">
        <ele>707.17999999999995</ele>
        <time>2015-06-26T16:06:01Z</time>
      </trkpt>
      <trkpt lat="47.676400439813733" lon="11.405536523088813">
        <ele>706.75</ele>
        <time>2015-06-26T16:06:02Z</time>
      </trkpt>
      <trkpt lat="47.676386022940278" lon="11.405498553067446">
        <ele>706.519999999999982</ele>
        <time>2015-06-26T16:06:03Z</time>
      </trkpt>
      <trkpt lat="47.676361128687859" lon="11.40546552836895">
        <ele>706.059999999999945</ele>
        <time>2015-06-26T16:06:04Z</time>
      </trkpt>
      <trkpt lat="47.676343023777008" lon="11.405440801754594">
        <ele>706.029999999999973</ele>
        <time>2015-06-26T16:06:05Z</time>
      </trkpt>
      <trkpt lat="47.676325254142284" lon="11.405414817854762">
        <ele>706.190000000000055</ele>
        <time>2015-06-26T16:06:06Z</time>
      </trkpt>
      <trkpt lat="47.676311256363988" lon="11.405384475365281">
        <ele>705.340000000000032</ele>
        <time>2015-06-26T16:06:07Z</time>
      </trkpt>
      <trkpt lat="47.676308741793036" lon="11.405354887247086">
        <ele>705.149999999999977</ele>
        <time>2015-06-26T16:06:08Z</time>
      </trkpt>
      <trkpt lat="47.676305808126926" lon="11.405330495908856">
        <ele>704.639999999999986</ele>
        <time>2015-06-26T16:06:09Z</time>
      </trkpt>
      <trkpt lat="47.676278483122587" lon="11.40527056530118">
        <ele>702.75</ele>
        <time>2015-06-26T16:06:13Z</time>
      </trkpt>
      <trkpt lat="47.676269514486194" lon="11.405254052951932">
        <ele>702.529999999999973</ele>
        <time>2015-06-26T16:06:14Z</time>
      </trkpt>
      <trkpt lat="47.67624001018703" lon="11.405204348266125">
        <ele>701.120000000000005</ele>
        <time>2015-06-26T16:06:17Z</time>
      </trkpt>
      <trkpt lat="47.67620824277401" lon="11.405154140666127">
        <ele>701.389999999999986</ele>
        <time>2015-06-26T16:06:21Z</time>
      </trkpt>
      <trkpt lat="47.676115874201059" lon="11.405035620555282">
        <ele>700.659999999999968</ele>
        <time>2015-06-26T16:06:38Z</time>
      </trkpt>
      <trkpt lat="47.675944631919265" lon="11.404856750741601">
        <ele>700.67999999999995</ele>
        <time>2015-06-26T16:06:58Z</time>
      </trkpt>
      <trkpt lat="47.675928873941302" lon="11.404709396883845">
        <ele>700.330000000000041</ele>
        <time>2015-06-26T16:07:22Z</time>
      </trkpt>
      <trkpt lat="47.67592191696167" lon="11.404824061319232">
        <ele>700.110000000000014</ele>
        <time>2015-06-26T16:07:51Z</time>
      </trkpt>
      <trkpt lat="47.67589358612895" lon="11.404752815142274">
        <ele>698.490000000000009</ele>
        <time>2015-06-26T16:08:05Z</time>
      </trkpt>
      <trkpt lat="47.675917306914926" lon="11.404639659449458">
        <ele>695.440000000000055</ele>
        <time>2015-06-26T16:08:20Z</time>
      </trkpt>
      <trkpt lat="47.675893334671855" lon="11.404502280056477">
        <ele>692.389999999999986</ele>
        <time>2015-06-26T16:08:38Z</time>
      </trkpt>
      <trkpt lat="47.675885790959001" lon="11.404486522078514">
        <ele>692.120000000000005</ele>
        <time>2015-06-26T16:08:39Z</time>
      </trkpt>
      <trkpt lat="47.675938848406076" lon="11.404463471844792">
        <ele>691.190000000000055</ele>
        <time>2015-06-26T16:08:52Z</time>
      </trkpt>
      <trkpt lat="47.675958294421434" lon="11.404468333348632">
        <ele>690.759999999999991</ele>
        <time>2015-06-26T16:08:53Z</time>
      </trkpt>
      <trkpt lat="47.675980506464839" lon="11.404478223994374">
        <ele>690.389999999999986</ele>
        <time>2015-06-26T16:08:54Z</time>
      </trkpt>
      <trkpt lat="47.676001209765673" lon="11.404493981972337">
        <ele>689.779999999999973</ele>
        <time>2015-06-26T16:08:55Z</time>
      </trkpt>
      <trkpt lat="47.676016045734286" lon="11.404502280056477">
        <ele>689.879999999999995</ele>
        <time>2015-06-26T16:08:56Z</time>
      </trkpt>
      <trkpt lat="47.676099445670843" lon="11.404522564262152">
        <ele>686.799999999999955</ele>
        <time>2015-06-26T16:09:08Z</time>
      </trkpt>
      <trkpt lat="47.676127608865499" lon="11.404524156823754">
        <ele>687.590000000000032</ele>
        <time>2015-06-26T16:09:12Z</time>
      </trkpt>
      <trkpt lat="47.67609978094697" lon="11.404420388862491">
        <ele>684.799999999999955</ele>
        <time>2015-06-26T16:09:30Z</time>
      </trkpt>
      <trkpt lat="47.676131967455149" lon="11.404348975047469">
        <ele>682.940000000000055</ele>
        <time>2015-06-26T16:09:47Z</time>
      </trkpt>
      <trkpt lat="47.676121825352311" lon="11.404230538755655">
        <ele>680.42999999999995</ele>
        <time>2015-06-26T16:10:01Z</time>
      </trkpt>
      <trkpt lat="47.676120735704899" lon="11.404224000871181">
        <ele>680.419999999999959</ele>
        <time>2015-06-26T16:10:02Z</time>
      </trkpt>
      <trkpt lat="47.676035240292549" lon="11.40411738306284">
        <ele>678.830000000000041</ele>
        <time>2015-06-26T16:10:20Z</time>
      </trkpt>
      <trkpt lat="47.676094751805067" lon="11.404085867106915">
        <ele>676.07000000000005</ele>
        <time>2015-06-26T16:10:38Z</time>
      </trkpt>
      <trkpt lat="47.676232885569334" lon="11.404084609821439">
        <ele>672.980000000000018</ele>
        <time>2015-06-26T16:10:55Z</time>
      </trkpt>
      <trkpt lat="47.676238836720586" lon="11.404033731669188">
        <ele>671.870000000000005</ele>
        <time>2015-06-26T16:11:10Z</time>
      </trkpt>
      <trkpt lat="47.676129788160324" lon="11.403893334791064">
        <ele>669.169999999999959</ele>
        <time>2015-06-26T16:11:29Z</time>
      </trkpt>
      <trkpt lat="47.676013363525271" lon="11.403794847428799">
        <ele>667.720000000000027</ele>
        <time>2015-06-26T16:11:44Z</time>
      </trkpt>
      <trkpt lat="47.675931556150317" lon="11.403719242662191">
        <ele>668.649999999999977</ele>
        <time>2015-06-26T16:11:59Z</time>
      </trkpt>
      <trkpt lat="47.675943961367011" lon="11.403680350631475">
        <ele>668.389999999999986</ele>
        <time>2015-06-26T16:12:02Z</time>
      </trkpt>
      <trkpt lat="47.675959886983037" lon="11.403477005660534">
        <ele>667.769999999999982</ele>
        <time>2015-06-26T16:12:18Z</time>
      </trkpt>
      <trkpt lat="47.675822926685214" lon="11.403185147792101">
        <ele>682.25</ele>
        <time>2015-06-26T16:34:42Z</time>
      </trkpt>
      <trkpt lat="47.6756785903126" lon="11.403193362057209">
        <ele>681.269999999999982</ele>
        <time>2015-06-26T16:34:53Z</time>
      </trkpt>
      <trkpt lat="47.675592927262187" lon="11.403184309601784">
        <ele>681.080000000000041</ele>
        <time>2015-06-26T16:35:06Z</time>
      </trkpt>
      <trkpt lat="47.675591418519616" lon="11.403088672086596">
        <ele>679.899999999999977</ele>
        <time>2015-06-26T16:35:27Z</time>
      </trkpt>
      <trkpt lat="47.675560154020786" lon="11.402953723445535">
        <ele>678.360000000000014</ele>
        <time>2015-06-26T16:35:46Z</time>
      </trkpt>
      <trkpt lat="47.675548084080219" lon="11.402944503352046">
        <ele>678.220000000000027</ele>
        <time>2015-06-26T16:35:51Z</time>
      </trkpt>
      <trkpt lat="47.675455212593079" lon="11.402782564982772">
        <ele>676.139999999999986</ele>
        <time>2015-06-26T16:36:13Z</time>
      </trkpt>
      <trkpt lat="47.675423780456185" lon="11.402583410963416">
        <ele>675.080000000000041</ele>
        <time>2015-06-26T16:36:32Z</time>
      </trkpt>
      <trkpt lat="47.675377177074552" lon="11.402332959696651">
        <ele>674.580000000000041</ele>
        <time>2015-06-26T16:36:44Z</time>
      </trkpt>
      <trkpt lat="47.675306852906942" lon="11.402265401557088">
        <ele>673.860000000000014</ele>
        <time>2015-06-26T16:36:51Z</time>
      </trkpt>
      <trkpt lat="47.675290759652853" lon="11.402255510911345">
        <ele>673.360000000000014</ele>
        <time>2015-06-26T16:36:52Z</time>
      </trkpt>
      <trkpt lat="47.675264021381736" lon="11.402244111523032">
        <ele>673.210000000000036</ele>
        <time>2015-06-26T16:36:54Z</time>
      </trkpt>
      <trkpt lat="47.675234349444509" lon="11.402228940278292">
        <ele>672.090000000000032</ele>
        <time>2015-06-26T16:36:56Z</time>
      </trkpt>
      <trkpt lat="47.675216412171721" lon="11.402229024097323">
        <ele>671.809999999999945</ele>
        <time>2015-06-26T16:36:57Z</time>
      </trkpt>
      <trkpt lat="47.675134437158704" lon="11.402218714356422">
        <ele>671.509999999999991</ele>
        <time>2015-06-26T16:37:05Z</time>
      </trkpt>
      <trkpt lat="47.675020275637507" lon="11.402089884504676">
        <ele>669.309999999999945</ele>
        <time>2015-06-26T16:37:18Z</time>
      </trkpt>
      <trkpt lat="47.67488700337708" lon="11.401820657774806">
        <ele>668.610000000000014</ele>
        <time>2015-06-26T16:37:27Z</time>
      </trkpt>
      <trkpt lat="47.674830844625831" lon="11.401718147099018">
        <ele>668.620000000000005</ele>
        <time>2015-06-26T16:37:42Z</time>
      </trkpt>
      <trkpt lat="47.674808045849204" lon="11.401644134894013">
        <ele>668.580000000000041</ele>
        <time>2015-06-26T16:37:59Z</time>
      </trkpt>
      <trkpt lat="47.674755491316319" lon="11.401505498215556">
        <ele>668.389999999999986</ele>
        <time>2015-06-26T16:38:10Z</time>
      </trkpt>
      <trkpt lat="47.674768064171076" lon="11.401472976431251">
        <ele>667.899999999999977</ele>
        <time>2015-06-26T16:38:11Z</time>
      </trkpt>
      <trkpt lat="47.674783822149038" lon="11.401417152956128">
        <ele>667.259999999999991</ele>
        <time>2015-06-26T16:38:12Z</time>
      </trkpt>
      <trkpt lat="47.674798490479589" lon="11.401354791596532">
        <ele>666.580000000000041</ele>
        <time>2015-06-26T16:38:13Z</time>
      </trkpt>
      <trkpt lat="47.674807710573077" lon="11.401301231235266">
        <ele>666.399999999999977</ele>
        <time>2015-06-26T16:38:14Z</time>
      </trkpt>
      <trkpt lat="47.674806285649538" lon="11.401254963129759">
        <ele>666.409999999999968</ele>
        <time>2015-06-26T16:38:15Z</time>
      </trkpt>
      <trkpt lat="47.674777116626501" lon="11.401189919561148">
        <ele>665.990000000000009</ele>
        <time>2015-06-26T16:38:16Z</time>
      </trkpt>
      <trkpt lat="47.67466714605689" lon="11.401041056960821">
        <ele>665.090000000000032</ele>
        <time>2015-06-26T16:38:27Z</time>
      </trkpt>
      <trkpt lat="47.674622973427176" lon="11.401008702814579">
        <ele>661.779999999999973</ele>
        <time>2015-06-26T16:38:37Z</time>
      </trkpt>
      <trkpt lat="47.67460310831666" lon="11.40102437697351">
        <ele>660.25</ele>
        <time>2015-06-26T16:38:43Z</time>
      </trkpt>
      <trkpt lat="47.674616854637861" lon="11.400967296212912">
        <ele>659.110000000000014</ele>
        <time>2015-06-26T16:38:58Z</time>
      </trkpt>
      <trkpt lat="47.674630265682936" lon="11.40094768255949">
        <ele>658.720000000000027</ele>
        <time>2015-06-26T16:38:59Z</time>
      </trkpt>
      <trkpt lat="47.674658428877592" lon="11.40085875056684">
        <ele>657.690000000000055</ele>
        <time>2015-06-26T16:39:01Z</time>
      </trkpt>
      <trkpt lat="47.674692291766405" lon="11.400839639827609">
        <ele>657.289999999999964</ele>
        <time>2015-06-26T16:39:02Z</time>
      </trkpt>
      <trkpt lat="47.674718359485269" lon="11.400821451097727">
        <ele>656.980000000000018</ele>
        <time>2015-06-26T16:39:03Z</time>
      </trkpt>
      <trkpt lat="47.674804022535682" lon="11.400704272091389">
        <ele>656.690000000000055</ele>
        <time>2015-06-26T16:39:14Z</time>
      </trkpt>
      <trkpt lat="47.674847524613142" lon="11.400518864393234">
        <ele>657.230000000000018</ele>
        <time>2015-06-26T16:39:29Z</time>
      </trkpt>
      <trkpt lat="47.674823133274913" lon="11.400516098365188">
        <ele>657.350000000000023</ele>
        <time>2015-06-26T16:39:52Z</time>
      </trkpt>
      <trkpt lat="47.674832353368402" lon="11.400467986240983">
        <ele>657.67999999999995</ele>
        <time>2015-06-26T16:40:02Z</time>
      </trkpt>
      <trkpt lat="47.674840735271573" lon="11.400479050353169">
        <ele>656.970000000000027</ele>
        <time>2015-06-26T16:42:31Z</time>
      </trkpt>
      <trkpt lat="47.675085905939341" lon="11.400418784469366">
        <ele>653.870000000000005</ele>
        <time>2015-06-26T16:42:36Z</time>
      </trkpt>
      <trkpt lat="47.675255807116628" lon="11.400257181376219">
        <ele>652.340000000000032</ele>
        <time>2015-06-26T16:42:40Z</time>
      </trkpt>
      <trkpt lat="47.675442723557353" lon="11.40020739287138">
        <ele>650.480000000000018</ele>
        <time>2015-06-26T16:42:45Z</time>
      </trkpt>
      <trkpt lat="47.675677249208093" lon="11.400175960734487">
        <ele>648.67999999999995</ele>
        <time>2015-06-26T16:42:51Z</time>
      </trkpt>
      <trkpt lat="47.675815131515265" lon="11.400189874693751">
        <ele>648.039999999999964</ele>
        <time>2015-06-26T16:42:54Z</time>
      </trkpt>
      <trkpt lat="47.675960976630449" lon="11.400183336809278">
        <ele>648.110000000000014</ele>
        <time>2015-06-26T16:42:57Z</time>
      </trkpt>
      <trkpt lat="47.676168093457818" lon="11.400285847485065">
        <ele>645.629999999999995</ele>
        <time>2015-06-26T16:43:02Z</time>
      </trkpt>
      <trkpt lat="47.676222492009401" lon="11.400375450029969">
        <ele>644.879999999999995</ele>
        <time>2015-06-26T16:43:04Z</time>
      </trkpt>
      <trkpt lat="47.676607305184007" lon="11.400219043716788">
        <ele>643.730000000000018</ele>
        <time>2015-06-26T16:43:14Z</time>
      </trkpt>
      <trkpt lat="47.676700931042433" lon="11.399985942989588">
        <ele>643.789999999999964</ele>
        <time>2015-06-26T16:43:18Z</time>
      </trkpt>
      <trkpt lat="47.676916010677814" lon="11.399091007187963">
        <ele>642.860000000000014</ele>
        <time>2015-06-26T16:43:33Z</time>
      </trkpt>
      <trkpt lat="47.676986334845424" lon="11.398929487913847">
        <ele>642.169999999999959</ele>
        <time>2015-06-26T16:43:42Z</time>
      </trkpt>
      <trkpt lat="47.676998907700181" lon="11.398927643895149">
        <ele>642.620000000000005</ele>
        <time>2015-06-26T16:43:44Z</time>
      </trkpt>
      <trkpt lat="47.677030507475138" lon="11.39889688231051">
        <ele>640.809999999999945</ele>
        <time>2015-06-26T16:44:02Z</time>
      </trkpt>
      <trkpt lat="47.677049282938242" lon="11.398887829855084">
        <ele>642.529999999999973</ele>
        <time>2015-06-26T16:44:35Z</time>
      </trkpt>
      <trkpt lat="47.677050791680813" lon="11.398851284757257">
        <ele>642.480000000000018</ele>
        <time>2015-06-26T16:44:58Z</time>
      </trkpt>
      <trkpt lat="47.67706923186779" lon="11.398794539272785">
        <ele>642.690000000000055</ele>
        <time>2015-06-26T16:45:00Z</time>
      </trkpt>
      <trkpt lat="47.677084654569626" lon="11.398761179298162">
        <ele>642.700000000000045</ele>
        <time>2015-06-26T16:45:01Z</time>
      </trkpt>
      <trkpt lat="47.677100161090493" lon="11.398724466562271">
        <ele>642.309999999999945</ele>
        <time>2015-06-26T16:45:02Z</time>
      </trkpt>
      <trkpt lat="47.677220441401005" lon="11.398378713056445">
        <ele>640.17999999999995</ele>
        <time>2015-06-26T16:45:07Z</time>
      </trkpt>
      <trkpt lat="47.677484471350908" lon="11.397341703996062">
        <ele>637.169999999999959</ele>
        <time>2015-06-26T16:45:18Z</time>
      </trkpt>
      <trkpt lat="47.677552532404661" lon="11.397063257172704">
        <ele>635.529999999999973</ele>
        <time>2015-06-26T16:45:21Z</time>
      </trkpt>
      <trkpt lat="47.677815221250057" lon="11.395997749641538">
        <ele>632.389999999999986</ele>
        <time>2015-06-26T16:45:33Z</time>
      </trkpt>
      <trkpt lat="47.677878756076097" lon="11.39573011547327">
        <ele>631.059999999999945</ele>
        <time>2015-06-26T16:45:36Z</time>
      </trkpt>
      <trkpt lat="47.678030133247375" lon="11.395132653415203">
        <ele>629.110000000000014</ele>
        <time>2015-06-26T16:45:43Z</time>
      </trkpt>
      <trkpt lat="47.678071623668075" lon="11.39507045969367">
        <ele>628.340000000000032</ele>
        <time>2015-06-26T16:45:44Z</time>
      </trkpt>
      <trkpt lat="47.678124764934182" lon="11.395031567662954">
        <ele>627.860000000000014</ele>
        <time>2015-06-26T16:45:45Z</time>
      </trkpt>
      <trkpt lat="47.678181426599622" lon="11.395015390589833">
        <ele>627.899999999999977</ele>
        <time>2015-06-26T16:45:46Z</time>
      </trkpt>
      <trkpt lat="47.678236160427332" lon="11.395012121647596">
        <ele>627.42999999999995</ele>
        <time>2015-06-26T16:45:47Z</time>
      </trkpt>
      <trkpt lat="47.678946861997247" lon="11.395013881847262">
        <ele>623.830000000000041</ele>
        <time>2015-06-26T16:46:00Z</time>
      </trkpt>
      <trkpt lat="47.679298901930451" lon="11.395032238215208">
        <ele>622.5</ele>
        <time>2015-06-26T16:46:11Z</time>
      </trkpt>
      <trkpt lat="47.679317090660334" lon="11.395035507157445">
        <ele>621.75</ele>
        <time>2015-06-26T16:46:27Z</time>
      </trkpt>
      <trkpt lat="47.679330417886376" lon="11.395033579319715">
        <ele>622</ele>
        <time>2015-06-26T16:46:28Z</time>
      </trkpt>
      <trkpt lat="47.679343409836292" lon="11.395015558227897">
        <ele>622.759999999999991</ele>
        <time>2015-06-26T16:46:29Z</time>
      </trkpt>
      <trkpt lat="47.679354893043637" lon="11.394978510215878">
        <ele>622.240000000000009</ele>
        <time>2015-06-26T16:46:30Z</time>
      </trkpt>
      <trkpt lat="47.679363107308745" lon="11.394928554072976">
        <ele>622.350000000000023</ele>
        <time>2015-06-26T16:46:31Z</time>
      </trkpt>
      <trkpt lat="47.679369309917092" lon="11.394868120551109">
        <ele>622.450000000000045</ele>
        <time>2015-06-26T16:46:32Z</time>
      </trkpt>
      <trkpt lat="47.679463354870677" lon="11.394121209159493">
        <ele>619.360000000000014</ele>
        <time>2015-06-26T16:46:41Z</time>
      </trkpt>
      <trkpt lat="47.679542899131775" lon="11.393257789313793">
        <ele>617.860000000000014</ele>
        <time>2015-06-26T16:46:50Z</time>
      </trkpt>
      <trkpt lat="47.679553963243961" lon="11.393203306943178">
        <ele>617.350000000000023</ele>
        <time>2015-06-26T16:46:51Z</time>
      </trkpt>
      <trkpt lat="47.679564105346799" lon="11.393169276416302">
        <ele>617.419999999999959</ele>
        <time>2015-06-26T16:46:52Z</time>
      </trkpt>
      <trkpt lat="47.679573660716414" lon="11.393154105171561">
        <ele>617.639999999999986</ele>
        <time>2015-06-26T16:47:01Z</time>
      </trkpt>
      <trkpt lat="47.679581539705396" lon="11.393141783773899">
        <ele>617.649999999999977</ele>
        <time>2015-06-26T16:47:10Z</time>
      </trkpt>
      <trkpt lat="47.679590927436948" lon="11.393130216747522">
        <ele>617.049999999999955</ele>
        <time>2015-06-26T16:47:11Z</time>
      </trkpt>
      <trkpt lat="47.679604254662991" lon="11.393113536760211">
        <ele>616.870000000000005</ele>
        <time>2015-06-26T16:47:12Z</time>
      </trkpt>
      <trkpt lat="47.679621353745461" lon="11.393088642507792">
        <ele>616.919999999999959</ele>
        <time>2015-06-26T16:47:13Z</time>
      </trkpt>
      <trkpt lat="47.679641470313072" lon="11.393056036904454">
        <ele>617.019999999999982</ele>
        <time>2015-06-26T16:47:14Z</time>
      </trkpt>
      <trkpt lat="47.68000490963459" lon="11.392553625628352">
        <ele>614.720000000000027</ele>
        <time>2015-06-26T16:47:24Z</time>
      </trkpt>
      <trkpt lat="47.680126279592514" lon="11.392388418316841">
        <ele>613.120000000000005</ele>
        <time>2015-06-26T16:47:27Z</time>
      </trkpt>
      <trkpt lat="47.680789874866605" lon="11.391485603526235">
        <ele>610.700000000000045</ele>
        <time>2015-06-26T16:47:42Z</time>
      </trkpt>
      <trkpt lat="47.681323466822505" lon="11.39076710678637">
        <ele>608.67999999999995</ele>
        <time>2015-06-26T16:47:57Z</time>
      </trkpt>
      <trkpt lat="47.681368561461568" lon="11.390705332159996">
        <ele>608.019999999999982</ele>
        <time>2015-06-26T16:47:59Z</time>
      </trkpt>
      <trkpt lat="47.681383229792118" lon="11.390704158693552">
        <ele>607.57000000000005</ele>
        <time>2015-06-26T16:48:09Z</time>
      </trkpt>
      <trkpt lat="47.681421367451549" lon="11.390655292198062">
        <ele>607.379999999999995</ele>
        <time>2015-06-26T16:48:16Z</time>
      </trkpt>
      <trkpt lat="47.681440813466907" lon="11.390630481764674">
        <ele>607.759999999999991</ele>
        <time>2015-06-26T16:48:17Z</time>
      </trkpt>
      <trkpt lat="47.681467300280929" lon="11.390601312741637">
        <ele>607.350000000000023</ele>
        <time>2015-06-26T16:48:18Z</time>
      </trkpt>
      <trkpt lat="47.681501330807805" lon="11.390570048242807">
        <ele>606.889999999999986</ele>
        <time>2015-06-26T16:48:19Z</time>
      </trkpt>
      <trkpt lat="47.681539636105299" lon="11.390536520630121">
        <ele>606.92999999999995</ele>
        <time>2015-06-26T16:48:20Z</time>
      </trkpt>
      <trkpt lat="47.682314794510603" lon="11.389691205695271">
        <ele>604.639999999999986</ele>
        <time>2015-06-26T16:48:37Z</time>
      </trkpt>
      <trkpt lat="47.68302608281374" lon="11.38889660127461">
        <ele>601.169999999999959</ele>
        <time>2015-06-26T16:48:51Z</time>
      </trkpt>
      <trkpt lat="47.68345020711422" lon="11.3884446490556">
        <ele>600.210000000000036</ele>
        <time>2015-06-26T16:48:59Z</time>
      </trkpt>
      <trkpt lat="47.683513490483165" lon="11.38841338455677">
        <ele>600.009999999999991</ele>
        <time>2015-06-26T16:49:00Z</time>
      </trkpt>
      <trkpt lat="47.683577360585332" lon="11.388391256332397">
        <ele>599.309999999999945</ele>
        <time>2015-06-26T16:49:01Z</time>
      </trkpt>
      <trkpt lat="47.68426819704473" lon="11.388287991285324">
        <ele>599.590000000000032</ele>
        <time>2015-06-26T16:49:14Z</time>
      </trkpt>
      <trkpt lat="47.685308894142509" lon="11.388166369870305">
        <ele>599.649999999999977</ele>
        <time>2015-06-26T16:49:33Z</time>
      </trkpt>
      <trkpt lat="47.685591699555516" lon="11.388127896934748">
        <ele>599.330000000000041</ele>
        <time>2015-06-26T16:49:39Z</time>
      </trkpt>
      <trkpt lat="47.685633441433311" lon="11.388137200847268">
        <ele>599.019999999999982</ele>
        <time>2015-06-26T16:49:40Z</time>
      </trkpt>
      <trkpt lat="47.685672584921122" lon="11.388164442032576">
        <ele>599.440000000000055</ele>
        <time>2015-06-26T16:49:41Z</time>
      </trkpt>
      <trkpt lat="47.685702089220285" lon="11.388208027929068">
        <ele>599.139999999999986</ele>
        <time>2015-06-26T16:49:42Z</time>
      </trkpt>
      <trkpt lat="47.685720697045326" lon="11.388261923566461">
        <ele>599.240000000000009</ele>
        <time>2015-06-26T16:49:43Z</time>
      </trkpt>
      <trkpt lat="47.685727989301085" lon="11.388318333774805">
        <ele>599.309999999999945</ele>
        <time>2015-06-26T16:49:44Z</time>
      </trkpt>
      <trkpt lat="47.685733940452337" lon="11.388377593830228">
        <ele>599.059999999999945</ele>
        <time>2015-06-26T16:49:45Z</time>
      </trkpt>
      <trkpt lat="47.685773838311434" lon="11.388795766979456">
        <ele>599.779999999999973</ele>
        <time>2015-06-26T16:49:52Z</time>
      </trkpt>
      <trkpt lat="47.685776352882385" lon="11.388860139995813">
        <ele>599.850000000000023</ele>
        <time>2015-06-26T16:49:53Z</time>
      </trkpt>
      <trkpt lat="47.685833349823952" lon="11.389210084453225">
        <ele>600.799999999999955</ele>
        <time>2015-06-26T16:50:00Z</time>
      </trkpt>
      <trkpt lat="47.685868972912431" lon="11.389231123030186">
        <ele>601.730000000000018</ele>
        <time>2015-06-26T16:50:02Z</time>
      </trkpt>
      <trkpt lat="47.685901159420609" lon="11.389244785532355">
        <ele>601.350000000000023</ele>
        <time>2015-06-26T16:50:18Z</time>
      </trkpt>
      <trkpt lat="47.685888754203916" lon="11.389251658692956">
        <ele>602.379999999999995</ele>
        <time>2015-06-26T16:50:59Z</time>
      </trkpt>
      <trkpt lat="47.685897555202246" lon="11.389235816895962">
        <ele>602.299999999999955</ele>
        <time>2015-06-26T16:51:13Z</time>
      </trkpt>
      <trkpt lat="47.68599302507937" lon="11.389309326186776">
        <ele>600.850000000000023</ele>
        <time>2015-06-26T16:51:18Z</time>
      </trkpt>
      <trkpt lat="47.685996042564511" lon="11.389426672831178">
        <ele>601.059999999999945</ele>
        <time>2015-06-26T16:51:20Z</time>
      </trkpt>
      <trkpt lat="47.685986738651991" lon="11.390015166252851">
        <ele>601.330000000000041</ele>
        <time>2015-06-26T16:51:34Z</time>
      </trkpt>
      <trkpt lat="47.68596863374114" lon="11.390167968347669">
        <ele>601.460000000000036</ele>
        <time>2015-06-26T16:51:46Z</time>
      </trkpt>
      <trkpt lat="47.685993108898401" lon="11.390119437128305">
        <ele>601.309999999999945</ele>
        <time>2015-06-26T16:52:00Z</time>
      </trkpt>
      <trkpt lat="47.68602236174047" lon="11.389409489929676">
        <ele>601.169999999999959</ele>
        <time>2015-06-26T16:52:14Z</time>
      </trkpt>
      <trkpt lat="47.686039377003908" lon="11.389302453026175">
        <ele>600.980000000000018</ele>
        <time>2015-06-26T16:52:16Z</time>
      </trkpt>
      <trkpt lat="47.686439445242286" lon="11.389172114431858">
        <ele>600.730000000000018</ele>
        <time>2015-06-26T16:52:27Z</time>
      </trkpt>
      <trkpt lat="47.687224494293332" lon="11.389075554907322">
        <ele>600.269999999999982</ele>
        <time>2015-06-26T16:52:45Z</time>
      </trkpt>
      <trkpt lat="47.687338991090655" lon="11.38906029984355">
        <ele>600.789999999999964</ele>
        <time>2015-06-26T16:52:55Z</time>
      </trkpt>
      <trkpt lat="47.687361789867282" lon="11.389030711725354">
        <ele>600.899999999999977</ele>
        <time>2015-06-26T16:53:18Z</time>
      </trkpt>
      <trkpt lat="47.687352485954762" lon="11.389019396156073">
        <ele>600.57000000000005</ele>
        <time>2015-06-26T16:53:32Z</time>
      </trkpt>
      <trkpt lat="47.68738710321486" lon="11.389033393934369">
        <ele>600.490000000000009</ele>
        <time>2015-06-26T16:53:42Z</time>
      </trkpt>
      <trkpt lat="47.687421971932054" lon="11.389035657048225">
        <ele>600.309999999999945</ele>
        <time>2015-06-26T16:53:50Z</time>
      </trkpt>
      <trkpt lat="47.687432365491986" lon="11.389032220467925">
        <ele>600.590000000000032</ele>
        <time>2015-06-26T16:53:51Z</time>
      </trkpt>
      <trkpt lat="47.687443932518363" lon="11.389029370620847">
        <ele>600.67999999999995</ele>
        <time>2015-06-26T16:53:52Z</time>
      </trkpt>
      <trkpt lat="47.687695054337382" lon="11.38900263234973">
        <ele>601.870000000000005</ele>
        <time>2015-06-26T16:54:04Z</time>
      </trkpt>
      <trkpt lat="47.688013147562742" lon="11.388942198827863">
        <ele>602.17999999999995</ele>
        <time>2015-06-26T16:54:14Z</time>
      </trkpt>
      <trkpt lat="47.688649753108621" lon="11.38886634260416">
        <ele>602.07000000000005</ele>
        <time>2015-06-26T16:54:34Z</time>
      </trkpt>
      <trkpt lat="47.688676910474896" lon="11.388882268220186">
        <ele>602.519999999999982</ele>
        <time>2015-06-26T16:54:48Z</time>
      </trkpt>
      <trkpt lat="47.688689064234495" lon="11.388901127502322">
        <ele>603.129999999999995</ele>
        <time>2015-06-26T16:54:49Z</time>
      </trkpt>
      <trkpt lat="47.688698871061206" lon="11.388931469991803">
        <ele>602.690000000000055</ele>
        <time>2015-06-26T16:54:50Z</time>
      </trkpt>
      <trkpt lat="47.688704822212458" lon="11.38896944001317">
        <ele>602.740000000000009</ele>
        <time>2015-06-26T16:54:51Z</time>
      </trkpt>
      <trkpt lat="47.688712198287249" lon="11.389010259881616">
        <ele>603.07000000000005</ele>
        <time>2015-06-26T16:54:52Z</time>
      </trkpt>
      <trkpt lat="47.688721502199769" lon="11.389052420854568">
        <ele>602.960000000000036</ele>
        <time>2015-06-26T16:54:53Z</time>
      </trkpt>
      <trkpt lat="47.688733991235495" lon="11.389095671474934">
        <ele>602.970000000000027</ele>
        <time>2015-06-26T16:54:54Z</time>
      </trkpt>
      <trkpt lat="47.688747234642506" lon="11.389140011742711">
        <ele>602.779999999999973</ele>
        <time>2015-06-26T16:54:55Z</time>
      </trkpt>
      <trkpt lat="47.688758047297597" lon="11.389186531305313">
        <ele>602.919999999999959</ele>
        <time>2015-06-26T16:54:56Z</time>
      </trkpt>
      <trkpt lat="47.688767267391086" lon="11.389234224334359">
        <ele>602.75</ele>
        <time>2015-06-26T16:54:57Z</time>
      </trkpt>
      <trkpt lat="47.68882317468524" lon="11.389485178515315">
        <ele>603.019999999999982</ele>
        <time>2015-06-26T16:55:03Z</time>
      </trkpt>
      <trkpt lat="47.688844967633486" lon="11.389496745541692">
        <ele>602.940000000000055</ele>
        <time>2015-06-26T16:55:04Z</time>
      </trkpt>
      <trkpt lat="47.6888666767627" lon="11.389489285647869">
        <ele>602.970000000000027</ele>
        <time>2015-06-26T16:55:05Z</time>
      </trkpt>
      <trkpt lat="47.688882015645504" lon="11.389462128281593">
        <ele>603.090000000000032</ele>
        <time>2015-06-26T16:55:06Z</time>
      </trkpt>
      <trkpt lat="47.688890481367707" lon="11.389422230422497">
        <ele>602.82000000000005</ele>
        <time>2015-06-26T16:55:07Z</time>
      </trkpt>
      <trkpt lat="47.688899114727974" lon="11.389380153268576">
        <ele>603.25</ele>
        <time>2015-06-26T16:55:08Z</time>
      </trkpt>
      <trkpt lat="47.688909759745002" lon="11.389336483553052">
        <ele>602.990000000000009</ele>
        <time>2015-06-26T16:55:09Z</time>
      </trkpt>
      <trkpt lat="47.688921578228474" lon="11.389290550723672">
        <ele>603.149999999999977</ele>
        <time>2015-06-26T16:55:10Z</time>
      </trkpt>
      <trkpt lat="47.688934737816453" lon="11.38924210332334">
        <ele>603.309999999999945</ele>
        <time>2015-06-26T16:55:11Z</time>
      </trkpt>
      <trkpt lat="47.688947897404432" lon="11.389188291504979">
        <ele>603.129999999999995</ele>
        <time>2015-06-26T16:55:12Z</time>
      </trkpt>
      <trkpt lat="47.68897907808423" lon="11.389081422239542">
        <ele>603.379999999999995</ele>
        <time>2015-06-26T16:55:14Z</time>
      </trkpt>
      <trkpt lat="47.689001457765698" lon="11.389030795544386">
        <ele>603.25</ele>
        <time>2015-06-26T16:55:15Z</time>
      </trkpt>
      <trkpt lat="47.689142189919949" lon="11.388785624876618">
        <ele>602.970000000000027</ele>
        <time>2015-06-26T16:55:20Z</time>
      </trkpt>
      <trkpt lat="47.689180495217443" lon="11.388742625713348">
        <ele>603.139999999999986</ele>
        <time>2015-06-26T16:55:21Z</time>
      </trkpt>
      <trkpt lat="47.689222572371364" lon="11.388707086443901">
        <ele>602.879999999999995</ele>
        <time>2015-06-26T16:55:22Z</time>
      </trkpt>
      <trkpt lat="47.68926833756268" lon="11.388684622943401">
        <ele>602.75</ele>
        <time>2015-06-26T16:55:23Z</time>
      </trkpt>
      <trkpt lat="47.689316617324948" lon="11.38867330737412">
        <ele>602.440000000000055</ele>
        <time>2015-06-26T16:55:24Z</time>
      </trkpt>
      <trkpt lat="47.689364310353994" lon="11.388664757832885">
        <ele>602.559999999999945</ele>
        <time>2015-06-26T16:55:25Z</time>
      </trkpt>
      <trkpt lat="47.689409740269184" lon="11.388652017340064">
        <ele>602.779999999999973</ele>
        <time>2015-06-26T16:55:26Z</time>
      </trkpt>
      <trkpt lat="47.68945349380374" lon="11.388628967106342">
        <ele>602.360000000000014</ele>
        <time>2015-06-26T16:55:27Z</time>
      </trkpt>
      <trkpt lat="47.689494984224439" lon="11.388594517484307">
        <ele>601.940000000000055</ele>
        <time>2015-06-26T16:55:28Z</time>
      </trkpt>
      <trkpt lat="47.689532786607742" lon="11.388552356511354">
        <ele>602.610000000000014</ele>
        <time>2015-06-26T16:55:29Z</time>
      </trkpt>
      <trkpt lat="47.689561787992716" lon="11.388513464480639">
        <ele>602.299999999999955</ele>
        <time>2015-06-26T16:55:30Z</time>
      </trkpt>
      <trkpt lat="47.68958056345582" lon="11.38848664239049">
        <ele>602.370000000000005</ele>
        <time>2015-06-26T16:55:31Z</time>
      </trkpt>
      <trkpt lat="47.689594896510243" lon="11.388452276587486">
        <ele>602.059999999999945</ele>
        <time>2015-06-26T16:55:40Z</time>
      </trkpt>
      <trkpt lat="47.689603697508574" lon="11.388378096744418">
        <ele>602.139999999999986</ele>
        <time>2015-06-26T16:55:51Z</time>
      </trkpt>
      <trkpt lat="47.68960646353662" lon="11.388314478099346">
        <ele>601.879999999999995</ele>
        <time>2015-06-26T16:55:53Z</time>
      </trkpt>
      <trkpt lat="47.689635632559657" lon="11.388138039037585">
        <ele>602.039999999999964</ele>
        <time>2015-06-26T16:55:57Z</time>
      </trkpt>
      <trkpt lat="47.689660610631108" lon="11.388121442869306">
        <ele>601.730000000000018</ele>
        <time>2015-06-26T16:55:58Z</time>
      </trkpt>
      <trkpt lat="47.689690114930272" lon="11.388121275231242">
        <ele>601.960000000000036</ele>
        <time>2015-06-26T16:55:59Z</time>
      </trkpt>
      <trkpt lat="47.68971785902977" lon="11.388129992410541">
        <ele>602.200000000000045</ele>
        <time>2015-06-26T16:56:00Z</time>
      </trkpt>
      <trkpt lat="47.689739903435111" lon="11.388144074007869">
        <ele>602.690000000000055</ele>
        <time>2015-06-26T16:56:01Z</time>
      </trkpt>
      <trkpt lat="47.689755912870169" lon="11.3881597481668">
        <ele>603.549999999999955</ele>
        <time>2015-06-26T16:56:02Z</time>
      </trkpt>
      <trkpt lat="47.689770832657814" lon="11.388178439810872">
        <ele>603.419999999999959</ele>
        <time>2015-06-26T16:56:03Z</time>
      </trkpt>
      <trkpt lat="47.689779717475176" lon="11.388199729844928">
        <ele>604.159999999999968</ele>
        <time>2015-06-26T16:56:04Z</time>
      </trkpt>
      <trkpt lat="47.689787847921252" lon="11.388224205002189">
        <ele>604.009999999999991</ele>
        <time>2015-06-26T16:56:05Z</time>
      </trkpt>
      <trkpt lat="47.689800504595041" lon="11.388249602168798">
        <ele>604.210000000000036</ele>
        <time>2015-06-26T16:56:06Z</time>
      </trkpt>
      <trkpt lat="47.68981559202075" lon="11.388279777020216">
        <ele>604.309999999999945</ele>
        <time>2015-06-26T16:56:07Z</time>
      </trkpt>
      <trkpt lat="47.689831936731935" lon="11.388316405937076">
        <ele>604.57000000000005</ele>
        <time>2015-06-26T16:56:08Z</time>
      </trkpt>
      <trkpt lat="47.689997646957636" lon="11.388498209416866">
        <ele>604.009999999999991</ele>
        <time>2015-06-26T16:56:14Z</time>
      </trkpt>
      <trkpt lat="47.690200656652451" lon="11.388630475848913">
        <ele>603.799999999999955</ele>
        <time>2015-06-26T16:56:19Z</time>
      </trkpt>
      <trkpt lat="47.690232088789344" lon="11.388672720640898">
        <ele>603.649999999999977</ele>
        <time>2015-06-26T16:56:20Z</time>
      </trkpt>
      <trkpt lat="47.690499220043421" lon="11.389175215736032">
        <ele>603.350000000000023</ele>
        <time>2015-06-26T16:56:32Z</time>
      </trkpt>
      <trkpt lat="47.690596785396338" lon="11.389295915141702">
        <ele>603.720000000000027</ele>
        <time>2015-06-26T16:56:43Z</time>
      </trkpt>
      <trkpt lat="47.690618829801679" lon="11.389302536845207">
        <ele>602.450000000000045</ele>
        <time>2015-06-26T16:56:45Z</time>
      </trkpt>
      <trkpt lat="47.690668534487486" lon="11.389313684776425">
        <ele>603.32000000000005</ele>
        <time>2015-06-26T16:56:53Z</time>
      </trkpt>
      <trkpt lat="47.690678760409355" lon="11.389324329793453">
        <ele>603.629999999999995</ele>
        <time>2015-06-26T16:56:54Z</time>
      </trkpt>
      <trkpt lat="47.690691165626049" lon="11.3893339689821">
        <ele>603.129999999999995</ele>
        <time>2015-06-26T16:56:55Z</time>
      </trkpt>
      <trkpt lat="47.690704157575965" lon="11.389348553493619">
        <ele>603.220000000000027</ele>
        <time>2015-06-26T16:56:56Z</time>
      </trkpt>
      <trkpt lat="47.690720334649086" lon="11.389361545443535">
        <ele>603.559999999999945</ele>
        <time>2015-06-26T16:56:57Z</time>
      </trkpt>
      <trkpt lat="47.690743217244744" lon="11.389374705031514">
        <ele>603.399999999999977</ele>
        <time>2015-06-26T16:56:58Z</time>
      </trkpt>
      <trkpt lat="47.691059801727533" lon="11.38949666172266">
        <ele>602</ele>
        <time>2015-06-26T16:57:08Z</time>
      </trkpt>
      <trkpt lat="47.691302374005318" lon="11.389658516272902">
        <ele>601.809999999999945</ele>
        <time>2015-06-26T16:57:21Z</time>
      </trkpt>
      <trkpt lat="47.691448386758566" lon="11.389723727479577">
        <ele>602.809999999999945</ele>
        <time>2015-06-26T16:57:35Z</time>
      </trkpt>
      <trkpt lat="47.691613510251045" lon="11.38960218988359">
        <ele>603.700000000000045</ele>
        <time>2015-06-26T16:57:50Z</time>
      </trkpt>
      <trkpt lat="47.691776286810637" lon="11.389417871832848">
        <ele>604.139999999999986</ele>
        <time>2015-06-26T16:58:06Z</time>
      </trkpt>
      <trkpt lat="47.691893633455038" lon="11.389225255697966">
        <ele>605.850000000000023</ele>
        <time>2015-06-26T16:58:24Z</time>
      </trkpt>
      <trkpt lat="47.691950043663383" lon="11.389123080298305">
        <ele>605.470000000000027</ele>
        <time>2015-06-26T16:58:28Z</time>
      </trkpt>
      <trkpt lat="47.692012656480074" lon="11.3890231680125">
        <ele>605.279999999999973</ele>
        <time>2015-06-26T16:58:32Z</time>
      </trkpt>
      <trkpt lat="47.692033862695098" lon="11.389005649834871">
        <ele>605.029999999999973</ele>
        <time>2015-06-26T16:58:33Z</time>
      </trkpt>
      <trkpt lat="47.692050542682409" lon="11.388979833573103">
        <ele>604.809999999999945</ele>
        <time>2015-06-26T16:58:34Z</time>
      </trkpt>
      <trkpt lat="47.69206864759326" lon="11.388966254889965">
        <ele>604.409999999999968</ele>
        <time>2015-06-26T16:58:35Z</time>
      </trkpt>
      <trkpt lat="47.69209261983633" lon="11.388964913785458">
        <ele>604.190000000000055</ele>
        <time>2015-06-26T16:58:36Z</time>
      </trkpt>
      <trkpt lat="47.692111060023308" lon="11.388970529660583">
        <ele>604.230000000000018</ele>
        <time>2015-06-26T16:58:37Z</time>
      </trkpt>
      <trkpt lat="47.692124890163541" lon="11.388981929048896">
        <ele>604.590000000000032</ele>
        <time>2015-06-26T16:58:38Z</time>
      </trkpt>
      <trkpt lat="47.692133104428649" lon="11.38899827376008">
        <ele>604.649999999999977</ele>
        <time>2015-06-26T16:58:39Z</time>
      </trkpt>
      <trkpt lat="47.692136205732822" lon="11.389015456661582">
        <ele>604.529999999999973</ele>
        <time>2015-06-26T16:58:40Z</time>
      </trkpt>
      <trkpt lat="47.692207284271717" lon="11.388995423913002">
        <ele>604.529999999999973</ele>
        <time>2015-06-26T16:58:52Z</time>
      </trkpt>
      <trkpt lat="47.692272663116455" lon="11.388958543539047">
        <ele>603.759999999999991</ele>
        <time>2015-06-26T16:59:01Z</time>
      </trkpt>
      <trkpt lat="47.692287247627974" lon="11.388953514397144">
        <ele>603.539999999999964</ele>
        <time>2015-06-26T16:59:02Z</time>
      </trkpt>
      <trkpt lat="47.6923066098243" lon="11.388950748369098">
        <ele>603.649999999999977</ele>
        <time>2015-06-26T16:59:03Z</time>
      </trkpt>
      <trkpt lat="47.69233301281929" lon="11.388953682035208">
        <ele>604.100000000000023</ele>
        <time>2015-06-26T16:59:04Z</time>
      </trkpt>
      <trkpt lat="47.692361762747169" lon="11.388965835794806">
        <ele>604.17999999999995</ele>
        <time>2015-06-26T16:59:05Z</time>
      </trkpt>
      <trkpt lat="47.692391015589237" lon="11.388983270153403">
        <ele>604.029999999999973</ele>
        <time>2015-06-26T16:59:06Z</time>
      </trkpt>
      <trkpt lat="47.692744145169854" lon="11.389473276212811">
        <ele>604.850000000000023</ele>
        <time>2015-06-26T16:59:19Z</time>
      </trkpt>
      <trkpt lat="47.693135412409902" lon="11.390130333602428">
        <ele>604.970000000000027</ele>
        <time>2015-06-26T16:59:34Z</time>
      </trkpt>
      <trkpt lat="47.693615779280663" lon="11.391018144786358">
        <ele>605.730000000000018</ele>
        <time>2015-06-26T16:59:53Z</time>
      </trkpt>
      <trkpt lat="47.693794397637248" lon="11.391274631023407">
        <ele>606.559999999999945</ele>
        <time>2015-06-26T16:59:59Z</time>
      </trkpt>
      <trkpt lat="47.693829601630569" lon="11.391307571902871">
        <ele>606.080000000000041</ele>
        <time>2015-06-26T17:00:00Z</time>
      </trkpt>
      <trkpt lat="47.694623870775104" lon="11.39181861653924">
        <ele>606.690000000000055</ele>
        <time>2015-06-26T17:00:22Z</time>
      </trkpt>
      <trkpt lat="47.695161988958716" lon="11.392153305932879">
        <ele>607.529999999999973</ele>
        <time>2015-06-26T17:00:38Z</time>
      </trkpt>
      <trkpt lat="47.695840504020452" lon="11.392996860668063">
        <ele>608.129999999999995</ele>
        <time>2015-06-26T17:01:01Z</time>
      </trkpt>
      <trkpt lat="47.696281727403402" lon="11.393649727106094">
        <ele>609.669999999999959</ele>
        <time>2015-06-26T17:01:18Z</time>
      </trkpt>
      <trkpt lat="47.696603005751967" lon="11.394275352358818">
        <ele>609.610000000000014</ele>
        <time>2015-06-26T17:01:33Z</time>
      </trkpt>
      <trkpt lat="47.696692189201713" lon="11.394404685124755">
        <ele>609.649999999999977</ele>
        <time>2015-06-26T17:01:43Z</time>
      </trkpt>
      <trkpt lat="47.696703337132931" lon="11.394420107826591">
        <ele>609.539999999999964</ele>
        <time>2015-06-26T17:01:59Z</time>
      </trkpt>
      <trkpt lat="47.696710964664817" lon="11.394435362890363">
        <ele>609.340000000000032</ele>
        <time>2015-06-26T17:02:00Z</time>
      </trkpt>
      <trkpt lat="47.696719598025084" lon="11.394450953230262">
        <ele>609.789999999999964</ele>
        <time>2015-06-26T17:02:01Z</time>
      </trkpt>
      <trkpt lat="47.696732170879841" lon="11.394468974322081">
        <ele>610.100000000000023</ele>
        <time>2015-06-26T17:02:02Z</time>
      </trkpt>
      <trkpt lat="47.696746503934264" lon="11.394493114203215">
        <ele>609.809999999999945</ele>
        <time>2015-06-26T17:02:03Z</time>
      </trkpt>
      <trkpt lat="47.696761256083846" lon="11.394522450864315">
        <ele>610.240000000000009</ele>
        <time>2015-06-26T17:02:04Z</time>
      </trkpt>
      <trkpt lat="47.696778941899538" lon="11.394555894657969">
        <ele>610.289999999999964</ele>
        <time>2015-06-26T17:02:05Z</time>
      </trkpt>
      <trkpt lat="47.697273138910532" lon="11.395134329795837">
        <ele>610.169999999999959</ele>
        <time>2015-06-26T17:02:22Z</time>
      </trkpt>
      <trkpt lat="47.697611264884472" lon="11.395639842376113">
        <ele>610.730000000000018</ele>
        <time>2015-06-26T17:02:37Z</time>
      </trkpt>
      <trkpt lat="47.697627358138561" lon="11.395659539848566">
        <ele>611.529999999999973</ele>
        <time>2015-06-26T17:02:53Z</time>
      </trkpt>
      <trkpt lat="47.69763657823205" lon="11.395678231492639">
        <ele>611.460000000000036</ele>
        <time>2015-06-26T17:02:54Z</time>
      </trkpt>
      <trkpt lat="47.697649821639061" lon="11.395704131573439">
        <ele>611.120000000000005</ele>
        <time>2015-06-26T17:02:55Z</time>
      </trkpt>
      <trkpt lat="47.697663232684135" lon="11.395735396072268">
        <ele>611.169999999999959</ele>
        <time>2015-06-26T17:02:56Z</time>
      </trkpt>
      <trkpt lat="47.697675889357924" lon="11.395770264789462">
        <ele>611.059999999999945</ele>
        <time>2015-06-26T17:02:57Z</time>
      </trkpt>
      <trkpt lat="47.697688210755587" lon="11.395807899534702">
        <ele>611.220000000000027</ele>
        <time>2015-06-26T17:02:58Z</time>
      </trkpt>
      <trkpt lat="47.697863643988967" lon="11.396566545590758">
        <ele>611.92999999999995</ele>
        <time>2015-06-26T17:03:14Z</time>
      </trkpt>
      <trkpt lat="47.69787797704339" lon="11.397600285708904">
        <ele>613.690000000000055</ele>
        <time>2015-06-26T17:03:34Z</time>
      </trkpt>
      <trkpt lat="47.697770688682795" lon="11.398017453029752">
        <ele>612.509999999999991</ele>
        <time>2015-06-26T17:03:45Z</time>
      </trkpt>
      <trkpt lat="47.697789799422026" lon="11.398057099431753">
        <ele>612.610000000000014</ele>
        <time>2015-06-26T17:03:46Z</time>
      </trkpt>
      <trkpt lat="47.69782030954957" lon="11.398079730570316">
        <ele>612.620000000000005</ele>
        <time>2015-06-26T17:03:47Z</time>
      </trkpt>
      <trkpt lat="47.697856770828366" lon="11.398091381415725">
        <ele>612.42999999999995</ele>
        <time>2015-06-26T17:03:48Z</time>
      </trkpt>
      <trkpt lat="47.697894405573606" lon="11.398095991462469">
        <ele>611.940000000000055</ele>
        <time>2015-06-26T17:03:49Z</time>
      </trkpt>
      <trkpt lat="47.69792977720499" lon="11.398099176585674">
        <ele>612.240000000000009</ele>
        <time>2015-06-26T17:03:50Z</time>
      </trkpt>
      <trkpt lat="47.697985265403986" lon="11.398107223212719">
        <ele>612.75</ele>
        <time>2015-06-26T17:03:59Z</time>
      </trkpt>
      <trkpt lat="47.698009153828025" lon="11.39810043387115">
        <ele>612.620000000000005</ele>
        <time>2015-06-26T17:04:23Z</time>
      </trkpt>
      <trkpt lat="47.698019631206989" lon="11.398100601509213">
        <ele>613.080000000000041</ele>
        <time>2015-06-26T17:04:24Z</time>
      </trkpt>
      <trkpt lat="47.698031784966588" lon="11.39810336753726">
        <ele>612.659999999999968</ele>
        <time>2015-06-26T17:04:25Z</time>
      </trkpt>
      <trkpt lat="47.698048381134868" lon="11.398104792460799">
        <ele>612.559999999999945</ele>
        <time>2015-06-26T17:04:26Z</time>
      </trkpt>
      <trkpt lat="47.698069419711828" lon="11.398102026432753">
        <ele>612.5</ele>
        <time>2015-06-26T17:04:27Z</time>
      </trkpt>
      <trkpt lat="47.698094230145216" lon="11.398099679499865">
        <ele>613.230000000000018</ele>
        <time>2015-06-26T17:04:28Z</time>
      </trkpt>
      <trkpt lat="47.698121052235365" lon="11.398101439699531">
        <ele>612.990000000000009</ele>
        <time>2015-06-26T17:04:29Z</time>
      </trkpt>
      <trkpt lat="47.698148796334863" lon="11.398106385022402">
        <ele>613.649999999999977</ele>
        <time>2015-06-26T17:04:30Z</time>
      </trkpt>
      <trkpt lat="47.698178049176931" lon="11.398111497983336">
        <ele>613.379999999999995</ele>
        <time>2015-06-26T17:04:31Z</time>
      </trkpt>
      <trkpt lat="47.698209481313825" lon="11.398114850744605">
        <ele>613.389999999999986</ele>
        <time>2015-06-26T17:04:32Z</time>
      </trkpt>
      <trkpt lat="47.698837285861373" lon="11.398174446076155">
        <ele>614.190000000000055</ele>
        <time>2015-06-26T17:04:48Z</time>
      </trkpt>
      <trkpt lat="47.699473220854998" lon="11.398243932053447">
        <ele>614.279999999999973</ele>
        <time>2015-06-26T17:05:04Z</time>
      </trkpt>
      <trkpt lat="47.700226753950119" lon="11.398285087198019">
        <ele>613.639999999999986</ele>
        <time>2015-06-26T17:05:21Z</time>
      </trkpt>
      <trkpt lat="47.701221350580454" lon="11.398360272869468">
        <ele>613.899999999999977</ele>
        <time>2015-06-26T17:05:43Z</time>
      </trkpt>
      <trkpt lat="47.701974967494607" lon="11.39842682518065">
        <ele>613.960000000000036</ele>
        <time>2015-06-26T17:06:00Z</time>
      </trkpt>
      <trkpt lat="47.702810224145651" lon="11.398670403286815">
        <ele>614.100000000000023</ele>
        <time>2015-06-26T17:06:19Z</time>
      </trkpt>
      <trkpt lat="47.70344590768218" lon="11.399037279188633">
        <ele>613.92999999999995</ele>
        <time>2015-06-26T17:06:34Z</time>
      </trkpt>
      <trkpt lat="47.703488571569324" lon="11.39906058087945">
        <ele>613.899999999999977</ele>
        <time>2015-06-26T17:06:35Z</time>
      </trkpt>
      <trkpt lat="47.70370532758534" lon="11.399146914482117">
        <ele>613.559999999999945</ele>
        <time>2015-06-26T17:06:40Z</time>
      </trkpt>
      <trkpt lat="47.704365653917193" lon="11.399474563077092">
        <ele>613.450000000000045</ele>
        <time>2015-06-26T17:06:55Z</time>
      </trkpt>
      <trkpt lat="47.704608477652073" lon="11.399693582206964">
        <ele>613.370000000000005</ele>
        <time>2015-06-26T17:07:01Z</time>
      </trkpt>
      <trkpt lat="47.70518054254353" lon="11.40040579251945">
        <ele>613.990000000000009</ele>
        <time>2015-06-26T17:07:18Z</time>
      </trkpt>
      <trkpt lat="47.705618999898434" lon="11.400850620120764">
        <ele>613.889999999999986</ele>
        <time>2015-06-26T17:07:32Z</time>
      </trkpt>
      <trkpt lat="47.706209253519773" lon="11.401386223733425">
        <ele>614.57000000000005</ele>
        <time>2015-06-26T17:07:50Z</time>
      </trkpt>
      <trkpt lat="47.706352667883039" lon="11.401534164324403">
        <ele>615.059999999999945</ele>
        <time>2015-06-26T17:07:56Z</time>
      </trkpt>
      <trkpt lat="47.706357445567846" lon="11.401573307812214">
        <ele>615</ele>
        <time>2015-06-26T17:07:57Z</time>
      </trkpt>
      <trkpt lat="47.706351159140468" lon="11.401612283661962">
        <ele>615.269999999999982</ele>
        <time>2015-06-26T17:07:58Z</time>
      </trkpt>
      <trkpt lat="47.706342358142138" lon="11.40165327116847">
        <ele>615.039999999999964</ele>
        <time>2015-06-26T17:07:59Z</time>
      </trkpt>
      <trkpt lat="47.706338502466679" lon="11.401703059673309">
        <ele>615.240000000000009</ele>
        <time>2015-06-26T17:08:00Z</time>
      </trkpt>
      <trkpt lat="47.706343531608582" lon="11.401756284758449">
        <ele>615.080000000000041</ele>
        <time>2015-06-26T17:08:01Z</time>
      </trkpt>
      <trkpt lat="47.706357361748815" lon="11.401804899796844">
        <ele>615.049999999999955</ele>
        <time>2015-06-26T17:08:02Z</time>
      </trkpt>
      <trkpt lat="47.70638158544898" lon="11.401845132932067">
        <ele>615.25</ele>
        <time>2015-06-26T17:08:03Z</time>
      </trkpt>
      <trkpt lat="47.706412263214588" lon="11.40187656506896">
        <ele>615.340000000000032</ele>
        <time>2015-06-26T17:08:04Z</time>
      </trkpt>
      <trkpt lat="47.706444784998894" lon="11.401904979720712">
        <ele>615.480000000000018</ele>
        <time>2015-06-26T17:08:05Z</time>
      </trkpt>
      <trkpt lat="47.707089856266975" lon="11.402398673817515">
        <ele>615.230000000000018</ele>
        <time>2015-06-26T17:08:22Z</time>
      </trkpt>
      <trkpt lat="47.707110140472651" lon="11.402448797598481">
        <ele>614.919999999999959</ele>
        <time>2015-06-26T17:08:23Z</time>
      </trkpt>
      <trkpt lat="47.707120953127742" lon="11.402505459263921">
        <ele>614.769999999999982</ele>
        <time>2015-06-26T17:08:24Z</time>
      </trkpt>
      <trkpt lat="47.707124473527074" lon="11.402563378214836">
        <ele>614.789999999999964</ele>
        <time>2015-06-26T17:08:25Z</time>
      </trkpt>
      <trkpt lat="47.707124222069979" lon="11.402623811736703">
        <ele>614.899999999999977</ele>
        <time>2015-06-26T17:08:26Z</time>
      </trkpt>
      <trkpt lat="47.707119192928076" lon="11.402681060135365">
        <ele>615.200000000000045</ele>
        <time>2015-06-26T17:08:27Z</time>
      </trkpt>
      <trkpt lat="47.707114750519395" lon="11.402734033763409">
        <ele>615.17999999999995</ele>
        <time>2015-06-26T17:08:28Z</time>
      </trkpt>
      <trkpt lat="47.707110894843936" lon="11.402783151715994">
        <ele>615.110000000000014</ele>
        <time>2015-06-26T17:08:29Z</time>
      </trkpt>
      <trkpt lat="47.707046354189515" lon="11.403485387563705">
        <ele>615.730000000000018</ele>
        <time>2015-06-26T17:08:43Z</time>
      </trkpt>
      <trkpt lat="47.706979215145111" lon="11.404266245663166">
        <ele>616.580000000000041</ele>
        <time>2015-06-26T17:08:57Z</time>
      </trkpt>
      <trkpt lat="47.706928923726082" lon="11.404987340793014">
        <ele>617.399999999999977</ele>
        <time>2015-06-26T17:09:09Z</time>
      </trkpt>
      <trkpt lat="47.706875614821911" lon="11.40576995909214">
        <ele>618.580000000000041</ele>
        <time>2015-06-26T17:09:23Z</time>
      </trkpt>
      <trkpt lat="47.706840327009559" lon="11.406476302072406">
        <ele>619.509999999999991</ele>
        <time>2015-06-26T17:09:35Z</time>
      </trkpt>
      <trkpt lat="47.706809313967824" lon="11.406863126903772">
        <ele>619.740000000000009</ele>
        <time>2015-06-26T17:09:41Z</time>
      </trkpt>
      <trkpt lat="47.706801937893033" lon="11.406924063339829">
        <ele>619.620000000000005</ele>
        <time>2015-06-26T17:09:42Z</time>
      </trkpt>
      <trkpt lat="47.706746533513069" lon="11.407891502603889">
        <ele>620.470000000000027</ele>
        <time>2015-06-26T17:09:58Z</time>
      </trkpt>
      <trkpt lat="47.706726668402553" lon="11.408223425969481">
        <ele>620.909999999999968</ele>
        <time>2015-06-26T17:10:09Z</time>
      </trkpt>
      <trkpt lat="47.706746952608228" lon="11.408330630511045">
        <ele>619.899999999999977</ele>
        <time>2015-06-26T17:10:29Z</time>
      </trkpt>
      <trkpt lat="47.706754663959146" lon="11.408354351297021">
        <ele>619.940000000000055</ele>
        <time>2015-06-26T17:10:30Z</time>
      </trkpt>
      <trkpt lat="47.706768913194537" lon="11.408371785655618">
        <ele>619.730000000000018</ele>
        <time>2015-06-26T17:10:31Z</time>
      </trkpt>
      <trkpt lat="47.706784503534436" lon="11.4083865378052">
        <ele>620.009999999999991</ele>
        <time>2015-06-26T17:10:32Z</time>
      </trkpt>
      <trkpt lat="47.706804620102048" lon="11.408388214185834">
        <ele>620.370000000000005</ele>
        <time>2015-06-26T17:10:33Z</time>
      </trkpt>
      <trkpt lat="47.706826999783516" lon="11.408390644937754">
        <ele>619.840000000000032</ele>
        <time>2015-06-26T17:10:34Z</time>
      </trkpt>
      <trkpt lat="47.706857593730092" lon="11.408406235277653">
        <ele>620.289999999999964</ele>
        <time>2015-06-26T17:10:35Z</time>
      </trkpt>
      <trkpt lat="47.706898413598537" lon="11.408420065417886">
        <ele>619.779999999999973</ele>
        <time>2015-06-26T17:10:36Z</time>
      </trkpt>
      <trkpt lat="47.706939401105046" lon="11.408437835052609">
        <ele>620.049999999999955</ele>
        <time>2015-06-26T17:10:37Z</time>
      </trkpt>
      <trkpt lat="47.706974018365145" lon="11.408459208905697">
        <ele>619.710000000000036</ele>
        <time>2015-06-26T17:10:38Z</time>
      </trkpt>
      <trkpt lat="47.707136627286673" lon="11.408506734296679">
        <ele>619.92999999999995</ele>
        <time>2015-06-26T17:10:42Z</time>
      </trkpt>
      <trkpt lat="47.707177111878991" lon="11.408525509759784">
        <ele>619.590000000000032</ele>
        <time>2015-06-26T17:10:43Z</time>
      </trkpt>
      <trkpt lat="47.707216590642929" lon="11.408530371263623">
        <ele>619.360000000000014</ele>
        <time>2015-06-26T17:10:44Z</time>
      </trkpt>
      <trkpt lat="47.707252213731408" lon="11.408516373485327">
        <ele>619.25</ele>
        <time>2015-06-26T17:10:45Z</time>
      </trkpt>
      <trkpt lat="47.707279874011874" lon="11.408481169492006">
        <ele>618.75</ele>
        <time>2015-06-26T17:10:46Z</time>
      </trkpt>
      <trkpt lat="47.707298062741756" lon="11.408433644101024">
        <ele>618.360000000000014</ele>
        <time>2015-06-26T17:10:47Z</time>
      </trkpt>
      <trkpt lat="47.707305187359452" lon="11.408378994092345">
        <ele>618.779999999999973</ele>
        <time>2015-06-26T17:10:48Z</time>
      </trkpt>
      <trkpt lat="47.707311809062958" lon="11.408323002979159">
        <ele>618.82000000000005</ele>
        <time>2015-06-26T17:10:49Z</time>
      </trkpt>
      <trkpt lat="47.707330835983157" lon="11.40827564522624">
        <ele>618.659999999999968</ele>
        <time>2015-06-26T17:10:50Z</time>
      </trkpt>
      <trkpt lat="47.70736226812005" lon="11.408236585557461">
        <ele>618.610000000000014</ele>
        <time>2015-06-26T17:10:51Z</time>
      </trkpt>
      <trkpt lat="47.707405015826225" lon="11.408233651891351">
        <ele>618.610000000000014</ele>
        <time>2015-06-26T17:10:52Z</time>
      </trkpt>
      <trkpt lat="47.707451786845922" lon="11.408241866156459">
        <ele>619.039999999999964</ele>
        <time>2015-06-26T17:10:53Z</time>
      </trkpt>
      <trkpt lat="47.7074961271137" lon="11.408256366848946">
        <ele>618.600000000000023</ele>
        <time>2015-06-26T17:10:54Z</time>
      </trkpt>
      <trkpt lat="47.707541892305017" lon="11.408268939703703">
        <ele>618.399999999999977</ele>
        <time>2015-06-26T17:10:55Z</time>
      </trkpt>
      <trkpt lat="47.707583718001842" lon="11.408281596377492">
        <ele>618.879999999999995</ele>
        <time>2015-06-26T17:10:56Z</time>
      </trkpt>
      <trkpt lat="47.707627722993493" lon="11.408293666318059">
        <ele>618.779999999999973</ele>
        <time>2015-06-26T17:10:57Z</time>
      </trkpt>
      <trkpt lat="47.707898458465934" lon="11.408335408195853">
        <ele>618.350000000000023</ele>
        <time>2015-06-26T17:11:04Z</time>
      </trkpt>
      <trkpt lat="47.70792125724256" lon="11.408369857817888">
        <ele>618.169999999999959</ele>
        <time>2015-06-26T17:11:05Z</time>
      </trkpt>
      <trkpt lat="47.707934500649571" lon="11.408422579988837">
        <ele>618.25</ele>
        <time>2015-06-26T17:11:06Z</time>
      </trkpt>
      <trkpt lat="47.707936009392142" lon="11.408477565273643">
        <ele>617.82000000000005</ele>
        <time>2015-06-26T17:11:07Z</time>
      </trkpt>
      <trkpt lat="47.707933411002159" lon="11.408534059301019">
        <ele>618.269999999999982</ele>
        <time>2015-06-26T17:11:08Z</time>
      </trkpt>
      <trkpt lat="47.707983115687966" lon="11.409698305651546">
        <ele>619.450000000000045</ele>
        <time>2015-06-26T17:11:26Z</time>
      </trkpt>
      <trkpt lat="47.707994179800153" lon="11.410867748782039">
        <ele>620.370000000000005</ele>
        <time>2015-06-26T17:11:44Z</time>
      </trkpt>
      <trkpt lat="47.70794908516109" lon="11.411662939935923">
        <ele>621.330000000000041</ele>
        <time>2015-06-26T17:12:00Z</time>
      </trkpt>
      <trkpt lat="47.70796132273972" lon="11.411723708733916">
        <ele>621.200000000000045</ele>
        <time>2015-06-26T17:12:11Z</time>
      </trkpt>
      <trkpt lat="47.707991078495979" lon="11.411728318780661">
        <ele>621.710000000000036</ele>
        <time>2015-06-26T17:12:33Z</time>
      </trkpt>
      <trkpt lat="47.707989234477282" lon="11.41174684278667">
        <ele>621.590000000000032</ele>
        <time>2015-06-26T17:12:34Z</time>
      </trkpt>
      <trkpt lat="47.70798428915441" lon="11.411772239953279">
        <ele>621.769999999999982</ele>
        <time>2015-06-26T17:12:35Z</time>
      </trkpt>
      <trkpt lat="47.707978589460254" lon="11.411808365955949">
        <ele>621.730000000000018</ele>
        <time>2015-06-26T17:12:36Z</time>
      </trkpt>
      <trkpt lat="47.707976074889302" lon="11.411854634061456">
        <ele>621.289999999999964</ele>
        <time>2015-06-26T17:12:37Z</time>
      </trkpt>
      <trkpt lat="47.707972638309002" lon="11.411905763670802">
        <ele>622.039999999999964</ele>
        <time>2015-06-26T17:12:38Z</time>
      </trkpt>
      <trkpt lat="47.707842634990811" lon="11.412581345066428">
        <ele>622.759999999999991</ele>
        <time>2015-06-26T17:12:53Z</time>
      </trkpt>
      <trkpt lat="47.707820255309343" lon="11.412597773596644">
        <ele>622.67999999999995</ele>
        <time>2015-06-26T17:13:04Z</time>
      </trkpt>
      <trkpt lat="47.707825284451246" lon="11.412577573210001">
        <ele>622.990000000000009</ele>
        <time>2015-06-26T17:13:23Z</time>
      </trkpt>
      <trkpt lat="47.707820003852248" lon="11.412567682564259">
        <ele>622.5</ele>
        <time>2015-06-26T17:13:48Z</time>
      </trkpt>
      <trkpt lat="47.70777658559382" lon="11.41251252964139">
        <ele>622.909999999999968</ele>
        <time>2015-06-26T17:14:22Z</time>
      </trkpt>
      <trkpt lat="47.707764599472284" lon="11.41250129789114">
        <ele>623.269999999999982</ele>
        <time>2015-06-26T17:14:56Z</time>
      </trkpt>
      <trkpt lat="47.707785302773118" lon="11.412509512156248">
        <ele>623.07000000000005</ele>
        <time>2015-06-26T17:15:32Z</time>
      </trkpt>
      <trkpt lat="47.707781950011849" lon="11.412513954564929">
        <ele>623.129999999999995</ele>
        <time>2015-06-26T17:16:10Z</time>
      </trkpt>
      <trkpt lat="47.707784883677959" lon="11.412507584318519">
        <ele>623.129999999999995</ele>
        <time>2015-06-26T17:16:45Z</time>
      </trkpt>
      <trkpt lat="47.707788990810513" lon="11.412502052262425">
        <ele>623.360000000000014</ele>
        <time>2015-06-26T17:16:58Z</time>
      </trkpt>
      <trkpt lat="47.707787817344069" lon="11.412497609853745">
        <ele>623.190000000000055</ele>
        <time>2015-06-26T17:17:02Z</time>
      </trkpt>
    </trkseg>
  </trk>

</gpx>
